<?xml version="1.0" encoding="UTF-8" standalone="no" ?>
<gpx xmlns="http://www.topografix.com/GPX/1/1" xmlns:xsi="http://www.w3.org/2001/XMLSchema-instance" xsi:schemaLocation="http://www.topografix.com/GPX/1/1 http://www.topografix.com/GPX/1/1/gpx.xsd" version="1.1" creator="VisuGPX - https://www.visugpx.com">
  <metadata>
    <name>Coulevon Bellenoye (seul)</name>
    <desc><![CDATA[Lundi 15 octobtre 2018 : je suis parti seul par un bel après-midi et j'ai fait la descente sur Bellenoye. Sur un terrain très sec, ça va bien. Ensuite 4,5 km de route pour rallier Colombier. Le reste du parcours est bien connu.
Grand soleil, température exceptionnelle pour la saison.
NB : Au lieu de descendre vers Bellenoye, on doit pouvoir descendre vers Les Brûleux (à explorer)
 ]]></desc>
  </metadata>
  <wpt lat="47.64426" lon="6.18279">
    <ele>228</ele>
    <name><![CDATA[0000061]]></name>
  </wpt>
  <wpt lat="47.64436" lon="6.18318">
    <ele>230</ele>
    <name><![CDATA[0000062]]></name>
  </wpt>
  <trk>
    <name><![CDATA[2018-10-15 16:03]]></name>
    <trkseg>
      <trkpt lat="47.64426" lon="6.18279">
        <ele>228</ele>
        <time>2018-10-15T14:03:03Z</time>
      </trkpt>
      <trkpt lat="47.64428" lon="6.18287">
        <ele>229</ele>
        <time>2018-10-15T14:03:06Z</time>
      </trkpt>
      <trkpt lat="47.64427" lon="6.18295">
        <ele>229</ele>
        <time>2018-10-15T14:03:13Z</time>
      </trkpt>
      <trkpt lat="47.64432" lon="6.183">
        <ele>230</ele>
        <time>2018-10-15T14:03:16Z</time>
      </trkpt>
      <trkpt lat="47.64436" lon="6.18301">
        <ele>230</ele>
        <time>2018-10-15T14:03:18Z</time>
      </trkpt>
      <trkpt lat="47.64441" lon="6.18299">
        <ele>230</ele>
        <time>2018-10-15T14:03:20Z</time>
      </trkpt>
      <trkpt lat="47.64446" lon="6.18295">
        <ele>231</ele>
        <time>2018-10-15T14:03:22Z</time>
      </trkpt>
      <trkpt lat="47.64449" lon="6.18291">
        <ele>231</ele>
        <time>2018-10-15T14:03:24Z</time>
      </trkpt>
      <trkpt lat="47.64453" lon="6.18286">
        <ele>231</ele>
        <time>2018-10-15T14:03:26Z</time>
      </trkpt>
      <trkpt lat="47.64456" lon="6.18281">
        <ele>231</ele>
        <time>2018-10-15T14:03:28Z</time>
      </trkpt>
      <trkpt lat="47.6446" lon="6.18276">
        <ele>230</ele>
        <time>2018-10-15T14:03:30Z</time>
      </trkpt>
      <trkpt lat="47.64464" lon="6.18269">
        <ele>230</ele>
        <time>2018-10-15T14:03:32Z</time>
      </trkpt>
      <trkpt lat="47.64469" lon="6.18263">
        <ele>231</ele>
        <time>2018-10-15T14:03:34Z</time>
      </trkpt>
      <trkpt lat="47.64474" lon="6.18257">
        <ele>231</ele>
        <time>2018-10-15T14:03:35Z</time>
      </trkpt>
      <trkpt lat="47.64477" lon="6.18252">
        <ele>231</ele>
        <time>2018-10-15T14:03:36Z</time>
      </trkpt>
      <trkpt lat="47.6448" lon="6.18246">
        <ele>228</ele>
        <time>2018-10-15T14:03:37Z</time>
      </trkpt>
      <trkpt lat="47.64483" lon="6.18241">
        <ele>228</ele>
        <time>2018-10-15T14:03:38Z</time>
      </trkpt>
      <trkpt lat="47.64487" lon="6.1823">
        <ele>227</ele>
        <time>2018-10-15T14:03:40Z</time>
      </trkpt>
      <trkpt lat="47.64491" lon="6.1822">
        <ele>227</ele>
        <time>2018-10-15T14:03:42Z</time>
      </trkpt>
      <trkpt lat="47.64494" lon="6.18212">
        <ele>226</ele>
        <time>2018-10-15T14:03:44Z</time>
      </trkpt>
      <trkpt lat="47.64497" lon="6.18202">
        <ele>226</ele>
        <time>2018-10-15T14:03:46Z</time>
      </trkpt>
      <trkpt lat="47.64499" lon="6.18192">
        <ele>226</ele>
        <time>2018-10-15T14:03:48Z</time>
      </trkpt>
      <trkpt lat="47.645" lon="6.18185">
        <ele>231</ele>
        <time>2018-10-15T14:03:49Z</time>
      </trkpt>
      <trkpt lat="47.645" lon="6.18178">
        <ele>229</ele>
        <time>2018-10-15T14:03:50Z</time>
      </trkpt>
      <trkpt lat="47.64499" lon="6.1817">
        <ele>225</ele>
        <time>2018-10-15T14:03:51Z</time>
      </trkpt>
      <trkpt lat="47.64497" lon="6.18164">
        <ele>225</ele>
        <time>2018-10-15T14:03:52Z</time>
      </trkpt>
      <trkpt lat="47.64495" lon="6.18156">
        <ele>224</ele>
        <time>2018-10-15T14:03:53Z</time>
      </trkpt>
      <trkpt lat="47.64493" lon="6.18149">
        <ele>224</ele>
        <time>2018-10-15T14:03:54Z</time>
      </trkpt>
      <trkpt lat="47.64492" lon="6.18142">
        <ele>224</ele>
        <time>2018-10-15T14:03:55Z</time>
      </trkpt>
      <trkpt lat="47.64492" lon="6.18135">
        <ele>224</ele>
        <time>2018-10-15T14:03:56Z</time>
      </trkpt>
      <trkpt lat="47.64493" lon="6.18123">
        <ele>224</ele>
        <time>2018-10-15T14:03:58Z</time>
      </trkpt>
      <trkpt lat="47.64496" lon="6.18111">
        <ele>223</ele>
        <time>2018-10-15T14:04:00Z</time>
      </trkpt>
      <trkpt lat="47.64498" lon="6.181">
        <ele>223</ele>
        <time>2018-10-15T14:04:02Z</time>
      </trkpt>
      <trkpt lat="47.64501" lon="6.1809">
        <ele>225</ele>
        <time>2018-10-15T14:04:04Z</time>
      </trkpt>
      <trkpt lat="47.64503" lon="6.1808">
        <ele>224</ele>
        <time>2018-10-15T14:04:06Z</time>
      </trkpt>
      <trkpt lat="47.64506" lon="6.1807">
        <ele>226</ele>
        <time>2018-10-15T14:04:08Z</time>
      </trkpt>
      <trkpt lat="47.64509" lon="6.18061">
        <ele>227</ele>
        <time>2018-10-15T14:04:10Z</time>
      </trkpt>
      <trkpt lat="47.64512" lon="6.18051">
        <ele>228</ele>
        <time>2018-10-15T14:04:12Z</time>
      </trkpt>
      <trkpt lat="47.64517" lon="6.18044">
        <ele>228</ele>
        <time>2018-10-15T14:04:14Z</time>
      </trkpt>
      <trkpt lat="47.64522" lon="6.18037">
        <ele>228</ele>
        <time>2018-10-15T14:04:17Z</time>
      </trkpt>
      <trkpt lat="47.64527" lon="6.18031">
        <ele>228</ele>
        <time>2018-10-15T14:04:19Z</time>
      </trkpt>
      <trkpt lat="47.64531" lon="6.18027">
        <ele>229</ele>
        <time>2018-10-15T14:04:21Z</time>
      </trkpt>
      <trkpt lat="47.64534" lon="6.18022">
        <ele>229</ele>
        <time>2018-10-15T14:04:23Z</time>
      </trkpt>
      <trkpt lat="47.64537" lon="6.18016">
        <ele>229</ele>
        <time>2018-10-15T14:04:25Z</time>
      </trkpt>
      <trkpt lat="47.6454" lon="6.18008">
        <ele>229</ele>
        <time>2018-10-15T14:04:27Z</time>
      </trkpt>
      <trkpt lat="47.64543" lon="6.18001">
        <ele>229</ele>
        <time>2018-10-15T14:04:29Z</time>
      </trkpt>
      <trkpt lat="47.64547" lon="6.17991">
        <ele>227</ele>
        <time>2018-10-15T14:04:31Z</time>
      </trkpt>
      <trkpt lat="47.6455" lon="6.17982">
        <ele>227</ele>
        <time>2018-10-15T14:04:33Z</time>
      </trkpt>
      <trkpt lat="47.64553" lon="6.17971">
        <ele>226</ele>
        <time>2018-10-15T14:04:35Z</time>
      </trkpt>
      <trkpt lat="47.64558" lon="6.17955">
        <ele>226</ele>
        <time>2018-10-15T14:04:36Z</time>
      </trkpt>
      <trkpt lat="47.6456" lon="6.17947">
        <ele>226</ele>
        <time>2018-10-15T14:04:37Z</time>
      </trkpt>
      <trkpt lat="47.64562" lon="6.17939">
        <ele>225</ele>
        <time>2018-10-15T14:04:38Z</time>
      </trkpt>
      <trkpt lat="47.64565" lon="6.17932">
        <ele>225</ele>
        <time>2018-10-15T14:04:39Z</time>
      </trkpt>
      <trkpt lat="47.64568" lon="6.17925">
        <ele>225</ele>
        <time>2018-10-15T14:04:40Z</time>
      </trkpt>
      <trkpt lat="47.64573" lon="6.17919">
        <ele>225</ele>
        <time>2018-10-15T14:04:41Z</time>
      </trkpt>
      <trkpt lat="47.64579" lon="6.17913">
        <ele>224</ele>
        <time>2018-10-15T14:04:42Z</time>
      </trkpt>
      <trkpt lat="47.64584" lon="6.17907">
        <ele>224</ele>
        <time>2018-10-15T14:04:43Z</time>
      </trkpt>
      <trkpt lat="47.64589" lon="6.17901">
        <ele>224</ele>
        <time>2018-10-15T14:04:44Z</time>
      </trkpt>
      <trkpt lat="47.64595" lon="6.17895">
        <ele>223</ele>
        <time>2018-10-15T14:04:45Z</time>
      </trkpt>
      <trkpt lat="47.64601" lon="6.17891">
        <ele>223</ele>
        <time>2018-10-15T14:04:46Z</time>
      </trkpt>
      <trkpt lat="47.64607" lon="6.17888">
        <ele>223</ele>
        <time>2018-10-15T14:04:47Z</time>
      </trkpt>
      <trkpt lat="47.64613" lon="6.17887">
        <ele>223</ele>
        <time>2018-10-15T14:04:48Z</time>
      </trkpt>
      <trkpt lat="47.64618" lon="6.17886">
        <ele>223</ele>
        <time>2018-10-15T14:04:49Z</time>
      </trkpt>
      <trkpt lat="47.64624" lon="6.17887">
        <ele>223</ele>
        <time>2018-10-15T14:04:50Z</time>
      </trkpt>
      <trkpt lat="47.64629" lon="6.17889">
        <ele>223</ele>
        <time>2018-10-15T14:04:51Z</time>
      </trkpt>
      <trkpt lat="47.64634" lon="6.17891">
        <ele>223</ele>
        <time>2018-10-15T14:04:52Z</time>
      </trkpt>
      <trkpt lat="47.6464" lon="6.17894">
        <ele>223</ele>
        <time>2018-10-15T14:04:53Z</time>
      </trkpt>
      <trkpt lat="47.64645" lon="6.17897">
        <ele>223</ele>
        <time>2018-10-15T14:04:54Z</time>
      </trkpt>
      <trkpt lat="47.6465" lon="6.179">
        <ele>223</ele>
        <time>2018-10-15T14:04:55Z</time>
      </trkpt>
      <trkpt lat="47.64655" lon="6.17902">
        <ele>222</ele>
        <time>2018-10-15T14:04:56Z</time>
      </trkpt>
      <trkpt lat="47.6466" lon="6.17905">
        <ele>222</ele>
        <time>2018-10-15T14:04:57Z</time>
      </trkpt>
      <trkpt lat="47.64664" lon="6.17908">
        <ele>222</ele>
        <time>2018-10-15T14:04:58Z</time>
      </trkpt>
      <trkpt lat="47.64669" lon="6.1791">
        <ele>222</ele>
        <time>2018-10-15T14:04:59Z</time>
      </trkpt>
      <trkpt lat="47.64673" lon="6.17913">
        <ele>222</ele>
        <time>2018-10-15T14:05:00Z</time>
      </trkpt>
      <trkpt lat="47.64677" lon="6.17917">
        <ele>223</ele>
        <time>2018-10-15T14:05:01Z</time>
      </trkpt>
      <trkpt lat="47.64682" lon="6.17921">
        <ele>223</ele>
        <time>2018-10-15T14:05:02Z</time>
      </trkpt>
      <trkpt lat="47.64686" lon="6.17925">
        <ele>223</ele>
        <time>2018-10-15T14:05:03Z</time>
      </trkpt>
      <trkpt lat="47.6469" lon="6.1793">
        <ele>223</ele>
        <time>2018-10-15T14:05:04Z</time>
      </trkpt>
      <trkpt lat="47.64694" lon="6.17934">
        <ele>224</ele>
        <time>2018-10-15T14:05:05Z</time>
      </trkpt>
      <trkpt lat="47.64697" lon="6.17939">
        <ele>224</ele>
        <time>2018-10-15T14:05:06Z</time>
      </trkpt>
      <trkpt lat="47.64701" lon="6.17943">
        <ele>224</ele>
        <time>2018-10-15T14:05:07Z</time>
      </trkpt>
      <trkpt lat="47.64704" lon="6.17948">
        <ele>224</ele>
        <time>2018-10-15T14:05:08Z</time>
      </trkpt>
      <trkpt lat="47.64707" lon="6.17953">
        <ele>224</ele>
        <time>2018-10-15T14:05:09Z</time>
      </trkpt>
      <trkpt lat="47.6471" lon="6.17958">
        <ele>224</ele>
        <time>2018-10-15T14:05:10Z</time>
      </trkpt>
      <trkpt lat="47.64716" lon="6.17967">
        <ele>224</ele>
        <time>2018-10-15T14:05:12Z</time>
      </trkpt>
      <trkpt lat="47.64719" lon="6.17972">
        <ele>224</ele>
        <time>2018-10-15T14:05:13Z</time>
      </trkpt>
      <trkpt lat="47.64723" lon="6.17977">
        <ele>224</ele>
        <time>2018-10-15T14:05:14Z</time>
      </trkpt>
      <trkpt lat="47.64729" lon="6.17987">
        <ele>224</ele>
        <time>2018-10-15T14:05:16Z</time>
      </trkpt>
      <trkpt lat="47.64735" lon="6.17997">
        <ele>223</ele>
        <time>2018-10-15T14:05:18Z</time>
      </trkpt>
      <trkpt lat="47.6474" lon="6.18006">
        <ele>226</ele>
        <time>2018-10-15T14:05:20Z</time>
      </trkpt>
      <trkpt lat="47.64746" lon="6.18016">
        <ele>228</ele>
        <time>2018-10-15T14:05:22Z</time>
      </trkpt>
      <trkpt lat="47.64752" lon="6.18026">
        <ele>225</ele>
        <time>2018-10-15T14:05:24Z</time>
      </trkpt>
      <trkpt lat="47.64758" lon="6.18035">
        <ele>226</ele>
        <time>2018-10-15T14:05:26Z</time>
      </trkpt>
      <trkpt lat="47.64765" lon="6.18044">
        <ele>227</ele>
        <time>2018-10-15T14:05:28Z</time>
      </trkpt>
      <trkpt lat="47.64772" lon="6.18052">
        <ele>228</ele>
        <time>2018-10-15T14:05:30Z</time>
      </trkpt>
      <trkpt lat="47.64776" lon="6.18056">
        <ele>228</ele>
        <time>2018-10-15T14:05:31Z</time>
      </trkpt>
      <trkpt lat="47.6478" lon="6.18059">
        <ele>228</ele>
        <time>2018-10-15T14:05:32Z</time>
      </trkpt>
      <trkpt lat="47.64785" lon="6.18062">
        <ele>228</ele>
        <time>2018-10-15T14:05:33Z</time>
      </trkpt>
      <trkpt lat="47.64789" lon="6.18064">
        <ele>227</ele>
        <time>2018-10-15T14:05:34Z</time>
      </trkpt>
      <trkpt lat="47.64794" lon="6.18066">
        <ele>227</ele>
        <time>2018-10-15T14:05:35Z</time>
      </trkpt>
      <trkpt lat="47.64798" lon="6.18067">
        <ele>227</ele>
        <time>2018-10-15T14:05:36Z</time>
      </trkpt>
      <trkpt lat="47.64803" lon="6.18069">
        <ele>227</ele>
        <time>2018-10-15T14:05:37Z</time>
      </trkpt>
      <trkpt lat="47.64808" lon="6.1807">
        <ele>227</ele>
        <time>2018-10-15T14:05:38Z</time>
      </trkpt>
      <trkpt lat="47.64813" lon="6.18071">
        <ele>226</ele>
        <time>2018-10-15T14:05:39Z</time>
      </trkpt>
      <trkpt lat="47.64817" lon="6.18071">
        <ele>226</ele>
        <time>2018-10-15T14:05:40Z</time>
      </trkpt>
      <trkpt lat="47.64822" lon="6.18072">
        <ele>226</ele>
        <time>2018-10-15T14:05:41Z</time>
      </trkpt>
      <trkpt lat="47.6483" lon="6.18072">
        <ele>226</ele>
        <time>2018-10-15T14:05:43Z</time>
      </trkpt>
      <trkpt lat="47.64837" lon="6.18074">
        <ele>225</ele>
        <time>2018-10-15T14:05:45Z</time>
      </trkpt>
      <trkpt lat="47.64844" lon="6.18076">
        <ele>225</ele>
        <time>2018-10-15T14:05:47Z</time>
      </trkpt>
      <trkpt lat="47.6485" lon="6.18078">
        <ele>225</ele>
        <time>2018-10-15T14:05:49Z</time>
      </trkpt>
      <trkpt lat="47.64858" lon="6.1808">
        <ele>225</ele>
        <time>2018-10-15T14:05:51Z</time>
      </trkpt>
      <trkpt lat="47.64865" lon="6.18082">
        <ele>226</ele>
        <time>2018-10-15T14:05:53Z</time>
      </trkpt>
      <trkpt lat="47.64873" lon="6.18084">
        <ele>229</ele>
        <time>2018-10-15T14:05:55Z</time>
      </trkpt>
      <trkpt lat="47.64882" lon="6.18086">
        <ele>229</ele>
        <time>2018-10-15T14:05:57Z</time>
      </trkpt>
      <trkpt lat="47.64886" lon="6.18087">
        <ele>229</ele>
        <time>2018-10-15T14:05:58Z</time>
      </trkpt>
      <trkpt lat="47.64891" lon="6.18089">
        <ele>229</ele>
        <time>2018-10-15T14:05:59Z</time>
      </trkpt>
      <trkpt lat="47.64895" lon="6.1809">
        <ele>229</ele>
        <time>2018-10-15T14:06:00Z</time>
      </trkpt>
      <trkpt lat="47.649" lon="6.18091">
        <ele>229</ele>
        <time>2018-10-15T14:06:01Z</time>
      </trkpt>
      <trkpt lat="47.64904" lon="6.18092">
        <ele>229</ele>
        <time>2018-10-15T14:06:02Z</time>
      </trkpt>
      <trkpt lat="47.64909" lon="6.18093">
        <ele>229</ele>
        <time>2018-10-15T14:06:03Z</time>
      </trkpt>
      <trkpt lat="47.64914" lon="6.18093">
        <ele>228</ele>
        <time>2018-10-15T14:06:04Z</time>
      </trkpt>
      <trkpt lat="47.64922" lon="6.18096">
        <ele>230</ele>
        <time>2018-10-15T14:06:06Z</time>
      </trkpt>
      <trkpt lat="47.6493" lon="6.18098">
        <ele>231</ele>
        <time>2018-10-15T14:06:08Z</time>
      </trkpt>
      <trkpt lat="47.64939" lon="6.18099">
        <ele>231</ele>
        <time>2018-10-15T14:06:10Z</time>
      </trkpt>
      <trkpt lat="47.64948" lon="6.18101">
        <ele>232</ele>
        <time>2018-10-15T14:06:12Z</time>
      </trkpt>
      <trkpt lat="47.64956" lon="6.18102">
        <ele>232</ele>
        <time>2018-10-15T14:06:14Z</time>
      </trkpt>
      <trkpt lat="47.64965" lon="6.18101">
        <ele>233</ele>
        <time>2018-10-15T14:06:16Z</time>
      </trkpt>
      <trkpt lat="47.64973" lon="6.181">
        <ele>232</ele>
        <time>2018-10-15T14:06:18Z</time>
      </trkpt>
      <trkpt lat="47.64982" lon="6.18099">
        <ele>232</ele>
        <time>2018-10-15T14:06:20Z</time>
      </trkpt>
      <trkpt lat="47.64987" lon="6.18098">
        <ele>232</ele>
        <time>2018-10-15T14:06:21Z</time>
      </trkpt>
      <trkpt lat="47.64991" lon="6.18097">
        <ele>232</ele>
        <time>2018-10-15T14:06:22Z</time>
      </trkpt>
      <trkpt lat="47.64996" lon="6.18096">
        <ele>232</ele>
        <time>2018-10-15T14:06:23Z</time>
      </trkpt>
      <trkpt lat="47.65001" lon="6.18096">
        <ele>233</ele>
        <time>2018-10-15T14:06:24Z</time>
      </trkpt>
      <trkpt lat="47.65006" lon="6.18095">
        <ele>233</ele>
        <time>2018-10-15T14:06:25Z</time>
      </trkpt>
      <trkpt lat="47.6501" lon="6.18095">
        <ele>233</ele>
        <time>2018-10-15T14:06:26Z</time>
      </trkpt>
      <trkpt lat="47.65015" lon="6.18095">
        <ele>234</ele>
        <time>2018-10-15T14:06:27Z</time>
      </trkpt>
      <trkpt lat="47.65024" lon="6.18095">
        <ele>235</ele>
        <time>2018-10-15T14:06:29Z</time>
      </trkpt>
      <trkpt lat="47.65028" lon="6.18094">
        <ele>235</ele>
        <time>2018-10-15T14:06:30Z</time>
      </trkpt>
      <trkpt lat="47.65033" lon="6.18094">
        <ele>235</ele>
        <time>2018-10-15T14:06:31Z</time>
      </trkpt>
      <trkpt lat="47.65042" lon="6.18094">
        <ele>235</ele>
        <time>2018-10-15T14:06:33Z</time>
      </trkpt>
      <trkpt lat="47.6505" lon="6.18094">
        <ele>235</ele>
        <time>2018-10-15T14:06:35Z</time>
      </trkpt>
      <trkpt lat="47.65055" lon="6.18094">
        <ele>235</ele>
        <time>2018-10-15T14:06:36Z</time>
      </trkpt>
      <trkpt lat="47.6506" lon="6.18094">
        <ele>235</ele>
        <time>2018-10-15T14:06:37Z</time>
      </trkpt>
      <trkpt lat="47.65067" lon="6.18094">
        <ele>234</ele>
        <time>2018-10-15T14:06:39Z</time>
      </trkpt>
      <trkpt lat="47.65072" lon="6.18096">
        <ele>234</ele>
        <time>2018-10-15T14:06:40Z</time>
      </trkpt>
      <trkpt lat="47.65077" lon="6.18097">
        <ele>234</ele>
        <time>2018-10-15T14:06:41Z</time>
      </trkpt>
      <trkpt lat="47.65082" lon="6.18099">
        <ele>234</ele>
        <time>2018-10-15T14:06:42Z</time>
      </trkpt>
      <trkpt lat="47.65087" lon="6.181">
        <ele>236</ele>
        <time>2018-10-15T14:06:43Z</time>
      </trkpt>
      <trkpt lat="47.65091" lon="6.18101">
        <ele>236</ele>
        <time>2018-10-15T14:06:44Z</time>
      </trkpt>
      <trkpt lat="47.651" lon="6.18101">
        <ele>237</ele>
        <time>2018-10-15T14:06:46Z</time>
      </trkpt>
      <trkpt lat="47.65105" lon="6.18101">
        <ele>237</ele>
        <time>2018-10-15T14:06:47Z</time>
      </trkpt>
      <trkpt lat="47.6511" lon="6.181">
        <ele>237</ele>
        <time>2018-10-15T14:06:48Z</time>
      </trkpt>
      <trkpt lat="47.65118" lon="6.18096">
        <ele>238</ele>
        <time>2018-10-15T14:06:50Z</time>
      </trkpt>
      <trkpt lat="47.65127" lon="6.18092">
        <ele>238</ele>
        <time>2018-10-15T14:06:52Z</time>
      </trkpt>
      <trkpt lat="47.65135" lon="6.18088">
        <ele>238</ele>
        <time>2018-10-15T14:06:54Z</time>
      </trkpt>
      <trkpt lat="47.65142" lon="6.18082">
        <ele>232</ele>
        <time>2018-10-15T14:06:56Z</time>
      </trkpt>
      <trkpt lat="47.65149" lon="6.18076">
        <ele>232</ele>
        <time>2018-10-15T14:06:58Z</time>
      </trkpt>
      <trkpt lat="47.65156" lon="6.18068">
        <ele>232</ele>
        <time>2018-10-15T14:07:00Z</time>
      </trkpt>
      <trkpt lat="47.65163" lon="6.18059">
        <ele>231</ele>
        <time>2018-10-15T14:07:02Z</time>
      </trkpt>
      <trkpt lat="47.65166" lon="6.18054">
        <ele>231</ele>
        <time>2018-10-15T14:07:03Z</time>
      </trkpt>
      <trkpt lat="47.65172" lon="6.18045">
        <ele>231</ele>
        <time>2018-10-15T14:07:05Z</time>
      </trkpt>
      <trkpt lat="47.65177" lon="6.18036">
        <ele>231</ele>
        <time>2018-10-15T14:07:07Z</time>
      </trkpt>
      <trkpt lat="47.65182" lon="6.18027">
        <ele>230</ele>
        <time>2018-10-15T14:07:09Z</time>
      </trkpt>
      <trkpt lat="47.65187" lon="6.1802">
        <ele>230</ele>
        <time>2018-10-15T14:07:11Z</time>
      </trkpt>
      <trkpt lat="47.65191" lon="6.18013">
        <ele>229</ele>
        <time>2018-10-15T14:07:13Z</time>
      </trkpt>
      <trkpt lat="47.65196" lon="6.18007">
        <ele>229</ele>
        <time>2018-10-15T14:07:15Z</time>
      </trkpt>
      <trkpt lat="47.65201" lon="6.18001">
        <ele>230</ele>
        <time>2018-10-15T14:07:17Z</time>
      </trkpt>
      <trkpt lat="47.65205" lon="6.17997">
        <ele>226</ele>
        <time>2018-10-15T14:07:19Z</time>
      </trkpt>
      <trkpt lat="47.6521" lon="6.17992">
        <ele>226</ele>
        <time>2018-10-15T14:07:21Z</time>
      </trkpt>
      <trkpt lat="47.65216" lon="6.17987">
        <ele>226</ele>
        <time>2018-10-15T14:07:23Z</time>
      </trkpt>
      <trkpt lat="47.65225" lon="6.17981">
        <ele>227</ele>
        <time>2018-10-15T14:07:25Z</time>
      </trkpt>
      <trkpt lat="47.65233" lon="6.17978">
        <ele>227</ele>
        <time>2018-10-15T14:07:27Z</time>
      </trkpt>
      <trkpt lat="47.65238" lon="6.17977">
        <ele>227</ele>
        <time>2018-10-15T14:07:28Z</time>
      </trkpt>
      <trkpt lat="47.65246" lon="6.17978">
        <ele>227</ele>
        <time>2018-10-15T14:07:30Z</time>
      </trkpt>
      <trkpt lat="47.65254" lon="6.17979">
        <ele>227</ele>
        <time>2018-10-15T14:07:32Z</time>
      </trkpt>
      <trkpt lat="47.65262" lon="6.17984">
        <ele>227</ele>
        <time>2018-10-15T14:07:34Z</time>
      </trkpt>
      <trkpt lat="47.65266" lon="6.17986">
        <ele>227</ele>
        <time>2018-10-15T14:07:35Z</time>
      </trkpt>
      <trkpt lat="47.65273" lon="6.17995">
        <ele>227</ele>
        <time>2018-10-15T14:07:37Z</time>
      </trkpt>
      <trkpt lat="47.65277" lon="6.18">
        <ele>229</ele>
        <time>2018-10-15T14:07:38Z</time>
      </trkpt>
      <trkpt lat="47.6528" lon="6.18006">
        <ele>229</ele>
        <time>2018-10-15T14:07:39Z</time>
      </trkpt>
      <trkpt lat="47.65283" lon="6.18012">
        <ele>229</ele>
        <time>2018-10-15T14:07:40Z</time>
      </trkpt>
      <trkpt lat="47.65286" lon="6.18018">
        <ele>230</ele>
        <time>2018-10-15T14:07:41Z</time>
      </trkpt>
      <trkpt lat="47.65289" lon="6.18024">
        <ele>230</ele>
        <time>2018-10-15T14:07:42Z</time>
      </trkpt>
      <trkpt lat="47.65293" lon="6.18031">
        <ele>230</ele>
        <time>2018-10-15T14:07:43Z</time>
      </trkpt>
      <trkpt lat="47.65295" lon="6.18038">
        <ele>230</ele>
        <time>2018-10-15T14:07:44Z</time>
      </trkpt>
      <trkpt lat="47.65296" lon="6.18045">
        <ele>230</ele>
        <time>2018-10-15T14:07:45Z</time>
      </trkpt>
      <trkpt lat="47.65298" lon="6.18053">
        <ele>230</ele>
        <time>2018-10-15T14:07:46Z</time>
      </trkpt>
      <trkpt lat="47.65299" lon="6.18061">
        <ele>230</ele>
        <time>2018-10-15T14:07:47Z</time>
      </trkpt>
      <trkpt lat="47.653" lon="6.18069">
        <ele>230</ele>
        <time>2018-10-15T14:07:48Z</time>
      </trkpt>
      <trkpt lat="47.65301" lon="6.18076">
        <ele>230</ele>
        <time>2018-10-15T14:07:49Z</time>
      </trkpt>
      <trkpt lat="47.65301" lon="6.18084">
        <ele>235</ele>
        <time>2018-10-15T14:07:50Z</time>
      </trkpt>
      <trkpt lat="47.65302" lon="6.18092">
        <ele>235</ele>
        <time>2018-10-15T14:07:51Z</time>
      </trkpt>
      <trkpt lat="47.65302" lon="6.181">
        <ele>235</ele>
        <time>2018-10-15T14:07:52Z</time>
      </trkpt>
      <trkpt lat="47.65303" lon="6.18107">
        <ele>235</ele>
        <time>2018-10-15T14:07:53Z</time>
      </trkpt>
      <trkpt lat="47.65304" lon="6.18114">
        <ele>235</ele>
        <time>2018-10-15T14:07:54Z</time>
      </trkpt>
      <trkpt lat="47.65305" lon="6.18121">
        <ele>236</ele>
        <time>2018-10-15T14:07:55Z</time>
      </trkpt>
      <trkpt lat="47.65307" lon="6.18127">
        <ele>236</ele>
        <time>2018-10-15T14:07:56Z</time>
      </trkpt>
      <trkpt lat="47.6531" lon="6.18139">
        <ele>236</ele>
        <time>2018-10-15T14:07:58Z</time>
      </trkpt>
      <trkpt lat="47.65314" lon="6.18151">
        <ele>235</ele>
        <time>2018-10-15T14:08:00Z</time>
      </trkpt>
      <trkpt lat="47.65319" lon="6.18161">
        <ele>234</ele>
        <time>2018-10-15T14:08:02Z</time>
      </trkpt>
      <trkpt lat="47.65322" lon="6.18166">
        <ele>233</ele>
        <time>2018-10-15T14:08:03Z</time>
      </trkpt>
      <trkpt lat="47.65327" lon="6.18176">
        <ele>235</ele>
        <time>2018-10-15T14:08:05Z</time>
      </trkpt>
      <trkpt lat="47.65331" lon="6.18181">
        <ele>237</ele>
        <time>2018-10-15T14:08:06Z</time>
      </trkpt>
      <trkpt lat="47.65337" lon="6.18189">
        <ele>232</ele>
        <time>2018-10-15T14:08:08Z</time>
      </trkpt>
      <trkpt lat="47.65344" lon="6.18196">
        <ele>232</ele>
        <time>2018-10-15T14:08:10Z</time>
      </trkpt>
      <trkpt lat="47.6535" lon="6.18202">
        <ele>232</ele>
        <time>2018-10-15T14:08:12Z</time>
      </trkpt>
      <trkpt lat="47.65357" lon="6.18207">
        <ele>232</ele>
        <time>2018-10-15T14:08:14Z</time>
      </trkpt>
      <trkpt lat="47.65363" lon="6.18213">
        <ele>232</ele>
        <time>2018-10-15T14:08:16Z</time>
      </trkpt>
      <trkpt lat="47.6537" lon="6.18219">
        <ele>232</ele>
        <time>2018-10-15T14:08:18Z</time>
      </trkpt>
      <trkpt lat="47.65376" lon="6.18224">
        <ele>232</ele>
        <time>2018-10-15T14:08:20Z</time>
      </trkpt>
      <trkpt lat="47.65382" lon="6.18228">
        <ele>232</ele>
        <time>2018-10-15T14:08:22Z</time>
      </trkpt>
      <trkpt lat="47.65388" lon="6.18232">
        <ele>232</ele>
        <time>2018-10-15T14:08:24Z</time>
      </trkpt>
      <trkpt lat="47.65392" lon="6.18236">
        <ele>231</ele>
        <time>2018-10-15T14:08:26Z</time>
      </trkpt>
      <trkpt lat="47.65396" lon="6.1824">
        <ele>231</ele>
        <time>2018-10-15T14:08:28Z</time>
      </trkpt>
      <trkpt lat="47.65401" lon="6.18243">
        <ele>231</ele>
        <time>2018-10-15T14:08:30Z</time>
      </trkpt>
      <trkpt lat="47.65406" lon="6.18247">
        <ele>230</ele>
        <time>2018-10-15T14:08:32Z</time>
      </trkpt>
      <trkpt lat="47.65411" lon="6.1825">
        <ele>232</ele>
        <time>2018-10-15T14:08:34Z</time>
      </trkpt>
      <trkpt lat="47.65415" lon="6.18253">
        <ele>231</ele>
        <time>2018-10-15T14:08:36Z</time>
      </trkpt>
      <trkpt lat="47.65419" lon="6.18256">
        <ele>232</ele>
        <time>2018-10-15T14:08:38Z</time>
      </trkpt>
      <trkpt lat="47.65425" lon="6.18259">
        <ele>233</ele>
        <time>2018-10-15T14:08:41Z</time>
      </trkpt>
      <trkpt lat="47.65432" lon="6.18261">
        <ele>235</ele>
        <time>2018-10-15T14:08:44Z</time>
      </trkpt>
      <trkpt lat="47.65437" lon="6.18263">
        <ele>236</ele>
        <time>2018-10-15T14:08:46Z</time>
      </trkpt>
      <trkpt lat="47.65442" lon="6.18265">
        <ele>236</ele>
        <time>2018-10-15T14:08:48Z</time>
      </trkpt>
      <trkpt lat="47.65447" lon="6.18266">
        <ele>237</ele>
        <time>2018-10-15T14:08:50Z</time>
      </trkpt>
      <trkpt lat="47.65453" lon="6.18267">
        <ele>237</ele>
        <time>2018-10-15T14:08:53Z</time>
      </trkpt>
      <trkpt lat="47.65458" lon="6.18268">
        <ele>237</ele>
        <time>2018-10-15T14:08:55Z</time>
      </trkpt>
      <trkpt lat="47.65462" lon="6.18268">
        <ele>238</ele>
        <time>2018-10-15T14:08:57Z</time>
      </trkpt>
      <trkpt lat="47.65467" lon="6.18269">
        <ele>238</ele>
        <time>2018-10-15T14:08:59Z</time>
      </trkpt>
      <trkpt lat="47.65472" lon="6.18269">
        <ele>238</ele>
        <time>2018-10-15T14:09:01Z</time>
      </trkpt>
      <trkpt lat="47.65476" lon="6.18268">
        <ele>237</ele>
        <time>2018-10-15T14:09:03Z</time>
      </trkpt>
      <trkpt lat="47.65483" lon="6.18268">
        <ele>237</ele>
        <time>2018-10-15T14:09:06Z</time>
      </trkpt>
      <trkpt lat="47.65489" lon="6.18266">
        <ele>236</ele>
        <time>2018-10-15T14:09:09Z</time>
      </trkpt>
      <trkpt lat="47.65495" lon="6.18263">
        <ele>236</ele>
        <time>2018-10-15T14:09:12Z</time>
      </trkpt>
      <trkpt lat="47.65499" lon="6.18261">
        <ele>235</ele>
        <time>2018-10-15T14:09:14Z</time>
      </trkpt>
      <trkpt lat="47.65506" lon="6.18257">
        <ele>236</ele>
        <time>2018-10-15T14:09:17Z</time>
      </trkpt>
      <trkpt lat="47.6551" lon="6.18256">
        <ele>237</ele>
        <time>2018-10-15T14:09:19Z</time>
      </trkpt>
      <trkpt lat="47.65515" lon="6.18255">
        <ele>238</ele>
        <time>2018-10-15T14:09:21Z</time>
      </trkpt>
      <trkpt lat="47.65519" lon="6.18253">
        <ele>239</ele>
        <time>2018-10-15T14:09:23Z</time>
      </trkpt>
      <trkpt lat="47.65525" lon="6.1825">
        <ele>240</ele>
        <time>2018-10-15T14:09:26Z</time>
      </trkpt>
      <trkpt lat="47.65532" lon="6.18248">
        <ele>233</ele>
        <time>2018-10-15T14:09:29Z</time>
      </trkpt>
      <trkpt lat="47.65537" lon="6.18246">
        <ele>233</ele>
        <time>2018-10-15T14:09:32Z</time>
      </trkpt>
      <trkpt lat="47.65543" lon="6.18243">
        <ele>234</ele>
        <time>2018-10-15T14:09:35Z</time>
      </trkpt>
      <trkpt lat="47.6555" lon="6.18241">
        <ele>234</ele>
        <time>2018-10-15T14:09:38Z</time>
      </trkpt>
      <trkpt lat="47.65556" lon="6.18237">
        <ele>234</ele>
        <time>2018-10-15T14:09:41Z</time>
      </trkpt>
      <trkpt lat="47.6556" lon="6.18234">
        <ele>235</ele>
        <time>2018-10-15T14:09:43Z</time>
      </trkpt>
      <trkpt lat="47.65565" lon="6.18229">
        <ele>235</ele>
        <time>2018-10-15T14:09:45Z</time>
      </trkpt>
      <trkpt lat="47.6557" lon="6.18224">
        <ele>234</ele>
        <time>2018-10-15T14:09:47Z</time>
      </trkpt>
      <trkpt lat="47.65575" lon="6.18218">
        <ele>234</ele>
        <time>2018-10-15T14:09:49Z</time>
      </trkpt>
      <trkpt lat="47.65581" lon="6.1821">
        <ele>233</ele>
        <time>2018-10-15T14:09:51Z</time>
      </trkpt>
      <trkpt lat="47.65586" lon="6.18203">
        <ele>237</ele>
        <time>2018-10-15T14:09:53Z</time>
      </trkpt>
      <trkpt lat="47.65592" lon="6.18192">
        <ele>236</ele>
        <time>2018-10-15T14:09:55Z</time>
      </trkpt>
      <trkpt lat="47.65595" lon="6.18187">
        <ele>235</ele>
        <time>2018-10-15T14:09:56Z</time>
      </trkpt>
      <trkpt lat="47.65603" lon="6.18177">
        <ele>234</ele>
        <time>2018-10-15T14:09:57Z</time>
      </trkpt>
      <trkpt lat="47.65607" lon="6.18172">
        <ele>235</ele>
        <time>2018-10-15T14:09:58Z</time>
      </trkpt>
      <trkpt lat="47.65612" lon="6.18169">
        <ele>235</ele>
        <time>2018-10-15T14:09:59Z</time>
      </trkpt>
      <trkpt lat="47.65618" lon="6.18168">
        <ele>236</ele>
        <time>2018-10-15T14:10:00Z</time>
      </trkpt>
      <trkpt lat="47.65623" lon="6.18168">
        <ele>237</ele>
        <time>2018-10-15T14:10:01Z</time>
      </trkpt>
      <trkpt lat="47.65631" lon="6.1817">
        <ele>237</ele>
        <time>2018-10-15T14:10:03Z</time>
      </trkpt>
      <trkpt lat="47.65636" lon="6.18168">
        <ele>237</ele>
        <time>2018-10-15T14:10:05Z</time>
      </trkpt>
      <trkpt lat="47.65641" lon="6.18165">
        <ele>232</ele>
        <time>2018-10-15T14:10:07Z</time>
      </trkpt>
      <trkpt lat="47.65646" lon="6.1816">
        <ele>233</ele>
        <time>2018-10-15T14:10:10Z</time>
      </trkpt>
      <trkpt lat="47.6565" lon="6.18157">
        <ele>233</ele>
        <time>2018-10-15T14:10:12Z</time>
      </trkpt>
      <trkpt lat="47.65655" lon="6.18154">
        <ele>233</ele>
        <time>2018-10-15T14:10:14Z</time>
      </trkpt>
      <trkpt lat="47.65659" lon="6.1815">
        <ele>233</ele>
        <time>2018-10-15T14:10:16Z</time>
      </trkpt>
      <trkpt lat="47.65663" lon="6.18146">
        <ele>233</ele>
        <time>2018-10-15T14:10:18Z</time>
      </trkpt>
      <trkpt lat="47.65668" lon="6.18142">
        <ele>238</ele>
        <time>2018-10-15T14:10:20Z</time>
      </trkpt>
      <trkpt lat="47.65673" lon="6.18136">
        <ele>238</ele>
        <time>2018-10-15T14:10:22Z</time>
      </trkpt>
      <trkpt lat="47.65678" lon="6.18129">
        <ele>238</ele>
        <time>2018-10-15T14:10:24Z</time>
      </trkpt>
      <trkpt lat="47.65683" lon="6.18121">
        <ele>237</ele>
        <time>2018-10-15T14:10:26Z</time>
      </trkpt>
      <trkpt lat="47.65688" lon="6.18111">
        <ele>237</ele>
        <time>2018-10-15T14:10:28Z</time>
      </trkpt>
      <trkpt lat="47.65693" lon="6.18101">
        <ele>236</ele>
        <time>2018-10-15T14:10:30Z</time>
      </trkpt>
      <trkpt lat="47.65698" lon="6.18092">
        <ele>236</ele>
        <time>2018-10-15T14:10:31Z</time>
      </trkpt>
      <trkpt lat="47.65703" lon="6.18084">
        <ele>237</ele>
        <time>2018-10-15T14:10:33Z</time>
      </trkpt>
      <trkpt lat="47.65707" lon="6.18078">
        <ele>233</ele>
        <time>2018-10-15T14:10:35Z</time>
      </trkpt>
      <trkpt lat="47.65711" lon="6.18073">
        <ele>233</ele>
        <time>2018-10-15T14:10:37Z</time>
      </trkpt>
      <trkpt lat="47.65715" lon="6.18068">
        <ele>233</ele>
        <time>2018-10-15T14:10:39Z</time>
      </trkpt>
      <trkpt lat="47.65721" lon="6.18063">
        <ele>233</ele>
        <time>2018-10-15T14:10:41Z</time>
      </trkpt>
      <trkpt lat="47.65727" lon="6.18059">
        <ele>234</ele>
        <time>2018-10-15T14:10:43Z</time>
      </trkpt>
      <trkpt lat="47.65732" lon="6.18056">
        <ele>234</ele>
        <time>2018-10-15T14:10:45Z</time>
      </trkpt>
      <trkpt lat="47.65737" lon="6.18052">
        <ele>234</ele>
        <time>2018-10-15T14:10:47Z</time>
      </trkpt>
      <trkpt lat="47.65742" lon="6.18049">
        <ele>234</ele>
        <time>2018-10-15T14:10:49Z</time>
      </trkpt>
      <trkpt lat="47.65746" lon="6.18046">
        <ele>234</ele>
        <time>2018-10-15T14:10:51Z</time>
      </trkpt>
      <trkpt lat="47.65751" lon="6.18043">
        <ele>239</ele>
        <time>2018-10-15T14:10:53Z</time>
      </trkpt>
      <trkpt lat="47.65756" lon="6.18041">
        <ele>239</ele>
        <time>2018-10-15T14:10:55Z</time>
      </trkpt>
      <trkpt lat="47.65761" lon="6.18038">
        <ele>239</ele>
        <time>2018-10-15T14:10:57Z</time>
      </trkpt>
      <trkpt lat="47.65765" lon="6.18037">
        <ele>239</ele>
        <time>2018-10-15T14:10:59Z</time>
      </trkpt>
      <trkpt lat="47.6577" lon="6.18034">
        <ele>239</ele>
        <time>2018-10-15T14:11:01Z</time>
      </trkpt>
      <trkpt lat="47.65774" lon="6.1803">
        <ele>239</ele>
        <time>2018-10-15T14:11:03Z</time>
      </trkpt>
      <trkpt lat="47.65778" lon="6.18025">
        <ele>239</ele>
        <time>2018-10-15T14:11:05Z</time>
      </trkpt>
      <trkpt lat="47.65784" lon="6.1802">
        <ele>239</ele>
        <time>2018-10-15T14:11:08Z</time>
      </trkpt>
      <trkpt lat="47.65788" lon="6.18017">
        <ele>239</ele>
        <time>2018-10-15T14:11:10Z</time>
      </trkpt>
      <trkpt lat="47.65794" lon="6.18013">
        <ele>239</ele>
        <time>2018-10-15T14:11:12Z</time>
      </trkpt>
      <trkpt lat="47.658" lon="6.18007">
        <ele>239</ele>
        <time>2018-10-15T14:11:14Z</time>
      </trkpt>
      <trkpt lat="47.65804" lon="6.18004">
        <ele>239</ele>
        <time>2018-10-15T14:11:15Z</time>
      </trkpt>
      <trkpt lat="47.65812" lon="6.17998">
        <ele>235</ele>
        <time>2018-10-15T14:11:17Z</time>
      </trkpt>
      <trkpt lat="47.65822" lon="6.1799">
        <ele>235</ele>
        <time>2018-10-15T14:11:18Z</time>
      </trkpt>
      <trkpt lat="47.65827" lon="6.17986">
        <ele>235</ele>
        <time>2018-10-15T14:11:19Z</time>
      </trkpt>
      <trkpt lat="47.65832" lon="6.17982">
        <ele>235</ele>
        <time>2018-10-15T14:11:20Z</time>
      </trkpt>
      <trkpt lat="47.65838" lon="6.17979">
        <ele>236</ele>
        <time>2018-10-15T14:11:21Z</time>
      </trkpt>
      <trkpt lat="47.65844" lon="6.17976">
        <ele>235</ele>
        <time>2018-10-15T14:11:22Z</time>
      </trkpt>
      <trkpt lat="47.6585" lon="6.17972">
        <ele>235</ele>
        <time>2018-10-15T14:11:23Z</time>
      </trkpt>
      <trkpt lat="47.65856" lon="6.17968">
        <ele>234</ele>
        <time>2018-10-15T14:11:24Z</time>
      </trkpt>
      <trkpt lat="47.65863" lon="6.17966">
        <ele>234</ele>
        <time>2018-10-15T14:11:25Z</time>
      </trkpt>
      <trkpt lat="47.6587" lon="6.17963">
        <ele>234</ele>
        <time>2018-10-15T14:11:26Z</time>
      </trkpt>
      <trkpt lat="47.65877" lon="6.17961">
        <ele>234</ele>
        <time>2018-10-15T14:11:27Z</time>
      </trkpt>
      <trkpt lat="47.65884" lon="6.17961">
        <ele>234</ele>
        <time>2018-10-15T14:11:28Z</time>
      </trkpt>
      <trkpt lat="47.65891" lon="6.17962">
        <ele>234</ele>
        <time>2018-10-15T14:11:29Z</time>
      </trkpt>
      <trkpt lat="47.65897" lon="6.17964">
        <ele>234</ele>
        <time>2018-10-15T14:11:30Z</time>
      </trkpt>
      <trkpt lat="47.65902" lon="6.17967">
        <ele>234</ele>
        <time>2018-10-15T14:11:31Z</time>
      </trkpt>
      <trkpt lat="47.65906" lon="6.17972">
        <ele>234</ele>
        <time>2018-10-15T14:11:32Z</time>
      </trkpt>
      <trkpt lat="47.65914" lon="6.17978">
        <ele>235</ele>
        <time>2018-10-15T14:11:34Z</time>
      </trkpt>
      <trkpt lat="47.65921" lon="6.17981">
        <ele>235</ele>
        <time>2018-10-15T14:11:36Z</time>
      </trkpt>
      <trkpt lat="47.65926" lon="6.17984">
        <ele>235</ele>
        <time>2018-10-15T14:11:38Z</time>
      </trkpt>
      <trkpt lat="47.65932" lon="6.17989">
        <ele>235</ele>
        <time>2018-10-15T14:11:41Z</time>
      </trkpt>
      <trkpt lat="47.65937" lon="6.17993">
        <ele>235</ele>
        <time>2018-10-15T14:11:43Z</time>
      </trkpt>
      <trkpt lat="47.65943" lon="6.17998">
        <ele>234</ele>
        <time>2018-10-15T14:11:45Z</time>
      </trkpt>
      <trkpt lat="47.65949" lon="6.18003">
        <ele>240</ele>
        <time>2018-10-15T14:11:47Z</time>
      </trkpt>
      <trkpt lat="47.65954" lon="6.18007">
        <ele>241</ele>
        <time>2018-10-15T14:11:49Z</time>
      </trkpt>
      <trkpt lat="47.65958" lon="6.18011">
        <ele>241</ele>
        <time>2018-10-15T14:11:51Z</time>
      </trkpt>
      <trkpt lat="47.65963" lon="6.18015">
        <ele>241</ele>
        <time>2018-10-15T14:11:53Z</time>
      </trkpt>
      <trkpt lat="47.65967" lon="6.18019">
        <ele>241</ele>
        <time>2018-10-15T14:11:56Z</time>
      </trkpt>
      <trkpt lat="47.65971" lon="6.18024">
        <ele>241</ele>
        <time>2018-10-15T14:11:59Z</time>
      </trkpt>
      <trkpt lat="47.65975" lon="6.18029">
        <ele>241</ele>
        <time>2018-10-15T14:12:02Z</time>
      </trkpt>
      <trkpt lat="47.6598" lon="6.18034">
        <ele>241</ele>
        <time>2018-10-15T14:12:06Z</time>
      </trkpt>
      <trkpt lat="47.65985" lon="6.1804">
        <ele>242</ele>
        <time>2018-10-15T14:12:10Z</time>
      </trkpt>
      <trkpt lat="47.65989" lon="6.18045">
        <ele>242</ele>
        <time>2018-10-15T14:12:14Z</time>
      </trkpt>
      <trkpt lat="47.65994" lon="6.1805">
        <ele>242</ele>
        <time>2018-10-15T14:12:18Z</time>
      </trkpt>
      <trkpt lat="47.65998" lon="6.18055">
        <ele>243</ele>
        <time>2018-10-15T14:12:22Z</time>
      </trkpt>
      <trkpt lat="47.66002" lon="6.1806">
        <ele>242</ele>
        <time>2018-10-15T14:12:25Z</time>
      </trkpt>
      <trkpt lat="47.66006" lon="6.18065">
        <ele>242</ele>
        <time>2018-10-15T14:12:29Z</time>
      </trkpt>
      <trkpt lat="47.6601" lon="6.1807">
        <ele>243</ele>
        <time>2018-10-15T14:12:34Z</time>
      </trkpt>
      <trkpt lat="47.66013" lon="6.18075">
        <ele>243</ele>
        <time>2018-10-15T14:12:38Z</time>
      </trkpt>
      <trkpt lat="47.66017" lon="6.18082">
        <ele>243</ele>
        <time>2018-10-15T14:12:42Z</time>
      </trkpt>
      <trkpt lat="47.66021" lon="6.18087">
        <ele>249</ele>
        <time>2018-10-15T14:12:46Z</time>
      </trkpt>
      <trkpt lat="47.66026" lon="6.18094">
        <ele>250</ele>
        <time>2018-10-15T14:12:50Z</time>
      </trkpt>
      <trkpt lat="47.6603" lon="6.18097">
        <ele>250</ele>
        <time>2018-10-15T14:12:54Z</time>
      </trkpt>
      <trkpt lat="47.66034" lon="6.181">
        <ele>251</ele>
        <time>2018-10-15T14:12:57Z</time>
      </trkpt>
      <trkpt lat="47.66039" lon="6.18102">
        <ele>251</ele>
        <time>2018-10-15T14:13:00Z</time>
      </trkpt>
      <trkpt lat="47.66044" lon="6.18105">
        <ele>251</ele>
        <time>2018-10-15T14:13:03Z</time>
      </trkpt>
      <trkpt lat="47.6605" lon="6.18106">
        <ele>251</ele>
        <time>2018-10-15T14:13:07Z</time>
      </trkpt>
      <trkpt lat="47.66055" lon="6.18107">
        <ele>251</ele>
        <time>2018-10-15T14:13:10Z</time>
      </trkpt>
      <trkpt lat="47.6606" lon="6.18109">
        <ele>251</ele>
        <time>2018-10-15T14:13:13Z</time>
      </trkpt>
      <trkpt lat="47.66065" lon="6.18111">
        <ele>251</ele>
        <time>2018-10-15T14:13:18Z</time>
      </trkpt>
      <trkpt lat="47.6607" lon="6.18112">
        <ele>251</ele>
        <time>2018-10-15T14:13:22Z</time>
      </trkpt>
      <trkpt lat="47.66076" lon="6.18114">
        <ele>251</ele>
        <time>2018-10-15T14:13:26Z</time>
      </trkpt>
      <trkpt lat="47.66081" lon="6.18116">
        <ele>252</ele>
        <time>2018-10-15T14:13:28Z</time>
      </trkpt>
      <trkpt lat="47.66086" lon="6.18118">
        <ele>250</ele>
        <time>2018-10-15T14:13:31Z</time>
      </trkpt>
      <trkpt lat="47.66093" lon="6.1812">
        <ele>251</ele>
        <time>2018-10-15T14:13:36Z</time>
      </trkpt>
      <trkpt lat="47.66099" lon="6.18123">
        <ele>251</ele>
        <time>2018-10-15T14:13:39Z</time>
      </trkpt>
      <trkpt lat="47.66105" lon="6.18126">
        <ele>251</ele>
        <time>2018-10-15T14:13:43Z</time>
      </trkpt>
      <trkpt lat="47.6611" lon="6.18128">
        <ele>251</ele>
        <time>2018-10-15T14:13:46Z</time>
      </trkpt>
      <trkpt lat="47.66114" lon="6.1813">
        <ele>251</ele>
        <time>2018-10-15T14:13:50Z</time>
      </trkpt>
      <trkpt lat="47.66119" lon="6.18134">
        <ele>251</ele>
        <time>2018-10-15T14:13:54Z</time>
      </trkpt>
      <trkpt lat="47.66124" lon="6.18139">
        <ele>251</ele>
        <time>2018-10-15T14:13:57Z</time>
      </trkpt>
      <trkpt lat="47.66129" lon="6.18141">
        <ele>251</ele>
        <time>2018-10-15T14:14:01Z</time>
      </trkpt>
      <trkpt lat="47.66134" lon="6.18143">
        <ele>251</ele>
        <time>2018-10-15T14:14:05Z</time>
      </trkpt>
      <trkpt lat="47.6614" lon="6.18146">
        <ele>251</ele>
        <time>2018-10-15T14:14:10Z</time>
      </trkpt>
      <trkpt lat="47.66144" lon="6.1815">
        <ele>251</ele>
        <time>2018-10-15T14:14:13Z</time>
      </trkpt>
      <trkpt lat="47.66149" lon="6.18153">
        <ele>251</ele>
        <time>2018-10-15T14:14:16Z</time>
      </trkpt>
      <trkpt lat="47.66155" lon="6.18157">
        <ele>251</ele>
        <time>2018-10-15T14:14:19Z</time>
      </trkpt>
      <trkpt lat="47.6616" lon="6.18161">
        <ele>252</ele>
        <time>2018-10-15T14:14:22Z</time>
      </trkpt>
      <trkpt lat="47.66164" lon="6.18164">
        <ele>252</ele>
        <time>2018-10-15T14:14:25Z</time>
      </trkpt>
      <trkpt lat="47.66169" lon="6.18169">
        <ele>252</ele>
        <time>2018-10-15T14:14:28Z</time>
      </trkpt>
      <trkpt lat="47.66172" lon="6.18172">
        <ele>253</ele>
        <time>2018-10-15T14:14:31Z</time>
      </trkpt>
      <trkpt lat="47.66177" lon="6.18179">
        <ele>253</ele>
        <time>2018-10-15T14:14:34Z</time>
      </trkpt>
      <trkpt lat="47.6618" lon="6.18184">
        <ele>254</ele>
        <time>2018-10-15T14:14:37Z</time>
      </trkpt>
      <trkpt lat="47.66184" lon="6.18188">
        <ele>254</ele>
        <time>2018-10-15T14:14:40Z</time>
      </trkpt>
      <trkpt lat="47.66187" lon="6.18193">
        <ele>254</ele>
        <time>2018-10-15T14:14:43Z</time>
      </trkpt>
      <trkpt lat="47.6619" lon="6.18198">
        <ele>254</ele>
        <time>2018-10-15T14:14:46Z</time>
      </trkpt>
      <trkpt lat="47.66194" lon="6.18203">
        <ele>255</ele>
        <time>2018-10-15T14:14:49Z</time>
      </trkpt>
      <trkpt lat="47.66198" lon="6.18209">
        <ele>255</ele>
        <time>2018-10-15T14:14:53Z</time>
      </trkpt>
      <trkpt lat="47.66202" lon="6.18214">
        <ele>255</ele>
        <time>2018-10-15T14:14:57Z</time>
      </trkpt>
      <trkpt lat="47.66207" lon="6.18221">
        <ele>255</ele>
        <time>2018-10-15T14:15:00Z</time>
      </trkpt>
      <trkpt lat="47.6621" lon="6.18225">
        <ele>256</ele>
        <time>2018-10-15T14:15:03Z</time>
      </trkpt>
      <trkpt lat="47.66213" lon="6.18231">
        <ele>256</ele>
        <time>2018-10-15T14:15:06Z</time>
      </trkpt>
      <trkpt lat="47.66216" lon="6.18236">
        <ele>256</ele>
        <time>2018-10-15T14:15:09Z</time>
      </trkpt>
      <trkpt lat="47.66219" lon="6.18241">
        <ele>256</ele>
        <time>2018-10-15T14:15:12Z</time>
      </trkpt>
      <trkpt lat="47.66223" lon="6.18247">
        <ele>256</ele>
        <time>2018-10-15T14:15:16Z</time>
      </trkpt>
      <trkpt lat="47.66225" lon="6.18253">
        <ele>261</ele>
        <time>2018-10-15T14:15:20Z</time>
      </trkpt>
      <trkpt lat="47.66228" lon="6.1826">
        <ele>261</ele>
        <time>2018-10-15T14:15:23Z</time>
      </trkpt>
      <trkpt lat="47.6623" lon="6.18267">
        <ele>261</ele>
        <time>2018-10-15T14:15:27Z</time>
      </trkpt>
      <trkpt lat="47.66232" lon="6.18274">
        <ele>262</ele>
        <time>2018-10-15T14:15:31Z</time>
      </trkpt>
      <trkpt lat="47.66234" lon="6.18281">
        <ele>262</ele>
        <time>2018-10-15T14:15:34Z</time>
      </trkpt>
      <trkpt lat="47.66234" lon="6.1829">
        <ele>262</ele>
        <time>2018-10-15T14:15:38Z</time>
      </trkpt>
      <trkpt lat="47.66234" lon="6.18297">
        <ele>263</ele>
        <time>2018-10-15T14:15:42Z</time>
      </trkpt>
      <trkpt lat="47.6623" lon="6.18302">
        <ele>263</ele>
        <time>2018-10-15T14:15:46Z</time>
      </trkpt>
      <trkpt lat="47.66225" lon="6.18306">
        <ele>263</ele>
        <time>2018-10-15T14:15:50Z</time>
      </trkpt>
      <trkpt lat="47.6622" lon="6.18306">
        <ele>264</ele>
        <time>2018-10-15T14:15:53Z</time>
      </trkpt>
      <trkpt lat="47.66215" lon="6.18303">
        <ele>264</ele>
        <time>2018-10-15T14:15:57Z</time>
      </trkpt>
      <trkpt lat="47.66209" lon="6.183">
        <ele>264</ele>
        <time>2018-10-15T14:16:01Z</time>
      </trkpt>
      <trkpt lat="47.66204" lon="6.18297">
        <ele>264</ele>
        <time>2018-10-15T14:16:05Z</time>
      </trkpt>
      <trkpt lat="47.66199" lon="6.18295">
        <ele>264</ele>
        <time>2018-10-15T14:16:09Z</time>
      </trkpt>
      <trkpt lat="47.66195" lon="6.18292">
        <ele>264</ele>
        <time>2018-10-15T14:16:13Z</time>
      </trkpt>
      <trkpt lat="47.6619" lon="6.1829">
        <ele>264</ele>
        <time>2018-10-15T14:16:17Z</time>
      </trkpt>
      <trkpt lat="47.66184" lon="6.18286">
        <ele>264</ele>
        <time>2018-10-15T14:16:22Z</time>
      </trkpt>
      <trkpt lat="47.66179" lon="6.18283">
        <ele>264</ele>
        <time>2018-10-15T14:16:26Z</time>
      </trkpt>
      <trkpt lat="47.66175" lon="6.18281">
        <ele>264</ele>
        <time>2018-10-15T14:16:29Z</time>
      </trkpt>
      <trkpt lat="47.66168" lon="6.18278">
        <ele>264</ele>
        <time>2018-10-15T14:16:32Z</time>
      </trkpt>
      <trkpt lat="47.66162" lon="6.18276">
        <ele>267</ele>
        <time>2018-10-15T14:16:35Z</time>
      </trkpt>
      <trkpt lat="47.66156" lon="6.18273">
        <ele>267</ele>
        <time>2018-10-15T14:16:38Z</time>
      </trkpt>
      <trkpt lat="47.66151" lon="6.18272">
        <ele>268</ele>
        <time>2018-10-15T14:16:40Z</time>
      </trkpt>
      <trkpt lat="47.66147" lon="6.1827">
        <ele>268</ele>
        <time>2018-10-15T14:16:42Z</time>
      </trkpt>
      <trkpt lat="47.66142" lon="6.18267">
        <ele>268</ele>
        <time>2018-10-15T14:16:44Z</time>
      </trkpt>
      <trkpt lat="47.66136" lon="6.18265">
        <ele>268</ele>
        <time>2018-10-15T14:16:47Z</time>
      </trkpt>
      <trkpt lat="47.6613" lon="6.18262">
        <ele>268</ele>
        <time>2018-10-15T14:16:50Z</time>
      </trkpt>
      <trkpt lat="47.66125" lon="6.1826">
        <ele>269</ele>
        <time>2018-10-15T14:16:52Z</time>
      </trkpt>
      <trkpt lat="47.66121" lon="6.18258">
        <ele>269</ele>
        <time>2018-10-15T14:16:54Z</time>
      </trkpt>
      <trkpt lat="47.66115" lon="6.18256">
        <ele>269</ele>
        <time>2018-10-15T14:16:56Z</time>
      </trkpt>
      <trkpt lat="47.6611" lon="6.18255">
        <ele>269</ele>
        <time>2018-10-15T14:16:58Z</time>
      </trkpt>
      <trkpt lat="47.66106" lon="6.18254">
        <ele>269</ele>
        <time>2018-10-15T14:17:00Z</time>
      </trkpt>
      <trkpt lat="47.66101" lon="6.18252">
        <ele>270</ele>
        <time>2018-10-15T14:17:02Z</time>
      </trkpt>
      <trkpt lat="47.66096" lon="6.18251">
        <ele>270</ele>
        <time>2018-10-15T14:17:04Z</time>
      </trkpt>
      <trkpt lat="47.6609" lon="6.1825">
        <ele>268</ele>
        <time>2018-10-15T14:17:06Z</time>
      </trkpt>
      <trkpt lat="47.66084" lon="6.18249">
        <ele>269</ele>
        <time>2018-10-15T14:17:08Z</time>
      </trkpt>
      <trkpt lat="47.66077" lon="6.18248">
        <ele>269</ele>
        <time>2018-10-15T14:17:10Z</time>
      </trkpt>
      <trkpt lat="47.6607" lon="6.18247">
        <ele>268</ele>
        <time>2018-10-15T14:17:12Z</time>
      </trkpt>
      <trkpt lat="47.66063" lon="6.18247">
        <ele>267</ele>
        <time>2018-10-15T14:17:14Z</time>
      </trkpt>
      <trkpt lat="47.66055" lon="6.18248">
        <ele>267</ele>
        <time>2018-10-15T14:17:16Z</time>
      </trkpt>
      <trkpt lat="47.66049" lon="6.18248">
        <ele>267</ele>
        <time>2018-10-15T14:17:18Z</time>
      </trkpt>
      <trkpt lat="47.66041" lon="6.18249">
        <ele>267</ele>
        <time>2018-10-15T14:17:20Z</time>
      </trkpt>
      <trkpt lat="47.66033" lon="6.18251">
        <ele>271</ele>
        <time>2018-10-15T14:17:22Z</time>
      </trkpt>
      <trkpt lat="47.66025" lon="6.18252">
        <ele>271</ele>
        <time>2018-10-15T14:17:24Z</time>
      </trkpt>
      <trkpt lat="47.66016" lon="6.18251">
        <ele>271</ele>
        <time>2018-10-15T14:17:25Z</time>
      </trkpt>
      <trkpt lat="47.66012" lon="6.18248">
        <ele>268</ele>
        <time>2018-10-15T14:17:26Z</time>
      </trkpt>
      <trkpt lat="47.66007" lon="6.18243">
        <ele>268</ele>
        <time>2018-10-15T14:17:27Z</time>
      </trkpt>
      <trkpt lat="47.66002" lon="6.18238">
        <ele>268</ele>
        <time>2018-10-15T14:17:28Z</time>
      </trkpt>
      <trkpt lat="47.65996" lon="6.18235">
        <ele>267</ele>
        <time>2018-10-15T14:17:29Z</time>
      </trkpt>
      <trkpt lat="47.65991" lon="6.18233">
        <ele>267</ele>
        <time>2018-10-15T14:17:30Z</time>
      </trkpt>
      <trkpt lat="47.65986" lon="6.18232">
        <ele>267</ele>
        <time>2018-10-15T14:17:31Z</time>
      </trkpt>
      <trkpt lat="47.65979" lon="6.1823">
        <ele>266</ele>
        <time>2018-10-15T14:17:32Z</time>
      </trkpt>
      <trkpt lat="47.65973" lon="6.18228">
        <ele>266</ele>
        <time>2018-10-15T14:17:33Z</time>
      </trkpt>
      <trkpt lat="47.65966" lon="6.18226">
        <ele>265</ele>
        <time>2018-10-15T14:17:34Z</time>
      </trkpt>
      <trkpt lat="47.65958" lon="6.18222">
        <ele>265</ele>
        <time>2018-10-15T14:17:35Z</time>
      </trkpt>
      <trkpt lat="47.65952" lon="6.18216">
        <ele>265</ele>
        <time>2018-10-15T14:17:36Z</time>
      </trkpt>
      <trkpt lat="47.65946" lon="6.18209">
        <ele>264</ele>
        <time>2018-10-15T14:17:37Z</time>
      </trkpt>
      <trkpt lat="47.65939" lon="6.18203">
        <ele>264</ele>
        <time>2018-10-15T14:17:38Z</time>
      </trkpt>
      <trkpt lat="47.65931" lon="6.18199">
        <ele>264</ele>
        <time>2018-10-15T14:17:39Z</time>
      </trkpt>
      <trkpt lat="47.65924" lon="6.18196">
        <ele>264</ele>
        <time>2018-10-15T14:17:40Z</time>
      </trkpt>
      <trkpt lat="47.65916" lon="6.18195">
        <ele>263</ele>
        <time>2018-10-15T14:17:41Z</time>
      </trkpt>
      <trkpt lat="47.65908" lon="6.18193">
        <ele>263</ele>
        <time>2018-10-15T14:17:42Z</time>
      </trkpt>
      <trkpt lat="47.65901" lon="6.1819">
        <ele>263</ele>
        <time>2018-10-15T14:17:43Z</time>
      </trkpt>
      <trkpt lat="47.65894" lon="6.18188">
        <ele>263</ele>
        <time>2018-10-15T14:17:44Z</time>
      </trkpt>
      <trkpt lat="47.65887" lon="6.18187">
        <ele>263</ele>
        <time>2018-10-15T14:17:45Z</time>
      </trkpt>
      <trkpt lat="47.6588" lon="6.18186">
        <ele>263</ele>
        <time>2018-10-15T14:17:46Z</time>
      </trkpt>
      <trkpt lat="47.65874" lon="6.18184">
        <ele>263</ele>
        <time>2018-10-15T14:17:47Z</time>
      </trkpt>
      <trkpt lat="47.65868" lon="6.18181">
        <ele>263</ele>
        <time>2018-10-15T14:17:48Z</time>
      </trkpt>
      <trkpt lat="47.65863" lon="6.18179">
        <ele>263</ele>
        <time>2018-10-15T14:17:49Z</time>
      </trkpt>
      <trkpt lat="47.65858" lon="6.18178">
        <ele>263</ele>
        <time>2018-10-15T14:17:50Z</time>
      </trkpt>
      <trkpt lat="47.65853" lon="6.18179">
        <ele>262</ele>
        <time>2018-10-15T14:17:51Z</time>
      </trkpt>
      <trkpt lat="47.65847" lon="6.18188">
        <ele>263</ele>
        <time>2018-10-15T14:17:53Z</time>
      </trkpt>
      <trkpt lat="47.65846" lon="6.18199">
        <ele>263</ele>
        <time>2018-10-15T14:17:56Z</time>
      </trkpt>
      <trkpt lat="47.65848" lon="6.18207">
        <ele>263</ele>
        <time>2018-10-15T14:17:59Z</time>
      </trkpt>
      <trkpt lat="47.65849" lon="6.18216">
        <ele>264</ele>
        <time>2018-10-15T14:18:03Z</time>
      </trkpt>
      <trkpt lat="47.65849" lon="6.18225">
        <ele>264</ele>
        <time>2018-10-15T14:18:06Z</time>
      </trkpt>
      <trkpt lat="47.65845" lon="6.18231">
        <ele>264</ele>
        <time>2018-10-15T14:18:09Z</time>
      </trkpt>
      <trkpt lat="47.6584" lon="6.18235">
        <ele>264</ele>
        <time>2018-10-15T14:18:12Z</time>
      </trkpt>
      <trkpt lat="47.65834" lon="6.18239">
        <ele>264</ele>
        <time>2018-10-15T14:18:15Z</time>
      </trkpt>
      <trkpt lat="47.65827" lon="6.18244">
        <ele>264</ele>
        <time>2018-10-15T14:18:18Z</time>
      </trkpt>
      <trkpt lat="47.65821" lon="6.18248">
        <ele>263</ele>
        <time>2018-10-15T14:18:21Z</time>
      </trkpt>
      <trkpt lat="47.65816" lon="6.18252">
        <ele>266</ele>
        <time>2018-10-15T14:18:24Z</time>
      </trkpt>
      <trkpt lat="47.65811" lon="6.18255">
        <ele>266</ele>
        <time>2018-10-15T14:18:26Z</time>
      </trkpt>
      <trkpt lat="47.65806" lon="6.1826">
        <ele>266</ele>
        <time>2018-10-15T14:18:28Z</time>
      </trkpt>
      <trkpt lat="47.65801" lon="6.18263">
        <ele>266</ele>
        <time>2018-10-15T14:18:30Z</time>
      </trkpt>
      <trkpt lat="47.65794" lon="6.18267">
        <ele>266</ele>
        <time>2018-10-15T14:18:32Z</time>
      </trkpt>
      <trkpt lat="47.65788" lon="6.18272">
        <ele>266</ele>
        <time>2018-10-15T14:18:34Z</time>
      </trkpt>
      <trkpt lat="47.65782" lon="6.18275">
        <ele>266</ele>
        <time>2018-10-15T14:18:36Z</time>
      </trkpt>
      <trkpt lat="47.65776" lon="6.1828">
        <ele>266</ele>
        <time>2018-10-15T14:18:38Z</time>
      </trkpt>
      <trkpt lat="47.65769" lon="6.18285">
        <ele>267</ele>
        <time>2018-10-15T14:18:40Z</time>
      </trkpt>
      <trkpt lat="47.65761" lon="6.18292">
        <ele>267</ele>
        <time>2018-10-15T14:18:41Z</time>
      </trkpt>
      <trkpt lat="47.65756" lon="6.18296">
        <ele>267</ele>
        <time>2018-10-15T14:18:43Z</time>
      </trkpt>
      <trkpt lat="47.65752" lon="6.183">
        <ele>267</ele>
        <time>2018-10-15T14:18:45Z</time>
      </trkpt>
      <trkpt lat="47.65747" lon="6.18305">
        <ele>265</ele>
        <time>2018-10-15T14:18:47Z</time>
      </trkpt>
      <trkpt lat="47.65741" lon="6.18311">
        <ele>266</ele>
        <time>2018-10-15T14:18:49Z</time>
      </trkpt>
      <trkpt lat="47.65735" lon="6.18317">
        <ele>266</ele>
        <time>2018-10-15T14:18:51Z</time>
      </trkpt>
      <trkpt lat="47.6573" lon="6.18324">
        <ele>266</ele>
        <time>2018-10-15T14:18:53Z</time>
      </trkpt>
      <trkpt lat="47.65724" lon="6.1833">
        <ele>266</ele>
        <time>2018-10-15T14:18:55Z</time>
      </trkpt>
      <trkpt lat="47.65719" lon="6.18337">
        <ele>272</ele>
        <time>2018-10-15T14:18:58Z</time>
      </trkpt>
      <trkpt lat="47.65715" lon="6.18343">
        <ele>272</ele>
        <time>2018-10-15T14:19:01Z</time>
      </trkpt>
      <trkpt lat="47.65712" lon="6.18348">
        <ele>272</ele>
        <time>2018-10-15T14:19:04Z</time>
      </trkpt>
      <trkpt lat="47.65708" lon="6.18357">
        <ele>272</ele>
        <time>2018-10-15T14:19:07Z</time>
      </trkpt>
      <trkpt lat="47.65705" lon="6.18364">
        <ele>273</ele>
        <time>2018-10-15T14:19:10Z</time>
      </trkpt>
      <trkpt lat="47.65701" lon="6.1837">
        <ele>273</ele>
        <time>2018-10-15T14:19:14Z</time>
      </trkpt>
      <trkpt lat="47.65696" lon="6.18374">
        <ele>273</ele>
        <time>2018-10-15T14:19:18Z</time>
      </trkpt>
      <trkpt lat="47.65692" lon="6.18376">
        <ele>274</ele>
        <time>2018-10-15T14:19:21Z</time>
      </trkpt>
      <trkpt lat="47.65686" lon="6.18381">
        <ele>274</ele>
        <time>2018-10-15T14:19:24Z</time>
      </trkpt>
      <trkpt lat="47.65681" lon="6.18382">
        <ele>274</ele>
        <time>2018-10-15T14:19:27Z</time>
      </trkpt>
      <trkpt lat="47.65675" lon="6.18383">
        <ele>274</ele>
        <time>2018-10-15T14:19:30Z</time>
      </trkpt>
      <trkpt lat="47.6567" lon="6.18383">
        <ele>274</ele>
        <time>2018-10-15T14:19:32Z</time>
      </trkpt>
      <trkpt lat="47.65663" lon="6.18382">
        <ele>272</ele>
        <time>2018-10-15T14:19:35Z</time>
      </trkpt>
      <trkpt lat="47.65659" lon="6.1838">
        <ele>272</ele>
        <time>2018-10-15T14:19:37Z</time>
      </trkpt>
      <trkpt lat="47.65652" lon="6.18378">
        <ele>271</ele>
        <time>2018-10-15T14:19:40Z</time>
      </trkpt>
      <trkpt lat="47.65646" lon="6.18379">
        <ele>271</ele>
        <time>2018-10-15T14:19:42Z</time>
      </trkpt>
      <trkpt lat="47.6564" lon="6.1838">
        <ele>271</ele>
        <time>2018-10-15T14:19:44Z</time>
      </trkpt>
      <trkpt lat="47.65635" lon="6.18381">
        <ele>271</ele>
        <time>2018-10-15T14:19:46Z</time>
      </trkpt>
      <trkpt lat="47.6563" lon="6.18382">
        <ele>271</ele>
        <time>2018-10-15T14:19:48Z</time>
      </trkpt>
      <trkpt lat="47.65625" lon="6.18385">
        <ele>271</ele>
        <time>2018-10-15T14:19:50Z</time>
      </trkpt>
      <trkpt lat="47.65621" lon="6.18387">
        <ele>271</ele>
        <time>2018-10-15T14:19:52Z</time>
      </trkpt>
      <trkpt lat="47.65615" lon="6.18391">
        <ele>271</ele>
        <time>2018-10-15T14:19:55Z</time>
      </trkpt>
      <trkpt lat="47.6561" lon="6.18393">
        <ele>271</ele>
        <time>2018-10-15T14:19:57Z</time>
      </trkpt>
      <trkpt lat="47.65604" lon="6.18396">
        <ele>271</ele>
        <time>2018-10-15T14:19:59Z</time>
      </trkpt>
      <trkpt lat="47.65596" lon="6.18401">
        <ele>272</ele>
        <time>2018-10-15T14:20:01Z</time>
      </trkpt>
      <trkpt lat="47.65588" lon="6.18403">
        <ele>272</ele>
        <time>2018-10-15T14:20:03Z</time>
      </trkpt>
      <trkpt lat="47.65583" lon="6.18405">
        <ele>270</ele>
        <time>2018-10-15T14:20:04Z</time>
      </trkpt>
      <trkpt lat="47.65579" lon="6.18406">
        <ele>270</ele>
        <time>2018-10-15T14:20:05Z</time>
      </trkpt>
      <trkpt lat="47.65574" lon="6.18408">
        <ele>270</ele>
        <time>2018-10-15T14:20:06Z</time>
      </trkpt>
      <trkpt lat="47.65566" lon="6.1841">
        <ele>269</ele>
        <time>2018-10-15T14:20:08Z</time>
      </trkpt>
      <trkpt lat="47.65556" lon="6.18415">
        <ele>267</ele>
        <time>2018-10-15T14:20:10Z</time>
      </trkpt>
      <trkpt lat="47.65552" lon="6.18416">
        <ele>267</ele>
        <time>2018-10-15T14:20:11Z</time>
      </trkpt>
      <trkpt lat="47.65543" lon="6.18418">
        <ele>272</ele>
        <time>2018-10-15T14:20:13Z</time>
      </trkpt>
      <trkpt lat="47.65536" lon="6.18421">
        <ele>272</ele>
        <time>2018-10-15T14:20:15Z</time>
      </trkpt>
      <trkpt lat="47.65528" lon="6.18426">
        <ele>272</ele>
        <time>2018-10-15T14:20:17Z</time>
      </trkpt>
      <trkpt lat="47.6552" lon="6.18434">
        <ele>271</ele>
        <time>2018-10-15T14:20:18Z</time>
      </trkpt>
      <trkpt lat="47.65516" lon="6.18438">
        <ele>271</ele>
        <time>2018-10-15T14:20:19Z</time>
      </trkpt>
      <trkpt lat="47.6551" lon="6.18442">
        <ele>271</ele>
        <time>2018-10-15T14:20:20Z</time>
      </trkpt>
      <trkpt lat="47.65504" lon="6.18446">
        <ele>271</ele>
        <time>2018-10-15T14:20:21Z</time>
      </trkpt>
      <trkpt lat="47.655" lon="6.18451">
        <ele>268</ele>
        <time>2018-10-15T14:20:22Z</time>
      </trkpt>
      <trkpt lat="47.65495" lon="6.18454">
        <ele>268</ele>
        <time>2018-10-15T14:20:23Z</time>
      </trkpt>
      <trkpt lat="47.65491" lon="6.18457">
        <ele>268</ele>
        <time>2018-10-15T14:20:24Z</time>
      </trkpt>
      <trkpt lat="47.65482" lon="6.18463">
        <ele>269</ele>
        <time>2018-10-15T14:20:26Z</time>
      </trkpt>
      <trkpt lat="47.65475" lon="6.18468">
        <ele>269</ele>
        <time>2018-10-15T14:20:28Z</time>
      </trkpt>
      <trkpt lat="47.65468" lon="6.18472">
        <ele>268</ele>
        <time>2018-10-15T14:20:30Z</time>
      </trkpt>
      <trkpt lat="47.65462" lon="6.18477">
        <ele>268</ele>
        <time>2018-10-15T14:20:32Z</time>
      </trkpt>
      <trkpt lat="47.65455" lon="6.18483">
        <ele>268</ele>
        <time>2018-10-15T14:20:34Z</time>
      </trkpt>
      <trkpt lat="47.65448" lon="6.18491">
        <ele>268</ele>
        <time>2018-10-15T14:20:36Z</time>
      </trkpt>
      <trkpt lat="47.65444" lon="6.18496">
        <ele>268</ele>
        <time>2018-10-15T14:20:37Z</time>
      </trkpt>
      <trkpt lat="47.65441" lon="6.185">
        <ele>268</ele>
        <time>2018-10-15T14:20:38Z</time>
      </trkpt>
      <trkpt lat="47.65434" lon="6.18508">
        <ele>270</ele>
        <time>2018-10-15T14:20:40Z</time>
      </trkpt>
      <trkpt lat="47.65429" lon="6.18515">
        <ele>270</ele>
        <time>2018-10-15T14:20:42Z</time>
      </trkpt>
      <trkpt lat="47.65423" lon="6.18521">
        <ele>270</ele>
        <time>2018-10-15T14:20:44Z</time>
      </trkpt>
      <trkpt lat="47.65419" lon="6.18527">
        <ele>270</ele>
        <time>2018-10-15T14:20:46Z</time>
      </trkpt>
      <trkpt lat="47.65415" lon="6.18532">
        <ele>268</ele>
        <time>2018-10-15T14:20:49Z</time>
      </trkpt>
      <trkpt lat="47.65411" lon="6.18538">
        <ele>268</ele>
        <time>2018-10-15T14:20:51Z</time>
      </trkpt>
      <trkpt lat="47.65408" lon="6.18543">
        <ele>268</ele>
        <time>2018-10-15T14:20:53Z</time>
      </trkpt>
      <trkpt lat="47.65403" lon="6.1855">
        <ele>269</ele>
        <time>2018-10-15T14:20:55Z</time>
      </trkpt>
      <trkpt lat="47.65399" lon="6.18555">
        <ele>269</ele>
        <time>2018-10-15T14:20:57Z</time>
      </trkpt>
      <trkpt lat="47.65396" lon="6.1856">
        <ele>269</ele>
        <time>2018-10-15T14:20:59Z</time>
      </trkpt>
      <trkpt lat="47.65391" lon="6.18568">
        <ele>269</ele>
        <time>2018-10-15T14:21:01Z</time>
      </trkpt>
      <trkpt lat="47.65388" lon="6.18574">
        <ele>269</ele>
        <time>2018-10-15T14:21:03Z</time>
      </trkpt>
      <trkpt lat="47.65384" lon="6.1858">
        <ele>269</ele>
        <time>2018-10-15T14:21:05Z</time>
      </trkpt>
      <trkpt lat="47.65381" lon="6.18585">
        <ele>271</ele>
        <time>2018-10-15T14:21:07Z</time>
      </trkpt>
      <trkpt lat="47.65378" lon="6.18591">
        <ele>271</ele>
        <time>2018-10-15T14:21:09Z</time>
      </trkpt>
      <trkpt lat="47.65374" lon="6.18597">
        <ele>270</ele>
        <time>2018-10-15T14:21:11Z</time>
      </trkpt>
      <trkpt lat="47.6537" lon="6.18603">
        <ele>270</ele>
        <time>2018-10-15T14:21:13Z</time>
      </trkpt>
      <trkpt lat="47.65365" lon="6.1861">
        <ele>270</ele>
        <time>2018-10-15T14:21:16Z</time>
      </trkpt>
      <trkpt lat="47.65362" lon="6.18615">
        <ele>270</ele>
        <time>2018-10-15T14:21:18Z</time>
      </trkpt>
      <trkpt lat="47.65357" lon="6.18622">
        <ele>270</ele>
        <time>2018-10-15T14:21:21Z</time>
      </trkpt>
      <trkpt lat="47.65352" lon="6.18628">
        <ele>270</ele>
        <time>2018-10-15T14:21:24Z</time>
      </trkpt>
      <trkpt lat="47.65348" lon="6.18633">
        <ele>270</ele>
        <time>2018-10-15T14:21:27Z</time>
      </trkpt>
      <trkpt lat="47.65344" lon="6.18638">
        <ele>270</ele>
        <time>2018-10-15T14:21:30Z</time>
      </trkpt>
      <trkpt lat="47.65341" lon="6.18643">
        <ele>270</ele>
        <time>2018-10-15T14:21:32Z</time>
      </trkpt>
      <trkpt lat="47.65338" lon="6.18648">
        <ele>270</ele>
        <time>2018-10-15T14:21:34Z</time>
      </trkpt>
      <trkpt lat="47.65334" lon="6.18654">
        <ele>270</ele>
        <time>2018-10-15T14:21:36Z</time>
      </trkpt>
      <trkpt lat="47.65331" lon="6.18662">
        <ele>269</ele>
        <time>2018-10-15T14:21:38Z</time>
      </trkpt>
      <trkpt lat="47.65327" lon="6.18669">
        <ele>270</ele>
        <time>2018-10-15T14:21:40Z</time>
      </trkpt>
      <trkpt lat="47.65323" lon="6.18675">
        <ele>269</ele>
        <time>2018-10-15T14:21:42Z</time>
      </trkpt>
      <trkpt lat="47.65319" lon="6.1868">
        <ele>269</ele>
        <time>2018-10-15T14:21:44Z</time>
      </trkpt>
      <trkpt lat="47.65315" lon="6.18686">
        <ele>269</ele>
        <time>2018-10-15T14:21:46Z</time>
      </trkpt>
      <trkpt lat="47.6531" lon="6.18691">
        <ele>269</ele>
        <time>2018-10-15T14:21:48Z</time>
      </trkpt>
      <trkpt lat="47.65306" lon="6.18697">
        <ele>269</ele>
        <time>2018-10-15T14:21:50Z</time>
      </trkpt>
      <trkpt lat="47.653" lon="6.18703">
        <ele>268</ele>
        <time>2018-10-15T14:21:52Z</time>
      </trkpt>
      <trkpt lat="47.65295" lon="6.1871">
        <ele>268</ele>
        <time>2018-10-15T14:21:54Z</time>
      </trkpt>
      <trkpt lat="47.65289" lon="6.18718">
        <ele>268</ele>
        <time>2018-10-15T14:21:56Z</time>
      </trkpt>
      <trkpt lat="47.65283" lon="6.18726">
        <ele>268</ele>
        <time>2018-10-15T14:21:58Z</time>
      </trkpt>
      <trkpt lat="47.65279" lon="6.1873">
        <ele>268</ele>
        <time>2018-10-15T14:21:59Z</time>
      </trkpt>
      <trkpt lat="47.65271" lon="6.18739">
        <ele>268</ele>
        <time>2018-10-15T14:22:00Z</time>
      </trkpt>
      <trkpt lat="47.65267" lon="6.18744">
        <ele>268</ele>
        <time>2018-10-15T14:22:01Z</time>
      </trkpt>
      <trkpt lat="47.65263" lon="6.18748">
        <ele>268</ele>
        <time>2018-10-15T14:22:02Z</time>
      </trkpt>
      <trkpt lat="47.65259" lon="6.18753">
        <ele>268</ele>
        <time>2018-10-15T14:22:03Z</time>
      </trkpt>
      <trkpt lat="47.65255" lon="6.18758">
        <ele>268</ele>
        <time>2018-10-15T14:22:04Z</time>
      </trkpt>
      <trkpt lat="47.65251" lon="6.18763">
        <ele>268</ele>
        <time>2018-10-15T14:22:05Z</time>
      </trkpt>
      <trkpt lat="47.65247" lon="6.18767">
        <ele>267</ele>
        <time>2018-10-15T14:22:06Z</time>
      </trkpt>
      <trkpt lat="47.65242" lon="6.18772">
        <ele>267</ele>
        <time>2018-10-15T14:22:07Z</time>
      </trkpt>
      <trkpt lat="47.65238" lon="6.18777">
        <ele>267</ele>
        <time>2018-10-15T14:22:08Z</time>
      </trkpt>
      <trkpt lat="47.65234" lon="6.18781">
        <ele>267</ele>
        <time>2018-10-15T14:22:09Z</time>
      </trkpt>
      <trkpt lat="47.65231" lon="6.18785">
        <ele>268</ele>
        <time>2018-10-15T14:22:10Z</time>
      </trkpt>
      <trkpt lat="47.65227" lon="6.18789">
        <ele>268</ele>
        <time>2018-10-15T14:22:11Z</time>
      </trkpt>
      <trkpt lat="47.6522" lon="6.18796">
        <ele>268</ele>
        <time>2018-10-15T14:22:13Z</time>
      </trkpt>
      <trkpt lat="47.65213" lon="6.18803">
        <ele>268</ele>
        <time>2018-10-15T14:22:15Z</time>
      </trkpt>
      <trkpt lat="47.65207" lon="6.18811">
        <ele>268</ele>
        <time>2018-10-15T14:22:17Z</time>
      </trkpt>
      <trkpt lat="47.65204" lon="6.18819">
        <ele>268</ele>
        <time>2018-10-15T14:22:19Z</time>
      </trkpt>
      <trkpt lat="47.652" lon="6.18826">
        <ele>268</ele>
        <time>2018-10-15T14:22:21Z</time>
      </trkpt>
      <trkpt lat="47.65196" lon="6.18833">
        <ele>268</ele>
        <time>2018-10-15T14:22:23Z</time>
      </trkpt>
      <trkpt lat="47.6519" lon="6.18839">
        <ele>269</ele>
        <time>2018-10-15T14:22:25Z</time>
      </trkpt>
      <trkpt lat="47.65186" lon="6.18842">
        <ele>269</ele>
        <time>2018-10-15T14:22:27Z</time>
      </trkpt>
      <trkpt lat="47.65182" lon="6.18846">
        <ele>269</ele>
        <time>2018-10-15T14:22:29Z</time>
      </trkpt>
      <trkpt lat="47.65177" lon="6.18851">
        <ele>269</ele>
        <time>2018-10-15T14:22:31Z</time>
      </trkpt>
      <trkpt lat="47.65172" lon="6.18855">
        <ele>269</ele>
        <time>2018-10-15T14:22:33Z</time>
      </trkpt>
      <trkpt lat="47.65168" lon="6.18859">
        <ele>269</ele>
        <time>2018-10-15T14:22:35Z</time>
      </trkpt>
      <trkpt lat="47.65164" lon="6.18863">
        <ele>269</ele>
        <time>2018-10-15T14:22:37Z</time>
      </trkpt>
      <trkpt lat="47.65159" lon="6.18868">
        <ele>269</ele>
        <time>2018-10-15T14:22:39Z</time>
      </trkpt>
      <trkpt lat="47.65155" lon="6.18873">
        <ele>269</ele>
        <time>2018-10-15T14:22:41Z</time>
      </trkpt>
      <trkpt lat="47.6515" lon="6.18878">
        <ele>269</ele>
        <time>2018-10-15T14:22:43Z</time>
      </trkpt>
      <trkpt lat="47.65144" lon="6.18885">
        <ele>269</ele>
        <time>2018-10-15T14:22:45Z</time>
      </trkpt>
      <trkpt lat="47.65138" lon="6.18891">
        <ele>269</ele>
        <time>2018-10-15T14:22:47Z</time>
      </trkpt>
      <trkpt lat="47.65131" lon="6.18899">
        <ele>269</ele>
        <time>2018-10-15T14:22:49Z</time>
      </trkpt>
      <trkpt lat="47.65127" lon="6.18903">
        <ele>269</ele>
        <time>2018-10-15T14:22:50Z</time>
      </trkpt>
      <trkpt lat="47.65124" lon="6.18907">
        <ele>269</ele>
        <time>2018-10-15T14:22:51Z</time>
      </trkpt>
      <trkpt lat="47.65117" lon="6.18914">
        <ele>269</ele>
        <time>2018-10-15T14:22:53Z</time>
      </trkpt>
      <trkpt lat="47.65112" lon="6.18919">
        <ele>270</ele>
        <time>2018-10-15T14:22:55Z</time>
      </trkpt>
      <trkpt lat="47.65107" lon="6.18925">
        <ele>270</ele>
        <time>2018-10-15T14:22:57Z</time>
      </trkpt>
      <trkpt lat="47.65103" lon="6.1893">
        <ele>270</ele>
        <time>2018-10-15T14:22:59Z</time>
      </trkpt>
      <trkpt lat="47.65098" lon="6.18935">
        <ele>270</ele>
        <time>2018-10-15T14:23:02Z</time>
      </trkpt>
      <trkpt lat="47.65094" lon="6.18939">
        <ele>270</ele>
        <time>2018-10-15T14:23:05Z</time>
      </trkpt>
      <trkpt lat="47.65089" lon="6.18945">
        <ele>270</ele>
        <time>2018-10-15T14:23:09Z</time>
      </trkpt>
      <trkpt lat="47.65086" lon="6.18949">
        <ele>270</ele>
        <time>2018-10-15T14:23:12Z</time>
      </trkpt>
      <trkpt lat="47.65082" lon="6.18954">
        <ele>268</ele>
        <time>2018-10-15T14:23:15Z</time>
      </trkpt>
      <trkpt lat="47.65078" lon="6.18959">
        <ele>268</ele>
        <time>2018-10-15T14:23:17Z</time>
      </trkpt>
      <trkpt lat="47.65074" lon="6.18965">
        <ele>268</ele>
        <time>2018-10-15T14:23:19Z</time>
      </trkpt>
      <trkpt lat="47.65069" lon="6.18972">
        <ele>268</ele>
        <time>2018-10-15T14:23:21Z</time>
      </trkpt>
      <trkpt lat="47.65065" lon="6.18978">
        <ele>268</ele>
        <time>2018-10-15T14:23:23Z</time>
      </trkpt>
      <trkpt lat="47.65061" lon="6.18984">
        <ele>268</ele>
        <time>2018-10-15T14:23:25Z</time>
      </trkpt>
      <trkpt lat="47.65056" lon="6.18991">
        <ele>268</ele>
        <time>2018-10-15T14:23:27Z</time>
      </trkpt>
      <trkpt lat="47.65052" lon="6.18997">
        <ele>268</ele>
        <time>2018-10-15T14:23:29Z</time>
      </trkpt>
      <trkpt lat="47.65047" lon="6.19002">
        <ele>267</ele>
        <time>2018-10-15T14:23:31Z</time>
      </trkpt>
      <trkpt lat="47.65041" lon="6.19008">
        <ele>267</ele>
        <time>2018-10-15T14:23:33Z</time>
      </trkpt>
      <trkpt lat="47.65034" lon="6.19015">
        <ele>266</ele>
        <time>2018-10-15T14:23:35Z</time>
      </trkpt>
      <trkpt lat="47.65021" lon="6.19027">
        <ele>266</ele>
        <time>2018-10-15T14:23:37Z</time>
      </trkpt>
      <trkpt lat="47.65017" lon="6.19031">
        <ele>266</ele>
        <time>2018-10-15T14:23:38Z</time>
      </trkpt>
      <trkpt lat="47.65014" lon="6.19035">
        <ele>266</ele>
        <time>2018-10-15T14:23:39Z</time>
      </trkpt>
      <trkpt lat="47.6501" lon="6.1904">
        <ele>266</ele>
        <time>2018-10-15T14:23:40Z</time>
      </trkpt>
      <trkpt lat="47.65007" lon="6.19044">
        <ele>266</ele>
        <time>2018-10-15T14:23:41Z</time>
      </trkpt>
      <trkpt lat="47.65003" lon="6.19048">
        <ele>266</ele>
        <time>2018-10-15T14:23:42Z</time>
      </trkpt>
      <trkpt lat="47.64998" lon="6.19059">
        <ele>263</ele>
        <time>2018-10-15T14:23:44Z</time>
      </trkpt>
      <trkpt lat="47.64997" lon="6.1907">
        <ele>263</ele>
        <time>2018-10-15T14:23:46Z</time>
      </trkpt>
      <trkpt lat="47.64999" lon="6.19078">
        <ele>264</ele>
        <time>2018-10-15T14:23:48Z</time>
      </trkpt>
      <trkpt lat="47.65003" lon="6.19085">
        <ele>264</ele>
        <time>2018-10-15T14:23:50Z</time>
      </trkpt>
      <trkpt lat="47.65007" lon="6.1909">
        <ele>264</ele>
        <time>2018-10-15T14:23:53Z</time>
      </trkpt>
      <trkpt lat="47.6501" lon="6.19096">
        <ele>265</ele>
        <time>2018-10-15T14:23:56Z</time>
      </trkpt>
      <trkpt lat="47.65014" lon="6.19103">
        <ele>265</ele>
        <time>2018-10-15T14:23:59Z</time>
      </trkpt>
      <trkpt lat="47.65019" lon="6.1911">
        <ele>265</ele>
        <time>2018-10-15T14:24:02Z</time>
      </trkpt>
      <trkpt lat="47.65024" lon="6.19115">
        <ele>265</ele>
        <time>2018-10-15T14:24:04Z</time>
      </trkpt>
      <trkpt lat="47.65028" lon="6.19121">
        <ele>265</ele>
        <time>2018-10-15T14:24:06Z</time>
      </trkpt>
      <trkpt lat="47.65032" lon="6.19127">
        <ele>265</ele>
        <time>2018-10-15T14:24:09Z</time>
      </trkpt>
      <trkpt lat="47.65035" lon="6.19133">
        <ele>265</ele>
        <time>2018-10-15T14:24:11Z</time>
      </trkpt>
      <trkpt lat="47.65038" lon="6.19139">
        <ele>265</ele>
        <time>2018-10-15T14:24:14Z</time>
      </trkpt>
      <trkpt lat="47.6504" lon="6.19146">
        <ele>265</ele>
        <time>2018-10-15T14:24:17Z</time>
      </trkpt>
      <trkpt lat="47.65042" lon="6.19152">
        <ele>265</ele>
        <time>2018-10-15T14:24:23Z</time>
      </trkpt>
      <trkpt lat="47.65048" lon="6.19153">
        <ele>266</ele>
        <time>2018-10-15T14:25:06Z</time>
      </trkpt>
      <trkpt lat="47.65053" lon="6.1916">
        <ele>266</ele>
        <time>2018-10-15T14:25:09Z</time>
      </trkpt>
      <trkpt lat="47.65058" lon="6.19168">
        <ele>265</ele>
        <time>2018-10-15T14:25:12Z</time>
      </trkpt>
      <trkpt lat="47.65063" lon="6.19175">
        <ele>266</ele>
        <time>2018-10-15T14:25:15Z</time>
      </trkpt>
      <trkpt lat="47.65068" lon="6.19183">
        <ele>266</ele>
        <time>2018-10-15T14:25:18Z</time>
      </trkpt>
      <trkpt lat="47.65071" lon="6.19188">
        <ele>266</ele>
        <time>2018-10-15T14:25:20Z</time>
      </trkpt>
      <trkpt lat="47.65075" lon="6.19194">
        <ele>266</ele>
        <time>2018-10-15T14:25:23Z</time>
      </trkpt>
      <trkpt lat="47.65079" lon="6.19199">
        <ele>266</ele>
        <time>2018-10-15T14:25:25Z</time>
      </trkpt>
      <trkpt lat="47.65083" lon="6.19204">
        <ele>266</ele>
        <time>2018-10-15T14:25:27Z</time>
      </trkpt>
      <trkpt lat="47.65087" lon="6.19209">
        <ele>268</ele>
        <time>2018-10-15T14:25:29Z</time>
      </trkpt>
      <trkpt lat="47.65092" lon="6.19216">
        <ele>268</ele>
        <time>2018-10-15T14:25:31Z</time>
      </trkpt>
      <trkpt lat="47.65096" lon="6.19222">
        <ele>268</ele>
        <time>2018-10-15T14:25:33Z</time>
      </trkpt>
      <trkpt lat="47.651" lon="6.19227">
        <ele>268</ele>
        <time>2018-10-15T14:25:35Z</time>
      </trkpt>
      <trkpt lat="47.65103" lon="6.19232">
        <ele>268</ele>
        <time>2018-10-15T14:25:37Z</time>
      </trkpt>
      <trkpt lat="47.65108" lon="6.19239">
        <ele>268</ele>
        <time>2018-10-15T14:25:39Z</time>
      </trkpt>
      <trkpt lat="47.65112" lon="6.19246">
        <ele>268</ele>
        <time>2018-10-15T14:25:41Z</time>
      </trkpt>
      <trkpt lat="47.65117" lon="6.19252">
        <ele>268</ele>
        <time>2018-10-15T14:25:43Z</time>
      </trkpt>
      <trkpt lat="47.65122" lon="6.19259">
        <ele>268</ele>
        <time>2018-10-15T14:25:45Z</time>
      </trkpt>
      <trkpt lat="47.65126" lon="6.19264">
        <ele>268</ele>
        <time>2018-10-15T14:25:47Z</time>
      </trkpt>
      <trkpt lat="47.65131" lon="6.1927">
        <ele>268</ele>
        <time>2018-10-15T14:25:49Z</time>
      </trkpt>
      <trkpt lat="47.65136" lon="6.19276">
        <ele>268</ele>
        <time>2018-10-15T14:25:51Z</time>
      </trkpt>
      <trkpt lat="47.6514" lon="6.19281">
        <ele>268</ele>
        <time>2018-10-15T14:25:53Z</time>
      </trkpt>
      <trkpt lat="47.65144" lon="6.19286">
        <ele>268</ele>
        <time>2018-10-15T14:25:55Z</time>
      </trkpt>
      <trkpt lat="47.65148" lon="6.19291">
        <ele>268</ele>
        <time>2018-10-15T14:25:57Z</time>
      </trkpt>
      <trkpt lat="47.65153" lon="6.19296">
        <ele>268</ele>
        <time>2018-10-15T14:25:59Z</time>
      </trkpt>
      <trkpt lat="47.65159" lon="6.19301">
        <ele>268</ele>
        <time>2018-10-15T14:26:01Z</time>
      </trkpt>
      <trkpt lat="47.65164" lon="6.19307">
        <ele>268</ele>
        <time>2018-10-15T14:26:03Z</time>
      </trkpt>
      <trkpt lat="47.65169" lon="6.19313">
        <ele>270</ele>
        <time>2018-10-15T14:26:05Z</time>
      </trkpt>
      <trkpt lat="47.65174" lon="6.1932">
        <ele>269</ele>
        <time>2018-10-15T14:26:07Z</time>
      </trkpt>
      <trkpt lat="47.65179" lon="6.19326">
        <ele>269</ele>
        <time>2018-10-15T14:26:09Z</time>
      </trkpt>
      <trkpt lat="47.65184" lon="6.19333">
        <ele>269</ele>
        <time>2018-10-15T14:26:11Z</time>
      </trkpt>
      <trkpt lat="47.65189" lon="6.19339">
        <ele>268</ele>
        <time>2018-10-15T14:26:13Z</time>
      </trkpt>
      <trkpt lat="47.65193" lon="6.19345">
        <ele>268</ele>
        <time>2018-10-15T14:26:15Z</time>
      </trkpt>
      <trkpt lat="47.65197" lon="6.19353">
        <ele>268</ele>
        <time>2018-10-15T14:26:17Z</time>
      </trkpt>
      <trkpt lat="47.65201" lon="6.19361">
        <ele>268</ele>
        <time>2018-10-15T14:26:19Z</time>
      </trkpt>
      <trkpt lat="47.65206" lon="6.1937">
        <ele>268</ele>
        <time>2018-10-15T14:26:21Z</time>
      </trkpt>
      <trkpt lat="47.65211" lon="6.19376">
        <ele>268</ele>
        <time>2018-10-15T14:26:23Z</time>
      </trkpt>
      <trkpt lat="47.65214" lon="6.19384">
        <ele>268</ele>
        <time>2018-10-15T14:26:24Z</time>
      </trkpt>
      <trkpt lat="47.65219" lon="6.19391">
        <ele>268</ele>
        <time>2018-10-15T14:26:26Z</time>
      </trkpt>
      <trkpt lat="47.65223" lon="6.19397">
        <ele>268</ele>
        <time>2018-10-15T14:26:28Z</time>
      </trkpt>
      <trkpt lat="47.65226" lon="6.19403">
        <ele>268</ele>
        <time>2018-10-15T14:26:30Z</time>
      </trkpt>
      <trkpt lat="47.65231" lon="6.19412">
        <ele>268</ele>
        <time>2018-10-15T14:26:32Z</time>
      </trkpt>
      <trkpt lat="47.65235" lon="6.1942">
        <ele>267</ele>
        <time>2018-10-15T14:26:34Z</time>
      </trkpt>
      <trkpt lat="47.65238" lon="6.19427">
        <ele>267</ele>
        <time>2018-10-15T14:26:36Z</time>
      </trkpt>
      <trkpt lat="47.6524" lon="6.19433">
        <ele>267</ele>
        <time>2018-10-15T14:26:38Z</time>
      </trkpt>
      <trkpt lat="47.65243" lon="6.19438">
        <ele>267</ele>
        <time>2018-10-15T14:26:40Z</time>
      </trkpt>
      <trkpt lat="47.65248" lon="6.19445">
        <ele>267</ele>
        <time>2018-10-15T14:26:43Z</time>
      </trkpt>
      <trkpt lat="47.65251" lon="6.19449">
        <ele>270</ele>
        <time>2018-10-15T14:26:45Z</time>
      </trkpt>
      <trkpt lat="47.65256" lon="6.19456">
        <ele>270</ele>
        <time>2018-10-15T14:26:48Z</time>
      </trkpt>
      <trkpt lat="47.6526" lon="6.19461">
        <ele>270</ele>
        <time>2018-10-15T14:26:50Z</time>
      </trkpt>
      <trkpt lat="47.65263" lon="6.19467">
        <ele>270</ele>
        <time>2018-10-15T14:26:52Z</time>
      </trkpt>
      <trkpt lat="47.65264" lon="6.19474">
        <ele>270</ele>
        <time>2018-10-15T14:26:56Z</time>
      </trkpt>
      <trkpt lat="47.6526" lon="6.19478">
        <ele>270</ele>
        <time>2018-10-15T14:27:00Z</time>
      </trkpt>
      <trkpt lat="47.65256" lon="6.19481">
        <ele>270</ele>
        <time>2018-10-15T14:27:13Z</time>
      </trkpt>
      <trkpt lat="47.65261" lon="6.19483">
        <ele>270</ele>
        <time>2018-10-15T14:27:52Z</time>
      </trkpt>
      <trkpt lat="47.65266" lon="6.19488">
        <ele>270</ele>
        <time>2018-10-15T14:27:55Z</time>
      </trkpt>
      <trkpt lat="47.6527" lon="6.19492">
        <ele>270</ele>
        <time>2018-10-15T14:27:57Z</time>
      </trkpt>
      <trkpt lat="47.65273" lon="6.19497">
        <ele>270</ele>
        <time>2018-10-15T14:27:59Z</time>
      </trkpt>
      <trkpt lat="47.65276" lon="6.19503">
        <ele>270</ele>
        <time>2018-10-15T14:28:01Z</time>
      </trkpt>
      <trkpt lat="47.65278" lon="6.19509">
        <ele>270</ele>
        <time>2018-10-15T14:28:03Z</time>
      </trkpt>
      <trkpt lat="47.65278" lon="6.19517">
        <ele>270</ele>
        <time>2018-10-15T14:28:05Z</time>
      </trkpt>
      <trkpt lat="47.65279" lon="6.19524">
        <ele>270</ele>
        <time>2018-10-15T14:28:07Z</time>
      </trkpt>
      <trkpt lat="47.65279" lon="6.19534">
        <ele>270</ele>
        <time>2018-10-15T14:28:09Z</time>
      </trkpt>
      <trkpt lat="47.6528" lon="6.19542">
        <ele>270</ele>
        <time>2018-10-15T14:28:11Z</time>
      </trkpt>
      <trkpt lat="47.65284" lon="6.19553">
        <ele>270</ele>
        <time>2018-10-15T14:28:13Z</time>
      </trkpt>
      <trkpt lat="47.65287" lon="6.1956">
        <ele>271</ele>
        <time>2018-10-15T14:28:14Z</time>
      </trkpt>
      <trkpt lat="47.65291" lon="6.19568">
        <ele>271</ele>
        <time>2018-10-15T14:28:15Z</time>
      </trkpt>
      <trkpt lat="47.65295" lon="6.19576">
        <ele>271</ele>
        <time>2018-10-15T14:28:16Z</time>
      </trkpt>
      <trkpt lat="47.65298" lon="6.19584">
        <ele>270</ele>
        <time>2018-10-15T14:28:17Z</time>
      </trkpt>
      <trkpt lat="47.65305" lon="6.19605">
        <ele>270</ele>
        <time>2018-10-15T14:28:18Z</time>
      </trkpt>
      <trkpt lat="47.65308" lon="6.19614">
        <ele>270</ele>
        <time>2018-10-15T14:28:19Z</time>
      </trkpt>
      <trkpt lat="47.65311" lon="6.19622">
        <ele>270</ele>
        <time>2018-10-15T14:28:20Z</time>
      </trkpt>
      <trkpt lat="47.65315" lon="6.19628">
        <ele>270</ele>
        <time>2018-10-15T14:28:21Z</time>
      </trkpt>
      <trkpt lat="47.65317" lon="6.19636">
        <ele>270</ele>
        <time>2018-10-15T14:28:22Z</time>
      </trkpt>
      <trkpt lat="47.6532" lon="6.19641">
        <ele>270</ele>
        <time>2018-10-15T14:28:23Z</time>
      </trkpt>
      <trkpt lat="47.65326" lon="6.19649">
        <ele>270</ele>
        <time>2018-10-15T14:28:25Z</time>
      </trkpt>
      <trkpt lat="47.6533" lon="6.19657">
        <ele>270</ele>
        <time>2018-10-15T14:28:27Z</time>
      </trkpt>
      <trkpt lat="47.65333" lon="6.19665">
        <ele>270</ele>
        <time>2018-10-15T14:28:30Z</time>
      </trkpt>
      <trkpt lat="47.65335" lon="6.19672">
        <ele>270</ele>
        <time>2018-10-15T14:28:32Z</time>
      </trkpt>
      <trkpt lat="47.65338" lon="6.19677">
        <ele>271</ele>
        <time>2018-10-15T14:28:34Z</time>
      </trkpt>
      <trkpt lat="47.65342" lon="6.19683">
        <ele>271</ele>
        <time>2018-10-15T14:28:36Z</time>
      </trkpt>
      <trkpt lat="47.65346" lon="6.19689">
        <ele>271</ele>
        <time>2018-10-15T14:28:38Z</time>
      </trkpt>
      <trkpt lat="47.65349" lon="6.19698">
        <ele>271</ele>
        <time>2018-10-15T14:28:40Z</time>
      </trkpt>
      <trkpt lat="47.65352" lon="6.19705">
        <ele>271</ele>
        <time>2018-10-15T14:28:42Z</time>
      </trkpt>
      <trkpt lat="47.65355" lon="6.19712">
        <ele>271</ele>
        <time>2018-10-15T14:28:44Z</time>
      </trkpt>
      <trkpt lat="47.65358" lon="6.1972">
        <ele>271</ele>
        <time>2018-10-15T14:28:46Z</time>
      </trkpt>
      <trkpt lat="47.65361" lon="6.19728">
        <ele>271</ele>
        <time>2018-10-15T14:28:48Z</time>
      </trkpt>
      <trkpt lat="47.65365" lon="6.19736">
        <ele>271</ele>
        <time>2018-10-15T14:28:50Z</time>
      </trkpt>
      <trkpt lat="47.65368" lon="6.19742">
        <ele>271</ele>
        <time>2018-10-15T14:28:52Z</time>
      </trkpt>
      <trkpt lat="47.65371" lon="6.19749">
        <ele>271</ele>
        <time>2018-10-15T14:28:54Z</time>
      </trkpt>
      <trkpt lat="47.65374" lon="6.19758">
        <ele>269</ele>
        <time>2018-10-15T14:28:57Z</time>
      </trkpt>
      <trkpt lat="47.65377" lon="6.19764">
        <ele>269</ele>
        <time>2018-10-15T14:28:59Z</time>
      </trkpt>
      <trkpt lat="47.6538" lon="6.1977">
        <ele>269</ele>
        <time>2018-10-15T14:29:01Z</time>
      </trkpt>
      <trkpt lat="47.65384" lon="6.19779">
        <ele>269</ele>
        <time>2018-10-15T14:29:04Z</time>
      </trkpt>
      <trkpt lat="47.65387" lon="6.19785">
        <ele>269</ele>
        <time>2018-10-15T14:29:06Z</time>
      </trkpt>
      <trkpt lat="47.65391" lon="6.19793">
        <ele>269</ele>
        <time>2018-10-15T14:29:09Z</time>
      </trkpt>
      <trkpt lat="47.65394" lon="6.198">
        <ele>269</ele>
        <time>2018-10-15T14:29:12Z</time>
      </trkpt>
      <trkpt lat="47.65399" lon="6.19809">
        <ele>269</ele>
        <time>2018-10-15T14:29:15Z</time>
      </trkpt>
      <trkpt lat="47.65402" lon="6.19814">
        <ele>270</ele>
        <time>2018-10-15T14:29:17Z</time>
      </trkpt>
      <trkpt lat="47.65405" lon="6.1982">
        <ele>270</ele>
        <time>2018-10-15T14:29:19Z</time>
      </trkpt>
      <trkpt lat="47.65408" lon="6.19825">
        <ele>271</ele>
        <time>2018-10-15T14:29:21Z</time>
      </trkpt>
      <trkpt lat="47.65412" lon="6.19831">
        <ele>271</ele>
        <time>2018-10-15T14:29:23Z</time>
      </trkpt>
      <trkpt lat="47.65416" lon="6.19837">
        <ele>271</ele>
        <time>2018-10-15T14:29:25Z</time>
      </trkpt>
      <trkpt lat="47.65419" lon="6.19843">
        <ele>272</ele>
        <time>2018-10-15T14:29:27Z</time>
      </trkpt>
      <trkpt lat="47.65422" lon="6.19848">
        <ele>271</ele>
        <time>2018-10-15T14:29:29Z</time>
      </trkpt>
      <trkpt lat="47.65426" lon="6.19855">
        <ele>271</ele>
        <time>2018-10-15T14:29:31Z</time>
      </trkpt>
      <trkpt lat="47.65428" lon="6.19862">
        <ele>271</ele>
        <time>2018-10-15T14:29:33Z</time>
      </trkpt>
      <trkpt lat="47.65432" lon="6.1987">
        <ele>271</ele>
        <time>2018-10-15T14:29:36Z</time>
      </trkpt>
      <trkpt lat="47.65435" lon="6.19879">
        <ele>270</ele>
        <time>2018-10-15T14:29:39Z</time>
      </trkpt>
      <trkpt lat="47.65437" lon="6.19887">
        <ele>270</ele>
        <time>2018-10-15T14:29:41Z</time>
      </trkpt>
      <trkpt lat="47.6544" lon="6.19896">
        <ele>269</ele>
        <time>2018-10-15T14:29:43Z</time>
      </trkpt>
      <trkpt lat="47.65443" lon="6.19905">
        <ele>269</ele>
        <time>2018-10-15T14:29:45Z</time>
      </trkpt>
      <trkpt lat="47.65446" lon="6.19913">
        <ele>269</ele>
        <time>2018-10-15T14:29:47Z</time>
      </trkpt>
      <trkpt lat="47.65449" lon="6.19921">
        <ele>265</ele>
        <time>2018-10-15T14:29:49Z</time>
      </trkpt>
      <trkpt lat="47.65452" lon="6.19929">
        <ele>265</ele>
        <time>2018-10-15T14:29:51Z</time>
      </trkpt>
      <trkpt lat="47.65455" lon="6.19936">
        <ele>265</ele>
        <time>2018-10-15T14:29:53Z</time>
      </trkpt>
      <trkpt lat="47.65457" lon="6.19942">
        <ele>265</ele>
        <time>2018-10-15T14:29:55Z</time>
      </trkpt>
      <trkpt lat="47.6546" lon="6.19948">
        <ele>265</ele>
        <time>2018-10-15T14:29:57Z</time>
      </trkpt>
      <trkpt lat="47.65463" lon="6.19956">
        <ele>265</ele>
        <time>2018-10-15T14:29:59Z</time>
      </trkpt>
      <trkpt lat="47.65466" lon="6.19962">
        <ele>265</ele>
        <time>2018-10-15T14:30:01Z</time>
      </trkpt>
      <trkpt lat="47.65472" lon="6.19968">
        <ele>265</ele>
        <time>2018-10-15T14:30:04Z</time>
      </trkpt>
      <trkpt lat="47.65476" lon="6.19974">
        <ele>266</ele>
        <time>2018-10-15T14:30:07Z</time>
      </trkpt>
      <trkpt lat="47.65481" lon="6.19982">
        <ele>266</ele>
        <time>2018-10-15T14:30:10Z</time>
      </trkpt>
      <trkpt lat="47.65484" lon="6.19989">
        <ele>266</ele>
        <time>2018-10-15T14:30:14Z</time>
      </trkpt>
      <trkpt lat="47.65489" lon="6.19993">
        <ele>267</ele>
        <time>2018-10-15T14:31:03Z</time>
      </trkpt>
      <trkpt lat="47.65494" lon="6.19998">
        <ele>268</ele>
        <time>2018-10-15T14:31:07Z</time>
      </trkpt>
      <trkpt lat="47.65497" lon="6.20003">
        <ele>268</ele>
        <time>2018-10-15T14:31:09Z</time>
      </trkpt>
      <trkpt lat="47.65501" lon="6.20007">
        <ele>269</ele>
        <time>2018-10-15T14:31:11Z</time>
      </trkpt>
      <trkpt lat="47.65505" lon="6.20015">
        <ele>269</ele>
        <time>2018-10-15T14:31:14Z</time>
      </trkpt>
      <trkpt lat="47.6551" lon="6.20022">
        <ele>270</ele>
        <time>2018-10-15T14:31:17Z</time>
      </trkpt>
      <trkpt lat="47.65514" lon="6.20027">
        <ele>270</ele>
        <time>2018-10-15T14:31:19Z</time>
      </trkpt>
      <trkpt lat="47.65517" lon="6.20032">
        <ele>270</ele>
        <time>2018-10-15T14:31:21Z</time>
      </trkpt>
      <trkpt lat="47.65522" lon="6.20039">
        <ele>270</ele>
        <time>2018-10-15T14:31:24Z</time>
      </trkpt>
      <trkpt lat="47.65525" lon="6.20043">
        <ele>270</ele>
        <time>2018-10-15T14:31:26Z</time>
      </trkpt>
      <trkpt lat="47.65529" lon="6.20047">
        <ele>270</ele>
        <time>2018-10-15T14:31:28Z</time>
      </trkpt>
      <trkpt lat="47.65534" lon="6.20051">
        <ele>270</ele>
        <time>2018-10-15T14:31:31Z</time>
      </trkpt>
      <trkpt lat="47.65539" lon="6.20056">
        <ele>270</ele>
        <time>2018-10-15T14:31:34Z</time>
      </trkpt>
      <trkpt lat="47.65544" lon="6.20062">
        <ele>270</ele>
        <time>2018-10-15T14:31:37Z</time>
      </trkpt>
      <trkpt lat="47.65549" lon="6.20068">
        <ele>270</ele>
        <time>2018-10-15T14:31:40Z</time>
      </trkpt>
      <trkpt lat="47.65552" lon="6.20072">
        <ele>270</ele>
        <time>2018-10-15T14:31:42Z</time>
      </trkpt>
      <trkpt lat="47.65556" lon="6.20078">
        <ele>271</ele>
        <time>2018-10-15T14:31:45Z</time>
      </trkpt>
      <trkpt lat="47.65561" lon="6.20084">
        <ele>269</ele>
        <time>2018-10-15T14:31:48Z</time>
      </trkpt>
      <trkpt lat="47.65566" lon="6.20088">
        <ele>269</ele>
        <time>2018-10-15T14:31:51Z</time>
      </trkpt>
      <trkpt lat="47.65571" lon="6.20093">
        <ele>269</ele>
        <time>2018-10-15T14:31:54Z</time>
      </trkpt>
      <trkpt lat="47.65576" lon="6.20097">
        <ele>269</ele>
        <time>2018-10-15T14:31:57Z</time>
      </trkpt>
      <trkpt lat="47.6558" lon="6.20101">
        <ele>269</ele>
        <time>2018-10-15T14:31:59Z</time>
      </trkpt>
      <trkpt lat="47.65585" lon="6.20106">
        <ele>273</ele>
        <time>2018-10-15T14:32:02Z</time>
      </trkpt>
      <trkpt lat="47.6559" lon="6.2011">
        <ele>273</ele>
        <time>2018-10-15T14:32:05Z</time>
      </trkpt>
      <trkpt lat="47.65594" lon="6.20114">
        <ele>273</ele>
        <time>2018-10-15T14:32:08Z</time>
      </trkpt>
      <trkpt lat="47.656" lon="6.2012">
        <ele>273</ele>
        <time>2018-10-15T14:32:11Z</time>
      </trkpt>
      <trkpt lat="47.65605" lon="6.20125">
        <ele>273</ele>
        <time>2018-10-15T14:32:14Z</time>
      </trkpt>
      <trkpt lat="47.65609" lon="6.2013">
        <ele>273</ele>
        <time>2018-10-15T14:32:17Z</time>
      </trkpt>
      <trkpt lat="47.65614" lon="6.20135">
        <ele>273</ele>
        <time>2018-10-15T14:32:20Z</time>
      </trkpt>
      <trkpt lat="47.65618" lon="6.2014">
        <ele>273</ele>
        <time>2018-10-15T14:32:23Z</time>
      </trkpt>
      <trkpt lat="47.65624" lon="6.20144">
        <ele>273</ele>
        <time>2018-10-15T14:32:27Z</time>
      </trkpt>
      <trkpt lat="47.6563" lon="6.20143">
        <ele>273</ele>
        <time>2018-10-15T14:32:31Z</time>
      </trkpt>
      <trkpt lat="47.65634" lon="6.2014">
        <ele>273</ele>
        <time>2018-10-15T14:32:34Z</time>
      </trkpt>
      <trkpt lat="47.65638" lon="6.20136">
        <ele>274</ele>
        <time>2018-10-15T14:32:38Z</time>
      </trkpt>
      <trkpt lat="47.65642" lon="6.20131">
        <ele>274</ele>
        <time>2018-10-15T14:32:41Z</time>
      </trkpt>
      <trkpt lat="47.65644" lon="6.20125">
        <ele>274</ele>
        <time>2018-10-15T14:32:44Z</time>
      </trkpt>
      <trkpt lat="47.65647" lon="6.20119">
        <ele>274</ele>
        <time>2018-10-15T14:32:47Z</time>
      </trkpt>
      <trkpt lat="47.6565" lon="6.20114">
        <ele>275</ele>
        <time>2018-10-15T14:32:50Z</time>
      </trkpt>
      <trkpt lat="47.65654" lon="6.20107">
        <ele>275</ele>
        <time>2018-10-15T14:32:54Z</time>
      </trkpt>
      <trkpt lat="47.65658" lon="6.20102">
        <ele>276</ele>
        <time>2018-10-15T14:32:58Z</time>
      </trkpt>
      <trkpt lat="47.65661" lon="6.20096">
        <ele>277</ele>
        <time>2018-10-15T14:33:02Z</time>
      </trkpt>
      <trkpt lat="47.65665" lon="6.2009">
        <ele>278</ele>
        <time>2018-10-15T14:33:06Z</time>
      </trkpt>
      <trkpt lat="47.65668" lon="6.20085">
        <ele>279</ele>
        <time>2018-10-15T14:33:11Z</time>
      </trkpt>
      <trkpt lat="47.65672" lon="6.20081">
        <ele>280</ele>
        <time>2018-10-15T14:33:16Z</time>
      </trkpt>
      <trkpt lat="47.65675" lon="6.20075">
        <ele>281</ele>
        <time>2018-10-15T14:33:21Z</time>
      </trkpt>
      <trkpt lat="47.65678" lon="6.20069">
        <ele>282</ele>
        <time>2018-10-15T14:33:25Z</time>
      </trkpt>
      <trkpt lat="47.65681" lon="6.20065">
        <ele>283</ele>
        <time>2018-10-15T14:33:28Z</time>
      </trkpt>
      <trkpt lat="47.65686" lon="6.20059">
        <ele>283</ele>
        <time>2018-10-15T14:33:31Z</time>
      </trkpt>
      <trkpt lat="47.6569" lon="6.20053">
        <ele>284</ele>
        <time>2018-10-15T14:33:34Z</time>
      </trkpt>
      <trkpt lat="47.65693" lon="6.20047">
        <ele>284</ele>
        <time>2018-10-15T14:33:38Z</time>
      </trkpt>
      <trkpt lat="47.65697" lon="6.20041">
        <ele>285</ele>
        <time>2018-10-15T14:33:42Z</time>
      </trkpt>
      <trkpt lat="47.65699" lon="6.20035">
        <ele>285</ele>
        <time>2018-10-15T14:33:46Z</time>
      </trkpt>
      <trkpt lat="47.65703" lon="6.20028">
        <ele>285</ele>
        <time>2018-10-15T14:33:52Z</time>
      </trkpt>
      <trkpt lat="47.65706" lon="6.20024">
        <ele>285</ele>
        <time>2018-10-15T14:33:56Z</time>
      </trkpt>
      <trkpt lat="47.65711" lon="6.20021">
        <ele>286</ele>
        <time>2018-10-15T14:34:00Z</time>
      </trkpt>
      <trkpt lat="47.65715" lon="6.20017">
        <ele>286</ele>
        <time>2018-10-15T14:34:05Z</time>
      </trkpt>
      <trkpt lat="47.65719" lon="6.20012">
        <ele>287</ele>
        <time>2018-10-15T14:34:10Z</time>
      </trkpt>
      <trkpt lat="47.65723" lon="6.20006">
        <ele>287</ele>
        <time>2018-10-15T14:34:14Z</time>
      </trkpt>
      <trkpt lat="47.65726" lon="6.2">
        <ele>289</ele>
        <time>2018-10-15T14:34:17Z</time>
      </trkpt>
      <trkpt lat="47.6573" lon="6.19993">
        <ele>290</ele>
        <time>2018-10-15T14:34:21Z</time>
      </trkpt>
      <trkpt lat="47.65733" lon="6.19987">
        <ele>290</ele>
        <time>2018-10-15T14:34:25Z</time>
      </trkpt>
      <trkpt lat="47.65736" lon="6.19979">
        <ele>290</ele>
        <time>2018-10-15T14:34:29Z</time>
      </trkpt>
      <trkpt lat="47.65739" lon="6.19974">
        <ele>290</ele>
        <time>2018-10-15T14:34:33Z</time>
      </trkpt>
      <trkpt lat="47.65743" lon="6.19968">
        <ele>290</ele>
        <time>2018-10-15T14:34:40Z</time>
      </trkpt>
      <trkpt lat="47.65746" lon="6.19962">
        <ele>290</ele>
        <time>2018-10-15T14:34:47Z</time>
      </trkpt>
      <trkpt lat="47.65749" lon="6.19956">
        <ele>290</ele>
        <time>2018-10-15T14:34:52Z</time>
      </trkpt>
      <trkpt lat="47.65751" lon="6.19948">
        <ele>296</ele>
        <time>2018-10-15T14:34:57Z</time>
      </trkpt>
      <trkpt lat="47.65753" lon="6.19942">
        <ele>296</ele>
        <time>2018-10-15T14:35:01Z</time>
      </trkpt>
      <trkpt lat="47.65757" lon="6.19935">
        <ele>296</ele>
        <time>2018-10-15T14:35:06Z</time>
      </trkpt>
      <trkpt lat="47.6576" lon="6.19929">
        <ele>296</ele>
        <time>2018-10-15T14:35:10Z</time>
      </trkpt>
      <trkpt lat="47.65763" lon="6.19922">
        <ele>296</ele>
        <time>2018-10-15T14:35:13Z</time>
      </trkpt>
      <trkpt lat="47.65766" lon="6.19917">
        <ele>296</ele>
        <time>2018-10-15T14:35:15Z</time>
      </trkpt>
      <trkpt lat="47.65769" lon="6.19909">
        <ele>297</ele>
        <time>2018-10-15T14:35:18Z</time>
      </trkpt>
      <trkpt lat="47.65773" lon="6.19903">
        <ele>297</ele>
        <time>2018-10-15T14:35:21Z</time>
      </trkpt>
      <trkpt lat="47.65776" lon="6.19897">
        <ele>298</ele>
        <time>2018-10-15T14:35:24Z</time>
      </trkpt>
      <trkpt lat="47.6578" lon="6.19891">
        <ele>298</ele>
        <time>2018-10-15T14:35:28Z</time>
      </trkpt>
      <trkpt lat="47.65784" lon="6.19886">
        <ele>298</ele>
        <time>2018-10-15T14:35:32Z</time>
      </trkpt>
      <trkpt lat="47.65787" lon="6.1988">
        <ele>299</ele>
        <time>2018-10-15T14:35:36Z</time>
      </trkpt>
      <trkpt lat="47.65791" lon="6.19875">
        <ele>299</ele>
        <time>2018-10-15T14:35:41Z</time>
      </trkpt>
      <trkpt lat="47.65795" lon="6.19869">
        <ele>299</ele>
        <time>2018-10-15T14:35:46Z</time>
      </trkpt>
      <trkpt lat="47.65798" lon="6.19865">
        <ele>299</ele>
        <time>2018-10-15T14:35:51Z</time>
      </trkpt>
      <trkpt lat="47.65802" lon="6.1986">
        <ele>300</ele>
        <time>2018-10-15T14:35:56Z</time>
      </trkpt>
      <trkpt lat="47.65806" lon="6.19856">
        <ele>300</ele>
        <time>2018-10-15T14:36:00Z</time>
      </trkpt>
      <trkpt lat="47.6581" lon="6.19851">
        <ele>300</ele>
        <time>2018-10-15T14:36:04Z</time>
      </trkpt>
      <trkpt lat="47.65813" lon="6.19847">
        <ele>301</ele>
        <time>2018-10-15T14:36:08Z</time>
      </trkpt>
      <trkpt lat="47.65817" lon="6.19842">
        <ele>301</ele>
        <time>2018-10-15T14:36:12Z</time>
      </trkpt>
      <trkpt lat="47.6582" lon="6.19836">
        <ele>302</ele>
        <time>2018-10-15T14:36:16Z</time>
      </trkpt>
      <trkpt lat="47.65823" lon="6.19831">
        <ele>302</ele>
        <time>2018-10-15T14:36:21Z</time>
      </trkpt>
      <trkpt lat="47.65826" lon="6.19825">
        <ele>303</ele>
        <time>2018-10-15T14:36:27Z</time>
      </trkpt>
      <trkpt lat="47.65829" lon="6.19819">
        <ele>302</ele>
        <time>2018-10-15T14:36:32Z</time>
      </trkpt>
      <trkpt lat="47.65832" lon="6.19813">
        <ele>302</ele>
        <time>2018-10-15T14:36:36Z</time>
      </trkpt>
      <trkpt lat="47.65835" lon="6.19806">
        <ele>306</ele>
        <time>2018-10-15T14:36:40Z</time>
      </trkpt>
      <trkpt lat="47.6584" lon="6.19799">
        <ele>307</ele>
        <time>2018-10-15T14:36:44Z</time>
      </trkpt>
      <trkpt lat="47.65842" lon="6.19794">
        <ele>307</ele>
        <time>2018-10-15T14:36:47Z</time>
      </trkpt>
      <trkpt lat="47.65846" lon="6.1979">
        <ele>307</ele>
        <time>2018-10-15T14:36:51Z</time>
      </trkpt>
      <trkpt lat="47.65851" lon="6.19786">
        <ele>307</ele>
        <time>2018-10-15T14:36:55Z</time>
      </trkpt>
      <trkpt lat="47.65856" lon="6.19782">
        <ele>307</ele>
        <time>2018-10-15T14:36:59Z</time>
      </trkpt>
      <trkpt lat="47.65859" lon="6.19776">
        <ele>307</ele>
        <time>2018-10-15T14:37:03Z</time>
      </trkpt>
      <trkpt lat="47.65862" lon="6.1977">
        <ele>307</ele>
        <time>2018-10-15T14:37:06Z</time>
      </trkpt>
      <trkpt lat="47.65866" lon="6.19763">
        <ele>307</ele>
        <time>2018-10-15T14:37:10Z</time>
      </trkpt>
      <trkpt lat="47.6587" lon="6.19758">
        <ele>308</ele>
        <time>2018-10-15T14:37:14Z</time>
      </trkpt>
      <trkpt lat="47.65874" lon="6.19755">
        <ele>308</ele>
        <time>2018-10-15T14:37:17Z</time>
      </trkpt>
      <trkpt lat="47.65879" lon="6.19752">
        <ele>308</ele>
        <time>2018-10-15T14:37:21Z</time>
      </trkpt>
      <trkpt lat="47.65884" lon="6.19747">
        <ele>309</ele>
        <time>2018-10-15T14:37:26Z</time>
      </trkpt>
      <trkpt lat="47.65888" lon="6.19742">
        <ele>309</ele>
        <time>2018-10-15T14:37:30Z</time>
      </trkpt>
      <trkpt lat="47.65893" lon="6.19739">
        <ele>310</ele>
        <time>2018-10-15T14:37:34Z</time>
      </trkpt>
      <trkpt lat="47.65897" lon="6.19737">
        <ele>310</ele>
        <time>2018-10-15T14:37:38Z</time>
      </trkpt>
      <trkpt lat="47.65902" lon="6.19734">
        <ele>310</ele>
        <time>2018-10-15T14:37:42Z</time>
      </trkpt>
      <trkpt lat="47.65907" lon="6.19732">
        <ele>310</ele>
        <time>2018-10-15T14:37:47Z</time>
      </trkpt>
      <trkpt lat="47.65912" lon="6.1973">
        <ele>310</ele>
        <time>2018-10-15T14:37:51Z</time>
      </trkpt>
      <trkpt lat="47.65917" lon="6.19728">
        <ele>315</ele>
        <time>2018-10-15T14:37:55Z</time>
      </trkpt>
      <trkpt lat="47.65922" lon="6.19725">
        <ele>315</ele>
        <time>2018-10-15T14:37:59Z</time>
      </trkpt>
      <trkpt lat="47.65928" lon="6.19723">
        <ele>315</ele>
        <time>2018-10-15T14:38:03Z</time>
      </trkpt>
      <trkpt lat="47.65932" lon="6.19721">
        <ele>316</ele>
        <time>2018-10-15T14:38:06Z</time>
      </trkpt>
      <trkpt lat="47.65938" lon="6.19718">
        <ele>316</ele>
        <time>2018-10-15T14:38:10Z</time>
      </trkpt>
      <trkpt lat="47.65942" lon="6.19717">
        <ele>316</ele>
        <time>2018-10-15T14:38:14Z</time>
      </trkpt>
      <trkpt lat="47.65947" lon="6.19717">
        <ele>316</ele>
        <time>2018-10-15T14:38:18Z</time>
      </trkpt>
      <trkpt lat="47.65951" lon="6.19713">
        <ele>316</ele>
        <time>2018-10-15T14:38:22Z</time>
      </trkpt>
      <trkpt lat="47.65954" lon="6.19707">
        <ele>317</ele>
        <time>2018-10-15T14:38:26Z</time>
      </trkpt>
      <trkpt lat="47.65956" lon="6.197">
        <ele>317</ele>
        <time>2018-10-15T14:38:30Z</time>
      </trkpt>
      <trkpt lat="47.65958" lon="6.19694">
        <ele>317</ele>
        <time>2018-10-15T14:38:33Z</time>
      </trkpt>
      <trkpt lat="47.65959" lon="6.19687">
        <ele>317</ele>
        <time>2018-10-15T14:38:37Z</time>
      </trkpt>
      <trkpt lat="47.6596" lon="6.19679">
        <ele>317</ele>
        <time>2018-10-15T14:38:41Z</time>
      </trkpt>
      <trkpt lat="47.6596" lon="6.19672">
        <ele>317</ele>
        <time>2018-10-15T14:38:45Z</time>
      </trkpt>
      <trkpt lat="47.65957" lon="6.19667">
        <ele>316</ele>
        <time>2018-10-15T14:39:11Z</time>
      </trkpt>
      <trkpt lat="47.65958" lon="6.19658">
        <ele>317</ele>
        <time>2018-10-15T14:40:41Z</time>
      </trkpt>
      <trkpt lat="47.65961" lon="6.19653">
        <ele>317</ele>
        <time>2018-10-15T14:40:44Z</time>
      </trkpt>
      <trkpt lat="47.65966" lon="6.19649">
        <ele>317</ele>
        <time>2018-10-15T14:40:47Z</time>
      </trkpt>
      <trkpt lat="47.65971" lon="6.19643">
        <ele>317</ele>
        <time>2018-10-15T14:40:50Z</time>
      </trkpt>
      <trkpt lat="47.65975" lon="6.19639">
        <ele>317</ele>
        <time>2018-10-15T14:40:53Z</time>
      </trkpt>
      <trkpt lat="47.6598" lon="6.19637">
        <ele>318</ele>
        <time>2018-10-15T14:40:57Z</time>
      </trkpt>
      <trkpt lat="47.65984" lon="6.19635">
        <ele>318</ele>
        <time>2018-10-15T14:41:01Z</time>
      </trkpt>
      <trkpt lat="47.65989" lon="6.19635">
        <ele>318</ele>
        <time>2018-10-15T14:41:06Z</time>
      </trkpt>
      <trkpt lat="47.65994" lon="6.19635">
        <ele>318</ele>
        <time>2018-10-15T14:41:10Z</time>
      </trkpt>
      <trkpt lat="47.65999" lon="6.19635">
        <ele>318</ele>
        <time>2018-10-15T14:41:16Z</time>
      </trkpt>
      <trkpt lat="47.66003" lon="6.19633">
        <ele>324</ele>
        <time>2018-10-15T14:41:20Z</time>
      </trkpt>
      <trkpt lat="47.66008" lon="6.19631">
        <ele>325</ele>
        <time>2018-10-15T14:41:23Z</time>
      </trkpt>
      <trkpt lat="47.66012" lon="6.19629">
        <ele>325</ele>
        <time>2018-10-15T14:41:26Z</time>
      </trkpt>
      <trkpt lat="47.66018" lon="6.19627">
        <ele>325</ele>
        <time>2018-10-15T14:41:30Z</time>
      </trkpt>
      <trkpt lat="47.66023" lon="6.19625">
        <ele>325</ele>
        <time>2018-10-15T14:41:33Z</time>
      </trkpt>
      <trkpt lat="47.66028" lon="6.19622">
        <ele>326</ele>
        <time>2018-10-15T14:41:36Z</time>
      </trkpt>
      <trkpt lat="47.66033" lon="6.19621">
        <ele>326</ele>
        <time>2018-10-15T14:41:41Z</time>
      </trkpt>
      <trkpt lat="47.66038" lon="6.19619">
        <ele>326</ele>
        <time>2018-10-15T14:41:47Z</time>
      </trkpt>
      <trkpt lat="47.66042" lon="6.19616">
        <ele>327</ele>
        <time>2018-10-15T14:41:51Z</time>
      </trkpt>
      <trkpt lat="47.66046" lon="6.1961">
        <ele>327</ele>
        <time>2018-10-15T14:41:57Z</time>
      </trkpt>
      <trkpt lat="47.66051" lon="6.19607">
        <ele>327</ele>
        <time>2018-10-15T14:42:01Z</time>
      </trkpt>
      <trkpt lat="47.66056" lon="6.19603">
        <ele>328</ele>
        <time>2018-10-15T14:42:05Z</time>
      </trkpt>
      <trkpt lat="47.66061" lon="6.19599">
        <ele>328</ele>
        <time>2018-10-15T14:42:09Z</time>
      </trkpt>
      <trkpt lat="47.66066" lon="6.19596">
        <ele>329</ele>
        <time>2018-10-15T14:42:13Z</time>
      </trkpt>
      <trkpt lat="47.6607" lon="6.19594">
        <ele>329</ele>
        <time>2018-10-15T14:42:16Z</time>
      </trkpt>
      <trkpt lat="47.66075" lon="6.19591">
        <ele>330</ele>
        <time>2018-10-15T14:42:20Z</time>
      </trkpt>
      <trkpt lat="47.6608" lon="6.19588">
        <ele>331</ele>
        <time>2018-10-15T14:42:24Z</time>
      </trkpt>
      <trkpt lat="47.66085" lon="6.19586">
        <ele>333</ele>
        <time>2018-10-15T14:42:28Z</time>
      </trkpt>
      <trkpt lat="47.6609" lon="6.19585">
        <ele>333</ele>
        <time>2018-10-15T14:42:32Z</time>
      </trkpt>
      <trkpt lat="47.66095" lon="6.19585">
        <ele>333</ele>
        <time>2018-10-15T14:42:40Z</time>
      </trkpt>
      <trkpt lat="47.66099" lon="6.19582">
        <ele>334</ele>
        <time>2018-10-15T14:42:45Z</time>
      </trkpt>
      <trkpt lat="47.66103" lon="6.19576">
        <ele>335</ele>
        <time>2018-10-15T14:42:50Z</time>
      </trkpt>
      <trkpt lat="47.66106" lon="6.1957">
        <ele>335</ele>
        <time>2018-10-15T14:42:54Z</time>
      </trkpt>
      <trkpt lat="47.66109" lon="6.19564">
        <ele>335</ele>
        <time>2018-10-15T14:42:58Z</time>
      </trkpt>
      <trkpt lat="47.66111" lon="6.19558">
        <ele>335</ele>
        <time>2018-10-15T14:43:01Z</time>
      </trkpt>
      <trkpt lat="47.66114" lon="6.19551">
        <ele>336</ele>
        <time>2018-10-15T14:43:04Z</time>
      </trkpt>
      <trkpt lat="47.66116" lon="6.19544">
        <ele>336</ele>
        <time>2018-10-15T14:43:07Z</time>
      </trkpt>
      <trkpt lat="47.66119" lon="6.19538">
        <ele>336</ele>
        <time>2018-10-15T14:43:10Z</time>
      </trkpt>
      <trkpt lat="47.66122" lon="6.19533">
        <ele>336</ele>
        <time>2018-10-15T14:43:13Z</time>
      </trkpt>
      <trkpt lat="47.66126" lon="6.19527">
        <ele>336</ele>
        <time>2018-10-15T14:43:17Z</time>
      </trkpt>
      <trkpt lat="47.6613" lon="6.19523">
        <ele>337</ele>
        <time>2018-10-15T14:43:21Z</time>
      </trkpt>
      <trkpt lat="47.66135" lon="6.19519">
        <ele>337</ele>
        <time>2018-10-15T14:43:26Z</time>
      </trkpt>
      <trkpt lat="47.66139" lon="6.19515">
        <ele>337</ele>
        <time>2018-10-15T14:43:30Z</time>
      </trkpt>
      <trkpt lat="47.66144" lon="6.19511">
        <ele>337</ele>
        <time>2018-10-15T14:43:34Z</time>
      </trkpt>
      <trkpt lat="47.6615" lon="6.19508">
        <ele>338</ele>
        <time>2018-10-15T14:43:37Z</time>
      </trkpt>
      <trkpt lat="47.66155" lon="6.19505">
        <ele>339</ele>
        <time>2018-10-15T14:43:39Z</time>
      </trkpt>
      <trkpt lat="47.6616" lon="6.19503">
        <ele>339</ele>
        <time>2018-10-15T14:43:41Z</time>
      </trkpt>
      <trkpt lat="47.66164" lon="6.19501">
        <ele>340</ele>
        <time>2018-10-15T14:43:43Z</time>
      </trkpt>
      <trkpt lat="47.6617" lon="6.19499">
        <ele>340</ele>
        <time>2018-10-15T14:43:46Z</time>
      </trkpt>
      <trkpt lat="47.66176" lon="6.19496">
        <ele>339</ele>
        <time>2018-10-15T14:43:49Z</time>
      </trkpt>
      <trkpt lat="47.66181" lon="6.19494">
        <ele>339</ele>
        <time>2018-10-15T14:43:52Z</time>
      </trkpt>
      <trkpt lat="47.66187" lon="6.19494">
        <ele>339</ele>
        <time>2018-10-15T14:43:56Z</time>
      </trkpt>
      <trkpt lat="47.66191" lon="6.19495">
        <ele>339</ele>
        <time>2018-10-15T14:43:59Z</time>
      </trkpt>
      <trkpt lat="47.66197" lon="6.19495">
        <ele>339</ele>
        <time>2018-10-15T14:44:03Z</time>
      </trkpt>
      <trkpt lat="47.66205" lon="6.19494">
        <ele>339</ele>
        <time>2018-10-15T14:44:06Z</time>
      </trkpt>
      <trkpt lat="47.66214" lon="6.19495">
        <ele>339</ele>
        <time>2018-10-15T14:44:08Z</time>
      </trkpt>
      <trkpt lat="47.66219" lon="6.19496">
        <ele>339</ele>
        <time>2018-10-15T14:44:10Z</time>
      </trkpt>
      <trkpt lat="47.66224" lon="6.19497">
        <ele>340</ele>
        <time>2018-10-15T14:44:13Z</time>
      </trkpt>
      <trkpt lat="47.6623" lon="6.19499">
        <ele>340</ele>
        <time>2018-10-15T14:44:17Z</time>
      </trkpt>
      <trkpt lat="47.66234" lon="6.19501">
        <ele>342</ele>
        <time>2018-10-15T14:44:20Z</time>
      </trkpt>
      <trkpt lat="47.66239" lon="6.19503">
        <ele>342</ele>
        <time>2018-10-15T14:44:24Z</time>
      </trkpt>
      <trkpt lat="47.66244" lon="6.19503">
        <ele>342</ele>
        <time>2018-10-15T14:44:27Z</time>
      </trkpt>
      <trkpt lat="47.6625" lon="6.19504">
        <ele>342</ele>
        <time>2018-10-15T14:44:30Z</time>
      </trkpt>
      <trkpt lat="47.66254" lon="6.19505">
        <ele>342</ele>
        <time>2018-10-15T14:44:32Z</time>
      </trkpt>
      <trkpt lat="47.6626" lon="6.19507">
        <ele>342</ele>
        <time>2018-10-15T14:44:35Z</time>
      </trkpt>
      <trkpt lat="47.66266" lon="6.1951">
        <ele>342</ele>
        <time>2018-10-15T14:44:38Z</time>
      </trkpt>
      <trkpt lat="47.66273" lon="6.1951">
        <ele>342</ele>
        <time>2018-10-15T14:44:41Z</time>
      </trkpt>
      <trkpt lat="47.66279" lon="6.19512">
        <ele>342</ele>
        <time>2018-10-15T14:44:44Z</time>
      </trkpt>
      <trkpt lat="47.66284" lon="6.19512">
        <ele>341</ele>
        <time>2018-10-15T14:44:46Z</time>
      </trkpt>
      <trkpt lat="47.66289" lon="6.19514">
        <ele>341</ele>
        <time>2018-10-15T14:44:48Z</time>
      </trkpt>
      <trkpt lat="47.66295" lon="6.19516">
        <ele>341</ele>
        <time>2018-10-15T14:44:51Z</time>
      </trkpt>
      <trkpt lat="47.663" lon="6.19517">
        <ele>341</ele>
        <time>2018-10-15T14:44:53Z</time>
      </trkpt>
      <trkpt lat="47.66305" lon="6.19518">
        <ele>341</ele>
        <time>2018-10-15T14:44:55Z</time>
      </trkpt>
      <trkpt lat="47.66309" lon="6.1952">
        <ele>341</ele>
        <time>2018-10-15T14:44:57Z</time>
      </trkpt>
      <trkpt lat="47.66315" lon="6.19522">
        <ele>341</ele>
        <time>2018-10-15T14:45:00Z</time>
      </trkpt>
      <trkpt lat="47.6632" lon="6.19523">
        <ele>341</ele>
        <time>2018-10-15T14:45:02Z</time>
      </trkpt>
      <trkpt lat="47.66327" lon="6.19525">
        <ele>341</ele>
        <time>2018-10-15T14:45:05Z</time>
      </trkpt>
      <trkpt lat="47.66334" lon="6.19524">
        <ele>340</ele>
        <time>2018-10-15T14:45:08Z</time>
      </trkpt>
      <trkpt lat="47.66339" lon="6.19524">
        <ele>340</ele>
        <time>2018-10-15T14:45:10Z</time>
      </trkpt>
      <trkpt lat="47.66345" lon="6.19525">
        <ele>340</ele>
        <time>2018-10-15T14:45:12Z</time>
      </trkpt>
      <trkpt lat="47.66349" lon="6.19525">
        <ele>340</ele>
        <time>2018-10-15T14:45:14Z</time>
      </trkpt>
      <trkpt lat="47.66354" lon="6.19525">
        <ele>340</ele>
        <time>2018-10-15T14:45:16Z</time>
      </trkpt>
      <trkpt lat="47.66359" lon="6.19526">
        <ele>340</ele>
        <time>2018-10-15T14:45:18Z</time>
      </trkpt>
      <trkpt lat="47.66365" lon="6.19526">
        <ele>340</ele>
        <time>2018-10-15T14:45:20Z</time>
      </trkpt>
      <trkpt lat="47.66371" lon="6.19528">
        <ele>339</ele>
        <time>2018-10-15T14:45:22Z</time>
      </trkpt>
      <trkpt lat="47.66377" lon="6.1953">
        <ele>339</ele>
        <time>2018-10-15T14:45:24Z</time>
      </trkpt>
      <trkpt lat="47.66382" lon="6.19532">
        <ele>339</ele>
        <time>2018-10-15T14:45:26Z</time>
      </trkpt>
      <trkpt lat="47.66388" lon="6.19534">
        <ele>339</ele>
        <time>2018-10-15T14:45:28Z</time>
      </trkpt>
      <trkpt lat="47.66394" lon="6.19535">
        <ele>339</ele>
        <time>2018-10-15T14:45:30Z</time>
      </trkpt>
      <trkpt lat="47.66405" lon="6.19537">
        <ele>339</ele>
        <time>2018-10-15T14:45:32Z</time>
      </trkpt>
      <trkpt lat="47.6641" lon="6.19538">
        <ele>339</ele>
        <time>2018-10-15T14:45:33Z</time>
      </trkpt>
      <trkpt lat="47.66415" lon="6.19538">
        <ele>339</ele>
        <time>2018-10-15T14:45:34Z</time>
      </trkpt>
      <trkpt lat="47.6642" lon="6.19541">
        <ele>339</ele>
        <time>2018-10-15T14:45:35Z</time>
      </trkpt>
      <trkpt lat="47.66428" lon="6.19544">
        <ele>339</ele>
        <time>2018-10-15T14:45:36Z</time>
      </trkpt>
      <trkpt lat="47.66432" lon="6.19545">
        <ele>339</ele>
        <time>2018-10-15T14:45:37Z</time>
      </trkpt>
      <trkpt lat="47.66441" lon="6.19549">
        <ele>339</ele>
        <time>2018-10-15T14:45:38Z</time>
      </trkpt>
      <trkpt lat="47.66445" lon="6.1955">
        <ele>339</ele>
        <time>2018-10-15T14:45:39Z</time>
      </trkpt>
      <trkpt lat="47.66452" lon="6.19553">
        <ele>339</ele>
        <time>2018-10-15T14:45:40Z</time>
      </trkpt>
      <trkpt lat="47.66456" lon="6.19554">
        <ele>339</ele>
        <time>2018-10-15T14:45:41Z</time>
      </trkpt>
      <trkpt lat="47.66461" lon="6.19555">
        <ele>339</ele>
        <time>2018-10-15T14:45:42Z</time>
      </trkpt>
      <trkpt lat="47.66466" lon="6.19558">
        <ele>339</ele>
        <time>2018-10-15T14:45:43Z</time>
      </trkpt>
      <trkpt lat="47.66471" lon="6.1956">
        <ele>339</ele>
        <time>2018-10-15T14:45:44Z</time>
      </trkpt>
      <trkpt lat="47.66475" lon="6.19564">
        <ele>339</ele>
        <time>2018-10-15T14:45:45Z</time>
      </trkpt>
      <trkpt lat="47.66479" lon="6.19567">
        <ele>339</ele>
        <time>2018-10-15T14:45:46Z</time>
      </trkpt>
      <trkpt lat="47.66483" lon="6.19571">
        <ele>338</ele>
        <time>2018-10-15T14:45:47Z</time>
      </trkpt>
      <trkpt lat="47.66488" lon="6.19574">
        <ele>338</ele>
        <time>2018-10-15T14:45:48Z</time>
      </trkpt>
      <trkpt lat="47.66493" lon="6.19578">
        <ele>338</ele>
        <time>2018-10-15T14:45:49Z</time>
      </trkpt>
      <trkpt lat="47.66498" lon="6.19581">
        <ele>338</ele>
        <time>2018-10-15T14:45:50Z</time>
      </trkpt>
      <trkpt lat="47.66502" lon="6.19584">
        <ele>338</ele>
        <time>2018-10-15T14:45:51Z</time>
      </trkpt>
      <trkpt lat="47.66507" lon="6.19587">
        <ele>337</ele>
        <time>2018-10-15T14:45:52Z</time>
      </trkpt>
      <trkpt lat="47.66512" lon="6.19591">
        <ele>336</ele>
        <time>2018-10-15T14:45:53Z</time>
      </trkpt>
      <trkpt lat="47.66516" lon="6.19595">
        <ele>335</ele>
        <time>2018-10-15T14:45:54Z</time>
      </trkpt>
      <trkpt lat="47.66521" lon="6.19599">
        <ele>335</ele>
        <time>2018-10-15T14:45:55Z</time>
      </trkpt>
      <trkpt lat="47.66528" lon="6.19606">
        <ele>334</ele>
        <time>2018-10-15T14:45:57Z</time>
      </trkpt>
      <trkpt lat="47.66536" lon="6.19612">
        <ele>334</ele>
        <time>2018-10-15T14:45:59Z</time>
      </trkpt>
      <trkpt lat="47.66541" lon="6.19617">
        <ele>333</ele>
        <time>2018-10-15T14:46:00Z</time>
      </trkpt>
      <trkpt lat="47.66546" lon="6.19621">
        <ele>333</ele>
        <time>2018-10-15T14:46:01Z</time>
      </trkpt>
      <trkpt lat="47.6655" lon="6.19624">
        <ele>333</ele>
        <time>2018-10-15T14:46:02Z</time>
      </trkpt>
      <trkpt lat="47.66555" lon="6.19627">
        <ele>332</ele>
        <time>2018-10-15T14:46:03Z</time>
      </trkpt>
      <trkpt lat="47.66561" lon="6.19631">
        <ele>332</ele>
        <time>2018-10-15T14:46:04Z</time>
      </trkpt>
      <trkpt lat="47.66566" lon="6.19634">
        <ele>331</ele>
        <time>2018-10-15T14:46:05Z</time>
      </trkpt>
      <trkpt lat="47.6657" lon="6.19637">
        <ele>331</ele>
        <time>2018-10-15T14:46:06Z</time>
      </trkpt>
      <trkpt lat="47.66575" lon="6.1964">
        <ele>330</ele>
        <time>2018-10-15T14:46:07Z</time>
      </trkpt>
      <trkpt lat="47.66581" lon="6.19644">
        <ele>330</ele>
        <time>2018-10-15T14:46:08Z</time>
      </trkpt>
      <trkpt lat="47.66586" lon="6.19648">
        <ele>325</ele>
        <time>2018-10-15T14:46:09Z</time>
      </trkpt>
      <trkpt lat="47.66592" lon="6.19651">
        <ele>325</ele>
        <time>2018-10-15T14:46:10Z</time>
      </trkpt>
      <trkpt lat="47.66598" lon="6.19656">
        <ele>325</ele>
        <time>2018-10-15T14:46:11Z</time>
      </trkpt>
      <trkpt lat="47.66605" lon="6.19662">
        <ele>324</ele>
        <time>2018-10-15T14:46:12Z</time>
      </trkpt>
      <trkpt lat="47.66612" lon="6.19669">
        <ele>322</ele>
        <time>2018-10-15T14:46:13Z</time>
      </trkpt>
      <trkpt lat="47.66617" lon="6.19676">
        <ele>322</ele>
        <time>2018-10-15T14:46:14Z</time>
      </trkpt>
      <trkpt lat="47.66623" lon="6.19683">
        <ele>322</ele>
        <time>2018-10-15T14:46:15Z</time>
      </trkpt>
      <trkpt lat="47.66629" lon="6.1969">
        <ele>322</ele>
        <time>2018-10-15T14:46:16Z</time>
      </trkpt>
      <trkpt lat="47.66633" lon="6.19698">
        <ele>321</ele>
        <time>2018-10-15T14:46:17Z</time>
      </trkpt>
      <trkpt lat="47.66637" lon="6.19706">
        <ele>321</ele>
        <time>2018-10-15T14:46:18Z</time>
      </trkpt>
      <trkpt lat="47.66641" lon="6.19712">
        <ele>321</ele>
        <time>2018-10-15T14:46:19Z</time>
      </trkpt>
      <trkpt lat="47.66645" lon="6.19718">
        <ele>321</ele>
        <time>2018-10-15T14:46:20Z</time>
      </trkpt>
      <trkpt lat="47.66649" lon="6.19725">
        <ele>321</ele>
        <time>2018-10-15T14:46:21Z</time>
      </trkpt>
      <trkpt lat="47.66653" lon="6.19731">
        <ele>321</ele>
        <time>2018-10-15T14:46:22Z</time>
      </trkpt>
      <trkpt lat="47.66657" lon="6.19737">
        <ele>321</ele>
        <time>2018-10-15T14:46:23Z</time>
      </trkpt>
      <trkpt lat="47.6666" lon="6.19743">
        <ele>321</ele>
        <time>2018-10-15T14:46:24Z</time>
      </trkpt>
      <trkpt lat="47.66664" lon="6.19749">
        <ele>321</ele>
        <time>2018-10-15T14:46:25Z</time>
      </trkpt>
      <trkpt lat="47.66668" lon="6.19755">
        <ele>320</ele>
        <time>2018-10-15T14:46:26Z</time>
      </trkpt>
      <trkpt lat="47.66672" lon="6.19761">
        <ele>319</ele>
        <time>2018-10-15T14:46:27Z</time>
      </trkpt>
      <trkpt lat="47.66677" lon="6.19768">
        <ele>318</ele>
        <time>2018-10-15T14:46:28Z</time>
      </trkpt>
      <trkpt lat="47.66681" lon="6.19774">
        <ele>318</ele>
        <time>2018-10-15T14:46:29Z</time>
      </trkpt>
      <trkpt lat="47.66685" lon="6.19779">
        <ele>317</ele>
        <time>2018-10-15T14:46:30Z</time>
      </trkpt>
      <trkpt lat="47.66688" lon="6.19784">
        <ele>317</ele>
        <time>2018-10-15T14:46:31Z</time>
      </trkpt>
      <trkpt lat="47.66691" lon="6.19789">
        <ele>317</ele>
        <time>2018-10-15T14:46:32Z</time>
      </trkpt>
      <trkpt lat="47.66695" lon="6.19794">
        <ele>317</ele>
        <time>2018-10-15T14:46:33Z</time>
      </trkpt>
      <trkpt lat="47.66698" lon="6.19798">
        <ele>317</ele>
        <time>2018-10-15T14:46:34Z</time>
      </trkpt>
      <trkpt lat="47.66702" lon="6.19804">
        <ele>317</ele>
        <time>2018-10-15T14:46:35Z</time>
      </trkpt>
      <trkpt lat="47.66706" lon="6.19809">
        <ele>316</ele>
        <time>2018-10-15T14:46:36Z</time>
      </trkpt>
      <trkpt lat="47.6671" lon="6.19814">
        <ele>316</ele>
        <time>2018-10-15T14:46:37Z</time>
      </trkpt>
      <trkpt lat="47.66714" lon="6.19819">
        <ele>316</ele>
        <time>2018-10-15T14:46:38Z</time>
      </trkpt>
      <trkpt lat="47.66717" lon="6.19826">
        <ele>316</ele>
        <time>2018-10-15T14:46:39Z</time>
      </trkpt>
      <trkpt lat="47.66721" lon="6.19831">
        <ele>316</ele>
        <time>2018-10-15T14:46:40Z</time>
      </trkpt>
      <trkpt lat="47.66725" lon="6.19836">
        <ele>316</ele>
        <time>2018-10-15T14:46:41Z</time>
      </trkpt>
      <trkpt lat="47.66729" lon="6.19842">
        <ele>316</ele>
        <time>2018-10-15T14:46:42Z</time>
      </trkpt>
      <trkpt lat="47.66733" lon="6.19847">
        <ele>316</ele>
        <time>2018-10-15T14:46:43Z</time>
      </trkpt>
      <trkpt lat="47.66738" lon="6.19852">
        <ele>315</ele>
        <time>2018-10-15T14:46:44Z</time>
      </trkpt>
      <trkpt lat="47.66742" lon="6.19857">
        <ele>316</ele>
        <time>2018-10-15T14:46:45Z</time>
      </trkpt>
      <trkpt lat="47.66746" lon="6.19863">
        <ele>316</ele>
        <time>2018-10-15T14:46:46Z</time>
      </trkpt>
      <trkpt lat="47.6675" lon="6.19868">
        <ele>316</ele>
        <time>2018-10-15T14:46:47Z</time>
      </trkpt>
      <trkpt lat="47.66754" lon="6.19873">
        <ele>314</ele>
        <time>2018-10-15T14:46:48Z</time>
      </trkpt>
      <trkpt lat="47.66759" lon="6.19878">
        <ele>314</ele>
        <time>2018-10-15T14:46:49Z</time>
      </trkpt>
      <trkpt lat="47.66763" lon="6.19883">
        <ele>314</ele>
        <time>2018-10-15T14:46:50Z</time>
      </trkpt>
      <trkpt lat="47.66767" lon="6.19887">
        <ele>314</ele>
        <time>2018-10-15T14:46:51Z</time>
      </trkpt>
      <trkpt lat="47.66772" lon="6.19892">
        <ele>314</ele>
        <time>2018-10-15T14:46:52Z</time>
      </trkpt>
      <trkpt lat="47.66776" lon="6.19897">
        <ele>314</ele>
        <time>2018-10-15T14:46:53Z</time>
      </trkpt>
      <trkpt lat="47.6678" lon="6.19901">
        <ele>314</ele>
        <time>2018-10-15T14:46:54Z</time>
      </trkpt>
      <trkpt lat="47.66784" lon="6.19906">
        <ele>314</ele>
        <time>2018-10-15T14:46:55Z</time>
      </trkpt>
      <trkpt lat="47.66788" lon="6.1991">
        <ele>314</ele>
        <time>2018-10-15T14:46:56Z</time>
      </trkpt>
      <trkpt lat="47.66793" lon="6.19914">
        <ele>314</ele>
        <time>2018-10-15T14:46:57Z</time>
      </trkpt>
      <trkpt lat="47.668" lon="6.19919">
        <ele>314</ele>
        <time>2018-10-15T14:46:59Z</time>
      </trkpt>
      <trkpt lat="47.66808" lon="6.19924">
        <ele>314</ele>
        <time>2018-10-15T14:47:01Z</time>
      </trkpt>
      <trkpt lat="47.66815" lon="6.19928">
        <ele>314</ele>
        <time>2018-10-15T14:47:03Z</time>
      </trkpt>
      <trkpt lat="47.66822" lon="6.19931">
        <ele>314</ele>
        <time>2018-10-15T14:47:05Z</time>
      </trkpt>
      <trkpt lat="47.66827" lon="6.19935">
        <ele>314</ele>
        <time>2018-10-15T14:47:07Z</time>
      </trkpt>
      <trkpt lat="47.66834" lon="6.1994">
        <ele>312</ele>
        <time>2018-10-15T14:47:10Z</time>
      </trkpt>
      <trkpt lat="47.6684" lon="6.19944">
        <ele>312</ele>
        <time>2018-10-15T14:47:12Z</time>
      </trkpt>
      <trkpt lat="47.66848" lon="6.1995">
        <ele>312</ele>
        <time>2018-10-15T14:47:13Z</time>
      </trkpt>
      <trkpt lat="47.66855" lon="6.19955">
        <ele>311</ele>
        <time>2018-10-15T14:47:15Z</time>
      </trkpt>
      <trkpt lat="47.6686" lon="6.1996">
        <ele>311</ele>
        <time>2018-10-15T14:47:17Z</time>
      </trkpt>
      <trkpt lat="47.66869" lon="6.19968">
        <ele>311</ele>
        <time>2018-10-15T14:47:19Z</time>
      </trkpt>
      <trkpt lat="47.66873" lon="6.19973">
        <ele>311</ele>
        <time>2018-10-15T14:47:20Z</time>
      </trkpt>
      <trkpt lat="47.66879" lon="6.19978">
        <ele>311</ele>
        <time>2018-10-15T14:47:22Z</time>
      </trkpt>
      <trkpt lat="47.66885" lon="6.19983">
        <ele>310</ele>
        <time>2018-10-15T14:47:23Z</time>
      </trkpt>
      <trkpt lat="47.6689" lon="6.19988">
        <ele>310</ele>
        <time>2018-10-15T14:47:24Z</time>
      </trkpt>
      <trkpt lat="47.66895" lon="6.19992">
        <ele>310</ele>
        <time>2018-10-15T14:47:25Z</time>
      </trkpt>
      <trkpt lat="47.669" lon="6.19998">
        <ele>310</ele>
        <time>2018-10-15T14:47:26Z</time>
      </trkpt>
      <trkpt lat="47.66905" lon="6.20003">
        <ele>311</ele>
        <time>2018-10-15T14:47:27Z</time>
      </trkpt>
      <trkpt lat="47.66913" lon="6.20011">
        <ele>311</ele>
        <time>2018-10-15T14:47:29Z</time>
      </trkpt>
      <trkpt lat="47.66917" lon="6.20016">
        <ele>310</ele>
        <time>2018-10-15T14:47:30Z</time>
      </trkpt>
      <trkpt lat="47.66921" lon="6.2002">
        <ele>310</ele>
        <time>2018-10-15T14:47:31Z</time>
      </trkpt>
      <trkpt lat="47.66925" lon="6.20024">
        <ele>310</ele>
        <time>2018-10-15T14:47:32Z</time>
      </trkpt>
      <trkpt lat="47.6693" lon="6.20028">
        <ele>310</ele>
        <time>2018-10-15T14:47:33Z</time>
      </trkpt>
      <trkpt lat="47.66934" lon="6.20032">
        <ele>310</ele>
        <time>2018-10-15T14:47:34Z</time>
      </trkpt>
      <trkpt lat="47.66941" lon="6.20039">
        <ele>310</ele>
        <time>2018-10-15T14:47:36Z</time>
      </trkpt>
      <trkpt lat="47.66945" lon="6.20042">
        <ele>310</ele>
        <time>2018-10-15T14:47:37Z</time>
      </trkpt>
      <trkpt lat="47.66953" lon="6.20048">
        <ele>310</ele>
        <time>2018-10-15T14:47:39Z</time>
      </trkpt>
      <trkpt lat="47.6696" lon="6.20055">
        <ele>310</ele>
        <time>2018-10-15T14:47:41Z</time>
      </trkpt>
      <trkpt lat="47.66968" lon="6.20062">
        <ele>310</ele>
        <time>2018-10-15T14:47:43Z</time>
      </trkpt>
      <trkpt lat="47.66972" lon="6.20066">
        <ele>310</ele>
        <time>2018-10-15T14:47:44Z</time>
      </trkpt>
      <trkpt lat="47.66977" lon="6.2007">
        <ele>310</ele>
        <time>2018-10-15T14:47:45Z</time>
      </trkpt>
      <trkpt lat="47.66981" lon="6.20074">
        <ele>309</ele>
        <time>2018-10-15T14:47:46Z</time>
      </trkpt>
      <trkpt lat="47.66985" lon="6.20079">
        <ele>309</ele>
        <time>2018-10-15T14:47:47Z</time>
      </trkpt>
      <trkpt lat="47.66992" lon="6.20087">
        <ele>310</ele>
        <time>2018-10-15T14:47:49Z</time>
      </trkpt>
      <trkpt lat="47.66995" lon="6.20092">
        <ele>310</ele>
        <time>2018-10-15T14:47:50Z</time>
      </trkpt>
      <trkpt lat="47.66999" lon="6.20097">
        <ele>311</ele>
        <time>2018-10-15T14:47:51Z</time>
      </trkpt>
      <trkpt lat="47.67003" lon="6.20103">
        <ele>308</ele>
        <time>2018-10-15T14:47:52Z</time>
      </trkpt>
      <trkpt lat="47.67007" lon="6.20108">
        <ele>308</ele>
        <time>2018-10-15T14:47:53Z</time>
      </trkpt>
      <trkpt lat="47.67014" lon="6.20117">
        <ele>307</ele>
        <time>2018-10-15T14:47:55Z</time>
      </trkpt>
      <trkpt lat="47.67018" lon="6.20123">
        <ele>307</ele>
        <time>2018-10-15T14:47:56Z</time>
      </trkpt>
      <trkpt lat="47.67022" lon="6.20128">
        <ele>307</ele>
        <time>2018-10-15T14:47:57Z</time>
      </trkpt>
      <trkpt lat="47.67026" lon="6.20133">
        <ele>307</ele>
        <time>2018-10-15T14:47:58Z</time>
      </trkpt>
      <trkpt lat="47.6703" lon="6.20139">
        <ele>307</ele>
        <time>2018-10-15T14:47:59Z</time>
      </trkpt>
      <trkpt lat="47.67033" lon="6.20145">
        <ele>307</ele>
        <time>2018-10-15T14:48:00Z</time>
      </trkpt>
      <trkpt lat="47.67038" lon="6.20151">
        <ele>307</ele>
        <time>2018-10-15T14:48:01Z</time>
      </trkpt>
      <trkpt lat="47.67042" lon="6.20156">
        <ele>307</ele>
        <time>2018-10-15T14:48:02Z</time>
      </trkpt>
      <trkpt lat="47.67045" lon="6.2016">
        <ele>306</ele>
        <time>2018-10-15T14:48:03Z</time>
      </trkpt>
      <trkpt lat="47.67053" lon="6.20168">
        <ele>306</ele>
        <time>2018-10-15T14:48:05Z</time>
      </trkpt>
      <trkpt lat="47.6706" lon="6.20176">
        <ele>306</ele>
        <time>2018-10-15T14:48:07Z</time>
      </trkpt>
      <trkpt lat="47.67065" lon="6.2018">
        <ele>306</ele>
        <time>2018-10-15T14:48:09Z</time>
      </trkpt>
      <trkpt lat="47.6707" lon="6.20184">
        <ele>306</ele>
        <time>2018-10-15T14:48:11Z</time>
      </trkpt>
      <trkpt lat="47.67076" lon="6.20189">
        <ele>306</ele>
        <time>2018-10-15T14:48:13Z</time>
      </trkpt>
      <trkpt lat="47.67082" lon="6.20193">
        <ele>306</ele>
        <time>2018-10-15T14:48:15Z</time>
      </trkpt>
      <trkpt lat="47.67088" lon="6.20198">
        <ele>303</ele>
        <time>2018-10-15T14:48:17Z</time>
      </trkpt>
      <trkpt lat="47.67093" lon="6.20203">
        <ele>303</ele>
        <time>2018-10-15T14:48:19Z</time>
      </trkpt>
      <trkpt lat="47.67099" lon="6.20209">
        <ele>303</ele>
        <time>2018-10-15T14:48:21Z</time>
      </trkpt>
      <trkpt lat="47.67104" lon="6.20214">
        <ele>303</ele>
        <time>2018-10-15T14:48:23Z</time>
      </trkpt>
      <trkpt lat="47.67114" lon="6.20224">
        <ele>303</ele>
        <time>2018-10-15T14:48:25Z</time>
      </trkpt>
      <trkpt lat="47.6712" lon="6.2023">
        <ele>303</ele>
        <time>2018-10-15T14:48:27Z</time>
      </trkpt>
      <trkpt lat="47.67127" lon="6.20237">
        <ele>303</ele>
        <time>2018-10-15T14:48:29Z</time>
      </trkpt>
      <trkpt lat="47.67133" lon="6.20242">
        <ele>303</ele>
        <time>2018-10-15T14:48:31Z</time>
      </trkpt>
      <trkpt lat="47.67137" lon="6.20246">
        <ele>303</ele>
        <time>2018-10-15T14:48:33Z</time>
      </trkpt>
      <trkpt lat="47.67141" lon="6.20251">
        <ele>303</ele>
        <time>2018-10-15T14:48:35Z</time>
      </trkpt>
      <trkpt lat="47.67145" lon="6.20256">
        <ele>303</ele>
        <time>2018-10-15T14:48:37Z</time>
      </trkpt>
      <trkpt lat="47.67149" lon="6.20261">
        <ele>303</ele>
        <time>2018-10-15T14:48:39Z</time>
      </trkpt>
      <trkpt lat="47.67154" lon="6.20267">
        <ele>303</ele>
        <time>2018-10-15T14:48:41Z</time>
      </trkpt>
      <trkpt lat="47.67159" lon="6.20272">
        <ele>303</ele>
        <time>2018-10-15T14:48:43Z</time>
      </trkpt>
      <trkpt lat="47.67164" lon="6.20277">
        <ele>303</ele>
        <time>2018-10-15T14:48:45Z</time>
      </trkpt>
      <trkpt lat="47.67169" lon="6.20282">
        <ele>304</ele>
        <time>2018-10-15T14:48:47Z</time>
      </trkpt>
      <trkpt lat="47.67174" lon="6.20287">
        <ele>304</ele>
        <time>2018-10-15T14:48:49Z</time>
      </trkpt>
      <trkpt lat="47.67181" lon="6.20294">
        <ele>304</ele>
        <time>2018-10-15T14:48:51Z</time>
      </trkpt>
      <trkpt lat="47.67187" lon="6.20299">
        <ele>304</ele>
        <time>2018-10-15T14:48:53Z</time>
      </trkpt>
      <trkpt lat="47.67192" lon="6.20305">
        <ele>304</ele>
        <time>2018-10-15T14:48:55Z</time>
      </trkpt>
      <trkpt lat="47.67199" lon="6.20311">
        <ele>305</ele>
        <time>2018-10-15T14:48:57Z</time>
      </trkpt>
      <trkpt lat="47.67205" lon="6.20313">
        <ele>305</ele>
        <time>2018-10-15T14:48:59Z</time>
      </trkpt>
      <trkpt lat="47.67211" lon="6.20313">
        <ele>305</ele>
        <time>2018-10-15T14:49:01Z</time>
      </trkpt>
      <trkpt lat="47.67217" lon="6.2031">
        <ele>305</ele>
        <time>2018-10-15T14:49:03Z</time>
      </trkpt>
      <trkpt lat="47.67222" lon="6.20305">
        <ele>305</ele>
        <time>2018-10-15T14:49:05Z</time>
      </trkpt>
      <trkpt lat="47.67227" lon="6.20299">
        <ele>305</ele>
        <time>2018-10-15T14:49:07Z</time>
      </trkpt>
      <trkpt lat="47.67232" lon="6.20293">
        <ele>305</ele>
        <time>2018-10-15T14:49:09Z</time>
      </trkpt>
      <trkpt lat="47.67238" lon="6.20288">
        <ele>305</ele>
        <time>2018-10-15T14:49:11Z</time>
      </trkpt>
      <trkpt lat="47.67244" lon="6.20284">
        <ele>305</ele>
        <time>2018-10-15T14:49:13Z</time>
      </trkpt>
      <trkpt lat="47.6725" lon="6.2028">
        <ele>308</ele>
        <time>2018-10-15T14:49:15Z</time>
      </trkpt>
      <trkpt lat="47.67257" lon="6.20276">
        <ele>307</ele>
        <time>2018-10-15T14:49:17Z</time>
      </trkpt>
      <trkpt lat="47.67263" lon="6.20273">
        <ele>307</ele>
        <time>2018-10-15T14:49:19Z</time>
      </trkpt>
      <trkpt lat="47.6727" lon="6.20269">
        <ele>308</ele>
        <time>2018-10-15T14:49:21Z</time>
      </trkpt>
      <trkpt lat="47.67276" lon="6.20265">
        <ele>308</ele>
        <time>2018-10-15T14:49:23Z</time>
      </trkpt>
      <trkpt lat="47.67282" lon="6.2026">
        <ele>308</ele>
        <time>2018-10-15T14:49:25Z</time>
      </trkpt>
      <trkpt lat="47.67288" lon="6.20255">
        <ele>309</ele>
        <time>2018-10-15T14:49:27Z</time>
      </trkpt>
      <trkpt lat="47.67294" lon="6.2025">
        <ele>309</ele>
        <time>2018-10-15T14:49:29Z</time>
      </trkpt>
      <trkpt lat="47.67299" lon="6.20245">
        <ele>306</ele>
        <time>2018-10-15T14:49:31Z</time>
      </trkpt>
      <trkpt lat="47.67305" lon="6.2024">
        <ele>306</ele>
        <time>2018-10-15T14:49:33Z</time>
      </trkpt>
      <trkpt lat="47.6731" lon="6.20235">
        <ele>306</ele>
        <time>2018-10-15T14:49:35Z</time>
      </trkpt>
      <trkpt lat="47.67315" lon="6.2023">
        <ele>306</ele>
        <time>2018-10-15T14:49:37Z</time>
      </trkpt>
      <trkpt lat="47.6732" lon="6.20226">
        <ele>306</ele>
        <time>2018-10-15T14:49:39Z</time>
      </trkpt>
      <trkpt lat="47.67325" lon="6.20222">
        <ele>306</ele>
        <time>2018-10-15T14:49:41Z</time>
      </trkpt>
      <trkpt lat="47.67329" lon="6.20218">
        <ele>306</ele>
        <time>2018-10-15T14:49:43Z</time>
      </trkpt>
      <trkpt lat="47.67335" lon="6.20214">
        <ele>310</ele>
        <time>2018-10-15T14:49:46Z</time>
      </trkpt>
      <trkpt lat="47.67341" lon="6.20209">
        <ele>310</ele>
        <time>2018-10-15T14:49:49Z</time>
      </trkpt>
      <trkpt lat="47.67345" lon="6.20206">
        <ele>310</ele>
        <time>2018-10-15T14:49:51Z</time>
      </trkpt>
      <trkpt lat="47.6735" lon="6.20203">
        <ele>310</ele>
        <time>2018-10-15T14:49:53Z</time>
      </trkpt>
      <trkpt lat="47.67354" lon="6.20199">
        <ele>310</ele>
        <time>2018-10-15T14:49:55Z</time>
      </trkpt>
      <trkpt lat="47.67358" lon="6.20197">
        <ele>310</ele>
        <time>2018-10-15T14:49:57Z</time>
      </trkpt>
      <trkpt lat="47.67364" lon="6.20191">
        <ele>310</ele>
        <time>2018-10-15T14:50:00Z</time>
      </trkpt>
      <trkpt lat="47.67369" lon="6.20187">
        <ele>310</ele>
        <time>2018-10-15T14:50:02Z</time>
      </trkpt>
      <trkpt lat="47.67373" lon="6.20184">
        <ele>311</ele>
        <time>2018-10-15T14:50:04Z</time>
      </trkpt>
      <trkpt lat="47.67377" lon="6.20179">
        <ele>311</ele>
        <time>2018-10-15T14:50:07Z</time>
      </trkpt>
      <trkpt lat="47.67382" lon="6.20174">
        <ele>311</ele>
        <time>2018-10-15T14:50:10Z</time>
      </trkpt>
      <trkpt lat="47.67387" lon="6.20171">
        <ele>311</ele>
        <time>2018-10-15T14:50:13Z</time>
      </trkpt>
      <trkpt lat="47.67391" lon="6.20168">
        <ele>312</ele>
        <time>2018-10-15T14:50:17Z</time>
      </trkpt>
      <trkpt lat="47.67396" lon="6.20166">
        <ele>309</ele>
        <time>2018-10-15T14:50:20Z</time>
      </trkpt>
      <trkpt lat="47.67402" lon="6.20164">
        <ele>310</ele>
        <time>2018-10-15T14:50:24Z</time>
      </trkpt>
      <trkpt lat="47.67407" lon="6.20162">
        <ele>311</ele>
        <time>2018-10-15T14:50:30Z</time>
      </trkpt>
      <trkpt lat="47.67412" lon="6.2016">
        <ele>311</ele>
        <time>2018-10-15T14:50:33Z</time>
      </trkpt>
      <trkpt lat="47.67417" lon="6.20161">
        <ele>314</ele>
        <time>2018-10-15T14:50:37Z</time>
      </trkpt>
      <trkpt lat="47.67422" lon="6.20161">
        <ele>314</ele>
        <time>2018-10-15T14:50:40Z</time>
      </trkpt>
      <trkpt lat="47.67429" lon="6.20162">
        <ele>314</ele>
        <time>2018-10-15T14:50:43Z</time>
      </trkpt>
      <trkpt lat="47.67434" lon="6.20162">
        <ele>315</ele>
        <time>2018-10-15T14:50:45Z</time>
      </trkpt>
      <trkpt lat="47.67443" lon="6.20158">
        <ele>315</ele>
        <time>2018-10-15T14:50:47Z</time>
      </trkpt>
      <trkpt lat="47.67447" lon="6.20156">
        <ele>315</ele>
        <time>2018-10-15T14:50:48Z</time>
      </trkpt>
      <trkpt lat="47.67456" lon="6.20154">
        <ele>316</ele>
        <time>2018-10-15T14:50:49Z</time>
      </trkpt>
      <trkpt lat="47.67462" lon="6.20152">
        <ele>316</ele>
        <time>2018-10-15T14:50:50Z</time>
      </trkpt>
      <trkpt lat="47.67469" lon="6.20151">
        <ele>317</ele>
        <time>2018-10-15T14:50:51Z</time>
      </trkpt>
      <trkpt lat="47.67475" lon="6.20151">
        <ele>317</ele>
        <time>2018-10-15T14:50:53Z</time>
      </trkpt>
      <trkpt lat="47.67481" lon="6.20153">
        <ele>318</ele>
        <time>2018-10-15T14:50:56Z</time>
      </trkpt>
      <trkpt lat="47.67487" lon="6.20154">
        <ele>318</ele>
        <time>2018-10-15T14:51:00Z</time>
      </trkpt>
      <trkpt lat="47.67491" lon="6.20156">
        <ele>319</ele>
        <time>2018-10-15T14:51:03Z</time>
      </trkpt>
      <trkpt lat="47.67495" lon="6.20158">
        <ele>319</ele>
        <time>2018-10-15T14:51:06Z</time>
      </trkpt>
      <trkpt lat="47.675" lon="6.2016">
        <ele>321</ele>
        <time>2018-10-15T14:51:09Z</time>
      </trkpt>
      <trkpt lat="47.67506" lon="6.20162">
        <ele>322</ele>
        <time>2018-10-15T14:51:12Z</time>
      </trkpt>
      <trkpt lat="47.67513" lon="6.20164">
        <ele>322</ele>
        <time>2018-10-15T14:51:15Z</time>
      </trkpt>
      <trkpt lat="47.67518" lon="6.20164">
        <ele>322</ele>
        <time>2018-10-15T14:51:17Z</time>
      </trkpt>
      <trkpt lat="47.67523" lon="6.20164">
        <ele>322</ele>
        <time>2018-10-15T14:51:19Z</time>
      </trkpt>
      <trkpt lat="47.67528" lon="6.20165">
        <ele>322</ele>
        <time>2018-10-15T14:51:21Z</time>
      </trkpt>
      <trkpt lat="47.67534" lon="6.20165">
        <ele>323</ele>
        <time>2018-10-15T14:51:23Z</time>
      </trkpt>
      <trkpt lat="47.6754" lon="6.20166">
        <ele>323</ele>
        <time>2018-10-15T14:51:26Z</time>
      </trkpt>
      <trkpt lat="47.67546" lon="6.20167">
        <ele>320</ele>
        <time>2018-10-15T14:51:30Z</time>
      </trkpt>
      <trkpt lat="47.67551" lon="6.20167">
        <ele>320</ele>
        <time>2018-10-15T14:51:32Z</time>
      </trkpt>
      <trkpt lat="47.67556" lon="6.20168">
        <ele>320</ele>
        <time>2018-10-15T14:51:34Z</time>
      </trkpt>
      <trkpt lat="47.67563" lon="6.20169">
        <ele>320</ele>
        <time>2018-10-15T14:51:37Z</time>
      </trkpt>
      <trkpt lat="47.67568" lon="6.2017">
        <ele>321</ele>
        <time>2018-10-15T14:51:39Z</time>
      </trkpt>
      <trkpt lat="47.67573" lon="6.20171">
        <ele>321</ele>
        <time>2018-10-15T14:51:41Z</time>
      </trkpt>
      <trkpt lat="47.67578" lon="6.20172">
        <ele>322</ele>
        <time>2018-10-15T14:51:43Z</time>
      </trkpt>
      <trkpt lat="47.67584" lon="6.20174">
        <ele>322</ele>
        <time>2018-10-15T14:51:45Z</time>
      </trkpt>
      <trkpt lat="47.67591" lon="6.20174">
        <ele>322</ele>
        <time>2018-10-15T14:51:47Z</time>
      </trkpt>
      <trkpt lat="47.67596" lon="6.20177">
        <ele>322</ele>
        <time>2018-10-15T14:51:50Z</time>
      </trkpt>
      <trkpt lat="47.67601" lon="6.2018">
        <ele>321</ele>
        <time>2018-10-15T14:51:53Z</time>
      </trkpt>
      <trkpt lat="47.67606" lon="6.20184">
        <ele>321</ele>
        <time>2018-10-15T14:51:56Z</time>
      </trkpt>
      <trkpt lat="47.67613" lon="6.20187">
        <ele>321</ele>
        <time>2018-10-15T14:51:58Z</time>
      </trkpt>
      <trkpt lat="47.67618" lon="6.20189">
        <ele>321</ele>
        <time>2018-10-15T14:52:00Z</time>
      </trkpt>
      <trkpt lat="47.67623" lon="6.20192">
        <ele>321</ele>
        <time>2018-10-15T14:52:02Z</time>
      </trkpt>
      <trkpt lat="47.67628" lon="6.20195">
        <ele>321</ele>
        <time>2018-10-15T14:52:04Z</time>
      </trkpt>
      <trkpt lat="47.67633" lon="6.20197">
        <ele>321</ele>
        <time>2018-10-15T14:52:06Z</time>
      </trkpt>
      <trkpt lat="47.67638" lon="6.202">
        <ele>321</ele>
        <time>2018-10-15T14:52:08Z</time>
      </trkpt>
      <trkpt lat="47.67642" lon="6.20202">
        <ele>321</ele>
        <time>2018-10-15T14:52:10Z</time>
      </trkpt>
      <trkpt lat="47.67647" lon="6.20203">
        <ele>321</ele>
        <time>2018-10-15T14:52:12Z</time>
      </trkpt>
      <trkpt lat="47.67653" lon="6.20207">
        <ele>321</ele>
        <time>2018-10-15T14:52:15Z</time>
      </trkpt>
      <trkpt lat="47.67657" lon="6.2021">
        <ele>321</ele>
        <time>2018-10-15T14:52:17Z</time>
      </trkpt>
      <trkpt lat="47.67663" lon="6.20214">
        <ele>321</ele>
        <time>2018-10-15T14:52:20Z</time>
      </trkpt>
      <trkpt lat="47.67667" lon="6.20216">
        <ele>323</ele>
        <time>2018-10-15T14:52:22Z</time>
      </trkpt>
      <trkpt lat="47.67674" lon="6.20218">
        <ele>323</ele>
        <time>2018-10-15T14:52:25Z</time>
      </trkpt>
      <trkpt lat="47.67679" lon="6.2022">
        <ele>322</ele>
        <time>2018-10-15T14:52:27Z</time>
      </trkpt>
      <trkpt lat="47.67685" lon="6.20223">
        <ele>322</ele>
        <time>2018-10-15T14:52:30Z</time>
      </trkpt>
      <trkpt lat="47.6769" lon="6.20226">
        <ele>322</ele>
        <time>2018-10-15T14:52:33Z</time>
      </trkpt>
      <trkpt lat="47.67695" lon="6.20228">
        <ele>322</ele>
        <time>2018-10-15T14:52:36Z</time>
      </trkpt>
      <trkpt lat="47.67702" lon="6.20231">
        <ele>323</ele>
        <time>2018-10-15T14:52:39Z</time>
      </trkpt>
      <trkpt lat="47.67706" lon="6.20233">
        <ele>323</ele>
        <time>2018-10-15T14:52:41Z</time>
      </trkpt>
      <trkpt lat="47.67711" lon="6.20235">
        <ele>323</ele>
        <time>2018-10-15T14:52:44Z</time>
      </trkpt>
      <trkpt lat="47.67717" lon="6.20236">
        <ele>323</ele>
        <time>2018-10-15T14:52:47Z</time>
      </trkpt>
      <trkpt lat="47.67722" lon="6.20236">
        <ele>323</ele>
        <time>2018-10-15T14:52:51Z</time>
      </trkpt>
      <trkpt lat="47.67727" lon="6.20236">
        <ele>323</ele>
        <time>2018-10-15T14:52:54Z</time>
      </trkpt>
      <trkpt lat="47.67734" lon="6.20236">
        <ele>323</ele>
        <time>2018-10-15T14:52:58Z</time>
      </trkpt>
      <trkpt lat="47.67738" lon="6.20235">
        <ele>323</ele>
        <time>2018-10-15T14:53:01Z</time>
      </trkpt>
      <trkpt lat="47.67744" lon="6.20234">
        <ele>323</ele>
        <time>2018-10-15T14:53:05Z</time>
      </trkpt>
      <trkpt lat="47.67749" lon="6.20232">
        <ele>323</ele>
        <time>2018-10-15T14:53:08Z</time>
      </trkpt>
      <trkpt lat="47.67753" lon="6.20231">
        <ele>323</ele>
        <time>2018-10-15T14:53:11Z</time>
      </trkpt>
      <trkpt lat="47.67758" lon="6.2023">
        <ele>323</ele>
        <time>2018-10-15T14:53:15Z</time>
      </trkpt>
      <trkpt lat="47.67763" lon="6.2023">
        <ele>324</ele>
        <time>2018-10-15T14:53:19Z</time>
      </trkpt>
      <trkpt lat="47.67768" lon="6.2023">
        <ele>324</ele>
        <time>2018-10-15T14:53:22Z</time>
      </trkpt>
      <trkpt lat="47.67774" lon="6.20228">
        <ele>324</ele>
        <time>2018-10-15T14:53:25Z</time>
      </trkpt>
      <trkpt lat="47.67779" lon="6.20227">
        <ele>324</ele>
        <time>2018-10-15T14:53:28Z</time>
      </trkpt>
      <trkpt lat="47.67784" lon="6.20225">
        <ele>324</ele>
        <time>2018-10-15T14:53:31Z</time>
      </trkpt>
      <trkpt lat="47.67789" lon="6.20222">
        <ele>324</ele>
        <time>2018-10-15T14:53:34Z</time>
      </trkpt>
      <trkpt lat="47.67794" lon="6.20218">
        <ele>324</ele>
        <time>2018-10-15T14:53:38Z</time>
      </trkpt>
      <trkpt lat="47.67798" lon="6.20214">
        <ele>324</ele>
        <time>2018-10-15T14:53:41Z</time>
      </trkpt>
      <trkpt lat="47.67802" lon="6.20209">
        <ele>325</ele>
        <time>2018-10-15T14:53:44Z</time>
      </trkpt>
      <trkpt lat="47.67807" lon="6.20203">
        <ele>325</ele>
        <time>2018-10-15T14:53:48Z</time>
      </trkpt>
      <trkpt lat="47.6781" lon="6.20198">
        <ele>325</ele>
        <time>2018-10-15T14:53:51Z</time>
      </trkpt>
      <trkpt lat="47.67815" lon="6.20193">
        <ele>325</ele>
        <time>2018-10-15T14:53:54Z</time>
      </trkpt>
      <trkpt lat="47.6782" lon="6.20188">
        <ele>325</ele>
        <time>2018-10-15T14:53:57Z</time>
      </trkpt>
      <trkpt lat="47.67825" lon="6.20185">
        <ele>325</ele>
        <time>2018-10-15T14:54:00Z</time>
      </trkpt>
      <trkpt lat="47.67831" lon="6.20186">
        <ele>325</ele>
        <time>2018-10-15T14:54:03Z</time>
      </trkpt>
      <trkpt lat="47.67837" lon="6.20188">
        <ele>325</ele>
        <time>2018-10-15T14:54:06Z</time>
      </trkpt>
      <trkpt lat="47.67843" lon="6.20191">
        <ele>325</ele>
        <time>2018-10-15T14:54:09Z</time>
      </trkpt>
      <trkpt lat="47.67847" lon="6.20196">
        <ele>325</ele>
        <time>2018-10-15T14:54:13Z</time>
      </trkpt>
      <trkpt lat="47.67852" lon="6.202">
        <ele>325</ele>
        <time>2018-10-15T14:54:17Z</time>
      </trkpt>
      <trkpt lat="47.67856" lon="6.20204">
        <ele>325</ele>
        <time>2018-10-15T14:54:20Z</time>
      </trkpt>
      <trkpt lat="47.67861" lon="6.20209">
        <ele>325</ele>
        <time>2018-10-15T14:54:24Z</time>
      </trkpt>
      <trkpt lat="47.67865" lon="6.20213">
        <ele>325</ele>
        <time>2018-10-15T14:54:27Z</time>
      </trkpt>
      <trkpt lat="47.6787" lon="6.20216">
        <ele>325</ele>
        <time>2018-10-15T14:54:30Z</time>
      </trkpt>
      <trkpt lat="47.67875" lon="6.20218">
        <ele>325</ele>
        <time>2018-10-15T14:54:32Z</time>
      </trkpt>
      <trkpt lat="47.6788" lon="6.20221">
        <ele>326</ele>
        <time>2018-10-15T14:54:35Z</time>
      </trkpt>
      <trkpt lat="47.67884" lon="6.20224">
        <ele>326</ele>
        <time>2018-10-15T14:54:38Z</time>
      </trkpt>
      <trkpt lat="47.67889" lon="6.20228">
        <ele>326</ele>
        <time>2018-10-15T14:54:42Z</time>
      </trkpt>
      <trkpt lat="47.67893" lon="6.20234">
        <ele>326</ele>
        <time>2018-10-15T14:54:46Z</time>
      </trkpt>
      <trkpt lat="47.67898" lon="6.20237">
        <ele>326</ele>
        <time>2018-10-15T14:54:50Z</time>
      </trkpt>
      <trkpt lat="47.67903" lon="6.20241">
        <ele>327</ele>
        <time>2018-10-15T14:54:56Z</time>
      </trkpt>
      <trkpt lat="47.67908" lon="6.20245">
        <ele>327</ele>
        <time>2018-10-15T14:55:00Z</time>
      </trkpt>
      <trkpt lat="47.67913" lon="6.20249">
        <ele>328</ele>
        <time>2018-10-15T14:55:04Z</time>
      </trkpt>
      <trkpt lat="47.67918" lon="6.20253">
        <ele>328</ele>
        <time>2018-10-15T14:55:08Z</time>
      </trkpt>
      <trkpt lat="47.67923" lon="6.20257">
        <ele>328</ele>
        <time>2018-10-15T14:55:12Z</time>
      </trkpt>
      <trkpt lat="47.67928" lon="6.20261">
        <ele>328</ele>
        <time>2018-10-15T14:55:16Z</time>
      </trkpt>
      <trkpt lat="47.67932" lon="6.20266">
        <ele>328</ele>
        <time>2018-10-15T14:55:20Z</time>
      </trkpt>
      <trkpt lat="47.67936" lon="6.2027">
        <ele>328</ele>
        <time>2018-10-15T14:55:23Z</time>
      </trkpt>
      <trkpt lat="47.6794" lon="6.20273">
        <ele>328</ele>
        <time>2018-10-15T14:55:26Z</time>
      </trkpt>
      <trkpt lat="47.67944" lon="6.20276">
        <ele>328</ele>
        <time>2018-10-15T14:55:29Z</time>
      </trkpt>
      <trkpt lat="47.67949" lon="6.20279">
        <ele>328</ele>
        <time>2018-10-15T14:55:32Z</time>
      </trkpt>
      <trkpt lat="47.67953" lon="6.20282">
        <ele>328</ele>
        <time>2018-10-15T14:55:35Z</time>
      </trkpt>
      <trkpt lat="47.67957" lon="6.20284">
        <ele>329</ele>
        <time>2018-10-15T14:55:38Z</time>
      </trkpt>
      <trkpt lat="47.67962" lon="6.20287">
        <ele>329</ele>
        <time>2018-10-15T14:55:41Z</time>
      </trkpt>
      <trkpt lat="47.67967" lon="6.2029">
        <ele>329</ele>
        <time>2018-10-15T14:55:44Z</time>
      </trkpt>
      <trkpt lat="47.67972" lon="6.20293">
        <ele>329</ele>
        <time>2018-10-15T14:55:47Z</time>
      </trkpt>
      <trkpt lat="47.67977" lon="6.20295">
        <ele>329</ele>
        <time>2018-10-15T14:55:50Z</time>
      </trkpt>
      <trkpt lat="47.67983" lon="6.20298">
        <ele>329</ele>
        <time>2018-10-15T14:55:53Z</time>
      </trkpt>
      <trkpt lat="47.6799" lon="6.20301">
        <ele>329</ele>
        <time>2018-10-15T14:55:56Z</time>
      </trkpt>
      <trkpt lat="47.67994" lon="6.20303">
        <ele>329</ele>
        <time>2018-10-15T14:55:58Z</time>
      </trkpt>
      <trkpt lat="47.68" lon="6.20304">
        <ele>329</ele>
        <time>2018-10-15T14:56:00Z</time>
      </trkpt>
      <trkpt lat="47.68005" lon="6.20306">
        <ele>328</ele>
        <time>2018-10-15T14:56:02Z</time>
      </trkpt>
      <trkpt lat="47.68011" lon="6.20309">
        <ele>328</ele>
        <time>2018-10-15T14:56:04Z</time>
      </trkpt>
      <trkpt lat="47.68016" lon="6.20312">
        <ele>328</ele>
        <time>2018-10-15T14:56:06Z</time>
      </trkpt>
      <trkpt lat="47.68022" lon="6.20315">
        <ele>328</ele>
        <time>2018-10-15T14:56:08Z</time>
      </trkpt>
      <trkpt lat="47.6803" lon="6.20318">
        <ele>328</ele>
        <time>2018-10-15T14:56:10Z</time>
      </trkpt>
      <trkpt lat="47.68037" lon="6.2032">
        <ele>328</ele>
        <time>2018-10-15T14:56:12Z</time>
      </trkpt>
      <trkpt lat="47.68045" lon="6.20323">
        <ele>328</ele>
        <time>2018-10-15T14:56:14Z</time>
      </trkpt>
      <trkpt lat="47.68052" lon="6.20327">
        <ele>328</ele>
        <time>2018-10-15T14:56:16Z</time>
      </trkpt>
      <trkpt lat="47.68058" lon="6.2033">
        <ele>328</ele>
        <time>2018-10-15T14:56:18Z</time>
      </trkpt>
      <trkpt lat="47.68064" lon="6.20333">
        <ele>328</ele>
        <time>2018-10-15T14:56:20Z</time>
      </trkpt>
      <trkpt lat="47.68071" lon="6.20336">
        <ele>330</ele>
        <time>2018-10-15T14:56:22Z</time>
      </trkpt>
      <trkpt lat="47.68077" lon="6.20339">
        <ele>330</ele>
        <time>2018-10-15T14:56:24Z</time>
      </trkpt>
      <trkpt lat="47.68085" lon="6.20341">
        <ele>329</ele>
        <time>2018-10-15T14:56:26Z</time>
      </trkpt>
      <trkpt lat="47.68092" lon="6.20344">
        <ele>330</ele>
        <time>2018-10-15T14:56:28Z</time>
      </trkpt>
      <trkpt lat="47.68099" lon="6.20346">
        <ele>330</ele>
        <time>2018-10-15T14:56:30Z</time>
      </trkpt>
      <trkpt lat="47.68105" lon="6.20348">
        <ele>330</ele>
        <time>2018-10-15T14:56:32Z</time>
      </trkpt>
      <trkpt lat="47.68111" lon="6.20351">
        <ele>330</ele>
        <time>2018-10-15T14:56:34Z</time>
      </trkpt>
      <trkpt lat="47.68118" lon="6.20353">
        <ele>330</ele>
        <time>2018-10-15T14:56:36Z</time>
      </trkpt>
      <trkpt lat="47.68125" lon="6.20355">
        <ele>330</ele>
        <time>2018-10-15T14:56:38Z</time>
      </trkpt>
      <trkpt lat="47.68132" lon="6.20358">
        <ele>329</ele>
        <time>2018-10-15T14:56:40Z</time>
      </trkpt>
      <trkpt lat="47.68144" lon="6.20362">
        <ele>329</ele>
        <time>2018-10-15T14:56:42Z</time>
      </trkpt>
      <trkpt lat="47.68149" lon="6.20364">
        <ele>329</ele>
        <time>2018-10-15T14:56:43Z</time>
      </trkpt>
      <trkpt lat="47.68153" lon="6.20366">
        <ele>329</ele>
        <time>2018-10-15T14:56:44Z</time>
      </trkpt>
      <trkpt lat="47.68159" lon="6.20368">
        <ele>329</ele>
        <time>2018-10-15T14:56:45Z</time>
      </trkpt>
      <trkpt lat="47.68164" lon="6.2037">
        <ele>329</ele>
        <time>2018-10-15T14:56:46Z</time>
      </trkpt>
      <trkpt lat="47.68169" lon="6.20373">
        <ele>328</ele>
        <time>2018-10-15T14:56:47Z</time>
      </trkpt>
      <trkpt lat="47.68174" lon="6.20375">
        <ele>328</ele>
        <time>2018-10-15T14:56:48Z</time>
      </trkpt>
      <trkpt lat="47.68179" lon="6.20378">
        <ele>328</ele>
        <time>2018-10-15T14:56:49Z</time>
      </trkpt>
      <trkpt lat="47.68184" lon="6.2038">
        <ele>328</ele>
        <time>2018-10-15T14:56:50Z</time>
      </trkpt>
      <trkpt lat="47.68188" lon="6.20383">
        <ele>329</ele>
        <time>2018-10-15T14:56:51Z</time>
      </trkpt>
      <trkpt lat="47.68193" lon="6.20385">
        <ele>329</ele>
        <time>2018-10-15T14:56:52Z</time>
      </trkpt>
      <trkpt lat="47.68197" lon="6.20387">
        <ele>329</ele>
        <time>2018-10-15T14:56:53Z</time>
      </trkpt>
      <trkpt lat="47.68204" lon="6.20392">
        <ele>329</ele>
        <time>2018-10-15T14:56:55Z</time>
      </trkpt>
      <trkpt lat="47.6821" lon="6.20398">
        <ele>329</ele>
        <time>2018-10-15T14:56:57Z</time>
      </trkpt>
      <trkpt lat="47.68218" lon="6.20404">
        <ele>329</ele>
        <time>2018-10-15T14:56:59Z</time>
      </trkpt>
      <trkpt lat="47.68222" lon="6.20407">
        <ele>330</ele>
        <time>2018-10-15T14:57:00Z</time>
      </trkpt>
      <trkpt lat="47.68227" lon="6.2041">
        <ele>330</ele>
        <time>2018-10-15T14:57:01Z</time>
      </trkpt>
      <trkpt lat="47.68235" lon="6.20416">
        <ele>331</ele>
        <time>2018-10-15T14:57:03Z</time>
      </trkpt>
      <trkpt lat="47.68242" lon="6.20421">
        <ele>334</ele>
        <time>2018-10-15T14:57:05Z</time>
      </trkpt>
      <trkpt lat="47.68248" lon="6.20427">
        <ele>334</ele>
        <time>2018-10-15T14:57:07Z</time>
      </trkpt>
      <trkpt lat="47.68254" lon="6.2043">
        <ele>334</ele>
        <time>2018-10-15T14:57:09Z</time>
      </trkpt>
      <trkpt lat="47.68261" lon="6.20433">
        <ele>334</ele>
        <time>2018-10-15T14:57:11Z</time>
      </trkpt>
      <trkpt lat="47.68267" lon="6.20437">
        <ele>334</ele>
        <time>2018-10-15T14:57:13Z</time>
      </trkpt>
      <trkpt lat="47.68274" lon="6.2044">
        <ele>334</ele>
        <time>2018-10-15T14:57:15Z</time>
      </trkpt>
      <trkpt lat="47.68278" lon="6.20444">
        <ele>334</ele>
        <time>2018-10-15T14:57:17Z</time>
      </trkpt>
      <trkpt lat="47.68283" lon="6.20449">
        <ele>334</ele>
        <time>2018-10-15T14:57:19Z</time>
      </trkpt>
      <trkpt lat="47.68291" lon="6.20454">
        <ele>334</ele>
        <time>2018-10-15T14:57:21Z</time>
      </trkpt>
      <trkpt lat="47.683" lon="6.2046">
        <ele>334</ele>
        <time>2018-10-15T14:57:22Z</time>
      </trkpt>
      <trkpt lat="47.68306" lon="6.20462">
        <ele>334</ele>
        <time>2018-10-15T14:57:23Z</time>
      </trkpt>
      <trkpt lat="47.68311" lon="6.20465">
        <ele>334</ele>
        <time>2018-10-15T14:57:24Z</time>
      </trkpt>
      <trkpt lat="47.68315" lon="6.20468">
        <ele>334</ele>
        <time>2018-10-15T14:57:25Z</time>
      </trkpt>
      <trkpt lat="47.6832" lon="6.20471">
        <ele>334</ele>
        <time>2018-10-15T14:57:26Z</time>
      </trkpt>
      <trkpt lat="47.68327" lon="6.20474">
        <ele>334</ele>
        <time>2018-10-15T14:57:27Z</time>
      </trkpt>
      <trkpt lat="47.68333" lon="6.20477">
        <ele>334</ele>
        <time>2018-10-15T14:57:28Z</time>
      </trkpt>
      <trkpt lat="47.68339" lon="6.2048">
        <ele>332</ele>
        <time>2018-10-15T14:57:29Z</time>
      </trkpt>
      <trkpt lat="47.68344" lon="6.20482">
        <ele>332</ele>
        <time>2018-10-15T14:57:30Z</time>
      </trkpt>
      <trkpt lat="47.68349" lon="6.20485">
        <ele>332</ele>
        <time>2018-10-15T14:57:31Z</time>
      </trkpt>
      <trkpt lat="47.68355" lon="6.20489">
        <ele>332</ele>
        <time>2018-10-15T14:57:32Z</time>
      </trkpt>
      <trkpt lat="47.68359" lon="6.20491">
        <ele>332</ele>
        <time>2018-10-15T14:57:33Z</time>
      </trkpt>
      <trkpt lat="47.68364" lon="6.20495">
        <ele>332</ele>
        <time>2018-10-15T14:57:34Z</time>
      </trkpt>
      <trkpt lat="47.68369" lon="6.20499">
        <ele>332</ele>
        <time>2018-10-15T14:57:35Z</time>
      </trkpt>
      <trkpt lat="47.68373" lon="6.20501">
        <ele>331</ele>
        <time>2018-10-15T14:57:36Z</time>
      </trkpt>
      <trkpt lat="47.68378" lon="6.20504">
        <ele>330</ele>
        <time>2018-10-15T14:57:37Z</time>
      </trkpt>
      <trkpt lat="47.68383" lon="6.20507">
        <ele>330</ele>
        <time>2018-10-15T14:57:38Z</time>
      </trkpt>
      <trkpt lat="47.68387" lon="6.20511">
        <ele>330</ele>
        <time>2018-10-15T14:57:39Z</time>
      </trkpt>
      <trkpt lat="47.68393" lon="6.20515">
        <ele>330</ele>
        <time>2018-10-15T14:57:40Z</time>
      </trkpt>
      <trkpt lat="47.68397" lon="6.20518">
        <ele>330</ele>
        <time>2018-10-15T14:57:41Z</time>
      </trkpt>
      <trkpt lat="47.68401" lon="6.20522">
        <ele>330</ele>
        <time>2018-10-15T14:57:42Z</time>
      </trkpt>
      <trkpt lat="47.68407" lon="6.20526">
        <ele>330</ele>
        <time>2018-10-15T14:57:43Z</time>
      </trkpt>
      <trkpt lat="47.68412" lon="6.2053">
        <ele>329</ele>
        <time>2018-10-15T14:57:44Z</time>
      </trkpt>
      <trkpt lat="47.68417" lon="6.20534">
        <ele>331</ele>
        <time>2018-10-15T14:57:45Z</time>
      </trkpt>
      <trkpt lat="47.68421" lon="6.20538">
        <ele>331</ele>
        <time>2018-10-15T14:57:46Z</time>
      </trkpt>
      <trkpt lat="47.68428" lon="6.20544">
        <ele>331</ele>
        <time>2018-10-15T14:57:48Z</time>
      </trkpt>
      <trkpt lat="47.68437" lon="6.20551">
        <ele>331</ele>
        <time>2018-10-15T14:57:50Z</time>
      </trkpt>
      <trkpt lat="47.68443" lon="6.20557">
        <ele>331</ele>
        <time>2018-10-15T14:57:52Z</time>
      </trkpt>
      <trkpt lat="47.68449" lon="6.20563">
        <ele>331</ele>
        <time>2018-10-15T14:57:54Z</time>
      </trkpt>
      <trkpt lat="47.68454" lon="6.20567">
        <ele>332</ele>
        <time>2018-10-15T14:57:56Z</time>
      </trkpt>
      <trkpt lat="47.68459" lon="6.20572">
        <ele>332</ele>
        <time>2018-10-15T14:57:59Z</time>
      </trkpt>
      <trkpt lat="47.68463" lon="6.20576">
        <ele>332</ele>
        <time>2018-10-15T14:58:01Z</time>
      </trkpt>
      <trkpt lat="47.68468" lon="6.20582">
        <ele>333</ele>
        <time>2018-10-15T14:58:03Z</time>
      </trkpt>
      <trkpt lat="47.68474" lon="6.20587">
        <ele>332</ele>
        <time>2018-10-15T14:58:05Z</time>
      </trkpt>
      <trkpt lat="47.68479" lon="6.20592">
        <ele>332</ele>
        <time>2018-10-15T14:58:07Z</time>
      </trkpt>
      <trkpt lat="47.68484" lon="6.20598">
        <ele>332</ele>
        <time>2018-10-15T14:58:10Z</time>
      </trkpt>
      <trkpt lat="47.68488" lon="6.20603">
        <ele>332</ele>
        <time>2018-10-15T14:58:12Z</time>
      </trkpt>
      <trkpt lat="47.68492" lon="6.20608">
        <ele>332</ele>
        <time>2018-10-15T14:58:14Z</time>
      </trkpt>
      <trkpt lat="47.68496" lon="6.20613">
        <ele>332</ele>
        <time>2018-10-15T14:58:16Z</time>
      </trkpt>
      <trkpt lat="47.68499" lon="6.20618">
        <ele>331</ele>
        <time>2018-10-15T14:58:18Z</time>
      </trkpt>
      <trkpt lat="47.68504" lon="6.20624">
        <ele>337</ele>
        <time>2018-10-15T14:58:21Z</time>
      </trkpt>
      <trkpt lat="47.68509" lon="6.20631">
        <ele>337</ele>
        <time>2018-10-15T14:58:24Z</time>
      </trkpt>
      <trkpt lat="47.68512" lon="6.20636">
        <ele>337</ele>
        <time>2018-10-15T14:58:26Z</time>
      </trkpt>
      <trkpt lat="47.68516" lon="6.20642">
        <ele>337</ele>
        <time>2018-10-15T14:58:28Z</time>
      </trkpt>
      <trkpt lat="47.68519" lon="6.20647">
        <ele>337</ele>
        <time>2018-10-15T14:58:30Z</time>
      </trkpt>
      <trkpt lat="47.68523" lon="6.20654">
        <ele>337</ele>
        <time>2018-10-15T14:58:33Z</time>
      </trkpt>
      <trkpt lat="47.68526" lon="6.20659">
        <ele>337</ele>
        <time>2018-10-15T14:58:36Z</time>
      </trkpt>
      <trkpt lat="47.6853" lon="6.20666">
        <ele>337</ele>
        <time>2018-10-15T14:58:40Z</time>
      </trkpt>
      <trkpt lat="47.68533" lon="6.20673">
        <ele>335</ele>
        <time>2018-10-15T14:58:43Z</time>
      </trkpt>
      <trkpt lat="47.68536" lon="6.20679">
        <ele>336</ele>
        <time>2018-10-15T14:58:46Z</time>
      </trkpt>
      <trkpt lat="47.6854" lon="6.20686">
        <ele>336</ele>
        <time>2018-10-15T14:58:49Z</time>
      </trkpt>
      <trkpt lat="47.68544" lon="6.20694">
        <ele>336</ele>
        <time>2018-10-15T14:58:52Z</time>
      </trkpt>
      <trkpt lat="47.68548" lon="6.207">
        <ele>336</ele>
        <time>2018-10-15T14:58:55Z</time>
      </trkpt>
      <trkpt lat="47.68554" lon="6.20705">
        <ele>336</ele>
        <time>2018-10-15T14:58:57Z</time>
      </trkpt>
      <trkpt lat="47.68558" lon="6.2071">
        <ele>336</ele>
        <time>2018-10-15T14:58:59Z</time>
      </trkpt>
      <trkpt lat="47.68562" lon="6.20714">
        <ele>336</ele>
        <time>2018-10-15T14:59:01Z</time>
      </trkpt>
      <trkpt lat="47.68566" lon="6.20718">
        <ele>337</ele>
        <time>2018-10-15T14:59:03Z</time>
      </trkpt>
      <trkpt lat="47.68569" lon="6.20724">
        <ele>337</ele>
        <time>2018-10-15T14:59:07Z</time>
      </trkpt>
      <trkpt lat="47.68573" lon="6.2073">
        <ele>337</ele>
        <time>2018-10-15T14:59:10Z</time>
      </trkpt>
      <trkpt lat="47.68575" lon="6.20737">
        <ele>338</ele>
        <time>2018-10-15T14:59:12Z</time>
      </trkpt>
      <trkpt lat="47.68577" lon="6.20743">
        <ele>338</ele>
        <time>2018-10-15T14:59:14Z</time>
      </trkpt>
      <trkpt lat="47.68579" lon="6.2075">
        <ele>339</ele>
        <time>2018-10-15T14:59:16Z</time>
      </trkpt>
      <trkpt lat="47.68582" lon="6.20756">
        <ele>338</ele>
        <time>2018-10-15T14:59:18Z</time>
      </trkpt>
      <trkpt lat="47.68584" lon="6.20762">
        <ele>341</ele>
        <time>2018-10-15T14:59:20Z</time>
      </trkpt>
      <trkpt lat="47.68586" lon="6.20768">
        <ele>341</ele>
        <time>2018-10-15T14:59:22Z</time>
      </trkpt>
      <trkpt lat="47.68589" lon="6.20773">
        <ele>341</ele>
        <time>2018-10-15T14:59:24Z</time>
      </trkpt>
      <trkpt lat="47.68594" lon="6.20781">
        <ele>341</ele>
        <time>2018-10-15T14:59:27Z</time>
      </trkpt>
      <trkpt lat="47.68597" lon="6.20787">
        <ele>341</ele>
        <time>2018-10-15T14:59:29Z</time>
      </trkpt>
      <trkpt lat="47.68599" lon="6.20793">
        <ele>341</ele>
        <time>2018-10-15T14:59:31Z</time>
      </trkpt>
      <trkpt lat="47.68602" lon="6.20799">
        <ele>341</ele>
        <time>2018-10-15T14:59:33Z</time>
      </trkpt>
      <trkpt lat="47.68605" lon="6.20805">
        <ele>341</ele>
        <time>2018-10-15T14:59:35Z</time>
      </trkpt>
      <trkpt lat="47.68609" lon="6.2081">
        <ele>341</ele>
        <time>2018-10-15T14:59:37Z</time>
      </trkpt>
      <trkpt lat="47.68612" lon="6.20815">
        <ele>341</ele>
        <time>2018-10-15T14:59:39Z</time>
      </trkpt>
      <trkpt lat="47.68615" lon="6.2082">
        <ele>341</ele>
        <time>2018-10-15T14:59:41Z</time>
      </trkpt>
      <trkpt lat="47.68619" lon="6.20827">
        <ele>341</ele>
        <time>2018-10-15T14:59:44Z</time>
      </trkpt>
      <trkpt lat="47.68624" lon="6.20834">
        <ele>338</ele>
        <time>2018-10-15T14:59:46Z</time>
      </trkpt>
      <trkpt lat="47.68627" lon="6.2084">
        <ele>338</ele>
        <time>2018-10-15T14:59:49Z</time>
      </trkpt>
      <trkpt lat="47.68632" lon="6.20847">
        <ele>339</ele>
        <time>2018-10-15T14:59:52Z</time>
      </trkpt>
      <trkpt lat="47.68635" lon="6.20853">
        <ele>339</ele>
        <time>2018-10-15T14:59:54Z</time>
      </trkpt>
      <trkpt lat="47.68641" lon="6.20855">
        <ele>339</ele>
        <time>2018-10-15T14:59:55Z</time>
      </trkpt>
      <trkpt lat="47.68648" lon="6.20858">
        <ele>340</ele>
        <time>2018-10-15T14:59:56Z</time>
      </trkpt>
      <trkpt lat="47.68653" lon="6.20863">
        <ele>340</ele>
        <time>2018-10-15T14:59:58Z</time>
      </trkpt>
      <trkpt lat="47.68656" lon="6.20868">
        <ele>339</ele>
        <time>2018-10-15T15:00:01Z</time>
      </trkpt>
      <trkpt lat="47.68659" lon="6.20875">
        <ele>339</ele>
        <time>2018-10-15T15:00:04Z</time>
      </trkpt>
      <trkpt lat="47.68662" lon="6.20882">
        <ele>338</ele>
        <time>2018-10-15T15:00:07Z</time>
      </trkpt>
      <trkpt lat="47.68666" lon="6.20886">
        <ele>338</ele>
        <time>2018-10-15T15:00:10Z</time>
      </trkpt>
      <trkpt lat="47.68672" lon="6.2089">
        <ele>342</ele>
        <time>2018-10-15T15:00:13Z</time>
      </trkpt>
      <trkpt lat="47.68677" lon="6.20894">
        <ele>342</ele>
        <time>2018-10-15T15:00:15Z</time>
      </trkpt>
      <trkpt lat="47.68683" lon="6.20896">
        <ele>342</ele>
        <time>2018-10-15T15:00:17Z</time>
      </trkpt>
      <trkpt lat="47.6869" lon="6.209">
        <ele>342</ele>
        <time>2018-10-15T15:00:19Z</time>
      </trkpt>
      <trkpt lat="47.68696" lon="6.20904">
        <ele>342</ele>
        <time>2018-10-15T15:00:21Z</time>
      </trkpt>
      <trkpt lat="47.68703" lon="6.20909">
        <ele>342</ele>
        <time>2018-10-15T15:00:23Z</time>
      </trkpt>
      <trkpt lat="47.6871" lon="6.20913">
        <ele>342</ele>
        <time>2018-10-15T15:00:25Z</time>
      </trkpt>
      <trkpt lat="47.68715" lon="6.20914">
        <ele>341</ele>
        <time>2018-10-15T15:00:26Z</time>
      </trkpt>
      <trkpt lat="47.6872" lon="6.20915">
        <ele>341</ele>
        <time>2018-10-15T15:00:27Z</time>
      </trkpt>
      <trkpt lat="47.68726" lon="6.20915">
        <ele>341</ele>
        <time>2018-10-15T15:00:28Z</time>
      </trkpt>
      <trkpt lat="47.68732" lon="6.20915">
        <ele>341</ele>
        <time>2018-10-15T15:00:29Z</time>
      </trkpt>
      <trkpt lat="47.68738" lon="6.20915">
        <ele>340</ele>
        <time>2018-10-15T15:00:30Z</time>
      </trkpt>
      <trkpt lat="47.68743" lon="6.20915">
        <ele>339</ele>
        <time>2018-10-15T15:00:31Z</time>
      </trkpt>
      <trkpt lat="47.68751" lon="6.20915">
        <ele>338</ele>
        <time>2018-10-15T15:00:32Z</time>
      </trkpt>
      <trkpt lat="47.68757" lon="6.20918">
        <ele>336</ele>
        <time>2018-10-15T15:00:33Z</time>
      </trkpt>
      <trkpt lat="47.68762" lon="6.20919">
        <ele>335</ele>
        <time>2018-10-15T15:00:34Z</time>
      </trkpt>
      <trkpt lat="47.6877" lon="6.20922">
        <ele>334</ele>
        <time>2018-10-15T15:00:36Z</time>
      </trkpt>
      <trkpt lat="47.68777" lon="6.20924">
        <ele>333</ele>
        <time>2018-10-15T15:00:37Z</time>
      </trkpt>
      <trkpt lat="47.68785" lon="6.20927">
        <ele>333</ele>
        <time>2018-10-15T15:00:39Z</time>
      </trkpt>
      <trkpt lat="47.6879" lon="6.20929">
        <ele>332</ele>
        <time>2018-10-15T15:00:41Z</time>
      </trkpt>
      <trkpt lat="47.68796" lon="6.20931">
        <ele>332</ele>
        <time>2018-10-15T15:00:43Z</time>
      </trkpt>
      <trkpt lat="47.68801" lon="6.20932">
        <ele>332</ele>
        <time>2018-10-15T15:00:44Z</time>
      </trkpt>
      <trkpt lat="47.68805" lon="6.20934">
        <ele>332</ele>
        <time>2018-10-15T15:00:46Z</time>
      </trkpt>
      <trkpt lat="47.68811" lon="6.20936">
        <ele>332</ele>
        <time>2018-10-15T15:00:48Z</time>
      </trkpt>
      <trkpt lat="47.68816" lon="6.2094">
        <ele>331</ele>
        <time>2018-10-15T15:00:51Z</time>
      </trkpt>
      <trkpt lat="47.68821" lon="6.20945">
        <ele>331</ele>
        <time>2018-10-15T15:00:54Z</time>
      </trkpt>
      <trkpt lat="47.68826" lon="6.20949">
        <ele>331</ele>
        <time>2018-10-15T15:00:57Z</time>
      </trkpt>
      <trkpt lat="47.6883" lon="6.20953">
        <ele>331</ele>
        <time>2018-10-15T15:01:00Z</time>
      </trkpt>
      <trkpt lat="47.68833" lon="6.20957">
        <ele>331</ele>
        <time>2018-10-15T15:01:08Z</time>
      </trkpt>
      <trkpt lat="47.68836" lon="6.20964">
        <ele>327</ele>
        <time>2018-10-15T15:01:33Z</time>
      </trkpt>
      <trkpt lat="47.68836" lon="6.20971">
        <ele>327</ele>
        <time>2018-10-15T15:01:36Z</time>
      </trkpt>
      <trkpt lat="47.68838" lon="6.2098">
        <ele>327</ele>
        <time>2018-10-15T15:01:39Z</time>
      </trkpt>
      <trkpt lat="47.68839" lon="6.20989">
        <ele>327</ele>
        <time>2018-10-15T15:01:42Z</time>
      </trkpt>
      <trkpt lat="47.68841" lon="6.20996">
        <ele>328</ele>
        <time>2018-10-15T15:01:45Z</time>
      </trkpt>
      <trkpt lat="47.68843" lon="6.21004">
        <ele>328</ele>
        <time>2018-10-15T15:01:48Z</time>
      </trkpt>
      <trkpt lat="47.68844" lon="6.21012">
        <ele>328</ele>
        <time>2018-10-15T15:01:51Z</time>
      </trkpt>
      <trkpt lat="47.68844" lon="6.2102">
        <ele>328</ele>
        <time>2018-10-15T15:01:53Z</time>
      </trkpt>
      <trkpt lat="47.68846" lon="6.21029">
        <ele>328</ele>
        <time>2018-10-15T15:01:55Z</time>
      </trkpt>
      <trkpt lat="47.68848" lon="6.21039">
        <ele>328</ele>
        <time>2018-10-15T15:01:57Z</time>
      </trkpt>
      <trkpt lat="47.68851" lon="6.21047">
        <ele>328</ele>
        <time>2018-10-15T15:01:59Z</time>
      </trkpt>
      <trkpt lat="47.68853" lon="6.21053">
        <ele>328</ele>
        <time>2018-10-15T15:02:02Z</time>
      </trkpt>
      <trkpt lat="47.68852" lon="6.21061">
        <ele>328</ele>
        <time>2018-10-15T15:02:27Z</time>
      </trkpt>
      <trkpt lat="47.68851" lon="6.2107">
        <ele>329</ele>
        <time>2018-10-15T15:02:32Z</time>
      </trkpt>
      <trkpt lat="47.6885" lon="6.21079">
        <ele>329</ele>
        <time>2018-10-15T15:02:36Z</time>
      </trkpt>
      <trkpt lat="47.68849" lon="6.21086">
        <ele>330</ele>
        <time>2018-10-15T15:02:38Z</time>
      </trkpt>
      <trkpt lat="47.68846" lon="6.21095">
        <ele>330</ele>
        <time>2018-10-15T15:02:41Z</time>
      </trkpt>
      <trkpt lat="47.68843" lon="6.21102">
        <ele>330</ele>
        <time>2018-10-15T15:02:43Z</time>
      </trkpt>
      <trkpt lat="47.6884" lon="6.2111">
        <ele>330</ele>
        <time>2018-10-15T15:02:46Z</time>
      </trkpt>
      <trkpt lat="47.68837" lon="6.2112">
        <ele>330</ele>
        <time>2018-10-15T15:02:49Z</time>
      </trkpt>
      <trkpt lat="47.68835" lon="6.21127">
        <ele>330</ele>
        <time>2018-10-15T15:02:51Z</time>
      </trkpt>
      <trkpt lat="47.68834" lon="6.21135">
        <ele>330</ele>
        <time>2018-10-15T15:02:53Z</time>
      </trkpt>
      <trkpt lat="47.68833" lon="6.21143">
        <ele>329</ele>
        <time>2018-10-15T15:02:55Z</time>
      </trkpt>
      <trkpt lat="47.68832" lon="6.21152">
        <ele>330</ele>
        <time>2018-10-15T15:02:57Z</time>
      </trkpt>
      <trkpt lat="47.68832" lon="6.21161">
        <ele>331</ele>
        <time>2018-10-15T15:02:59Z</time>
      </trkpt>
      <trkpt lat="47.68832" lon="6.2117">
        <ele>331</ele>
        <time>2018-10-15T15:03:02Z</time>
      </trkpt>
      <trkpt lat="47.68833" lon="6.21178">
        <ele>330</ele>
        <time>2018-10-15T15:03:05Z</time>
      </trkpt>
      <trkpt lat="47.68832" lon="6.21185">
        <ele>330</ele>
        <time>2018-10-15T15:03:08Z</time>
      </trkpt>
      <trkpt lat="47.68831" lon="6.21194">
        <ele>329</ele>
        <time>2018-10-15T15:03:11Z</time>
      </trkpt>
      <trkpt lat="47.6883" lon="6.21202">
        <ele>329</ele>
        <time>2018-10-15T15:03:14Z</time>
      </trkpt>
      <trkpt lat="47.68827" lon="6.2121">
        <ele>329</ele>
        <time>2018-10-15T15:03:18Z</time>
      </trkpt>
      <trkpt lat="47.68825" lon="6.21216">
        <ele>329</ele>
        <time>2018-10-15T15:03:21Z</time>
      </trkpt>
      <trkpt lat="47.68822" lon="6.21222">
        <ele>329</ele>
        <time>2018-10-15T15:03:24Z</time>
      </trkpt>
      <trkpt lat="47.68819" lon="6.21227">
        <ele>329</ele>
        <time>2018-10-15T15:03:27Z</time>
      </trkpt>
      <trkpt lat="47.68815" lon="6.21234">
        <ele>329</ele>
        <time>2018-10-15T15:03:30Z</time>
      </trkpt>
      <trkpt lat="47.68811" lon="6.21242">
        <ele>329</ele>
        <time>2018-10-15T15:03:33Z</time>
      </trkpt>
      <trkpt lat="47.68809" lon="6.21249">
        <ele>329</ele>
        <time>2018-10-15T15:03:35Z</time>
      </trkpt>
      <trkpt lat="47.68807" lon="6.21258">
        <ele>328</ele>
        <time>2018-10-15T15:03:38Z</time>
      </trkpt>
      <trkpt lat="47.68804" lon="6.21266">
        <ele>328</ele>
        <time>2018-10-15T15:03:41Z</time>
      </trkpt>
      <trkpt lat="47.68803" lon="6.21274">
        <ele>328</ele>
        <time>2018-10-15T15:03:43Z</time>
      </trkpt>
      <trkpt lat="47.68801" lon="6.21287">
        <ele>327</ele>
        <time>2018-10-15T15:03:45Z</time>
      </trkpt>
      <trkpt lat="47.688" lon="6.21294">
        <ele>327</ele>
        <time>2018-10-15T15:03:46Z</time>
      </trkpt>
      <trkpt lat="47.68798" lon="6.21305">
        <ele>327</ele>
        <time>2018-10-15T15:03:48Z</time>
      </trkpt>
      <trkpt lat="47.68796" lon="6.21315">
        <ele>327</ele>
        <time>2018-10-15T15:03:50Z</time>
      </trkpt>
      <trkpt lat="47.68796" lon="6.21322">
        <ele>327</ele>
        <time>2018-10-15T15:03:52Z</time>
      </trkpt>
      <trkpt lat="47.68795" lon="6.21329">
        <ele>326</ele>
        <time>2018-10-15T15:03:54Z</time>
      </trkpt>
      <trkpt lat="47.68794" lon="6.21336">
        <ele>325</ele>
        <time>2018-10-15T15:03:56Z</time>
      </trkpt>
      <trkpt lat="47.68793" lon="6.21343">
        <ele>325</ele>
        <time>2018-10-15T15:03:58Z</time>
      </trkpt>
      <trkpt lat="47.68792" lon="6.21353">
        <ele>325</ele>
        <time>2018-10-15T15:04:00Z</time>
      </trkpt>
      <trkpt lat="47.68792" lon="6.21362">
        <ele>325</ele>
        <time>2018-10-15T15:04:02Z</time>
      </trkpt>
      <trkpt lat="47.68791" lon="6.21371">
        <ele>325</ele>
        <time>2018-10-15T15:04:04Z</time>
      </trkpt>
      <trkpt lat="47.68791" lon="6.21378">
        <ele>325</ele>
        <time>2018-10-15T15:04:06Z</time>
      </trkpt>
      <trkpt lat="47.6879" lon="6.21386">
        <ele>325</ele>
        <time>2018-10-15T15:04:08Z</time>
      </trkpt>
      <trkpt lat="47.68791" lon="6.21393">
        <ele>325</ele>
        <time>2018-10-15T15:04:10Z</time>
      </trkpt>
      <trkpt lat="47.68793" lon="6.214">
        <ele>325</ele>
        <time>2018-10-15T15:04:12Z</time>
      </trkpt>
      <trkpt lat="47.68794" lon="6.21409">
        <ele>325</ele>
        <time>2018-10-15T15:04:15Z</time>
      </trkpt>
      <trkpt lat="47.68795" lon="6.21419">
        <ele>323</ele>
        <time>2018-10-15T15:04:18Z</time>
      </trkpt>
      <trkpt lat="47.68796" lon="6.21426">
        <ele>323</ele>
        <time>2018-10-15T15:04:21Z</time>
      </trkpt>
      <trkpt lat="47.68796" lon="6.21433">
        <ele>322</ele>
        <time>2018-10-15T15:04:23Z</time>
      </trkpt>
      <trkpt lat="47.68796" lon="6.21439">
        <ele>322</ele>
        <time>2018-10-15T15:04:25Z</time>
      </trkpt>
      <trkpt lat="47.68795" lon="6.21446">
        <ele>322</ele>
        <time>2018-10-15T15:04:27Z</time>
      </trkpt>
      <trkpt lat="47.68796" lon="6.21454">
        <ele>322</ele>
        <time>2018-10-15T15:04:29Z</time>
      </trkpt>
      <trkpt lat="47.68796" lon="6.21462">
        <ele>322</ele>
        <time>2018-10-15T15:04:31Z</time>
      </trkpt>
      <trkpt lat="47.68795" lon="6.21469">
        <ele>321</ele>
        <time>2018-10-15T15:04:33Z</time>
      </trkpt>
      <trkpt lat="47.68794" lon="6.21479">
        <ele>321</ele>
        <time>2018-10-15T15:04:35Z</time>
      </trkpt>
      <trkpt lat="47.68792" lon="6.21492">
        <ele>321</ele>
        <time>2018-10-15T15:04:37Z</time>
      </trkpt>
      <trkpt lat="47.68791" lon="6.21501">
        <ele>317</ele>
        <time>2018-10-15T15:04:39Z</time>
      </trkpt>
      <trkpt lat="47.6879" lon="6.21511">
        <ele>317</ele>
        <time>2018-10-15T15:04:41Z</time>
      </trkpt>
      <trkpt lat="47.6879" lon="6.2152">
        <ele>317</ele>
        <time>2018-10-15T15:04:43Z</time>
      </trkpt>
      <trkpt lat="47.6879" lon="6.21527">
        <ele>316</ele>
        <time>2018-10-15T15:04:45Z</time>
      </trkpt>
      <trkpt lat="47.68789" lon="6.21537">
        <ele>316</ele>
        <time>2018-10-15T15:04:48Z</time>
      </trkpt>
      <trkpt lat="47.68789" lon="6.21544">
        <ele>316</ele>
        <time>2018-10-15T15:04:50Z</time>
      </trkpt>
      <trkpt lat="47.68789" lon="6.21552">
        <ele>316</ele>
        <time>2018-10-15T15:04:52Z</time>
      </trkpt>
      <trkpt lat="47.6879" lon="6.21559">
        <ele>315</ele>
        <time>2018-10-15T15:04:54Z</time>
      </trkpt>
      <trkpt lat="47.68792" lon="6.21567">
        <ele>315</ele>
        <time>2018-10-15T15:04:57Z</time>
      </trkpt>
      <trkpt lat="47.68795" lon="6.21573">
        <ele>315</ele>
        <time>2018-10-15T15:04:59Z</time>
      </trkpt>
      <trkpt lat="47.688" lon="6.21579">
        <ele>315</ele>
        <time>2018-10-15T15:05:02Z</time>
      </trkpt>
      <trkpt lat="47.68804" lon="6.21584">
        <ele>310</ele>
        <time>2018-10-15T15:05:05Z</time>
      </trkpt>
      <trkpt lat="47.68808" lon="6.21588">
        <ele>310</ele>
        <time>2018-10-15T15:05:30Z</time>
      </trkpt>
      <trkpt lat="47.68811" lon="6.21593">
        <ele>310</ele>
        <time>2018-10-15T15:06:01Z</time>
      </trkpt>
      <trkpt lat="47.68812" lon="6.21601">
        <ele>310</ele>
        <time>2018-10-15T15:06:05Z</time>
      </trkpt>
      <trkpt lat="47.68813" lon="6.21609">
        <ele>309</ele>
        <time>2018-10-15T15:06:08Z</time>
      </trkpt>
      <trkpt lat="47.68813" lon="6.21616">
        <ele>309</ele>
        <time>2018-10-15T15:06:11Z</time>
      </trkpt>
      <trkpt lat="47.68815" lon="6.21625">
        <ele>308</ele>
        <time>2018-10-15T15:06:15Z</time>
      </trkpt>
      <trkpt lat="47.68815" lon="6.21634">
        <ele>307</ele>
        <time>2018-10-15T15:06:18Z</time>
      </trkpt>
      <trkpt lat="47.68815" lon="6.21641">
        <ele>306</ele>
        <time>2018-10-15T15:06:21Z</time>
      </trkpt>
      <trkpt lat="47.68815" lon="6.2165">
        <ele>306</ele>
        <time>2018-10-15T15:06:26Z</time>
      </trkpt>
      <trkpt lat="47.68815" lon="6.21657">
        <ele>305</ele>
        <time>2018-10-15T15:06:29Z</time>
      </trkpt>
      <trkpt lat="47.68815" lon="6.21664">
        <ele>305</ele>
        <time>2018-10-15T15:06:31Z</time>
      </trkpt>
      <trkpt lat="47.68816" lon="6.21671">
        <ele>299</ele>
        <time>2018-10-15T15:06:33Z</time>
      </trkpt>
      <trkpt lat="47.68818" lon="6.21682">
        <ele>299</ele>
        <time>2018-10-15T15:06:35Z</time>
      </trkpt>
      <trkpt lat="47.6882" lon="6.21691">
        <ele>298</ele>
        <time>2018-10-15T15:06:37Z</time>
      </trkpt>
      <trkpt lat="47.68823" lon="6.21701">
        <ele>297</ele>
        <time>2018-10-15T15:06:39Z</time>
      </trkpt>
      <trkpt lat="47.68824" lon="6.2171">
        <ele>296</ele>
        <time>2018-10-15T15:06:41Z</time>
      </trkpt>
      <trkpt lat="47.68825" lon="6.21717">
        <ele>295</ele>
        <time>2018-10-15T15:06:43Z</time>
      </trkpt>
      <trkpt lat="47.68827" lon="6.21723">
        <ele>295</ele>
        <time>2018-10-15T15:06:45Z</time>
      </trkpt>
      <trkpt lat="47.6883" lon="6.21731">
        <ele>294</ele>
        <time>2018-10-15T15:06:47Z</time>
      </trkpt>
      <trkpt lat="47.68832" lon="6.21739">
        <ele>293</ele>
        <time>2018-10-15T15:06:49Z</time>
      </trkpt>
      <trkpt lat="47.68836" lon="6.21748">
        <ele>291</ele>
        <time>2018-10-15T15:06:51Z</time>
      </trkpt>
      <trkpt lat="47.68837" lon="6.21756">
        <ele>289</ele>
        <time>2018-10-15T15:06:53Z</time>
      </trkpt>
      <trkpt lat="47.68839" lon="6.21763">
        <ele>287</ele>
        <time>2018-10-15T15:06:55Z</time>
      </trkpt>
      <trkpt lat="47.68841" lon="6.21769">
        <ele>286</ele>
        <time>2018-10-15T15:06:57Z</time>
      </trkpt>
      <trkpt lat="47.68843" lon="6.21776">
        <ele>285</ele>
        <time>2018-10-15T15:06:59Z</time>
      </trkpt>
      <trkpt lat="47.68843" lon="6.21783">
        <ele>284</ele>
        <time>2018-10-15T15:07:01Z</time>
      </trkpt>
      <trkpt lat="47.68844" lon="6.2179">
        <ele>284</ele>
        <time>2018-10-15T15:07:04Z</time>
      </trkpt>
      <trkpt lat="47.68843" lon="6.21799">
        <ele>283</ele>
        <time>2018-10-15T15:07:08Z</time>
      </trkpt>
      <trkpt lat="47.68843" lon="6.21807">
        <ele>283</ele>
        <time>2018-10-15T15:07:11Z</time>
      </trkpt>
      <trkpt lat="47.68843" lon="6.21818">
        <ele>283</ele>
        <time>2018-10-15T15:07:14Z</time>
      </trkpt>
      <trkpt lat="47.68843" lon="6.21826">
        <ele>283</ele>
        <time>2018-10-15T15:07:16Z</time>
      </trkpt>
      <trkpt lat="47.68843" lon="6.21834">
        <ele>282</ele>
        <time>2018-10-15T15:07:18Z</time>
      </trkpt>
      <trkpt lat="47.68843" lon="6.21842">
        <ele>282</ele>
        <time>2018-10-15T15:07:20Z</time>
      </trkpt>
      <trkpt lat="47.68844" lon="6.2185">
        <ele>281</ele>
        <time>2018-10-15T15:07:22Z</time>
      </trkpt>
      <trkpt lat="47.68844" lon="6.21859">
        <ele>281</ele>
        <time>2018-10-15T15:07:24Z</time>
      </trkpt>
      <trkpt lat="47.68844" lon="6.21869">
        <ele>280</ele>
        <time>2018-10-15T15:07:26Z</time>
      </trkpt>
      <trkpt lat="47.68844" lon="6.21877">
        <ele>280</ele>
        <time>2018-10-15T15:07:28Z</time>
      </trkpt>
      <trkpt lat="47.68843" lon="6.21887">
        <ele>279</ele>
        <time>2018-10-15T15:07:30Z</time>
      </trkpt>
      <trkpt lat="47.68841" lon="6.21895">
        <ele>279</ele>
        <time>2018-10-15T15:07:32Z</time>
      </trkpt>
      <trkpt lat="47.68841" lon="6.21902">
        <ele>279</ele>
        <time>2018-10-15T15:07:34Z</time>
      </trkpt>
      <trkpt lat="47.68841" lon="6.2191">
        <ele>279</ele>
        <time>2018-10-15T15:07:36Z</time>
      </trkpt>
      <trkpt lat="47.6884" lon="6.21918">
        <ele>278</ele>
        <time>2018-10-15T15:07:38Z</time>
      </trkpt>
      <trkpt lat="47.6884" lon="6.21927">
        <ele>278</ele>
        <time>2018-10-15T15:07:40Z</time>
      </trkpt>
      <trkpt lat="47.6884" lon="6.21939">
        <ele>277</ele>
        <time>2018-10-15T15:07:42Z</time>
      </trkpt>
      <trkpt lat="47.6884" lon="6.2195">
        <ele>277</ele>
        <time>2018-10-15T15:07:44Z</time>
      </trkpt>
      <trkpt lat="47.6884" lon="6.21959">
        <ele>276</ele>
        <time>2018-10-15T15:07:46Z</time>
      </trkpt>
      <trkpt lat="47.6884" lon="6.21968">
        <ele>276</ele>
        <time>2018-10-15T15:07:48Z</time>
      </trkpt>
      <trkpt lat="47.68839" lon="6.21978">
        <ele>275</ele>
        <time>2018-10-15T15:07:50Z</time>
      </trkpt>
      <trkpt lat="47.68837" lon="6.21987">
        <ele>275</ele>
        <time>2018-10-15T15:07:52Z</time>
      </trkpt>
      <trkpt lat="47.68835" lon="6.21997">
        <ele>274</ele>
        <time>2018-10-15T15:07:54Z</time>
      </trkpt>
      <trkpt lat="47.68833" lon="6.22006">
        <ele>273</ele>
        <time>2018-10-15T15:07:56Z</time>
      </trkpt>
      <trkpt lat="47.68832" lon="6.22018">
        <ele>268</ele>
        <time>2018-10-15T15:07:58Z</time>
      </trkpt>
      <trkpt lat="47.68832" lon="6.22026">
        <ele>267</ele>
        <time>2018-10-15T15:08:00Z</time>
      </trkpt>
      <trkpt lat="47.68833" lon="6.22035">
        <ele>266</ele>
        <time>2018-10-15T15:08:02Z</time>
      </trkpt>
      <trkpt lat="47.68834" lon="6.22042">
        <ele>272</ele>
        <time>2018-10-15T15:08:04Z</time>
      </trkpt>
      <trkpt lat="47.68836" lon="6.22051">
        <ele>271</ele>
        <time>2018-10-15T15:08:07Z</time>
      </trkpt>
      <trkpt lat="47.68837" lon="6.22058">
        <ele>271</ele>
        <time>2018-10-15T15:08:09Z</time>
      </trkpt>
      <trkpt lat="47.68836" lon="6.22066">
        <ele>271</ele>
        <time>2018-10-15T15:08:11Z</time>
      </trkpt>
      <trkpt lat="47.68836" lon="6.22075">
        <ele>270</ele>
        <time>2018-10-15T15:08:13Z</time>
      </trkpt>
      <trkpt lat="47.68834" lon="6.22084">
        <ele>269</ele>
        <time>2018-10-15T15:08:16Z</time>
      </trkpt>
      <trkpt lat="47.68832" lon="6.22092">
        <ele>266</ele>
        <time>2018-10-15T15:08:19Z</time>
      </trkpt>
      <trkpt lat="47.68829" lon="6.22098">
        <ele>264</ele>
        <time>2018-10-15T15:08:21Z</time>
      </trkpt>
      <trkpt lat="47.68826" lon="6.22103">
        <ele>263</ele>
        <time>2018-10-15T15:08:23Z</time>
      </trkpt>
      <trkpt lat="47.68822" lon="6.22112">
        <ele>262</ele>
        <time>2018-10-15T15:08:26Z</time>
      </trkpt>
      <trkpt lat="47.6882" lon="6.2212">
        <ele>261</ele>
        <time>2018-10-15T15:08:28Z</time>
      </trkpt>
      <trkpt lat="47.68818" lon="6.22128">
        <ele>260</ele>
        <time>2018-10-15T15:08:31Z</time>
      </trkpt>
      <trkpt lat="47.68817" lon="6.22134">
        <ele>260</ele>
        <time>2018-10-15T15:08:59Z</time>
      </trkpt>
      <trkpt lat="47.68818" lon="6.22141">
        <ele>259</ele>
        <time>2018-10-15T15:12:26Z</time>
      </trkpt>
      <trkpt lat="47.68818" lon="6.22148">
        <ele>259</ele>
        <time>2018-10-15T15:13:00Z</time>
      </trkpt>
      <trkpt lat="47.68819" lon="6.22156">
        <ele>259</ele>
        <time>2018-10-15T15:13:03Z</time>
      </trkpt>
      <trkpt lat="47.6882" lon="6.22167">
        <ele>259</ele>
        <time>2018-10-15T15:13:06Z</time>
      </trkpt>
      <trkpt lat="47.6882" lon="6.22174">
        <ele>258</ele>
        <time>2018-10-15T15:13:08Z</time>
      </trkpt>
      <trkpt lat="47.6882" lon="6.22181">
        <ele>257</ele>
        <time>2018-10-15T15:13:10Z</time>
      </trkpt>
      <trkpt lat="47.6882" lon="6.22189">
        <ele>257</ele>
        <time>2018-10-15T15:13:12Z</time>
      </trkpt>
      <trkpt lat="47.6882" lon="6.22196">
        <ele>256</ele>
        <time>2018-10-15T15:13:14Z</time>
      </trkpt>
      <trkpt lat="47.6882" lon="6.22204">
        <ele>256</ele>
        <time>2018-10-15T15:13:16Z</time>
      </trkpt>
      <trkpt lat="47.6882" lon="6.22213">
        <ele>256</ele>
        <time>2018-10-15T15:13:18Z</time>
      </trkpt>
      <trkpt lat="47.6882" lon="6.22221">
        <ele>256</ele>
        <time>2018-10-15T15:13:20Z</time>
      </trkpt>
      <trkpt lat="47.68821" lon="6.22231">
        <ele>256</ele>
        <time>2018-10-15T15:13:22Z</time>
      </trkpt>
      <trkpt lat="47.68821" lon="6.22239">
        <ele>256</ele>
        <time>2018-10-15T15:13:24Z</time>
      </trkpt>
      <trkpt lat="47.68821" lon="6.22247">
        <ele>256</ele>
        <time>2018-10-15T15:13:26Z</time>
      </trkpt>
      <trkpt lat="47.68819" lon="6.22256">
        <ele>255</ele>
        <time>2018-10-15T15:13:28Z</time>
      </trkpt>
      <trkpt lat="47.68817" lon="6.22264">
        <ele>255</ele>
        <time>2018-10-15T15:13:30Z</time>
      </trkpt>
      <trkpt lat="47.68813" lon="6.22271">
        <ele>255</ele>
        <time>2018-10-15T15:13:32Z</time>
      </trkpt>
      <trkpt lat="47.6881" lon="6.22276">
        <ele>255</ele>
        <time>2018-10-15T15:13:34Z</time>
      </trkpt>
      <trkpt lat="47.68805" lon="6.22281">
        <ele>255</ele>
        <time>2018-10-15T15:13:36Z</time>
      </trkpt>
      <trkpt lat="47.688" lon="6.22287">
        <ele>255</ele>
        <time>2018-10-15T15:13:38Z</time>
      </trkpt>
      <trkpt lat="47.68795" lon="6.2229">
        <ele>255</ele>
        <time>2018-10-15T15:13:40Z</time>
      </trkpt>
      <trkpt lat="47.68789" lon="6.22291">
        <ele>255</ele>
        <time>2018-10-15T15:13:42Z</time>
      </trkpt>
      <trkpt lat="47.68785" lon="6.22291">
        <ele>255</ele>
        <time>2018-10-15T15:13:44Z</time>
      </trkpt>
      <trkpt lat="47.6878" lon="6.22293">
        <ele>255</ele>
        <time>2018-10-15T15:13:46Z</time>
      </trkpt>
      <trkpt lat="47.68774" lon="6.22298">
        <ele>255</ele>
        <time>2018-10-15T15:13:48Z</time>
      </trkpt>
      <trkpt lat="47.68769" lon="6.22303">
        <ele>255</ele>
        <time>2018-10-15T15:13:50Z</time>
      </trkpt>
      <trkpt lat="47.68767" lon="6.22311">
        <ele>255</ele>
        <time>2018-10-15T15:13:53Z</time>
      </trkpt>
      <trkpt lat="47.68768" lon="6.22319">
        <ele>255</ele>
        <time>2018-10-15T15:13:55Z</time>
      </trkpt>
      <trkpt lat="47.6877" lon="6.22325">
        <ele>255</ele>
        <time>2018-10-15T15:13:57Z</time>
      </trkpt>
      <trkpt lat="47.68774" lon="6.2233">
        <ele>255</ele>
        <time>2018-10-15T15:13:59Z</time>
      </trkpt>
      <trkpt lat="47.6878" lon="6.22336">
        <ele>255</ele>
        <time>2018-10-15T15:14:02Z</time>
      </trkpt>
      <trkpt lat="47.68785" lon="6.22342">
        <ele>255</ele>
        <time>2018-10-15T15:14:04Z</time>
      </trkpt>
      <trkpt lat="47.6879" lon="6.22351">
        <ele>255</ele>
        <time>2018-10-15T15:14:06Z</time>
      </trkpt>
      <trkpt lat="47.68796" lon="6.22361">
        <ele>255</ele>
        <time>2018-10-15T15:14:08Z</time>
      </trkpt>
      <trkpt lat="47.68799" lon="6.22367">
        <ele>255</ele>
        <time>2018-10-15T15:14:09Z</time>
      </trkpt>
      <trkpt lat="47.68802" lon="6.22373">
        <ele>255</ele>
        <time>2018-10-15T15:14:10Z</time>
      </trkpt>
      <trkpt lat="47.6881" lon="6.22385">
        <ele>255</ele>
        <time>2018-10-15T15:14:11Z</time>
      </trkpt>
      <trkpt lat="47.68814" lon="6.22392">
        <ele>254</ele>
        <time>2018-10-15T15:14:12Z</time>
      </trkpt>
      <trkpt lat="47.68819" lon="6.224">
        <ele>254</ele>
        <time>2018-10-15T15:14:13Z</time>
      </trkpt>
      <trkpt lat="47.68824" lon="6.22407">
        <ele>253</ele>
        <time>2018-10-15T15:14:14Z</time>
      </trkpt>
      <trkpt lat="47.6883" lon="6.22415">
        <ele>252</ele>
        <time>2018-10-15T15:14:15Z</time>
      </trkpt>
      <trkpt lat="47.68836" lon="6.22424">
        <ele>251</ele>
        <time>2018-10-15T15:14:16Z</time>
      </trkpt>
      <trkpt lat="47.68842" lon="6.22431">
        <ele>250</ele>
        <time>2018-10-15T15:14:17Z</time>
      </trkpt>
      <trkpt lat="47.68847" lon="6.22441">
        <ele>250</ele>
        <time>2018-10-15T15:14:18Z</time>
      </trkpt>
      <trkpt lat="47.68851" lon="6.22452">
        <ele>250</ele>
        <time>2018-10-15T15:14:19Z</time>
      </trkpt>
      <trkpt lat="47.68854" lon="6.22463">
        <ele>249</ele>
        <time>2018-10-15T15:14:20Z</time>
      </trkpt>
      <trkpt lat="47.68856" lon="6.22474">
        <ele>249</ele>
        <time>2018-10-15T15:14:21Z</time>
      </trkpt>
      <trkpt lat="47.68858" lon="6.22484">
        <ele>249</ele>
        <time>2018-10-15T15:14:22Z</time>
      </trkpt>
      <trkpt lat="47.68859" lon="6.22495">
        <ele>249</ele>
        <time>2018-10-15T15:14:23Z</time>
      </trkpt>
      <trkpt lat="47.6886" lon="6.22506">
        <ele>249</ele>
        <time>2018-10-15T15:14:24Z</time>
      </trkpt>
      <trkpt lat="47.68861" lon="6.22516">
        <ele>249</ele>
        <time>2018-10-15T15:14:25Z</time>
      </trkpt>
      <trkpt lat="47.68862" lon="6.22526">
        <ele>248</ele>
        <time>2018-10-15T15:14:26Z</time>
      </trkpt>
      <trkpt lat="47.68863" lon="6.22536">
        <ele>248</ele>
        <time>2018-10-15T15:14:27Z</time>
      </trkpt>
      <trkpt lat="47.68864" lon="6.22545">
        <ele>248</ele>
        <time>2018-10-15T15:14:28Z</time>
      </trkpt>
      <trkpt lat="47.68864" lon="6.22554">
        <ele>248</ele>
        <time>2018-10-15T15:14:29Z</time>
      </trkpt>
      <trkpt lat="47.68865" lon="6.22563">
        <ele>248</ele>
        <time>2018-10-15T15:14:30Z</time>
      </trkpt>
      <trkpt lat="47.68866" lon="6.22572">
        <ele>248</ele>
        <time>2018-10-15T15:14:31Z</time>
      </trkpt>
      <trkpt lat="47.68866" lon="6.22581">
        <ele>248</ele>
        <time>2018-10-15T15:14:32Z</time>
      </trkpt>
      <trkpt lat="47.68867" lon="6.22589">
        <ele>247</ele>
        <time>2018-10-15T15:14:33Z</time>
      </trkpt>
      <trkpt lat="47.68868" lon="6.22597">
        <ele>247</ele>
        <time>2018-10-15T15:14:34Z</time>
      </trkpt>
      <trkpt lat="47.68869" lon="6.22605">
        <ele>247</ele>
        <time>2018-10-15T15:14:35Z</time>
      </trkpt>
      <trkpt lat="47.68869" lon="6.22612">
        <ele>247</ele>
        <time>2018-10-15T15:14:36Z</time>
      </trkpt>
      <trkpt lat="47.6887" lon="6.22619">
        <ele>247</ele>
        <time>2018-10-15T15:14:37Z</time>
      </trkpt>
      <trkpt lat="47.6887" lon="6.22626">
        <ele>247</ele>
        <time>2018-10-15T15:14:38Z</time>
      </trkpt>
      <trkpt lat="47.68872" lon="6.22632">
        <ele>247</ele>
        <time>2018-10-15T15:14:39Z</time>
      </trkpt>
      <trkpt lat="47.68872" lon="6.2264">
        <ele>247</ele>
        <time>2018-10-15T15:14:40Z</time>
      </trkpt>
      <trkpt lat="47.68873" lon="6.22648">
        <ele>247</ele>
        <time>2018-10-15T15:14:41Z</time>
      </trkpt>
      <trkpt lat="47.68874" lon="6.22656">
        <ele>247</ele>
        <time>2018-10-15T15:14:42Z</time>
      </trkpt>
      <trkpt lat="47.68875" lon="6.22664">
        <ele>246</ele>
        <time>2018-10-15T15:14:43Z</time>
      </trkpt>
      <trkpt lat="47.68875" lon="6.22673">
        <ele>245</ele>
        <time>2018-10-15T15:14:44Z</time>
      </trkpt>
      <trkpt lat="47.68876" lon="6.22681">
        <ele>245</ele>
        <time>2018-10-15T15:14:45Z</time>
      </trkpt>
      <trkpt lat="47.68876" lon="6.22689">
        <ele>245</ele>
        <time>2018-10-15T15:14:46Z</time>
      </trkpt>
      <trkpt lat="47.68877" lon="6.22697">
        <ele>245</ele>
        <time>2018-10-15T15:14:47Z</time>
      </trkpt>
      <trkpt lat="47.68877" lon="6.22705">
        <ele>245</ele>
        <time>2018-10-15T15:14:48Z</time>
      </trkpt>
      <trkpt lat="47.68877" lon="6.22713">
        <ele>245</ele>
        <time>2018-10-15T15:14:49Z</time>
      </trkpt>
      <trkpt lat="47.68878" lon="6.22721">
        <ele>244</ele>
        <time>2018-10-15T15:14:50Z</time>
      </trkpt>
      <trkpt lat="47.68878" lon="6.22729">
        <ele>244</ele>
        <time>2018-10-15T15:14:51Z</time>
      </trkpt>
      <trkpt lat="47.68878" lon="6.22737">
        <ele>244</ele>
        <time>2018-10-15T15:14:52Z</time>
      </trkpt>
      <trkpt lat="47.68879" lon="6.22745">
        <ele>244</ele>
        <time>2018-10-15T15:14:53Z</time>
      </trkpt>
      <trkpt lat="47.68879" lon="6.22752">
        <ele>243</ele>
        <time>2018-10-15T15:14:54Z</time>
      </trkpt>
      <trkpt lat="47.68879" lon="6.2276">
        <ele>243</ele>
        <time>2018-10-15T15:14:55Z</time>
      </trkpt>
      <trkpt lat="47.68879" lon="6.22768">
        <ele>243</ele>
        <time>2018-10-15T15:14:56Z</time>
      </trkpt>
      <trkpt lat="47.68879" lon="6.22777">
        <ele>243</ele>
        <time>2018-10-15T15:14:57Z</time>
      </trkpt>
      <trkpt lat="47.68879" lon="6.22785">
        <ele>243</ele>
        <time>2018-10-15T15:14:58Z</time>
      </trkpt>
      <trkpt lat="47.68878" lon="6.22793">
        <ele>243</ele>
        <time>2018-10-15T15:14:59Z</time>
      </trkpt>
      <trkpt lat="47.68878" lon="6.22801">
        <ele>243</ele>
        <time>2018-10-15T15:15:00Z</time>
      </trkpt>
      <trkpt lat="47.68878" lon="6.22809">
        <ele>242</ele>
        <time>2018-10-15T15:15:01Z</time>
      </trkpt>
      <trkpt lat="47.68877" lon="6.22817">
        <ele>242</ele>
        <time>2018-10-15T15:15:02Z</time>
      </trkpt>
      <trkpt lat="47.68877" lon="6.22826">
        <ele>242</ele>
        <time>2018-10-15T15:15:03Z</time>
      </trkpt>
      <trkpt lat="47.68877" lon="6.22834">
        <ele>242</ele>
        <time>2018-10-15T15:15:04Z</time>
      </trkpt>
      <trkpt lat="47.68877" lon="6.22842">
        <ele>242</ele>
        <time>2018-10-15T15:15:05Z</time>
      </trkpt>
      <trkpt lat="47.68876" lon="6.22849">
        <ele>242</ele>
        <time>2018-10-15T15:15:06Z</time>
      </trkpt>
      <trkpt lat="47.68875" lon="6.22857">
        <ele>242</ele>
        <time>2018-10-15T15:15:07Z</time>
      </trkpt>
      <trkpt lat="47.68874" lon="6.22866">
        <ele>242</ele>
        <time>2018-10-15T15:15:08Z</time>
      </trkpt>
      <trkpt lat="47.68873" lon="6.22874">
        <ele>242</ele>
        <time>2018-10-15T15:15:09Z</time>
      </trkpt>
      <trkpt lat="47.68873" lon="6.22882">
        <ele>242</ele>
        <time>2018-10-15T15:15:10Z</time>
      </trkpt>
      <trkpt lat="47.68873" lon="6.2289">
        <ele>242</ele>
        <time>2018-10-15T15:15:11Z</time>
      </trkpt>
      <trkpt lat="47.68873" lon="6.22898">
        <ele>242</ele>
        <time>2018-10-15T15:15:12Z</time>
      </trkpt>
      <trkpt lat="47.68872" lon="6.22905">
        <ele>242</ele>
        <time>2018-10-15T15:15:13Z</time>
      </trkpt>
      <trkpt lat="47.68872" lon="6.22913">
        <ele>242</ele>
        <time>2018-10-15T15:15:14Z</time>
      </trkpt>
      <trkpt lat="47.68872" lon="6.22921">
        <ele>242</ele>
        <time>2018-10-15T15:15:15Z</time>
      </trkpt>
      <trkpt lat="47.68872" lon="6.22928">
        <ele>242</ele>
        <time>2018-10-15T15:15:16Z</time>
      </trkpt>
      <trkpt lat="47.68872" lon="6.22936">
        <ele>242</ele>
        <time>2018-10-15T15:15:17Z</time>
      </trkpt>
      <trkpt lat="47.68872" lon="6.22943">
        <ele>242</ele>
        <time>2018-10-15T15:15:18Z</time>
      </trkpt>
      <trkpt lat="47.68872" lon="6.2295">
        <ele>242</ele>
        <time>2018-10-15T15:15:19Z</time>
      </trkpt>
      <trkpt lat="47.68873" lon="6.22958">
        <ele>242</ele>
        <time>2018-10-15T15:15:20Z</time>
      </trkpt>
      <trkpt lat="47.68873" lon="6.22965">
        <ele>242</ele>
        <time>2018-10-15T15:15:21Z</time>
      </trkpt>
      <trkpt lat="47.68874" lon="6.22973">
        <ele>241</ele>
        <time>2018-10-15T15:15:22Z</time>
      </trkpt>
      <trkpt lat="47.68875" lon="6.22981">
        <ele>241</ele>
        <time>2018-10-15T15:15:23Z</time>
      </trkpt>
      <trkpt lat="47.68875" lon="6.22988">
        <ele>241</ele>
        <time>2018-10-15T15:15:24Z</time>
      </trkpt>
      <trkpt lat="47.68876" lon="6.22996">
        <ele>241</ele>
        <time>2018-10-15T15:15:25Z</time>
      </trkpt>
      <trkpt lat="47.68877" lon="6.23004">
        <ele>240</ele>
        <time>2018-10-15T15:15:26Z</time>
      </trkpt>
      <trkpt lat="47.68878" lon="6.23012">
        <ele>240</ele>
        <time>2018-10-15T15:15:27Z</time>
      </trkpt>
      <trkpt lat="47.68879" lon="6.2302">
        <ele>240</ele>
        <time>2018-10-15T15:15:28Z</time>
      </trkpt>
      <trkpt lat="47.6888" lon="6.23027">
        <ele>240</ele>
        <time>2018-10-15T15:15:29Z</time>
      </trkpt>
      <trkpt lat="47.68882" lon="6.23035">
        <ele>240</ele>
        <time>2018-10-15T15:15:30Z</time>
      </trkpt>
      <trkpt lat="47.68882" lon="6.23043">
        <ele>240</ele>
        <time>2018-10-15T15:15:31Z</time>
      </trkpt>
      <trkpt lat="47.68883" lon="6.23051">
        <ele>240</ele>
        <time>2018-10-15T15:15:32Z</time>
      </trkpt>
      <trkpt lat="47.68884" lon="6.23058">
        <ele>240</ele>
        <time>2018-10-15T15:15:33Z</time>
      </trkpt>
      <trkpt lat="47.68885" lon="6.23066">
        <ele>240</ele>
        <time>2018-10-15T15:15:34Z</time>
      </trkpt>
      <trkpt lat="47.68886" lon="6.23074">
        <ele>239</ele>
        <time>2018-10-15T15:15:35Z</time>
      </trkpt>
      <trkpt lat="47.68887" lon="6.23081">
        <ele>239</ele>
        <time>2018-10-15T15:15:36Z</time>
      </trkpt>
      <trkpt lat="47.68888" lon="6.23089">
        <ele>239</ele>
        <time>2018-10-15T15:15:37Z</time>
      </trkpt>
      <trkpt lat="47.68888" lon="6.23096">
        <ele>239</ele>
        <time>2018-10-15T15:15:38Z</time>
      </trkpt>
      <trkpt lat="47.68889" lon="6.23103">
        <ele>239</ele>
        <time>2018-10-15T15:15:39Z</time>
      </trkpt>
      <trkpt lat="47.6889" lon="6.2311">
        <ele>239</ele>
        <time>2018-10-15T15:15:40Z</time>
      </trkpt>
      <trkpt lat="47.6889" lon="6.23117">
        <ele>239</ele>
        <time>2018-10-15T15:15:41Z</time>
      </trkpt>
      <trkpt lat="47.68891" lon="6.23124">
        <ele>239</ele>
        <time>2018-10-15T15:15:42Z</time>
      </trkpt>
      <trkpt lat="47.68892" lon="6.23131">
        <ele>239</ele>
        <time>2018-10-15T15:15:43Z</time>
      </trkpt>
      <trkpt lat="47.68893" lon="6.23138">
        <ele>239</ele>
        <time>2018-10-15T15:15:44Z</time>
      </trkpt>
      <trkpt lat="47.68894" lon="6.23145">
        <ele>239</ele>
        <time>2018-10-15T15:15:45Z</time>
      </trkpt>
      <trkpt lat="47.68896" lon="6.23153">
        <ele>239</ele>
        <time>2018-10-15T15:15:46Z</time>
      </trkpt>
      <trkpt lat="47.68897" lon="6.2316">
        <ele>239</ele>
        <time>2018-10-15T15:15:47Z</time>
      </trkpt>
      <trkpt lat="47.68898" lon="6.23167">
        <ele>239</ele>
        <time>2018-10-15T15:15:48Z</time>
      </trkpt>
      <trkpt lat="47.68899" lon="6.23174">
        <ele>239</ele>
        <time>2018-10-15T15:15:49Z</time>
      </trkpt>
      <trkpt lat="47.68901" lon="6.2318">
        <ele>239</ele>
        <time>2018-10-15T15:15:50Z</time>
      </trkpt>
      <trkpt lat="47.68902" lon="6.23187">
        <ele>239</ele>
        <time>2018-10-15T15:15:51Z</time>
      </trkpt>
      <trkpt lat="47.68904" lon="6.23194">
        <ele>239</ele>
        <time>2018-10-15T15:15:52Z</time>
      </trkpt>
      <trkpt lat="47.68905" lon="6.23201">
        <ele>239</ele>
        <time>2018-10-15T15:15:53Z</time>
      </trkpt>
      <trkpt lat="47.68906" lon="6.23208">
        <ele>239</ele>
        <time>2018-10-15T15:15:54Z</time>
      </trkpt>
      <trkpt lat="47.68908" lon="6.23215">
        <ele>239</ele>
        <time>2018-10-15T15:15:55Z</time>
      </trkpt>
      <trkpt lat="47.6891" lon="6.23222">
        <ele>239</ele>
        <time>2018-10-15T15:15:56Z</time>
      </trkpt>
      <trkpt lat="47.68912" lon="6.23228">
        <ele>239</ele>
        <time>2018-10-15T15:15:57Z</time>
      </trkpt>
      <trkpt lat="47.68913" lon="6.23235">
        <ele>239</ele>
        <time>2018-10-15T15:15:58Z</time>
      </trkpt>
      <trkpt lat="47.68915" lon="6.23241">
        <ele>239</ele>
        <time>2018-10-15T15:15:59Z</time>
      </trkpt>
      <trkpt lat="47.68916" lon="6.23248">
        <ele>239</ele>
        <time>2018-10-15T15:16:00Z</time>
      </trkpt>
      <trkpt lat="47.68918" lon="6.23255">
        <ele>239</ele>
        <time>2018-10-15T15:16:01Z</time>
      </trkpt>
      <trkpt lat="47.68919" lon="6.23261">
        <ele>238</ele>
        <time>2018-10-15T15:16:02Z</time>
      </trkpt>
      <trkpt lat="47.68921" lon="6.23268">
        <ele>238</ele>
        <time>2018-10-15T15:16:03Z</time>
      </trkpt>
      <trkpt lat="47.68922" lon="6.23274">
        <ele>238</ele>
        <time>2018-10-15T15:16:04Z</time>
      </trkpt>
      <trkpt lat="47.68924" lon="6.23281">
        <ele>238</ele>
        <time>2018-10-15T15:16:05Z</time>
      </trkpt>
      <trkpt lat="47.68925" lon="6.23288">
        <ele>238</ele>
        <time>2018-10-15T15:16:06Z</time>
      </trkpt>
      <trkpt lat="47.68927" lon="6.23294">
        <ele>238</ele>
        <time>2018-10-15T15:16:07Z</time>
      </trkpt>
      <trkpt lat="47.68928" lon="6.23301">
        <ele>238</ele>
        <time>2018-10-15T15:16:08Z</time>
      </trkpt>
      <trkpt lat="47.68931" lon="6.23313">
        <ele>238</ele>
        <time>2018-10-15T15:16:10Z</time>
      </trkpt>
      <trkpt lat="47.68932" lon="6.2332">
        <ele>238</ele>
        <time>2018-10-15T15:16:11Z</time>
      </trkpt>
      <trkpt lat="47.68933" lon="6.23327">
        <ele>238</ele>
        <time>2018-10-15T15:16:12Z</time>
      </trkpt>
      <trkpt lat="47.68935" lon="6.23333">
        <ele>237</ele>
        <time>2018-10-15T15:16:13Z</time>
      </trkpt>
      <trkpt lat="47.68936" lon="6.2334">
        <ele>237</ele>
        <time>2018-10-15T15:16:14Z</time>
      </trkpt>
      <trkpt lat="47.68938" lon="6.23347">
        <ele>237</ele>
        <time>2018-10-15T15:16:15Z</time>
      </trkpt>
      <trkpt lat="47.68939" lon="6.23354">
        <ele>237</ele>
        <time>2018-10-15T15:16:16Z</time>
      </trkpt>
      <trkpt lat="47.68941" lon="6.2336">
        <ele>237</ele>
        <time>2018-10-15T15:16:17Z</time>
      </trkpt>
      <trkpt lat="47.68943" lon="6.23373">
        <ele>237</ele>
        <time>2018-10-15T15:16:19Z</time>
      </trkpt>
      <trkpt lat="47.68945" lon="6.23386">
        <ele>237</ele>
        <time>2018-10-15T15:16:21Z</time>
      </trkpt>
      <trkpt lat="47.68946" lon="6.23393">
        <ele>237</ele>
        <time>2018-10-15T15:16:22Z</time>
      </trkpt>
      <trkpt lat="47.68947" lon="6.23401">
        <ele>237</ele>
        <time>2018-10-15T15:16:23Z</time>
      </trkpt>
      <trkpt lat="47.68948" lon="6.23408">
        <ele>237</ele>
        <time>2018-10-15T15:16:24Z</time>
      </trkpt>
      <trkpt lat="47.68949" lon="6.23414">
        <ele>237</ele>
        <time>2018-10-15T15:16:25Z</time>
      </trkpt>
      <trkpt lat="47.68949" lon="6.23421">
        <ele>237</ele>
        <time>2018-10-15T15:16:26Z</time>
      </trkpt>
      <trkpt lat="47.6895" lon="6.23434">
        <ele>237</ele>
        <time>2018-10-15T15:16:28Z</time>
      </trkpt>
      <trkpt lat="47.68951" lon="6.23447">
        <ele>236</ele>
        <time>2018-10-15T15:16:30Z</time>
      </trkpt>
      <trkpt lat="47.6895" lon="6.23454">
        <ele>236</ele>
        <time>2018-10-15T15:16:31Z</time>
      </trkpt>
      <trkpt lat="47.6895" lon="6.23461">
        <ele>236</ele>
        <time>2018-10-15T15:16:32Z</time>
      </trkpt>
      <trkpt lat="47.68949" lon="6.23468">
        <ele>236</ele>
        <time>2018-10-15T15:16:33Z</time>
      </trkpt>
      <trkpt lat="47.68948" lon="6.23475">
        <ele>236</ele>
        <time>2018-10-15T15:16:34Z</time>
      </trkpt>
      <trkpt lat="47.68946" lon="6.23481">
        <ele>237</ele>
        <time>2018-10-15T15:16:35Z</time>
      </trkpt>
      <trkpt lat="47.68945" lon="6.23489">
        <ele>237</ele>
        <time>2018-10-15T15:16:36Z</time>
      </trkpt>
      <trkpt lat="47.68943" lon="6.23496">
        <ele>237</ele>
        <time>2018-10-15T15:16:37Z</time>
      </trkpt>
      <trkpt lat="47.68941" lon="6.23502">
        <ele>236</ele>
        <time>2018-10-15T15:16:38Z</time>
      </trkpt>
      <trkpt lat="47.68938" lon="6.23509">
        <ele>236</ele>
        <time>2018-10-15T15:16:39Z</time>
      </trkpt>
      <trkpt lat="47.68935" lon="6.23516">
        <ele>236</ele>
        <time>2018-10-15T15:16:40Z</time>
      </trkpt>
      <trkpt lat="47.68932" lon="6.23523">
        <ele>236</ele>
        <time>2018-10-15T15:16:41Z</time>
      </trkpt>
      <trkpt lat="47.68929" lon="6.23528">
        <ele>236</ele>
        <time>2018-10-15T15:16:42Z</time>
      </trkpt>
      <trkpt lat="47.68926" lon="6.23534">
        <ele>235</ele>
        <time>2018-10-15T15:16:43Z</time>
      </trkpt>
      <trkpt lat="47.68921" lon="6.2354">
        <ele>235</ele>
        <time>2018-10-15T15:16:44Z</time>
      </trkpt>
      <trkpt lat="47.68917" lon="6.23546">
        <ele>235</ele>
        <time>2018-10-15T15:16:45Z</time>
      </trkpt>
      <trkpt lat="47.68911" lon="6.23556">
        <ele>236</ele>
        <time>2018-10-15T15:16:47Z</time>
      </trkpt>
      <trkpt lat="47.68908" lon="6.23561">
        <ele>236</ele>
        <time>2018-10-15T15:16:48Z</time>
      </trkpt>
      <trkpt lat="47.68905" lon="6.23567">
        <ele>236</ele>
        <time>2018-10-15T15:16:49Z</time>
      </trkpt>
      <trkpt lat="47.68902" lon="6.23572">
        <ele>236</ele>
        <time>2018-10-15T15:16:50Z</time>
      </trkpt>
      <trkpt lat="47.68899" lon="6.23578">
        <ele>236</ele>
        <time>2018-10-15T15:16:51Z</time>
      </trkpt>
      <trkpt lat="47.68895" lon="6.23585">
        <ele>234</ele>
        <time>2018-10-15T15:16:52Z</time>
      </trkpt>
      <trkpt lat="47.68892" lon="6.23591">
        <ele>234</ele>
        <time>2018-10-15T15:16:53Z</time>
      </trkpt>
      <trkpt lat="47.68889" lon="6.23598">
        <ele>234</ele>
        <time>2018-10-15T15:16:54Z</time>
      </trkpt>
      <trkpt lat="47.68886" lon="6.23605">
        <ele>234</ele>
        <time>2018-10-15T15:16:55Z</time>
      </trkpt>
      <trkpt lat="47.68883" lon="6.23611">
        <ele>234</ele>
        <time>2018-10-15T15:16:56Z</time>
      </trkpt>
      <trkpt lat="47.68879" lon="6.23617">
        <ele>234</ele>
        <time>2018-10-15T15:16:57Z</time>
      </trkpt>
      <trkpt lat="47.68876" lon="6.23623">
        <ele>234</ele>
        <time>2018-10-15T15:16:58Z</time>
      </trkpt>
      <trkpt lat="47.68872" lon="6.2363">
        <ele>234</ele>
        <time>2018-10-15T15:16:59Z</time>
      </trkpt>
      <trkpt lat="47.68869" lon="6.23637">
        <ele>234</ele>
        <time>2018-10-15T15:17:00Z</time>
      </trkpt>
      <trkpt lat="47.68867" lon="6.23645">
        <ele>233</ele>
        <time>2018-10-15T15:17:01Z</time>
      </trkpt>
      <trkpt lat="47.68865" lon="6.23653">
        <ele>233</ele>
        <time>2018-10-15T15:17:02Z</time>
      </trkpt>
      <trkpt lat="47.68863" lon="6.23661">
        <ele>233</ele>
        <time>2018-10-15T15:17:03Z</time>
      </trkpt>
      <trkpt lat="47.6886" lon="6.23669">
        <ele>232</ele>
        <time>2018-10-15T15:17:04Z</time>
      </trkpt>
      <trkpt lat="47.68858" lon="6.23676">
        <ele>232</ele>
        <time>2018-10-15T15:17:05Z</time>
      </trkpt>
      <trkpt lat="47.68856" lon="6.23684">
        <ele>232</ele>
        <time>2018-10-15T15:17:06Z</time>
      </trkpt>
      <trkpt lat="47.68854" lon="6.23691">
        <ele>232</ele>
        <time>2018-10-15T15:17:07Z</time>
      </trkpt>
      <trkpt lat="47.68851" lon="6.23699">
        <ele>232</ele>
        <time>2018-10-15T15:17:08Z</time>
      </trkpt>
      <trkpt lat="47.68849" lon="6.23708">
        <ele>231</ele>
        <time>2018-10-15T15:17:09Z</time>
      </trkpt>
      <trkpt lat="47.68847" lon="6.23717">
        <ele>231</ele>
        <time>2018-10-15T15:17:10Z</time>
      </trkpt>
      <trkpt lat="47.68845" lon="6.23726">
        <ele>231</ele>
        <time>2018-10-15T15:17:11Z</time>
      </trkpt>
      <trkpt lat="47.68843" lon="6.23735">
        <ele>231</ele>
        <time>2018-10-15T15:17:12Z</time>
      </trkpt>
      <trkpt lat="47.6884" lon="6.23741">
        <ele>231</ele>
        <time>2018-10-15T15:17:13Z</time>
      </trkpt>
      <trkpt lat="47.68836" lon="6.23747">
        <ele>231</ele>
        <time>2018-10-15T15:17:14Z</time>
      </trkpt>
      <trkpt lat="47.68829" lon="6.23748">
        <ele>231</ele>
        <time>2018-10-15T15:17:15Z</time>
      </trkpt>
      <trkpt lat="47.68824" lon="6.23748">
        <ele>231</ele>
        <time>2018-10-15T15:17:16Z</time>
      </trkpt>
      <trkpt lat="47.68818" lon="6.23743">
        <ele>231</ele>
        <time>2018-10-15T15:17:17Z</time>
      </trkpt>
      <trkpt lat="47.68813" lon="6.23737">
        <ele>231</ele>
        <time>2018-10-15T15:17:18Z</time>
      </trkpt>
      <trkpt lat="47.68809" lon="6.23731">
        <ele>231</ele>
        <time>2018-10-15T15:17:19Z</time>
      </trkpt>
      <trkpt lat="47.68805" lon="6.23726">
        <ele>231</ele>
        <time>2018-10-15T15:17:20Z</time>
      </trkpt>
      <trkpt lat="47.68799" lon="6.23718">
        <ele>231</ele>
        <time>2018-10-15T15:17:22Z</time>
      </trkpt>
      <trkpt lat="47.68796" lon="6.23714">
        <ele>231</ele>
        <time>2018-10-15T15:17:23Z</time>
      </trkpt>
      <trkpt lat="47.68788" lon="6.23706">
        <ele>231</ele>
        <time>2018-10-15T15:17:25Z</time>
      </trkpt>
      <trkpt lat="47.68784" lon="6.23701">
        <ele>231</ele>
        <time>2018-10-15T15:17:26Z</time>
      </trkpt>
      <trkpt lat="47.68777" lon="6.23693">
        <ele>231</ele>
        <time>2018-10-15T15:17:28Z</time>
      </trkpt>
      <trkpt lat="47.68771" lon="6.23685">
        <ele>231</ele>
        <time>2018-10-15T15:17:30Z</time>
      </trkpt>
      <trkpt lat="47.68764" lon="6.23678">
        <ele>231</ele>
        <time>2018-10-15T15:17:32Z</time>
      </trkpt>
      <trkpt lat="47.68759" lon="6.23674">
        <ele>231</ele>
        <time>2018-10-15T15:17:34Z</time>
      </trkpt>
      <trkpt lat="47.68753" lon="6.23669">
        <ele>231</ele>
        <time>2018-10-15T15:17:36Z</time>
      </trkpt>
      <trkpt lat="47.68747" lon="6.23666">
        <ele>231</ele>
        <time>2018-10-15T15:17:38Z</time>
      </trkpt>
      <trkpt lat="47.6874" lon="6.23663">
        <ele>231</ele>
        <time>2018-10-15T15:17:40Z</time>
      </trkpt>
      <trkpt lat="47.68734" lon="6.23662">
        <ele>231</ele>
        <time>2018-10-15T15:17:42Z</time>
      </trkpt>
      <trkpt lat="47.68725" lon="6.2366">
        <ele>231</ele>
        <time>2018-10-15T15:17:44Z</time>
      </trkpt>
      <trkpt lat="47.68717" lon="6.23659">
        <ele>231</ele>
        <time>2018-10-15T15:17:46Z</time>
      </trkpt>
      <trkpt lat="47.68709" lon="6.23657">
        <ele>231</ele>
        <time>2018-10-15T15:17:48Z</time>
      </trkpt>
      <trkpt lat="47.68701" lon="6.23655">
        <ele>231</ele>
        <time>2018-10-15T15:17:50Z</time>
      </trkpt>
      <trkpt lat="47.68693" lon="6.23653">
        <ele>230</ele>
        <time>2018-10-15T15:17:52Z</time>
      </trkpt>
      <trkpt lat="47.68688" lon="6.23652">
        <ele>230</ele>
        <time>2018-10-15T15:17:53Z</time>
      </trkpt>
      <trkpt lat="47.6868" lon="6.2365">
        <ele>230</ele>
        <time>2018-10-15T15:17:55Z</time>
      </trkpt>
      <trkpt lat="47.68672" lon="6.23647">
        <ele>230</ele>
        <time>2018-10-15T15:17:57Z</time>
      </trkpt>
      <trkpt lat="47.68664" lon="6.23644">
        <ele>230</ele>
        <time>2018-10-15T15:17:59Z</time>
      </trkpt>
      <trkpt lat="47.68655" lon="6.23639">
        <ele>230</ele>
        <time>2018-10-15T15:18:01Z</time>
      </trkpt>
      <trkpt lat="47.6865" lon="6.23638">
        <ele>230</ele>
        <time>2018-10-15T15:18:02Z</time>
      </trkpt>
      <trkpt lat="47.68646" lon="6.23635">
        <ele>230</ele>
        <time>2018-10-15T15:18:03Z</time>
      </trkpt>
      <trkpt lat="47.68639" lon="6.2363">
        <ele>230</ele>
        <time>2018-10-15T15:18:05Z</time>
      </trkpt>
      <trkpt lat="47.68632" lon="6.23625">
        <ele>230</ele>
        <time>2018-10-15T15:18:07Z</time>
      </trkpt>
      <trkpt lat="47.68624" lon="6.2362">
        <ele>230</ele>
        <time>2018-10-15T15:18:09Z</time>
      </trkpt>
      <trkpt lat="47.68617" lon="6.23615">
        <ele>230</ele>
        <time>2018-10-15T15:18:11Z</time>
      </trkpt>
      <trkpt lat="47.6861" lon="6.23609">
        <ele>230</ele>
        <time>2018-10-15T15:18:13Z</time>
      </trkpt>
      <trkpt lat="47.68604" lon="6.23603">
        <ele>230</ele>
        <time>2018-10-15T15:18:15Z</time>
      </trkpt>
      <trkpt lat="47.68598" lon="6.23597">
        <ele>230</ele>
        <time>2018-10-15T15:18:17Z</time>
      </trkpt>
      <trkpt lat="47.68592" lon="6.23591">
        <ele>230</ele>
        <time>2018-10-15T15:18:19Z</time>
      </trkpt>
      <trkpt lat="47.68585" lon="6.23583">
        <ele>230</ele>
        <time>2018-10-15T15:18:21Z</time>
      </trkpt>
      <trkpt lat="47.68579" lon="6.23577">
        <ele>230</ele>
        <time>2018-10-15T15:18:23Z</time>
      </trkpt>
      <trkpt lat="47.68573" lon="6.23571">
        <ele>230</ele>
        <time>2018-10-15T15:18:25Z</time>
      </trkpt>
      <trkpt lat="47.68567" lon="6.23564">
        <ele>230</ele>
        <time>2018-10-15T15:18:27Z</time>
      </trkpt>
      <trkpt lat="47.68561" lon="6.23558">
        <ele>230</ele>
        <time>2018-10-15T15:18:29Z</time>
      </trkpt>
      <trkpt lat="47.68554" lon="6.23551">
        <ele>230</ele>
        <time>2018-10-15T15:18:31Z</time>
      </trkpt>
      <trkpt lat="47.68547" lon="6.23544">
        <ele>230</ele>
        <time>2018-10-15T15:18:33Z</time>
      </trkpt>
      <trkpt lat="47.68541" lon="6.23537">
        <ele>230</ele>
        <time>2018-10-15T15:18:35Z</time>
      </trkpt>
      <trkpt lat="47.68533" lon="6.23529">
        <ele>230</ele>
        <time>2018-10-15T15:18:37Z</time>
      </trkpt>
      <trkpt lat="47.68525" lon="6.23521">
        <ele>230</ele>
        <time>2018-10-15T15:18:39Z</time>
      </trkpt>
      <trkpt lat="47.68521" lon="6.23517">
        <ele>230</ele>
        <time>2018-10-15T15:18:40Z</time>
      </trkpt>
      <trkpt lat="47.68517" lon="6.23513">
        <ele>230</ele>
        <time>2018-10-15T15:18:41Z</time>
      </trkpt>
      <trkpt lat="47.68512" lon="6.23509">
        <ele>230</ele>
        <time>2018-10-15T15:18:42Z</time>
      </trkpt>
      <trkpt lat="47.68508" lon="6.23505">
        <ele>230</ele>
        <time>2018-10-15T15:18:43Z</time>
      </trkpt>
      <trkpt lat="47.68504" lon="6.23502">
        <ele>230</ele>
        <time>2018-10-15T15:18:44Z</time>
      </trkpt>
      <trkpt lat="47.685" lon="6.23498">
        <ele>230</ele>
        <time>2018-10-15T15:18:45Z</time>
      </trkpt>
      <trkpt lat="47.68496" lon="6.23495">
        <ele>230</ele>
        <time>2018-10-15T15:18:46Z</time>
      </trkpt>
      <trkpt lat="47.68491" lon="6.23493">
        <ele>230</ele>
        <time>2018-10-15T15:18:47Z</time>
      </trkpt>
      <trkpt lat="47.68482" lon="6.2349">
        <ele>230</ele>
        <time>2018-10-15T15:18:49Z</time>
      </trkpt>
      <trkpt lat="47.68473" lon="6.23488">
        <ele>230</ele>
        <time>2018-10-15T15:18:51Z</time>
      </trkpt>
      <trkpt lat="47.68468" lon="6.23487">
        <ele>230</ele>
        <time>2018-10-15T15:18:52Z</time>
      </trkpt>
      <trkpt lat="47.6846" lon="6.23487">
        <ele>230</ele>
        <time>2018-10-15T15:18:54Z</time>
      </trkpt>
      <trkpt lat="47.68455" lon="6.23487">
        <ele>230</ele>
        <time>2018-10-15T15:18:55Z</time>
      </trkpt>
      <trkpt lat="47.6845" lon="6.23488">
        <ele>230</ele>
        <time>2018-10-15T15:18:56Z</time>
      </trkpt>
      <trkpt lat="47.68442" lon="6.2349">
        <ele>230</ele>
        <time>2018-10-15T15:18:58Z</time>
      </trkpt>
      <trkpt lat="47.68434" lon="6.23491">
        <ele>230</ele>
        <time>2018-10-15T15:19:00Z</time>
      </trkpt>
      <trkpt lat="47.68428" lon="6.23491">
        <ele>230</ele>
        <time>2018-10-15T15:19:02Z</time>
      </trkpt>
      <trkpt lat="47.68421" lon="6.23491">
        <ele>230</ele>
        <time>2018-10-15T15:19:04Z</time>
      </trkpt>
      <trkpt lat="47.68414" lon="6.2349">
        <ele>230</ele>
        <time>2018-10-15T15:19:06Z</time>
      </trkpt>
      <trkpt lat="47.68407" lon="6.23489">
        <ele>230</ele>
        <time>2018-10-15T15:19:08Z</time>
      </trkpt>
      <trkpt lat="47.684" lon="6.23488">
        <ele>230</ele>
        <time>2018-10-15T15:19:10Z</time>
      </trkpt>
      <trkpt lat="47.68395" lon="6.23487">
        <ele>230</ele>
        <time>2018-10-15T15:19:11Z</time>
      </trkpt>
      <trkpt lat="47.68388" lon="6.23486">
        <ele>230</ele>
        <time>2018-10-15T15:19:13Z</time>
      </trkpt>
      <trkpt lat="47.6838" lon="6.23485">
        <ele>230</ele>
        <time>2018-10-15T15:19:15Z</time>
      </trkpt>
      <trkpt lat="47.68373" lon="6.23485">
        <ele>230</ele>
        <time>2018-10-15T15:19:17Z</time>
      </trkpt>
      <trkpt lat="47.68369" lon="6.23485">
        <ele>230</ele>
        <time>2018-10-15T15:19:18Z</time>
      </trkpt>
      <trkpt lat="47.6836" lon="6.23484">
        <ele>230</ele>
        <time>2018-10-15T15:19:20Z</time>
      </trkpt>
      <trkpt lat="47.68355" lon="6.23484">
        <ele>230</ele>
        <time>2018-10-15T15:19:22Z</time>
      </trkpt>
      <trkpt lat="47.68346" lon="6.23485">
        <ele>230</ele>
        <time>2018-10-15T15:19:24Z</time>
      </trkpt>
      <trkpt lat="47.6834" lon="6.23485">
        <ele>230</ele>
        <time>2018-10-15T15:19:26Z</time>
      </trkpt>
      <trkpt lat="47.68333" lon="6.23486">
        <ele>232</ele>
        <time>2018-10-15T15:19:28Z</time>
      </trkpt>
      <trkpt lat="47.68327" lon="6.23487">
        <ele>232</ele>
        <time>2018-10-15T15:19:30Z</time>
      </trkpt>
      <trkpt lat="47.68319" lon="6.23489">
        <ele>232</ele>
        <time>2018-10-15T15:19:32Z</time>
      </trkpt>
      <trkpt lat="47.68313" lon="6.2349">
        <ele>233</ele>
        <time>2018-10-15T15:19:34Z</time>
      </trkpt>
      <trkpt lat="47.68308" lon="6.23491">
        <ele>233</ele>
        <time>2018-10-15T15:19:36Z</time>
      </trkpt>
      <trkpt lat="47.68303" lon="6.23492">
        <ele>233</ele>
        <time>2018-10-15T15:19:38Z</time>
      </trkpt>
      <trkpt lat="47.68297" lon="6.23493">
        <ele>234</ele>
        <time>2018-10-15T15:19:40Z</time>
      </trkpt>
      <trkpt lat="47.6829" lon="6.23495">
        <ele>234</ele>
        <time>2018-10-15T15:19:42Z</time>
      </trkpt>
      <trkpt lat="47.68283" lon="6.23496">
        <ele>234</ele>
        <time>2018-10-15T15:19:44Z</time>
      </trkpt>
      <trkpt lat="47.68277" lon="6.23498">
        <ele>235</ele>
        <time>2018-10-15T15:19:46Z</time>
      </trkpt>
      <trkpt lat="47.68269" lon="6.235">
        <ele>235</ele>
        <time>2018-10-15T15:19:48Z</time>
      </trkpt>
      <trkpt lat="47.68262" lon="6.235">
        <ele>233</ele>
        <time>2018-10-15T15:19:50Z</time>
      </trkpt>
      <trkpt lat="47.68256" lon="6.23501">
        <ele>234</ele>
        <time>2018-10-15T15:19:52Z</time>
      </trkpt>
      <trkpt lat="47.6825" lon="6.23501">
        <ele>235</ele>
        <time>2018-10-15T15:19:54Z</time>
      </trkpt>
      <trkpt lat="47.68244" lon="6.235">
        <ele>234</ele>
        <time>2018-10-15T15:19:56Z</time>
      </trkpt>
      <trkpt lat="47.68239" lon="6.23499">
        <ele>236</ele>
        <time>2018-10-15T15:19:58Z</time>
      </trkpt>
      <trkpt lat="47.68234" lon="6.23498">
        <ele>237</ele>
        <time>2018-10-15T15:20:00Z</time>
      </trkpt>
      <trkpt lat="47.68228" lon="6.23497">
        <ele>237</ele>
        <time>2018-10-15T15:20:02Z</time>
      </trkpt>
      <trkpt lat="47.68222" lon="6.23495">
        <ele>237</ele>
        <time>2018-10-15T15:20:04Z</time>
      </trkpt>
      <trkpt lat="47.68217" lon="6.23494">
        <ele>237</ele>
        <time>2018-10-15T15:20:06Z</time>
      </trkpt>
      <trkpt lat="47.68212" lon="6.23492">
        <ele>238</ele>
        <time>2018-10-15T15:20:08Z</time>
      </trkpt>
      <trkpt lat="47.68207" lon="6.2349">
        <ele>238</ele>
        <time>2018-10-15T15:20:10Z</time>
      </trkpt>
      <trkpt lat="47.68201" lon="6.23488">
        <ele>238</ele>
        <time>2018-10-15T15:20:12Z</time>
      </trkpt>
      <trkpt lat="47.68197" lon="6.23486">
        <ele>238</ele>
        <time>2018-10-15T15:20:14Z</time>
      </trkpt>
      <trkpt lat="47.68191" lon="6.23483">
        <ele>238</ele>
        <time>2018-10-15T15:20:16Z</time>
      </trkpt>
      <trkpt lat="47.68186" lon="6.23481">
        <ele>238</ele>
        <time>2018-10-15T15:20:18Z</time>
      </trkpt>
      <trkpt lat="47.68181" lon="6.23479">
        <ele>238</ele>
        <time>2018-10-15T15:20:20Z</time>
      </trkpt>
      <trkpt lat="47.68174" lon="6.23477">
        <ele>238</ele>
        <time>2018-10-15T15:20:22Z</time>
      </trkpt>
      <trkpt lat="47.68169" lon="6.23475">
        <ele>238</ele>
        <time>2018-10-15T15:20:24Z</time>
      </trkpt>
      <trkpt lat="47.68164" lon="6.23474">
        <ele>237</ele>
        <time>2018-10-15T15:20:26Z</time>
      </trkpt>
      <trkpt lat="47.68159" lon="6.23473">
        <ele>237</ele>
        <time>2018-10-15T15:20:28Z</time>
      </trkpt>
      <trkpt lat="47.68154" lon="6.23471">
        <ele>237</ele>
        <time>2018-10-15T15:20:30Z</time>
      </trkpt>
      <trkpt lat="47.68148" lon="6.2347">
        <ele>237</ele>
        <time>2018-10-15T15:20:32Z</time>
      </trkpt>
      <trkpt lat="47.68143" lon="6.23469">
        <ele>237</ele>
        <time>2018-10-15T15:20:34Z</time>
      </trkpt>
      <trkpt lat="47.68137" lon="6.23468">
        <ele>237</ele>
        <time>2018-10-15T15:20:36Z</time>
      </trkpt>
      <trkpt lat="47.68132" lon="6.23466">
        <ele>237</ele>
        <time>2018-10-15T15:20:38Z</time>
      </trkpt>
      <trkpt lat="47.68128" lon="6.23465">
        <ele>237</ele>
        <time>2018-10-15T15:20:40Z</time>
      </trkpt>
      <trkpt lat="47.68122" lon="6.23464">
        <ele>236</ele>
        <time>2018-10-15T15:20:42Z</time>
      </trkpt>
      <trkpt lat="47.68117" lon="6.23462">
        <ele>236</ele>
        <time>2018-10-15T15:20:44Z</time>
      </trkpt>
      <trkpt lat="47.68112" lon="6.23457">
        <ele>236</ele>
        <time>2018-10-15T15:20:46Z</time>
      </trkpt>
      <trkpt lat="47.68107" lon="6.23452">
        <ele>237</ele>
        <time>2018-10-15T15:20:48Z</time>
      </trkpt>
      <trkpt lat="47.68102" lon="6.23447">
        <ele>237</ele>
        <time>2018-10-15T15:20:50Z</time>
      </trkpt>
      <trkpt lat="47.68098" lon="6.23442">
        <ele>237</ele>
        <time>2018-10-15T15:20:52Z</time>
      </trkpt>
      <trkpt lat="47.68094" lon="6.23438">
        <ele>237</ele>
        <time>2018-10-15T15:20:54Z</time>
      </trkpt>
      <trkpt lat="47.6809" lon="6.23432">
        <ele>237</ele>
        <time>2018-10-15T15:20:56Z</time>
      </trkpt>
      <trkpt lat="47.68087" lon="6.23426">
        <ele>238</ele>
        <time>2018-10-15T15:20:58Z</time>
      </trkpt>
      <trkpt lat="47.68084" lon="6.23421">
        <ele>238</ele>
        <time>2018-10-15T15:21:00Z</time>
      </trkpt>
      <trkpt lat="47.68081" lon="6.23414">
        <ele>238</ele>
        <time>2018-10-15T15:21:02Z</time>
      </trkpt>
      <trkpt lat="47.68078" lon="6.23407">
        <ele>238</ele>
        <time>2018-10-15T15:21:04Z</time>
      </trkpt>
      <trkpt lat="47.68075" lon="6.23399">
        <ele>238</ele>
        <time>2018-10-15T15:21:06Z</time>
      </trkpt>
      <trkpt lat="47.68072" lon="6.23392">
        <ele>238</ele>
        <time>2018-10-15T15:21:08Z</time>
      </trkpt>
      <trkpt lat="47.6807" lon="6.23386">
        <ele>238</ele>
        <time>2018-10-15T15:21:10Z</time>
      </trkpt>
      <trkpt lat="47.68068" lon="6.23379">
        <ele>239</ele>
        <time>2018-10-15T15:21:12Z</time>
      </trkpt>
      <trkpt lat="47.68065" lon="6.23373">
        <ele>239</ele>
        <time>2018-10-15T15:21:14Z</time>
      </trkpt>
      <trkpt lat="47.68062" lon="6.23366">
        <ele>239</ele>
        <time>2018-10-15T15:21:16Z</time>
      </trkpt>
      <trkpt lat="47.68059" lon="6.23359">
        <ele>240</ele>
        <time>2018-10-15T15:21:18Z</time>
      </trkpt>
      <trkpt lat="47.68055" lon="6.23351">
        <ele>240</ele>
        <time>2018-10-15T15:21:21Z</time>
      </trkpt>
      <trkpt lat="47.68053" lon="6.23344">
        <ele>240</ele>
        <time>2018-10-15T15:21:23Z</time>
      </trkpt>
      <trkpt lat="47.6805" lon="6.23337">
        <ele>240</ele>
        <time>2018-10-15T15:21:25Z</time>
      </trkpt>
      <trkpt lat="47.68047" lon="6.23329">
        <ele>243</ele>
        <time>2018-10-15T15:21:27Z</time>
      </trkpt>
      <trkpt lat="47.68043" lon="6.23321">
        <ele>243</ele>
        <time>2018-10-15T15:21:29Z</time>
      </trkpt>
      <trkpt lat="47.68041" lon="6.23315">
        <ele>243</ele>
        <time>2018-10-15T15:21:31Z</time>
      </trkpt>
      <trkpt lat="47.68038" lon="6.2331">
        <ele>243</ele>
        <time>2018-10-15T15:21:33Z</time>
      </trkpt>
      <trkpt lat="47.68034" lon="6.23302">
        <ele>243</ele>
        <time>2018-10-15T15:21:36Z</time>
      </trkpt>
      <trkpt lat="47.6803" lon="6.23294">
        <ele>243</ele>
        <time>2018-10-15T15:21:39Z</time>
      </trkpt>
      <trkpt lat="47.68026" lon="6.23286">
        <ele>243</ele>
        <time>2018-10-15T15:21:42Z</time>
      </trkpt>
      <trkpt lat="47.68023" lon="6.2328">
        <ele>243</ele>
        <time>2018-10-15T15:21:44Z</time>
      </trkpt>
      <trkpt lat="47.68019" lon="6.23273">
        <ele>243</ele>
        <time>2018-10-15T15:21:46Z</time>
      </trkpt>
      <trkpt lat="47.68016" lon="6.23267">
        <ele>243</ele>
        <time>2018-10-15T15:21:48Z</time>
      </trkpt>
      <trkpt lat="47.68013" lon="6.2326">
        <ele>243</ele>
        <time>2018-10-15T15:21:50Z</time>
      </trkpt>
      <trkpt lat="47.68009" lon="6.23252">
        <ele>243</ele>
        <time>2018-10-15T15:21:52Z</time>
      </trkpt>
      <trkpt lat="47.68007" lon="6.23246">
        <ele>244</ele>
        <time>2018-10-15T15:21:54Z</time>
      </trkpt>
      <trkpt lat="47.68003" lon="6.23237">
        <ele>245</ele>
        <time>2018-10-15T15:21:56Z</time>
      </trkpt>
      <trkpt lat="47.67999" lon="6.23227">
        <ele>241</ele>
        <time>2018-10-15T15:21:58Z</time>
      </trkpt>
      <trkpt lat="47.67995" lon="6.23216">
        <ele>242</ele>
        <time>2018-10-15T15:22:00Z</time>
      </trkpt>
      <trkpt lat="47.67989" lon="6.23205">
        <ele>242</ele>
        <time>2018-10-15T15:22:01Z</time>
      </trkpt>
      <trkpt lat="47.67986" lon="6.23198">
        <ele>242</ele>
        <time>2018-10-15T15:22:02Z</time>
      </trkpt>
      <trkpt lat="47.67984" lon="6.23191">
        <ele>243</ele>
        <time>2018-10-15T15:22:03Z</time>
      </trkpt>
      <trkpt lat="47.67981" lon="6.23183">
        <ele>243</ele>
        <time>2018-10-15T15:22:04Z</time>
      </trkpt>
      <trkpt lat="47.67978" lon="6.23176">
        <ele>243</ele>
        <time>2018-10-15T15:22:05Z</time>
      </trkpt>
      <trkpt lat="47.67975" lon="6.23169">
        <ele>243</ele>
        <time>2018-10-15T15:22:06Z</time>
      </trkpt>
      <trkpt lat="47.67972" lon="6.23161">
        <ele>247</ele>
        <time>2018-10-15T15:22:07Z</time>
      </trkpt>
      <trkpt lat="47.67968" lon="6.23155">
        <ele>247</ele>
        <time>2018-10-15T15:22:08Z</time>
      </trkpt>
      <trkpt lat="47.67964" lon="6.23149">
        <ele>247</ele>
        <time>2018-10-15T15:22:09Z</time>
      </trkpt>
      <trkpt lat="47.6796" lon="6.23144">
        <ele>247</ele>
        <time>2018-10-15T15:22:10Z</time>
      </trkpt>
      <trkpt lat="47.67957" lon="6.2314">
        <ele>247</ele>
        <time>2018-10-15T15:22:11Z</time>
      </trkpt>
      <trkpt lat="47.67952" lon="6.23135">
        <ele>247</ele>
        <time>2018-10-15T15:22:12Z</time>
      </trkpt>
      <trkpt lat="47.67948" lon="6.23131">
        <ele>247</ele>
        <time>2018-10-15T15:22:13Z</time>
      </trkpt>
      <trkpt lat="47.67944" lon="6.23128">
        <ele>247</ele>
        <time>2018-10-15T15:22:14Z</time>
      </trkpt>
      <trkpt lat="47.67936" lon="6.23122">
        <ele>247</ele>
        <time>2018-10-15T15:22:16Z</time>
      </trkpt>
      <trkpt lat="47.67929" lon="6.23118">
        <ele>247</ele>
        <time>2018-10-15T15:22:18Z</time>
      </trkpt>
      <trkpt lat="47.67921" lon="6.23116">
        <ele>247</ele>
        <time>2018-10-15T15:22:20Z</time>
      </trkpt>
      <trkpt lat="47.67917" lon="6.23115">
        <ele>244</ele>
        <time>2018-10-15T15:22:21Z</time>
      </trkpt>
      <trkpt lat="47.6791" lon="6.23113">
        <ele>245</ele>
        <time>2018-10-15T15:22:23Z</time>
      </trkpt>
      <trkpt lat="47.67902" lon="6.23113">
        <ele>245</ele>
        <time>2018-10-15T15:22:25Z</time>
      </trkpt>
      <trkpt lat="47.67895" lon="6.23111">
        <ele>244</ele>
        <time>2018-10-15T15:22:27Z</time>
      </trkpt>
      <trkpt lat="47.67889" lon="6.2311">
        <ele>244</ele>
        <time>2018-10-15T15:22:29Z</time>
      </trkpt>
      <trkpt lat="47.67884" lon="6.23109">
        <ele>244</ele>
        <time>2018-10-15T15:22:31Z</time>
      </trkpt>
      <trkpt lat="47.67879" lon="6.23109">
        <ele>244</ele>
        <time>2018-10-15T15:22:33Z</time>
      </trkpt>
      <trkpt lat="47.67874" lon="6.23108">
        <ele>244</ele>
        <time>2018-10-15T15:22:35Z</time>
      </trkpt>
      <trkpt lat="47.67868" lon="6.23109">
        <ele>244</ele>
        <time>2018-10-15T15:22:38Z</time>
      </trkpt>
      <trkpt lat="47.67862" lon="6.23109">
        <ele>244</ele>
        <time>2018-10-15T15:22:41Z</time>
      </trkpt>
      <trkpt lat="47.67856" lon="6.23109">
        <ele>244</ele>
        <time>2018-10-15T15:22:44Z</time>
      </trkpt>
      <trkpt lat="47.67849" lon="6.23108">
        <ele>245</ele>
        <time>2018-10-15T15:22:47Z</time>
      </trkpt>
      <trkpt lat="47.67843" lon="6.23107">
        <ele>245</ele>
        <time>2018-10-15T15:22:49Z</time>
      </trkpt>
      <trkpt lat="47.67838" lon="6.23108">
        <ele>245</ele>
        <time>2018-10-15T15:22:51Z</time>
      </trkpt>
      <trkpt lat="47.67833" lon="6.23109">
        <ele>243</ele>
        <time>2018-10-15T15:22:53Z</time>
      </trkpt>
      <trkpt lat="47.67826" lon="6.23111">
        <ele>242</ele>
        <time>2018-10-15T15:22:55Z</time>
      </trkpt>
      <trkpt lat="47.6782" lon="6.23114">
        <ele>242</ele>
        <time>2018-10-15T15:22:57Z</time>
      </trkpt>
      <trkpt lat="47.67813" lon="6.23116">
        <ele>241</ele>
        <time>2018-10-15T15:22:59Z</time>
      </trkpt>
      <trkpt lat="47.67804" lon="6.23117">
        <ele>241</ele>
        <time>2018-10-15T15:23:01Z</time>
      </trkpt>
      <trkpt lat="47.67799" lon="6.23117">
        <ele>241</ele>
        <time>2018-10-15T15:23:02Z</time>
      </trkpt>
      <trkpt lat="47.67794" lon="6.23116">
        <ele>240</ele>
        <time>2018-10-15T15:23:03Z</time>
      </trkpt>
      <trkpt lat="47.67789" lon="6.23115">
        <ele>240</ele>
        <time>2018-10-15T15:23:04Z</time>
      </trkpt>
      <trkpt lat="47.67783" lon="6.23114">
        <ele>240</ele>
        <time>2018-10-15T15:23:05Z</time>
      </trkpt>
      <trkpt lat="47.67772" lon="6.23112">
        <ele>240</ele>
        <time>2018-10-15T15:23:06Z</time>
      </trkpt>
      <trkpt lat="47.67766" lon="6.23109">
        <ele>240</ele>
        <time>2018-10-15T15:23:07Z</time>
      </trkpt>
      <trkpt lat="47.67762" lon="6.23105">
        <ele>240</ele>
        <time>2018-10-15T15:23:08Z</time>
      </trkpt>
      <trkpt lat="47.67757" lon="6.231">
        <ele>240</ele>
        <time>2018-10-15T15:23:09Z</time>
      </trkpt>
      <trkpt lat="47.67752" lon="6.23095">
        <ele>240</ele>
        <time>2018-10-15T15:23:10Z</time>
      </trkpt>
      <trkpt lat="47.67747" lon="6.2309">
        <ele>239</ele>
        <time>2018-10-15T15:23:11Z</time>
      </trkpt>
      <trkpt lat="47.67743" lon="6.23084">
        <ele>239</ele>
        <time>2018-10-15T15:23:12Z</time>
      </trkpt>
      <trkpt lat="47.67738" lon="6.23078">
        <ele>239</ele>
        <time>2018-10-15T15:23:13Z</time>
      </trkpt>
      <trkpt lat="47.67734" lon="6.23072">
        <ele>238</ele>
        <time>2018-10-15T15:23:14Z</time>
      </trkpt>
      <trkpt lat="47.67729" lon="6.23066">
        <ele>238</ele>
        <time>2018-10-15T15:23:15Z</time>
      </trkpt>
      <trkpt lat="47.67724" lon="6.23059">
        <ele>237</ele>
        <time>2018-10-15T15:23:16Z</time>
      </trkpt>
      <trkpt lat="47.67719" lon="6.23051">
        <ele>237</ele>
        <time>2018-10-15T15:23:17Z</time>
      </trkpt>
      <trkpt lat="47.67715" lon="6.23043">
        <ele>237</ele>
        <time>2018-10-15T15:23:18Z</time>
      </trkpt>
      <trkpt lat="47.6771" lon="6.23036">
        <ele>236</ele>
        <time>2018-10-15T15:23:19Z</time>
      </trkpt>
      <trkpt lat="47.67705" lon="6.23027">
        <ele>236</ele>
        <time>2018-10-15T15:23:20Z</time>
      </trkpt>
      <trkpt lat="47.67702" lon="6.23017">
        <ele>236</ele>
        <time>2018-10-15T15:23:21Z</time>
      </trkpt>
      <trkpt lat="47.67701" lon="6.23006">
        <ele>236</ele>
        <time>2018-10-15T15:23:22Z</time>
      </trkpt>
      <trkpt lat="47.67699" lon="6.22995">
        <ele>236</ele>
        <time>2018-10-15T15:23:23Z</time>
      </trkpt>
      <trkpt lat="47.67698" lon="6.22984">
        <ele>236</ele>
        <time>2018-10-15T15:23:24Z</time>
      </trkpt>
      <trkpt lat="47.67698" lon="6.22973">
        <ele>236</ele>
        <time>2018-10-15T15:23:25Z</time>
      </trkpt>
      <trkpt lat="47.67697" lon="6.22961">
        <ele>236</ele>
        <time>2018-10-15T15:23:26Z</time>
      </trkpt>
      <trkpt lat="47.67696" lon="6.2295">
        <ele>236</ele>
        <time>2018-10-15T15:23:27Z</time>
      </trkpt>
      <trkpt lat="47.67694" lon="6.22939">
        <ele>236</ele>
        <time>2018-10-15T15:23:28Z</time>
      </trkpt>
      <trkpt lat="47.67692" lon="6.22928">
        <ele>235</ele>
        <time>2018-10-15T15:23:29Z</time>
      </trkpt>
      <trkpt lat="47.67688" lon="6.22917">
        <ele>234</ele>
        <time>2018-10-15T15:23:30Z</time>
      </trkpt>
      <trkpt lat="47.67683" lon="6.22908">
        <ele>233</ele>
        <time>2018-10-15T15:23:31Z</time>
      </trkpt>
      <trkpt lat="47.67679" lon="6.22898">
        <ele>233</ele>
        <time>2018-10-15T15:23:32Z</time>
      </trkpt>
      <trkpt lat="47.67673" lon="6.2289">
        <ele>234</ele>
        <time>2018-10-15T15:23:33Z</time>
      </trkpt>
      <trkpt lat="47.67668" lon="6.22881">
        <ele>234</ele>
        <time>2018-10-15T15:23:34Z</time>
      </trkpt>
      <trkpt lat="47.67663" lon="6.22872">
        <ele>228</ele>
        <time>2018-10-15T15:23:35Z</time>
      </trkpt>
      <trkpt lat="47.67659" lon="6.22862">
        <ele>228</ele>
        <time>2018-10-15T15:23:36Z</time>
      </trkpt>
      <trkpt lat="47.67655" lon="6.22854">
        <ele>228</ele>
        <time>2018-10-15T15:23:37Z</time>
      </trkpt>
      <trkpt lat="47.6765" lon="6.22846">
        <ele>228</ele>
        <time>2018-10-15T15:23:38Z</time>
      </trkpt>
      <trkpt lat="47.67646" lon="6.22839">
        <ele>228</ele>
        <time>2018-10-15T15:23:39Z</time>
      </trkpt>
      <trkpt lat="47.67641" lon="6.22832">
        <ele>228</ele>
        <time>2018-10-15T15:23:40Z</time>
      </trkpt>
      <trkpt lat="47.67637" lon="6.22826">
        <ele>228</ele>
        <time>2018-10-15T15:23:41Z</time>
      </trkpt>
      <trkpt lat="47.67632" lon="6.22819">
        <ele>228</ele>
        <time>2018-10-15T15:23:42Z</time>
      </trkpt>
      <trkpt lat="47.6763" lon="6.22811">
        <ele>228</ele>
        <time>2018-10-15T15:23:43Z</time>
      </trkpt>
      <trkpt lat="47.67626" lon="6.22804">
        <ele>228</ele>
        <time>2018-10-15T15:23:44Z</time>
      </trkpt>
      <trkpt lat="47.67622" lon="6.22797">
        <ele>228</ele>
        <time>2018-10-15T15:23:45Z</time>
      </trkpt>
      <trkpt lat="47.67619" lon="6.2279">
        <ele>228</ele>
        <time>2018-10-15T15:23:46Z</time>
      </trkpt>
      <trkpt lat="47.67616" lon="6.22782">
        <ele>228</ele>
        <time>2018-10-15T15:23:47Z</time>
      </trkpt>
      <trkpt lat="47.67613" lon="6.22776">
        <ele>228</ele>
        <time>2018-10-15T15:23:48Z</time>
      </trkpt>
      <trkpt lat="47.67611" lon="6.22769">
        <ele>228</ele>
        <time>2018-10-15T15:23:49Z</time>
      </trkpt>
      <trkpt lat="47.67608" lon="6.22763">
        <ele>228</ele>
        <time>2018-10-15T15:23:50Z</time>
      </trkpt>
      <trkpt lat="47.67605" lon="6.22757">
        <ele>228</ele>
        <time>2018-10-15T15:23:51Z</time>
      </trkpt>
      <trkpt lat="47.67602" lon="6.22751">
        <ele>228</ele>
        <time>2018-10-15T15:23:52Z</time>
      </trkpt>
      <trkpt lat="47.67599" lon="6.22746">
        <ele>228</ele>
        <time>2018-10-15T15:23:53Z</time>
      </trkpt>
      <trkpt lat="47.67596" lon="6.22741">
        <ele>228</ele>
        <time>2018-10-15T15:23:54Z</time>
      </trkpt>
      <trkpt lat="47.67591" lon="6.2273">
        <ele>228</ele>
        <time>2018-10-15T15:23:56Z</time>
      </trkpt>
      <trkpt lat="47.67587" lon="6.22719">
        <ele>228</ele>
        <time>2018-10-15T15:23:58Z</time>
      </trkpt>
      <trkpt lat="47.6758" lon="6.2271">
        <ele>228</ele>
        <time>2018-10-15T15:24:00Z</time>
      </trkpt>
      <trkpt lat="47.67573" lon="6.22702">
        <ele>228</ele>
        <time>2018-10-15T15:24:02Z</time>
      </trkpt>
      <trkpt lat="47.6757" lon="6.22699">
        <ele>228</ele>
        <time>2018-10-15T15:24:03Z</time>
      </trkpt>
      <trkpt lat="47.67563" lon="6.22691">
        <ele>228</ele>
        <time>2018-10-15T15:24:05Z</time>
      </trkpt>
      <trkpt lat="47.67558" lon="6.22688">
        <ele>228</ele>
        <time>2018-10-15T15:24:06Z</time>
      </trkpt>
      <trkpt lat="47.67551" lon="6.22683">
        <ele>228</ele>
        <time>2018-10-15T15:24:08Z</time>
      </trkpt>
      <trkpt lat="47.67543" lon="6.22678">
        <ele>228</ele>
        <time>2018-10-15T15:24:10Z</time>
      </trkpt>
      <trkpt lat="47.67535" lon="6.22675">
        <ele>228</ele>
        <time>2018-10-15T15:24:12Z</time>
      </trkpt>
      <trkpt lat="47.67527" lon="6.22672">
        <ele>228</ele>
        <time>2018-10-15T15:24:14Z</time>
      </trkpt>
      <trkpt lat="47.6752" lon="6.22668">
        <ele>228</ele>
        <time>2018-10-15T15:24:16Z</time>
      </trkpt>
      <trkpt lat="47.67512" lon="6.22665">
        <ele>229</ele>
        <time>2018-10-15T15:24:18Z</time>
      </trkpt>
      <trkpt lat="47.67505" lon="6.22662">
        <ele>228</ele>
        <time>2018-10-15T15:24:20Z</time>
      </trkpt>
      <trkpt lat="47.67498" lon="6.22658">
        <ele>228</ele>
        <time>2018-10-15T15:24:22Z</time>
      </trkpt>
      <trkpt lat="47.67493" lon="6.22656">
        <ele>228</ele>
        <time>2018-10-15T15:24:23Z</time>
      </trkpt>
      <trkpt lat="47.67485" lon="6.22652">
        <ele>228</ele>
        <time>2018-10-15T15:24:25Z</time>
      </trkpt>
      <trkpt lat="47.67477" lon="6.22647">
        <ele>228</ele>
        <time>2018-10-15T15:24:27Z</time>
      </trkpt>
      <trkpt lat="47.6747" lon="6.22641">
        <ele>228</ele>
        <time>2018-10-15T15:24:29Z</time>
      </trkpt>
      <trkpt lat="47.67463" lon="6.22636">
        <ele>228</ele>
        <time>2018-10-15T15:24:31Z</time>
      </trkpt>
      <trkpt lat="47.67456" lon="6.2263">
        <ele>228</ele>
        <time>2018-10-15T15:24:33Z</time>
      </trkpt>
      <trkpt lat="47.67448" lon="6.22623">
        <ele>228</ele>
        <time>2018-10-15T15:24:35Z</time>
      </trkpt>
      <trkpt lat="47.67441" lon="6.22616">
        <ele>228</ele>
        <time>2018-10-15T15:24:37Z</time>
      </trkpt>
      <trkpt lat="47.67435" lon="6.22609">
        <ele>228</ele>
        <time>2018-10-15T15:24:39Z</time>
      </trkpt>
      <trkpt lat="47.67428" lon="6.22601">
        <ele>228</ele>
        <time>2018-10-15T15:24:41Z</time>
      </trkpt>
      <trkpt lat="47.67422" lon="6.22593">
        <ele>228</ele>
        <time>2018-10-15T15:24:43Z</time>
      </trkpt>
      <trkpt lat="47.67417" lon="6.22586">
        <ele>228</ele>
        <time>2018-10-15T15:24:45Z</time>
      </trkpt>
      <trkpt lat="47.67412" lon="6.22577">
        <ele>228</ele>
        <time>2018-10-15T15:24:47Z</time>
      </trkpt>
      <trkpt lat="47.67407" lon="6.22569">
        <ele>228</ele>
        <time>2018-10-15T15:24:49Z</time>
      </trkpt>
      <trkpt lat="47.67402" lon="6.2256">
        <ele>228</ele>
        <time>2018-10-15T15:24:51Z</time>
      </trkpt>
      <trkpt lat="47.67397" lon="6.2255">
        <ele>228</ele>
        <time>2018-10-15T15:24:53Z</time>
      </trkpt>
      <trkpt lat="47.67392" lon="6.2254">
        <ele>228</ele>
        <time>2018-10-15T15:24:55Z</time>
      </trkpt>
      <trkpt lat="47.67388" lon="6.2253">
        <ele>229</ele>
        <time>2018-10-15T15:24:57Z</time>
      </trkpt>
      <trkpt lat="47.67383" lon="6.22519">
        <ele>229</ele>
        <time>2018-10-15T15:24:59Z</time>
      </trkpt>
      <trkpt lat="47.67378" lon="6.22509">
        <ele>229</ele>
        <time>2018-10-15T15:25:01Z</time>
      </trkpt>
      <trkpt lat="47.67373" lon="6.22498">
        <ele>229</ele>
        <time>2018-10-15T15:25:03Z</time>
      </trkpt>
      <trkpt lat="47.67371" lon="6.22492">
        <ele>229</ele>
        <time>2018-10-15T15:25:04Z</time>
      </trkpt>
      <trkpt lat="47.67365" lon="6.22481">
        <ele>229</ele>
        <time>2018-10-15T15:25:06Z</time>
      </trkpt>
      <trkpt lat="47.67361" lon="6.22469">
        <ele>229</ele>
        <time>2018-10-15T15:25:08Z</time>
      </trkpt>
      <trkpt lat="47.67358" lon="6.22463">
        <ele>229</ele>
        <time>2018-10-15T15:25:09Z</time>
      </trkpt>
      <trkpt lat="47.67356" lon="6.22458">
        <ele>229</ele>
        <time>2018-10-15T15:25:10Z</time>
      </trkpt>
      <trkpt lat="47.67353" lon="6.22452">
        <ele>229</ele>
        <time>2018-10-15T15:25:11Z</time>
      </trkpt>
      <trkpt lat="47.6735" lon="6.22446">
        <ele>229</ele>
        <time>2018-10-15T15:25:12Z</time>
      </trkpt>
      <trkpt lat="47.67347" lon="6.22441">
        <ele>229</ele>
        <time>2018-10-15T15:25:13Z</time>
      </trkpt>
      <trkpt lat="47.67344" lon="6.22436">
        <ele>229</ele>
        <time>2018-10-15T15:25:14Z</time>
      </trkpt>
      <trkpt lat="47.67341" lon="6.2243">
        <ele>229</ele>
        <time>2018-10-15T15:25:15Z</time>
      </trkpt>
      <trkpt lat="47.67338" lon="6.22425">
        <ele>229</ele>
        <time>2018-10-15T15:25:16Z</time>
      </trkpt>
      <trkpt lat="47.67335" lon="6.22419">
        <ele>228</ele>
        <time>2018-10-15T15:25:17Z</time>
      </trkpt>
      <trkpt lat="47.67331" lon="6.22414">
        <ele>228</ele>
        <time>2018-10-15T15:25:18Z</time>
      </trkpt>
      <trkpt lat="47.67328" lon="6.22409">
        <ele>228</ele>
        <time>2018-10-15T15:25:19Z</time>
      </trkpt>
      <trkpt lat="47.67325" lon="6.22403">
        <ele>228</ele>
        <time>2018-10-15T15:25:20Z</time>
      </trkpt>
      <trkpt lat="47.67322" lon="6.22398">
        <ele>228</ele>
        <time>2018-10-15T15:25:21Z</time>
      </trkpt>
      <trkpt lat="47.67319" lon="6.22392">
        <ele>228</ele>
        <time>2018-10-15T15:25:22Z</time>
      </trkpt>
      <trkpt lat="47.67315" lon="6.22387">
        <ele>228</ele>
        <time>2018-10-15T15:25:23Z</time>
      </trkpt>
      <trkpt lat="47.67312" lon="6.22382">
        <ele>228</ele>
        <time>2018-10-15T15:25:24Z</time>
      </trkpt>
      <trkpt lat="47.67309" lon="6.22377">
        <ele>228</ele>
        <time>2018-10-15T15:25:25Z</time>
      </trkpt>
      <trkpt lat="47.67305" lon="6.22372">
        <ele>228</ele>
        <time>2018-10-15T15:25:26Z</time>
      </trkpt>
      <trkpt lat="47.67302" lon="6.22367">
        <ele>228</ele>
        <time>2018-10-15T15:25:27Z</time>
      </trkpt>
      <trkpt lat="47.67298" lon="6.22362">
        <ele>228</ele>
        <time>2018-10-15T15:25:28Z</time>
      </trkpt>
      <trkpt lat="47.67295" lon="6.22358">
        <ele>228</ele>
        <time>2018-10-15T15:25:29Z</time>
      </trkpt>
      <trkpt lat="47.67288" lon="6.22349">
        <ele>228</ele>
        <time>2018-10-15T15:25:31Z</time>
      </trkpt>
      <trkpt lat="47.67284" lon="6.22345">
        <ele>228</ele>
        <time>2018-10-15T15:25:32Z</time>
      </trkpt>
      <trkpt lat="47.67279" lon="6.22341">
        <ele>229</ele>
        <time>2018-10-15T15:25:33Z</time>
      </trkpt>
      <trkpt lat="47.67275" lon="6.22338">
        <ele>229</ele>
        <time>2018-10-15T15:25:34Z</time>
      </trkpt>
      <trkpt lat="47.67271" lon="6.22335">
        <ele>229</ele>
        <time>2018-10-15T15:25:35Z</time>
      </trkpt>
      <trkpt lat="47.67266" lon="6.22333">
        <ele>230</ele>
        <time>2018-10-15T15:25:36Z</time>
      </trkpt>
      <trkpt lat="47.67262" lon="6.2233">
        <ele>230</ele>
        <time>2018-10-15T15:25:37Z</time>
      </trkpt>
      <trkpt lat="47.67254" lon="6.22326">
        <ele>230</ele>
        <time>2018-10-15T15:25:39Z</time>
      </trkpt>
      <trkpt lat="47.67247" lon="6.22323">
        <ele>230</ele>
        <time>2018-10-15T15:25:41Z</time>
      </trkpt>
      <trkpt lat="47.6724" lon="6.22319">
        <ele>230</ele>
        <time>2018-10-15T15:25:43Z</time>
      </trkpt>
      <trkpt lat="47.67232" lon="6.22314">
        <ele>230</ele>
        <time>2018-10-15T15:25:45Z</time>
      </trkpt>
      <trkpt lat="47.67224" lon="6.22311">
        <ele>230</ele>
        <time>2018-10-15T15:25:47Z</time>
      </trkpt>
      <trkpt lat="47.67216" lon="6.22307">
        <ele>230</ele>
        <time>2018-10-15T15:25:49Z</time>
      </trkpt>
      <trkpt lat="47.67207" lon="6.22303">
        <ele>230</ele>
        <time>2018-10-15T15:25:51Z</time>
      </trkpt>
      <trkpt lat="47.67203" lon="6.22301">
        <ele>230</ele>
        <time>2018-10-15T15:25:52Z</time>
      </trkpt>
      <trkpt lat="47.67194" lon="6.22297">
        <ele>230</ele>
        <time>2018-10-15T15:25:54Z</time>
      </trkpt>
      <trkpt lat="47.67189" lon="6.22295">
        <ele>230</ele>
        <time>2018-10-15T15:25:55Z</time>
      </trkpt>
      <trkpt lat="47.67181" lon="6.22292">
        <ele>230</ele>
        <time>2018-10-15T15:25:57Z</time>
      </trkpt>
      <trkpt lat="47.67173" lon="6.22288">
        <ele>230</ele>
        <time>2018-10-15T15:25:59Z</time>
      </trkpt>
      <trkpt lat="47.67165" lon="6.22285">
        <ele>229</ele>
        <time>2018-10-15T15:26:01Z</time>
      </trkpt>
      <trkpt lat="47.67158" lon="6.22282">
        <ele>229</ele>
        <time>2018-10-15T15:26:03Z</time>
      </trkpt>
      <trkpt lat="47.67152" lon="6.22278">
        <ele>229</ele>
        <time>2018-10-15T15:26:05Z</time>
      </trkpt>
      <trkpt lat="47.67147" lon="6.22274">
        <ele>229</ele>
        <time>2018-10-15T15:26:07Z</time>
      </trkpt>
      <trkpt lat="47.67141" lon="6.2227">
        <ele>229</ele>
        <time>2018-10-15T15:26:09Z</time>
      </trkpt>
      <trkpt lat="47.67135" lon="6.22265">
        <ele>229</ele>
        <time>2018-10-15T15:26:11Z</time>
      </trkpt>
      <trkpt lat="47.67128" lon="6.22259">
        <ele>229</ele>
        <time>2018-10-15T15:26:13Z</time>
      </trkpt>
      <trkpt lat="47.67122" lon="6.22252">
        <ele>229</ele>
        <time>2018-10-15T15:26:15Z</time>
      </trkpt>
      <trkpt lat="47.67118" lon="6.22248">
        <ele>232</ele>
        <time>2018-10-15T15:26:16Z</time>
      </trkpt>
      <trkpt lat="47.67112" lon="6.2224">
        <ele>231</ele>
        <time>2018-10-15T15:26:18Z</time>
      </trkpt>
      <trkpt lat="47.67105" lon="6.22232">
        <ele>231</ele>
        <time>2018-10-15T15:26:20Z</time>
      </trkpt>
      <trkpt lat="47.67098" lon="6.22224">
        <ele>232</ele>
        <time>2018-10-15T15:26:22Z</time>
      </trkpt>
      <trkpt lat="47.67095" lon="6.2222">
        <ele>232</ele>
        <time>2018-10-15T15:26:23Z</time>
      </trkpt>
      <trkpt lat="47.67091" lon="6.22216">
        <ele>232</ele>
        <time>2018-10-15T15:26:24Z</time>
      </trkpt>
      <trkpt lat="47.67084" lon="6.22208">
        <ele>232</ele>
        <time>2018-10-15T15:26:26Z</time>
      </trkpt>
      <trkpt lat="47.67078" lon="6.222">
        <ele>230</ele>
        <time>2018-10-15T15:26:28Z</time>
      </trkpt>
      <trkpt lat="47.67072" lon="6.22192">
        <ele>230</ele>
        <time>2018-10-15T15:26:30Z</time>
      </trkpt>
      <trkpt lat="47.67068" lon="6.22185">
        <ele>230</ele>
        <time>2018-10-15T15:26:32Z</time>
      </trkpt>
      <trkpt lat="47.67064" lon="6.22178">
        <ele>230</ele>
        <time>2018-10-15T15:26:34Z</time>
      </trkpt>
      <trkpt lat="47.67059" lon="6.2217">
        <ele>230</ele>
        <time>2018-10-15T15:26:36Z</time>
      </trkpt>
      <trkpt lat="47.67054" lon="6.22162">
        <ele>232</ele>
        <time>2018-10-15T15:26:38Z</time>
      </trkpt>
      <trkpt lat="47.67049" lon="6.22153">
        <ele>232</ele>
        <time>2018-10-15T15:26:40Z</time>
      </trkpt>
      <trkpt lat="47.67045" lon="6.22144">
        <ele>232</ele>
        <time>2018-10-15T15:26:42Z</time>
      </trkpt>
      <trkpt lat="47.6704" lon="6.22135">
        <ele>231</ele>
        <time>2018-10-15T15:26:44Z</time>
      </trkpt>
      <trkpt lat="47.67036" lon="6.22125">
        <ele>231</ele>
        <time>2018-10-15T15:26:46Z</time>
      </trkpt>
      <trkpt lat="47.67032" lon="6.22116">
        <ele>231</ele>
        <time>2018-10-15T15:26:48Z</time>
      </trkpt>
      <trkpt lat="47.67028" lon="6.22108">
        <ele>231</ele>
        <time>2018-10-15T15:26:50Z</time>
      </trkpt>
      <trkpt lat="47.67024" lon="6.22099">
        <ele>231</ele>
        <time>2018-10-15T15:26:52Z</time>
      </trkpt>
      <trkpt lat="47.67022" lon="6.22092">
        <ele>231</ele>
        <time>2018-10-15T15:26:54Z</time>
      </trkpt>
      <trkpt lat="47.67019" lon="6.22084">
        <ele>231</ele>
        <time>2018-10-15T15:26:56Z</time>
      </trkpt>
      <trkpt lat="47.67014" lon="6.22072">
        <ele>233</ele>
        <time>2018-10-15T15:26:58Z</time>
      </trkpt>
      <trkpt lat="47.6701" lon="6.22062">
        <ele>234</ele>
        <time>2018-10-15T15:27:00Z</time>
      </trkpt>
      <trkpt lat="47.67006" lon="6.22052">
        <ele>234</ele>
        <time>2018-10-15T15:27:02Z</time>
      </trkpt>
      <trkpt lat="47.67003" lon="6.22041">
        <ele>235</ele>
        <time>2018-10-15T15:27:04Z</time>
      </trkpt>
      <trkpt lat="47.66999" lon="6.22032">
        <ele>231</ele>
        <time>2018-10-15T15:27:06Z</time>
      </trkpt>
      <trkpt lat="47.66995" lon="6.22023">
        <ele>232</ele>
        <time>2018-10-15T15:27:08Z</time>
      </trkpt>
      <trkpt lat="47.66991" lon="6.22014">
        <ele>233</ele>
        <time>2018-10-15T15:27:10Z</time>
      </trkpt>
      <trkpt lat="47.66985" lon="6.22007">
        <ele>233</ele>
        <time>2018-10-15T15:27:12Z</time>
      </trkpt>
      <trkpt lat="47.66979" lon="6.21999">
        <ele>233</ele>
        <time>2018-10-15T15:27:14Z</time>
      </trkpt>
      <trkpt lat="47.66975" lon="6.21995">
        <ele>233</ele>
        <time>2018-10-15T15:27:15Z</time>
      </trkpt>
      <trkpt lat="47.66968" lon="6.21988">
        <ele>233</ele>
        <time>2018-10-15T15:27:17Z</time>
      </trkpt>
      <trkpt lat="47.66963" lon="6.21985">
        <ele>232</ele>
        <time>2018-10-15T15:27:18Z</time>
      </trkpt>
      <trkpt lat="47.66958" lon="6.21981">
        <ele>232</ele>
        <time>2018-10-15T15:27:19Z</time>
      </trkpt>
      <trkpt lat="47.66954" lon="6.21977">
        <ele>232</ele>
        <time>2018-10-15T15:27:20Z</time>
      </trkpt>
      <trkpt lat="47.66949" lon="6.21972">
        <ele>232</ele>
        <time>2018-10-15T15:27:21Z</time>
      </trkpt>
      <trkpt lat="47.66944" lon="6.21967">
        <ele>232</ele>
        <time>2018-10-15T15:27:22Z</time>
      </trkpt>
      <trkpt lat="47.66938" lon="6.21963">
        <ele>231</ele>
        <time>2018-10-15T15:27:23Z</time>
      </trkpt>
      <trkpt lat="47.66934" lon="6.21958">
        <ele>231</ele>
        <time>2018-10-15T15:27:24Z</time>
      </trkpt>
      <trkpt lat="47.66929" lon="6.21954">
        <ele>231</ele>
        <time>2018-10-15T15:27:25Z</time>
      </trkpt>
      <trkpt lat="47.66924" lon="6.21949">
        <ele>231</ele>
        <time>2018-10-15T15:27:26Z</time>
      </trkpt>
      <trkpt lat="47.6692" lon="6.21944">
        <ele>231</ele>
        <time>2018-10-15T15:27:27Z</time>
      </trkpt>
      <trkpt lat="47.66916" lon="6.21939">
        <ele>229</ele>
        <time>2018-10-15T15:27:28Z</time>
      </trkpt>
      <trkpt lat="47.66911" lon="6.21934">
        <ele>229</ele>
        <time>2018-10-15T15:27:29Z</time>
      </trkpt>
      <trkpt lat="47.66907" lon="6.21929">
        <ele>229</ele>
        <time>2018-10-15T15:27:30Z</time>
      </trkpt>
      <trkpt lat="47.66903" lon="6.21924">
        <ele>229</ele>
        <time>2018-10-15T15:27:31Z</time>
      </trkpt>
      <trkpt lat="47.66898" lon="6.2192">
        <ele>229</ele>
        <time>2018-10-15T15:27:32Z</time>
      </trkpt>
      <trkpt lat="47.66894" lon="6.21916">
        <ele>229</ele>
        <time>2018-10-15T15:27:33Z</time>
      </trkpt>
      <trkpt lat="47.66889" lon="6.21912">
        <ele>229</ele>
        <time>2018-10-15T15:27:34Z</time>
      </trkpt>
      <trkpt lat="47.66885" lon="6.21908">
        <ele>229</ele>
        <time>2018-10-15T15:27:35Z</time>
      </trkpt>
      <trkpt lat="47.66882" lon="6.21903">
        <ele>229</ele>
        <time>2018-10-15T15:27:36Z</time>
      </trkpt>
      <trkpt lat="47.66878" lon="6.21899">
        <ele>229</ele>
        <time>2018-10-15T15:27:37Z</time>
      </trkpt>
      <trkpt lat="47.66874" lon="6.21895">
        <ele>229</ele>
        <time>2018-10-15T15:27:38Z</time>
      </trkpt>
      <trkpt lat="47.6687" lon="6.21892">
        <ele>229</ele>
        <time>2018-10-15T15:27:39Z</time>
      </trkpt>
      <trkpt lat="47.66863" lon="6.21885">
        <ele>229</ele>
        <time>2018-10-15T15:27:41Z</time>
      </trkpt>
      <trkpt lat="47.66856" lon="6.21877">
        <ele>229</ele>
        <time>2018-10-15T15:27:43Z</time>
      </trkpt>
      <trkpt lat="47.6685" lon="6.2187">
        <ele>229</ele>
        <time>2018-10-15T15:27:45Z</time>
      </trkpt>
      <trkpt lat="47.66843" lon="6.21863">
        <ele>229</ele>
        <time>2018-10-15T15:27:47Z</time>
      </trkpt>
      <trkpt lat="47.66838" lon="6.21855">
        <ele>229</ele>
        <time>2018-10-15T15:27:49Z</time>
      </trkpt>
      <trkpt lat="47.66832" lon="6.21847">
        <ele>230</ele>
        <time>2018-10-15T15:27:51Z</time>
      </trkpt>
      <trkpt lat="47.66826" lon="6.21841">
        <ele>230</ele>
        <time>2018-10-15T15:27:53Z</time>
      </trkpt>
      <trkpt lat="47.66821" lon="6.21835">
        <ele>230</ele>
        <time>2018-10-15T15:27:55Z</time>
      </trkpt>
      <trkpt lat="47.66816" lon="6.21829">
        <ele>231</ele>
        <time>2018-10-15T15:27:57Z</time>
      </trkpt>
      <trkpt lat="47.6681" lon="6.21824">
        <ele>231</ele>
        <time>2018-10-15T15:27:59Z</time>
      </trkpt>
      <trkpt lat="47.66804" lon="6.21818">
        <ele>231</ele>
        <time>2018-10-15T15:28:02Z</time>
      </trkpt>
      <trkpt lat="47.668" lon="6.21815">
        <ele>231</ele>
        <time>2018-10-15T15:28:04Z</time>
      </trkpt>
      <trkpt lat="47.66795" lon="6.21811">
        <ele>232</ele>
        <time>2018-10-15T15:28:06Z</time>
      </trkpt>
      <trkpt lat="47.6679" lon="6.21808">
        <ele>232</ele>
        <time>2018-10-15T15:28:08Z</time>
      </trkpt>
      <trkpt lat="47.66786" lon="6.21805">
        <ele>232</ele>
        <time>2018-10-15T15:28:10Z</time>
      </trkpt>
      <trkpt lat="47.6678" lon="6.21801">
        <ele>232</ele>
        <time>2018-10-15T15:28:12Z</time>
      </trkpt>
      <trkpt lat="47.66774" lon="6.21797">
        <ele>232</ele>
        <time>2018-10-15T15:28:14Z</time>
      </trkpt>
      <trkpt lat="47.66768" lon="6.21793">
        <ele>232</ele>
        <time>2018-10-15T15:28:16Z</time>
      </trkpt>
      <trkpt lat="47.66763" lon="6.21789">
        <ele>232</ele>
        <time>2018-10-15T15:28:18Z</time>
      </trkpt>
      <trkpt lat="47.66759" lon="6.21785">
        <ele>232</ele>
        <time>2018-10-15T15:28:19Z</time>
      </trkpt>
      <trkpt lat="47.66753" lon="6.21779">
        <ele>232</ele>
        <time>2018-10-15T15:28:21Z</time>
      </trkpt>
      <trkpt lat="47.66742" lon="6.21769">
        <ele>231</ele>
        <time>2018-10-15T15:28:23Z</time>
      </trkpt>
      <trkpt lat="47.66735" lon="6.2176">
        <ele>231</ele>
        <time>2018-10-15T15:28:25Z</time>
      </trkpt>
      <trkpt lat="47.66732" lon="6.21756">
        <ele>231</ele>
        <time>2018-10-15T15:28:26Z</time>
      </trkpt>
      <trkpt lat="47.66726" lon="6.21746">
        <ele>232</ele>
        <time>2018-10-15T15:28:28Z</time>
      </trkpt>
      <trkpt lat="47.66723" lon="6.21741">
        <ele>232</ele>
        <time>2018-10-15T15:28:29Z</time>
      </trkpt>
      <trkpt lat="47.6672" lon="6.21736">
        <ele>232</ele>
        <time>2018-10-15T15:28:30Z</time>
      </trkpt>
      <trkpt lat="47.66715" lon="6.21726">
        <ele>232</ele>
        <time>2018-10-15T15:28:32Z</time>
      </trkpt>
      <trkpt lat="47.66712" lon="6.2172">
        <ele>232</ele>
        <time>2018-10-15T15:28:33Z</time>
      </trkpt>
      <trkpt lat="47.66709" lon="6.21715">
        <ele>232</ele>
        <time>2018-10-15T15:28:34Z</time>
      </trkpt>
      <trkpt lat="47.66707" lon="6.21709">
        <ele>232</ele>
        <time>2018-10-15T15:28:35Z</time>
      </trkpt>
      <trkpt lat="47.66704" lon="6.21703">
        <ele>232</ele>
        <time>2018-10-15T15:28:36Z</time>
      </trkpt>
      <trkpt lat="47.66701" lon="6.21698">
        <ele>232</ele>
        <time>2018-10-15T15:28:37Z</time>
      </trkpt>
      <trkpt lat="47.66699" lon="6.21692">
        <ele>232</ele>
        <time>2018-10-15T15:28:38Z</time>
      </trkpt>
      <trkpt lat="47.66696" lon="6.21686">
        <ele>232</ele>
        <time>2018-10-15T15:28:39Z</time>
      </trkpt>
      <trkpt lat="47.66694" lon="6.2168">
        <ele>232</ele>
        <time>2018-10-15T15:28:40Z</time>
      </trkpt>
      <trkpt lat="47.66691" lon="6.21675">
        <ele>231</ele>
        <time>2018-10-15T15:28:41Z</time>
      </trkpt>
      <trkpt lat="47.66689" lon="6.21669">
        <ele>231</ele>
        <time>2018-10-15T15:28:42Z</time>
      </trkpt>
      <trkpt lat="47.66686" lon="6.21663">
        <ele>233</ele>
        <time>2018-10-15T15:28:43Z</time>
      </trkpt>
      <trkpt lat="47.66683" lon="6.21657">
        <ele>233</ele>
        <time>2018-10-15T15:28:44Z</time>
      </trkpt>
      <trkpt lat="47.6668" lon="6.21651">
        <ele>233</ele>
        <time>2018-10-15T15:28:45Z</time>
      </trkpt>
      <trkpt lat="47.66678" lon="6.21645">
        <ele>234</ele>
        <time>2018-10-15T15:28:46Z</time>
      </trkpt>
      <trkpt lat="47.66675" lon="6.21639">
        <ele>234</ele>
        <time>2018-10-15T15:28:47Z</time>
      </trkpt>
      <trkpt lat="47.66672" lon="6.21633">
        <ele>234</ele>
        <time>2018-10-15T15:28:48Z</time>
      </trkpt>
      <trkpt lat="47.6667" lon="6.21626">
        <ele>234</ele>
        <time>2018-10-15T15:28:49Z</time>
      </trkpt>
      <trkpt lat="47.66667" lon="6.21619">
        <ele>234</ele>
        <time>2018-10-15T15:28:50Z</time>
      </trkpt>
      <trkpt lat="47.66664" lon="6.21612">
        <ele>230</ele>
        <time>2018-10-15T15:28:51Z</time>
      </trkpt>
      <trkpt lat="47.66661" lon="6.21605">
        <ele>230</ele>
        <time>2018-10-15T15:28:52Z</time>
      </trkpt>
      <trkpt lat="47.66658" lon="6.21598">
        <ele>230</ele>
        <time>2018-10-15T15:28:53Z</time>
      </trkpt>
      <trkpt lat="47.66656" lon="6.21591">
        <ele>231</ele>
        <time>2018-10-15T15:28:54Z</time>
      </trkpt>
      <trkpt lat="47.66653" lon="6.21584">
        <ele>231</ele>
        <time>2018-10-15T15:28:55Z</time>
      </trkpt>
      <trkpt lat="47.6665" lon="6.21577">
        <ele>231</ele>
        <time>2018-10-15T15:28:56Z</time>
      </trkpt>
      <trkpt lat="47.66648" lon="6.21571">
        <ele>231</ele>
        <time>2018-10-15T15:28:57Z</time>
      </trkpt>
      <trkpt lat="47.66645" lon="6.21564">
        <ele>231</ele>
        <time>2018-10-15T15:28:58Z</time>
      </trkpt>
      <trkpt lat="47.66643" lon="6.21557">
        <ele>231</ele>
        <time>2018-10-15T15:28:59Z</time>
      </trkpt>
      <trkpt lat="47.6664" lon="6.21551">
        <ele>231</ele>
        <time>2018-10-15T15:29:00Z</time>
      </trkpt>
      <trkpt lat="47.66638" lon="6.21544">
        <ele>231</ele>
        <time>2018-10-15T15:29:01Z</time>
      </trkpt>
      <trkpt lat="47.66635" lon="6.21539">
        <ele>231</ele>
        <time>2018-10-15T15:29:02Z</time>
      </trkpt>
      <trkpt lat="47.66632" lon="6.21533">
        <ele>231</ele>
        <time>2018-10-15T15:29:03Z</time>
      </trkpt>
      <trkpt lat="47.6663" lon="6.21527">
        <ele>231</ele>
        <time>2018-10-15T15:29:04Z</time>
      </trkpt>
      <trkpt lat="47.66627" lon="6.21521">
        <ele>231</ele>
        <time>2018-10-15T15:29:05Z</time>
      </trkpt>
      <trkpt lat="47.66624" lon="6.21515">
        <ele>231</ele>
        <time>2018-10-15T15:29:06Z</time>
      </trkpt>
      <trkpt lat="47.66621" lon="6.2151">
        <ele>231</ele>
        <time>2018-10-15T15:29:07Z</time>
      </trkpt>
      <trkpt lat="47.66618" lon="6.21504">
        <ele>231</ele>
        <time>2018-10-15T15:29:08Z</time>
      </trkpt>
      <trkpt lat="47.66615" lon="6.21498">
        <ele>232</ele>
        <time>2018-10-15T15:29:09Z</time>
      </trkpt>
      <trkpt lat="47.66612" lon="6.21491">
        <ele>232</ele>
        <time>2018-10-15T15:29:10Z</time>
      </trkpt>
      <trkpt lat="47.66608" lon="6.21485">
        <ele>232</ele>
        <time>2018-10-15T15:29:11Z</time>
      </trkpt>
      <trkpt lat="47.66605" lon="6.21479">
        <ele>232</ele>
        <time>2018-10-15T15:29:12Z</time>
      </trkpt>
      <trkpt lat="47.66601" lon="6.21473">
        <ele>232</ele>
        <time>2018-10-15T15:29:13Z</time>
      </trkpt>
      <trkpt lat="47.66598" lon="6.21467">
        <ele>232</ele>
        <time>2018-10-15T15:29:14Z</time>
      </trkpt>
      <trkpt lat="47.66594" lon="6.2146">
        <ele>233</ele>
        <time>2018-10-15T15:29:15Z</time>
      </trkpt>
      <trkpt lat="47.6659" lon="6.21454">
        <ele>233</ele>
        <time>2018-10-15T15:29:16Z</time>
      </trkpt>
      <trkpt lat="47.66585" lon="6.21447">
        <ele>232</ele>
        <time>2018-10-15T15:29:17Z</time>
      </trkpt>
      <trkpt lat="47.66581" lon="6.2144">
        <ele>229</ele>
        <time>2018-10-15T15:29:18Z</time>
      </trkpt>
      <trkpt lat="47.66576" lon="6.21434">
        <ele>230</ele>
        <time>2018-10-15T15:29:19Z</time>
      </trkpt>
      <trkpt lat="47.66573" lon="6.21428">
        <ele>230</ele>
        <time>2018-10-15T15:29:20Z</time>
      </trkpt>
      <trkpt lat="47.6657" lon="6.21422">
        <ele>230</ele>
        <time>2018-10-15T15:29:21Z</time>
      </trkpt>
      <trkpt lat="47.66564" lon="6.21413">
        <ele>231</ele>
        <time>2018-10-15T15:29:23Z</time>
      </trkpt>
      <trkpt lat="47.6656" lon="6.21403">
        <ele>231</ele>
        <time>2018-10-15T15:29:25Z</time>
      </trkpt>
      <trkpt lat="47.66556" lon="6.21397">
        <ele>231</ele>
        <time>2018-10-15T15:29:27Z</time>
      </trkpt>
      <trkpt lat="47.66552" lon="6.2139">
        <ele>231</ele>
        <time>2018-10-15T15:29:29Z</time>
      </trkpt>
      <trkpt lat="47.66549" lon="6.21383">
        <ele>231</ele>
        <time>2018-10-15T15:29:31Z</time>
      </trkpt>
      <trkpt lat="47.66546" lon="6.21377">
        <ele>231</ele>
        <time>2018-10-15T15:29:33Z</time>
      </trkpt>
      <trkpt lat="47.66542" lon="6.21371">
        <ele>231</ele>
        <time>2018-10-15T15:29:35Z</time>
      </trkpt>
      <trkpt lat="47.66539" lon="6.21365">
        <ele>231</ele>
        <time>2018-10-15T15:29:37Z</time>
      </trkpt>
      <trkpt lat="47.66537" lon="6.21359">
        <ele>231</ele>
        <time>2018-10-15T15:29:39Z</time>
      </trkpt>
      <trkpt lat="47.66533" lon="6.21352">
        <ele>231</ele>
        <time>2018-10-15T15:29:41Z</time>
      </trkpt>
      <trkpt lat="47.6653" lon="6.21346">
        <ele>231</ele>
        <time>2018-10-15T15:29:43Z</time>
      </trkpt>
      <trkpt lat="47.66526" lon="6.21338">
        <ele>231</ele>
        <time>2018-10-15T15:29:45Z</time>
      </trkpt>
      <trkpt lat="47.66521" lon="6.21331">
        <ele>232</ele>
        <time>2018-10-15T15:29:47Z</time>
      </trkpt>
      <trkpt lat="47.66517" lon="6.21325">
        <ele>232</ele>
        <time>2018-10-15T15:29:49Z</time>
      </trkpt>
      <trkpt lat="47.66514" lon="6.21318">
        <ele>232</ele>
        <time>2018-10-15T15:29:51Z</time>
      </trkpt>
      <trkpt lat="47.66509" lon="6.2131">
        <ele>232</ele>
        <time>2018-10-15T15:29:53Z</time>
      </trkpt>
      <trkpt lat="47.66505" lon="6.21303">
        <ele>232</ele>
        <time>2018-10-15T15:29:54Z</time>
      </trkpt>
      <trkpt lat="47.665" lon="6.21293">
        <ele>230</ele>
        <time>2018-10-15T15:29:56Z</time>
      </trkpt>
      <trkpt lat="47.66495" lon="6.21283">
        <ele>230</ele>
        <time>2018-10-15T15:29:58Z</time>
      </trkpt>
      <trkpt lat="47.66488" lon="6.21273">
        <ele>230</ele>
        <time>2018-10-15T15:30:00Z</time>
      </trkpt>
      <trkpt lat="47.66482" lon="6.21263">
        <ele>230</ele>
        <time>2018-10-15T15:30:02Z</time>
      </trkpt>
      <trkpt lat="47.66479" lon="6.21257">
        <ele>230</ele>
        <time>2018-10-15T15:30:03Z</time>
      </trkpt>
      <trkpt lat="47.66476" lon="6.21251">
        <ele>230</ele>
        <time>2018-10-15T15:30:04Z</time>
      </trkpt>
      <trkpt lat="47.66473" lon="6.21245">
        <ele>231</ele>
        <time>2018-10-15T15:30:05Z</time>
      </trkpt>
      <trkpt lat="47.6647" lon="6.2124">
        <ele>231</ele>
        <time>2018-10-15T15:30:06Z</time>
      </trkpt>
      <trkpt lat="47.66464" lon="6.2123">
        <ele>231</ele>
        <time>2018-10-15T15:30:08Z</time>
      </trkpt>
      <trkpt lat="47.66458" lon="6.2122">
        <ele>231</ele>
        <time>2018-10-15T15:30:10Z</time>
      </trkpt>
      <trkpt lat="47.66453" lon="6.21211">
        <ele>231</ele>
        <time>2018-10-15T15:30:12Z</time>
      </trkpt>
      <trkpt lat="47.66448" lon="6.21202">
        <ele>231</ele>
        <time>2018-10-15T15:30:14Z</time>
      </trkpt>
      <trkpt lat="47.66444" lon="6.21194">
        <ele>231</ele>
        <time>2018-10-15T15:30:16Z</time>
      </trkpt>
      <trkpt lat="47.66439" lon="6.21184">
        <ele>231</ele>
        <time>2018-10-15T15:30:18Z</time>
      </trkpt>
      <trkpt lat="47.66433" lon="6.21176">
        <ele>230</ele>
        <time>2018-10-15T15:30:20Z</time>
      </trkpt>
      <trkpt lat="47.66427" lon="6.21167">
        <ele>230</ele>
        <time>2018-10-15T15:30:22Z</time>
      </trkpt>
      <trkpt lat="47.66423" lon="6.21161">
        <ele>231</ele>
        <time>2018-10-15T15:30:24Z</time>
      </trkpt>
      <trkpt lat="47.66419" lon="6.21154">
        <ele>232</ele>
        <time>2018-10-15T15:30:26Z</time>
      </trkpt>
      <trkpt lat="47.66415" lon="6.21147">
        <ele>231</ele>
        <time>2018-10-15T15:30:28Z</time>
      </trkpt>
      <trkpt lat="47.66413" lon="6.21141">
        <ele>231</ele>
        <time>2018-10-15T15:30:30Z</time>
      </trkpt>
      <trkpt lat="47.66408" lon="6.21135">
        <ele>231</ele>
        <time>2018-10-15T15:30:32Z</time>
      </trkpt>
      <trkpt lat="47.66404" lon="6.21129">
        <ele>231</ele>
        <time>2018-10-15T15:30:34Z</time>
      </trkpt>
      <trkpt lat="47.66402" lon="6.2112">
        <ele>232</ele>
        <time>2018-10-15T15:30:36Z</time>
      </trkpt>
      <trkpt lat="47.664" lon="6.21112">
        <ele>232</ele>
        <time>2018-10-15T15:30:38Z</time>
      </trkpt>
      <trkpt lat="47.66399" lon="6.21103">
        <ele>232</ele>
        <time>2018-10-15T15:30:40Z</time>
      </trkpt>
      <trkpt lat="47.66399" lon="6.21096">
        <ele>233</ele>
        <time>2018-10-15T15:31:11Z</time>
      </trkpt>
      <trkpt lat="47.66395" lon="6.21092">
        <ele>233</ele>
        <time>2018-10-15T15:31:28Z</time>
      </trkpt>
      <trkpt lat="47.66396" lon="6.21084">
        <ele>233</ele>
        <time>2018-10-15T15:31:32Z</time>
      </trkpt>
      <trkpt lat="47.66397" lon="6.21077">
        <ele>235</ele>
        <time>2018-10-15T15:31:34Z</time>
      </trkpt>
      <trkpt lat="47.66396" lon="6.21068">
        <ele>235</ele>
        <time>2018-10-15T15:31:37Z</time>
      </trkpt>
      <trkpt lat="47.66396" lon="6.2106">
        <ele>236</ele>
        <time>2018-10-15T15:31:40Z</time>
      </trkpt>
      <trkpt lat="47.66395" lon="6.21052">
        <ele>236</ele>
        <time>2018-10-15T15:31:43Z</time>
      </trkpt>
      <trkpt lat="47.66395" lon="6.21042">
        <ele>236</ele>
        <time>2018-10-15T15:31:46Z</time>
      </trkpt>
      <trkpt lat="47.66395" lon="6.21034">
        <ele>237</ele>
        <time>2018-10-15T15:31:49Z</time>
      </trkpt>
      <trkpt lat="47.66394" lon="6.21025">
        <ele>237</ele>
        <time>2018-10-15T15:31:52Z</time>
      </trkpt>
      <trkpt lat="47.66394" lon="6.21017">
        <ele>237</ele>
        <time>2018-10-15T15:31:55Z</time>
      </trkpt>
      <trkpt lat="47.66393" lon="6.21008">
        <ele>238</ele>
        <time>2018-10-15T15:31:58Z</time>
      </trkpt>
      <trkpt lat="47.66393" lon="6.21">
        <ele>240</ele>
        <time>2018-10-15T15:32:01Z</time>
      </trkpt>
      <trkpt lat="47.66392" lon="6.20991">
        <ele>240</ele>
        <time>2018-10-15T15:32:04Z</time>
      </trkpt>
      <trkpt lat="47.6639" lon="6.20984">
        <ele>240</ele>
        <time>2018-10-15T15:32:07Z</time>
      </trkpt>
      <trkpt lat="47.66389" lon="6.20976">
        <ele>240</ele>
        <time>2018-10-15T15:32:11Z</time>
      </trkpt>
      <trkpt lat="47.6639" lon="6.20969">
        <ele>240</ele>
        <time>2018-10-15T15:32:14Z</time>
      </trkpt>
      <trkpt lat="47.66394" lon="6.20962">
        <ele>240</ele>
        <time>2018-10-15T15:32:17Z</time>
      </trkpt>
      <trkpt lat="47.66397" lon="6.20957">
        <ele>240</ele>
        <time>2018-10-15T15:32:19Z</time>
      </trkpt>
      <trkpt lat="47.66401" lon="6.2095">
        <ele>241</ele>
        <time>2018-10-15T15:32:22Z</time>
      </trkpt>
      <trkpt lat="47.66403" lon="6.20943">
        <ele>241</ele>
        <time>2018-10-15T15:32:25Z</time>
      </trkpt>
      <trkpt lat="47.66402" lon="6.20936">
        <ele>242</ele>
        <time>2018-10-15T15:32:28Z</time>
      </trkpt>
      <trkpt lat="47.664" lon="6.2093">
        <ele>242</ele>
        <time>2018-10-15T15:32:30Z</time>
      </trkpt>
      <trkpt lat="47.66397" lon="6.20924">
        <ele>242</ele>
        <time>2018-10-15T15:32:32Z</time>
      </trkpt>
      <trkpt lat="47.66394" lon="6.20917">
        <ele>242</ele>
        <time>2018-10-15T15:32:35Z</time>
      </trkpt>
      <trkpt lat="47.66392" lon="6.2091">
        <ele>243</ele>
        <time>2018-10-15T15:32:38Z</time>
      </trkpt>
      <trkpt lat="47.66391" lon="6.20903">
        <ele>243</ele>
        <time>2018-10-15T15:32:41Z</time>
      </trkpt>
      <trkpt lat="47.66389" lon="6.20897">
        <ele>242</ele>
        <time>2018-10-15T15:32:44Z</time>
      </trkpt>
      <trkpt lat="47.66387" lon="6.2089">
        <ele>242</ele>
        <time>2018-10-15T15:32:48Z</time>
      </trkpt>
      <trkpt lat="47.66385" lon="6.20881">
        <ele>242</ele>
        <time>2018-10-15T15:32:51Z</time>
      </trkpt>
      <trkpt lat="47.66384" lon="6.20873">
        <ele>242</ele>
        <time>2018-10-15T15:32:54Z</time>
      </trkpt>
      <trkpt lat="47.66383" lon="6.20864">
        <ele>242</ele>
        <time>2018-10-15T15:32:56Z</time>
      </trkpt>
      <trkpt lat="47.6638" lon="6.20856">
        <ele>242</ele>
        <time>2018-10-15T15:32:58Z</time>
      </trkpt>
      <trkpt lat="47.66378" lon="6.20847">
        <ele>242</ele>
        <time>2018-10-15T15:33:01Z</time>
      </trkpt>
      <trkpt lat="47.66377" lon="6.20839">
        <ele>242</ele>
        <time>2018-10-15T15:33:03Z</time>
      </trkpt>
      <trkpt lat="47.66376" lon="6.20833">
        <ele>244</ele>
        <time>2018-10-15T15:33:05Z</time>
      </trkpt>
      <trkpt lat="47.66374" lon="6.20826">
        <ele>244</ele>
        <time>2018-10-15T15:33:07Z</time>
      </trkpt>
      <trkpt lat="47.66372" lon="6.2082">
        <ele>244</ele>
        <time>2018-10-15T15:33:09Z</time>
      </trkpt>
      <trkpt lat="47.6637" lon="6.20814">
        <ele>244</ele>
        <time>2018-10-15T15:33:11Z</time>
      </trkpt>
      <trkpt lat="47.66367" lon="6.20807">
        <ele>244</ele>
        <time>2018-10-15T15:33:14Z</time>
      </trkpt>
      <trkpt lat="47.66363" lon="6.20801">
        <ele>245</ele>
        <time>2018-10-15T15:33:17Z</time>
      </trkpt>
      <trkpt lat="47.66361" lon="6.20795">
        <ele>245</ele>
        <time>2018-10-15T15:33:20Z</time>
      </trkpt>
      <trkpt lat="47.66359" lon="6.20787">
        <ele>245</ele>
        <time>2018-10-15T15:33:23Z</time>
      </trkpt>
      <trkpt lat="47.66357" lon="6.20779">
        <ele>245</ele>
        <time>2018-10-15T15:33:26Z</time>
      </trkpt>
      <trkpt lat="47.66355" lon="6.20771">
        <ele>245</ele>
        <time>2018-10-15T15:33:29Z</time>
      </trkpt>
      <trkpt lat="47.66353" lon="6.20763">
        <ele>245</ele>
        <time>2018-10-15T15:33:32Z</time>
      </trkpt>
      <trkpt lat="47.66351" lon="6.20756">
        <ele>245</ele>
        <time>2018-10-15T15:33:35Z</time>
      </trkpt>
      <trkpt lat="47.66347" lon="6.20748">
        <ele>248</ele>
        <time>2018-10-15T15:33:38Z</time>
      </trkpt>
      <trkpt lat="47.66343" lon="6.20743">
        <ele>248</ele>
        <time>2018-10-15T15:33:42Z</time>
      </trkpt>
      <trkpt lat="47.66339" lon="6.2074">
        <ele>248</ele>
        <time>2018-10-15T15:33:46Z</time>
      </trkpt>
      <trkpt lat="47.66333" lon="6.20737">
        <ele>248</ele>
        <time>2018-10-15T15:33:50Z</time>
      </trkpt>
      <trkpt lat="47.66329" lon="6.20734">
        <ele>247</ele>
        <time>2018-10-15T15:33:53Z</time>
      </trkpt>
      <trkpt lat="47.66323" lon="6.20732">
        <ele>247</ele>
        <time>2018-10-15T15:33:57Z</time>
      </trkpt>
      <trkpt lat="47.66318" lon="6.20732">
        <ele>247</ele>
        <time>2018-10-15T15:34:01Z</time>
      </trkpt>
      <trkpt lat="47.66313" lon="6.20732">
        <ele>248</ele>
        <time>2018-10-15T15:34:04Z</time>
      </trkpt>
      <trkpt lat="47.66308" lon="6.2073">
        <ele>248</ele>
        <time>2018-10-15T15:34:07Z</time>
      </trkpt>
      <trkpt lat="47.66303" lon="6.20728">
        <ele>248</ele>
        <time>2018-10-15T15:34:10Z</time>
      </trkpt>
      <trkpt lat="47.66297" lon="6.20726">
        <ele>248</ele>
        <time>2018-10-15T15:34:14Z</time>
      </trkpt>
      <trkpt lat="47.66292" lon="6.20725">
        <ele>248</ele>
        <time>2018-10-15T15:34:18Z</time>
      </trkpt>
      <trkpt lat="47.66286" lon="6.20723">
        <ele>248</ele>
        <time>2018-10-15T15:34:22Z</time>
      </trkpt>
      <trkpt lat="47.66281" lon="6.20722">
        <ele>248</ele>
        <time>2018-10-15T15:34:26Z</time>
      </trkpt>
      <trkpt lat="47.66276" lon="6.2072">
        <ele>248</ele>
        <time>2018-10-15T15:34:29Z</time>
      </trkpt>
      <trkpt lat="47.66272" lon="6.20717">
        <ele>248</ele>
        <time>2018-10-15T15:34:32Z</time>
      </trkpt>
      <trkpt lat="47.66267" lon="6.20715">
        <ele>249</ele>
        <time>2018-10-15T15:34:35Z</time>
      </trkpt>
      <trkpt lat="47.66262" lon="6.20711">
        <ele>249</ele>
        <time>2018-10-15T15:34:39Z</time>
      </trkpt>
      <trkpt lat="47.66258" lon="6.20707">
        <ele>249</ele>
        <time>2018-10-15T15:34:43Z</time>
      </trkpt>
      <trkpt lat="47.66253" lon="6.20703">
        <ele>250</ele>
        <time>2018-10-15T15:34:47Z</time>
      </trkpt>
      <trkpt lat="47.6625" lon="6.20699">
        <ele>250</ele>
        <time>2018-10-15T15:34:50Z</time>
      </trkpt>
      <trkpt lat="47.66245" lon="6.20695">
        <ele>251</ele>
        <time>2018-10-15T15:34:54Z</time>
      </trkpt>
      <trkpt lat="47.66241" lon="6.20691">
        <ele>251</ele>
        <time>2018-10-15T15:34:58Z</time>
      </trkpt>
      <trkpt lat="47.66238" lon="6.20686">
        <ele>252</ele>
        <time>2018-10-15T15:35:03Z</time>
      </trkpt>
      <trkpt lat="47.66233" lon="6.20682">
        <ele>252</ele>
        <time>2018-10-15T15:35:08Z</time>
      </trkpt>
      <trkpt lat="47.66229" lon="6.20676">
        <ele>252</ele>
        <time>2018-10-15T15:35:13Z</time>
      </trkpt>
      <trkpt lat="47.66225" lon="6.20673">
        <ele>252</ele>
        <time>2018-10-15T15:35:17Z</time>
      </trkpt>
      <trkpt lat="47.66221" lon="6.2067">
        <ele>252</ele>
        <time>2018-10-15T15:35:21Z</time>
      </trkpt>
      <trkpt lat="47.66219" lon="6.20663">
        <ele>260</ele>
        <time>2018-10-15T15:35:25Z</time>
      </trkpt>
      <trkpt lat="47.66218" lon="6.20656">
        <ele>260</ele>
        <time>2018-10-15T15:35:30Z</time>
      </trkpt>
      <trkpt lat="47.66215" lon="6.2065">
        <ele>261</ele>
        <time>2018-10-15T15:35:34Z</time>
      </trkpt>
      <trkpt lat="47.66211" lon="6.20644">
        <ele>261</ele>
        <time>2018-10-15T15:35:38Z</time>
      </trkpt>
      <trkpt lat="47.66206" lon="6.20641">
        <ele>262</ele>
        <time>2018-10-15T15:35:42Z</time>
      </trkpt>
      <trkpt lat="47.66201" lon="6.20638">
        <ele>262</ele>
        <time>2018-10-15T15:35:46Z</time>
      </trkpt>
      <trkpt lat="47.66197" lon="6.20635">
        <ele>262</ele>
        <time>2018-10-15T15:35:51Z</time>
      </trkpt>
      <trkpt lat="47.66193" lon="6.20631">
        <ele>263</ele>
        <time>2018-10-15T15:35:56Z</time>
      </trkpt>
      <trkpt lat="47.66188" lon="6.20628">
        <ele>263</ele>
        <time>2018-10-15T15:36:00Z</time>
      </trkpt>
      <trkpt lat="47.66186" lon="6.2062">
        <ele>264</ele>
        <time>2018-10-15T15:36:05Z</time>
      </trkpt>
      <trkpt lat="47.66182" lon="6.20615">
        <ele>264</ele>
        <time>2018-10-15T15:36:10Z</time>
      </trkpt>
      <trkpt lat="47.66177" lon="6.20612">
        <ele>265</ele>
        <time>2018-10-15T15:36:14Z</time>
      </trkpt>
      <trkpt lat="47.66173" lon="6.20611">
        <ele>265</ele>
        <time>2018-10-15T15:36:17Z</time>
      </trkpt>
      <trkpt lat="47.66168" lon="6.20607">
        <ele>266</ele>
        <time>2018-10-15T15:36:21Z</time>
      </trkpt>
      <trkpt lat="47.66163" lon="6.20605">
        <ele>264</ele>
        <time>2018-10-15T15:36:25Z</time>
      </trkpt>
      <trkpt lat="47.66158" lon="6.20604">
        <ele>264</ele>
        <time>2018-10-15T15:36:28Z</time>
      </trkpt>
      <trkpt lat="47.66153" lon="6.20603">
        <ele>264</ele>
        <time>2018-10-15T15:36:32Z</time>
      </trkpt>
      <trkpt lat="47.66147" lon="6.206">
        <ele>264</ele>
        <time>2018-10-15T15:36:35Z</time>
      </trkpt>
      <trkpt lat="47.66142" lon="6.20597">
        <ele>264</ele>
        <time>2018-10-15T15:36:38Z</time>
      </trkpt>
      <trkpt lat="47.66137" lon="6.20594">
        <ele>263</ele>
        <time>2018-10-15T15:36:40Z</time>
      </trkpt>
      <trkpt lat="47.66132" lon="6.20592">
        <ele>263</ele>
        <time>2018-10-15T15:36:42Z</time>
      </trkpt>
      <trkpt lat="47.66127" lon="6.2059">
        <ele>263</ele>
        <time>2018-10-15T15:36:44Z</time>
      </trkpt>
      <trkpt lat="47.66121" lon="6.20586">
        <ele>262</ele>
        <time>2018-10-15T15:36:46Z</time>
      </trkpt>
      <trkpt lat="47.66114" lon="6.20582">
        <ele>271</ele>
        <time>2018-10-15T15:36:48Z</time>
      </trkpt>
      <trkpt lat="47.66107" lon="6.20578">
        <ele>270</ele>
        <time>2018-10-15T15:36:50Z</time>
      </trkpt>
      <trkpt lat="47.66098" lon="6.20573">
        <ele>269</ele>
        <time>2018-10-15T15:36:52Z</time>
      </trkpt>
      <trkpt lat="47.66094" lon="6.20571">
        <ele>269</ele>
        <time>2018-10-15T15:36:53Z</time>
      </trkpt>
      <trkpt lat="47.66089" lon="6.20569">
        <ele>269</ele>
        <time>2018-10-15T15:36:54Z</time>
      </trkpt>
      <trkpt lat="47.66084" lon="6.20566">
        <ele>269</ele>
        <time>2018-10-15T15:36:55Z</time>
      </trkpt>
      <trkpt lat="47.66076" lon="6.20562">
        <ele>265</ele>
        <time>2018-10-15T15:36:56Z</time>
      </trkpt>
      <trkpt lat="47.66069" lon="6.20558">
        <ele>266</ele>
        <time>2018-10-15T15:36:58Z</time>
      </trkpt>
      <trkpt lat="47.66063" lon="6.20554">
        <ele>266</ele>
        <time>2018-10-15T15:37:00Z</time>
      </trkpt>
      <trkpt lat="47.66056" lon="6.20552">
        <ele>266</ele>
        <time>2018-10-15T15:37:03Z</time>
      </trkpt>
      <trkpt lat="47.66052" lon="6.20548">
        <ele>266</ele>
        <time>2018-10-15T15:37:05Z</time>
      </trkpt>
      <trkpt lat="47.66046" lon="6.20544">
        <ele>266</ele>
        <time>2018-10-15T15:37:07Z</time>
      </trkpt>
      <trkpt lat="47.66035" lon="6.20537">
        <ele>266</ele>
        <time>2018-10-15T15:37:09Z</time>
      </trkpt>
      <trkpt lat="47.66027" lon="6.20533">
        <ele>266</ele>
        <time>2018-10-15T15:37:11Z</time>
      </trkpt>
      <trkpt lat="47.6602" lon="6.20529">
        <ele>266</ele>
        <time>2018-10-15T15:37:13Z</time>
      </trkpt>
      <trkpt lat="47.66013" lon="6.20525">
        <ele>266</ele>
        <time>2018-10-15T15:37:15Z</time>
      </trkpt>
      <trkpt lat="47.66006" lon="6.20522">
        <ele>266</ele>
        <time>2018-10-15T15:37:17Z</time>
      </trkpt>
      <trkpt lat="47.66" lon="6.20519">
        <ele>262</ele>
        <time>2018-10-15T15:37:19Z</time>
      </trkpt>
      <trkpt lat="47.65994" lon="6.20516">
        <ele>262</ele>
        <time>2018-10-15T15:37:21Z</time>
      </trkpt>
      <trkpt lat="47.65989" lon="6.20514">
        <ele>262</ele>
        <time>2018-10-15T15:37:23Z</time>
      </trkpt>
      <trkpt lat="47.65983" lon="6.20511">
        <ele>262</ele>
        <time>2018-10-15T15:37:25Z</time>
      </trkpt>
      <trkpt lat="47.65978" lon="6.20508">
        <ele>261</ele>
        <time>2018-10-15T15:37:27Z</time>
      </trkpt>
      <trkpt lat="47.65972" lon="6.20504">
        <ele>261</ele>
        <time>2018-10-15T15:37:29Z</time>
      </trkpt>
      <trkpt lat="47.65967" lon="6.205">
        <ele>268</ele>
        <time>2018-10-15T15:37:31Z</time>
      </trkpt>
      <trkpt lat="47.65961" lon="6.20495">
        <ele>268</ele>
        <time>2018-10-15T15:37:33Z</time>
      </trkpt>
      <trkpt lat="47.65956" lon="6.20491">
        <ele>268</ele>
        <time>2018-10-15T15:37:35Z</time>
      </trkpt>
      <trkpt lat="47.6595" lon="6.20486">
        <ele>267</ele>
        <time>2018-10-15T15:37:37Z</time>
      </trkpt>
      <trkpt lat="47.65944" lon="6.20481">
        <ele>267</ele>
        <time>2018-10-15T15:37:39Z</time>
      </trkpt>
      <trkpt lat="47.65938" lon="6.20477">
        <ele>267</ele>
        <time>2018-10-15T15:37:41Z</time>
      </trkpt>
      <trkpt lat="47.65932" lon="6.20473">
        <ele>267</ele>
        <time>2018-10-15T15:37:43Z</time>
      </trkpt>
      <trkpt lat="47.65926" lon="6.20469">
        <ele>267</ele>
        <time>2018-10-15T15:37:45Z</time>
      </trkpt>
      <trkpt lat="47.6592" lon="6.20464">
        <ele>268</ele>
        <time>2018-10-15T15:37:47Z</time>
      </trkpt>
      <trkpt lat="47.65913" lon="6.20459">
        <ele>263</ele>
        <time>2018-10-15T15:37:49Z</time>
      </trkpt>
      <trkpt lat="47.65907" lon="6.20452">
        <ele>263</ele>
        <time>2018-10-15T15:37:51Z</time>
      </trkpt>
      <trkpt lat="47.65901" lon="6.20447">
        <ele>264</ele>
        <time>2018-10-15T15:37:53Z</time>
      </trkpt>
      <trkpt lat="47.65896" lon="6.20441">
        <ele>264</ele>
        <time>2018-10-15T15:37:55Z</time>
      </trkpt>
      <trkpt lat="47.6589" lon="6.20436">
        <ele>264</ele>
        <time>2018-10-15T15:37:57Z</time>
      </trkpt>
      <trkpt lat="47.65885" lon="6.20431">
        <ele>264</ele>
        <time>2018-10-15T15:37:59Z</time>
      </trkpt>
      <trkpt lat="47.65879" lon="6.20426">
        <ele>263</ele>
        <time>2018-10-15T15:38:01Z</time>
      </trkpt>
      <trkpt lat="47.65873" lon="6.20419">
        <ele>263</ele>
        <time>2018-10-15T15:38:03Z</time>
      </trkpt>
      <trkpt lat="47.65862" lon="6.20407">
        <ele>268</ele>
        <time>2018-10-15T15:38:05Z</time>
      </trkpt>
      <trkpt lat="47.65857" lon="6.20404">
        <ele>268</ele>
        <time>2018-10-15T15:38:06Z</time>
      </trkpt>
      <trkpt lat="47.6585" lon="6.20396">
        <ele>268</ele>
        <time>2018-10-15T15:38:08Z</time>
      </trkpt>
      <trkpt lat="47.65843" lon="6.20389">
        <ele>268</ele>
        <time>2018-10-15T15:38:10Z</time>
      </trkpt>
      <trkpt lat="47.65839" lon="6.20385">
        <ele>269</ele>
        <time>2018-10-15T15:38:11Z</time>
      </trkpt>
      <trkpt lat="47.65832" lon="6.20378">
        <ele>263</ele>
        <time>2018-10-15T15:38:13Z</time>
      </trkpt>
      <trkpt lat="47.65826" lon="6.20372">
        <ele>264</ele>
        <time>2018-10-15T15:38:15Z</time>
      </trkpt>
      <trkpt lat="47.65821" lon="6.20366">
        <ele>264</ele>
        <time>2018-10-15T15:38:17Z</time>
      </trkpt>
      <trkpt lat="47.65816" lon="6.2036">
        <ele>264</ele>
        <time>2018-10-15T15:38:19Z</time>
      </trkpt>
      <trkpt lat="47.65811" lon="6.20354">
        <ele>264</ele>
        <time>2018-10-15T15:38:22Z</time>
      </trkpt>
      <trkpt lat="47.65807" lon="6.2035">
        <ele>264</ele>
        <time>2018-10-15T15:38:24Z</time>
      </trkpt>
      <trkpt lat="47.65802" lon="6.20344">
        <ele>264</ele>
        <time>2018-10-15T15:38:27Z</time>
      </trkpt>
      <trkpt lat="47.65797" lon="6.20339">
        <ele>264</ele>
        <time>2018-10-15T15:38:30Z</time>
      </trkpt>
      <trkpt lat="47.65792" lon="6.20335">
        <ele>264</ele>
        <time>2018-10-15T15:38:33Z</time>
      </trkpt>
      <trkpt lat="47.65788" lon="6.2033">
        <ele>271</ele>
        <time>2018-10-15T15:38:36Z</time>
      </trkpt>
      <trkpt lat="47.65783" lon="6.20326">
        <ele>271</ele>
        <time>2018-10-15T15:38:39Z</time>
      </trkpt>
      <trkpt lat="47.65777" lon="6.20322">
        <ele>271</ele>
        <time>2018-10-15T15:38:42Z</time>
      </trkpt>
      <trkpt lat="47.65772" lon="6.20318">
        <ele>270</ele>
        <time>2018-10-15T15:38:44Z</time>
      </trkpt>
      <trkpt lat="47.65768" lon="6.20314">
        <ele>270</ele>
        <time>2018-10-15T15:38:46Z</time>
      </trkpt>
      <trkpt lat="47.65764" lon="6.2031">
        <ele>271</ele>
        <time>2018-10-15T15:38:48Z</time>
      </trkpt>
      <trkpt lat="47.6576" lon="6.20306">
        <ele>271</ele>
        <time>2018-10-15T15:38:50Z</time>
      </trkpt>
      <trkpt lat="47.65756" lon="6.20301">
        <ele>272</ele>
        <time>2018-10-15T15:38:52Z</time>
      </trkpt>
      <trkpt lat="47.65751" lon="6.20297">
        <ele>272</ele>
        <time>2018-10-15T15:38:54Z</time>
      </trkpt>
      <trkpt lat="47.65746" lon="6.20292">
        <ele>269</ele>
        <time>2018-10-15T15:38:57Z</time>
      </trkpt>
      <trkpt lat="47.65741" lon="6.20288">
        <ele>269</ele>
        <time>2018-10-15T15:39:00Z</time>
      </trkpt>
      <trkpt lat="47.65737" lon="6.20283">
        <ele>269</ele>
        <time>2018-10-15T15:39:03Z</time>
      </trkpt>
      <trkpt lat="47.65733" lon="6.20279">
        <ele>270</ele>
        <time>2018-10-15T15:39:06Z</time>
      </trkpt>
      <trkpt lat="47.65729" lon="6.20275">
        <ele>270</ele>
        <time>2018-10-15T15:39:09Z</time>
      </trkpt>
      <trkpt lat="47.65724" lon="6.2027">
        <ele>270</ele>
        <time>2018-10-15T15:39:13Z</time>
      </trkpt>
      <trkpt lat="47.6572" lon="6.20265">
        <ele>270</ele>
        <time>2018-10-15T15:39:16Z</time>
      </trkpt>
      <trkpt lat="47.65716" lon="6.20259">
        <ele>270</ele>
        <time>2018-10-15T15:39:19Z</time>
      </trkpt>
      <trkpt lat="47.65712" lon="6.20255">
        <ele>270</ele>
        <time>2018-10-15T15:39:22Z</time>
      </trkpt>
      <trkpt lat="47.65708" lon="6.20249">
        <ele>276</ele>
        <time>2018-10-15T15:39:25Z</time>
      </trkpt>
      <trkpt lat="47.65704" lon="6.20245">
        <ele>276</ele>
        <time>2018-10-15T15:39:27Z</time>
      </trkpt>
      <trkpt lat="47.65701" lon="6.20241">
        <ele>275</ele>
        <time>2018-10-15T15:39:29Z</time>
      </trkpt>
      <trkpt lat="47.65697" lon="6.20236">
        <ele>275</ele>
        <time>2018-10-15T15:39:31Z</time>
      </trkpt>
      <trkpt lat="47.65693" lon="6.20232">
        <ele>275</ele>
        <time>2018-10-15T15:39:33Z</time>
      </trkpt>
      <trkpt lat="47.6569" lon="6.20227">
        <ele>275</ele>
        <time>2018-10-15T15:39:35Z</time>
      </trkpt>
      <trkpt lat="47.65686" lon="6.20223">
        <ele>275</ele>
        <time>2018-10-15T15:39:37Z</time>
      </trkpt>
      <trkpt lat="47.65682" lon="6.20218">
        <ele>275</ele>
        <time>2018-10-15T15:39:39Z</time>
      </trkpt>
      <trkpt lat="47.65678" lon="6.20213">
        <ele>275</ele>
        <time>2018-10-15T15:39:41Z</time>
      </trkpt>
      <trkpt lat="47.65674" lon="6.20208">
        <ele>275</ele>
        <time>2018-10-15T15:39:43Z</time>
      </trkpt>
      <trkpt lat="47.6567" lon="6.20203">
        <ele>275</ele>
        <time>2018-10-15T15:39:45Z</time>
      </trkpt>
      <trkpt lat="47.65666" lon="6.20198">
        <ele>270</ele>
        <time>2018-10-15T15:39:47Z</time>
      </trkpt>
      <trkpt lat="47.65662" lon="6.20193">
        <ele>271</ele>
        <time>2018-10-15T15:39:49Z</time>
      </trkpt>
      <trkpt lat="47.65659" lon="6.20189">
        <ele>271</ele>
        <time>2018-10-15T15:39:51Z</time>
      </trkpt>
      <trkpt lat="47.65653" lon="6.20183">
        <ele>271</ele>
        <time>2018-10-15T15:39:54Z</time>
      </trkpt>
      <trkpt lat="47.6565" lon="6.20178">
        <ele>271</ele>
        <time>2018-10-15T15:39:56Z</time>
      </trkpt>
      <trkpt lat="47.65645" lon="6.20172">
        <ele>271</ele>
        <time>2018-10-15T15:39:59Z</time>
      </trkpt>
      <trkpt lat="47.65641" lon="6.20164">
        <ele>273</ele>
        <time>2018-10-15T15:40:02Z</time>
      </trkpt>
      <trkpt lat="47.65637" lon="6.20157">
        <ele>273</ele>
        <time>2018-10-15T15:40:05Z</time>
      </trkpt>
      <trkpt lat="47.65634" lon="6.2015">
        <ele>273</ele>
        <time>2018-10-15T15:40:08Z</time>
      </trkpt>
      <trkpt lat="47.6563" lon="6.20147">
        <ele>273</ele>
        <time>2018-10-15T15:40:10Z</time>
      </trkpt>
      <trkpt lat="47.65624" lon="6.20143">
        <ele>273</ele>
        <time>2018-10-15T15:40:13Z</time>
      </trkpt>
      <trkpt lat="47.65618" lon="6.20138">
        <ele>273</ele>
        <time>2018-10-15T15:40:15Z</time>
      </trkpt>
      <trkpt lat="47.65613" lon="6.20132">
        <ele>273</ele>
        <time>2018-10-15T15:40:17Z</time>
      </trkpt>
      <trkpt lat="47.65607" lon="6.20127">
        <ele>273</ele>
        <time>2018-10-15T15:40:19Z</time>
      </trkpt>
      <trkpt lat="47.65602" lon="6.20122">
        <ele>273</ele>
        <time>2018-10-15T15:40:21Z</time>
      </trkpt>
      <trkpt lat="47.65598" lon="6.20117">
        <ele>273</ele>
        <time>2018-10-15T15:40:23Z</time>
      </trkpt>
      <trkpt lat="47.65593" lon="6.20112">
        <ele>273</ele>
        <time>2018-10-15T15:40:25Z</time>
      </trkpt>
      <trkpt lat="47.65587" lon="6.20107">
        <ele>273</ele>
        <time>2018-10-15T15:40:27Z</time>
      </trkpt>
      <trkpt lat="47.65582" lon="6.20101">
        <ele>269</ele>
        <time>2018-10-15T15:40:29Z</time>
      </trkpt>
      <trkpt lat="47.65575" lon="6.20095">
        <ele>269</ele>
        <time>2018-10-15T15:40:31Z</time>
      </trkpt>
      <trkpt lat="47.65569" lon="6.20088">
        <ele>269</ele>
        <time>2018-10-15T15:40:33Z</time>
      </trkpt>
      <trkpt lat="47.65563" lon="6.20082">
        <ele>271</ele>
        <time>2018-10-15T15:40:35Z</time>
      </trkpt>
      <trkpt lat="47.65557" lon="6.20075">
        <ele>271</ele>
        <time>2018-10-15T15:40:37Z</time>
      </trkpt>
      <trkpt lat="47.65552" lon="6.20069">
        <ele>270</ele>
        <time>2018-10-15T15:40:39Z</time>
      </trkpt>
      <trkpt lat="47.65546" lon="6.20062">
        <ele>270</ele>
        <time>2018-10-15T15:40:41Z</time>
      </trkpt>
      <trkpt lat="47.6554" lon="6.20055">
        <ele>270</ele>
        <time>2018-10-15T15:40:43Z</time>
      </trkpt>
      <trkpt lat="47.65534" lon="6.20049">
        <ele>270</ele>
        <time>2018-10-15T15:40:45Z</time>
      </trkpt>
      <trkpt lat="47.65528" lon="6.20043">
        <ele>270</ele>
        <time>2018-10-15T15:40:47Z</time>
      </trkpt>
      <trkpt lat="47.65524" lon="6.20037">
        <ele>270</ele>
        <time>2018-10-15T15:40:49Z</time>
      </trkpt>
      <trkpt lat="47.65519" lon="6.20032">
        <ele>270</ele>
        <time>2018-10-15T15:40:51Z</time>
      </trkpt>
      <trkpt lat="47.65515" lon="6.20026">
        <ele>270</ele>
        <time>2018-10-15T15:40:53Z</time>
      </trkpt>
      <trkpt lat="47.65511" lon="6.20021">
        <ele>270</ele>
        <time>2018-10-15T15:40:55Z</time>
      </trkpt>
      <trkpt lat="47.65507" lon="6.20015">
        <ele>270</ele>
        <time>2018-10-15T15:40:57Z</time>
      </trkpt>
      <trkpt lat="47.65502" lon="6.20009">
        <ele>269</ele>
        <time>2018-10-15T15:40:59Z</time>
      </trkpt>
      <trkpt lat="47.65498" lon="6.20002">
        <ele>268</ele>
        <time>2018-10-15T15:41:01Z</time>
      </trkpt>
      <trkpt lat="47.65494" lon="6.19995">
        <ele>268</ele>
        <time>2018-10-15T15:41:03Z</time>
      </trkpt>
      <trkpt lat="47.65489" lon="6.19989">
        <ele>267</ele>
        <time>2018-10-15T15:41:05Z</time>
      </trkpt>
      <trkpt lat="47.65483" lon="6.1998">
        <ele>266</ele>
        <time>2018-10-15T15:41:07Z</time>
      </trkpt>
      <trkpt lat="47.65478" lon="6.19971">
        <ele>266</ele>
        <time>2018-10-15T15:41:09Z</time>
      </trkpt>
      <trkpt lat="47.65472" lon="6.19962">
        <ele>266</ele>
        <time>2018-10-15T15:41:11Z</time>
      </trkpt>
      <trkpt lat="47.65468" lon="6.19954">
        <ele>265</ele>
        <time>2018-10-15T15:41:13Z</time>
      </trkpt>
      <trkpt lat="47.65465" lon="6.19946">
        <ele>266</ele>
        <time>2018-10-15T15:41:15Z</time>
      </trkpt>
      <trkpt lat="47.65462" lon="6.19938">
        <ele>266</ele>
        <time>2018-10-15T15:41:17Z</time>
      </trkpt>
      <trkpt lat="47.65459" lon="6.19931">
        <ele>266</ele>
        <time>2018-10-15T15:41:19Z</time>
      </trkpt>
      <trkpt lat="47.65456" lon="6.19925">
        <ele>266</ele>
        <time>2018-10-15T15:41:21Z</time>
      </trkpt>
      <trkpt lat="47.65453" lon="6.19917">
        <ele>265</ele>
        <time>2018-10-15T15:41:23Z</time>
      </trkpt>
      <trkpt lat="47.65449" lon="6.19908">
        <ele>269</ele>
        <time>2018-10-15T15:41:25Z</time>
      </trkpt>
      <trkpt lat="47.65446" lon="6.199">
        <ele>269</ele>
        <time>2018-10-15T15:41:27Z</time>
      </trkpt>
      <trkpt lat="47.65443" lon="6.19892">
        <ele>270</ele>
        <time>2018-10-15T15:41:29Z</time>
      </trkpt>
      <trkpt lat="47.65441" lon="6.19886">
        <ele>270</ele>
        <time>2018-10-15T15:41:31Z</time>
      </trkpt>
      <trkpt lat="47.65438" lon="6.19879">
        <ele>270</ele>
        <time>2018-10-15T15:41:33Z</time>
      </trkpt>
      <trkpt lat="47.65436" lon="6.19873">
        <ele>271</ele>
        <time>2018-10-15T15:41:35Z</time>
      </trkpt>
      <trkpt lat="47.65433" lon="6.19864">
        <ele>271</ele>
        <time>2018-10-15T15:41:38Z</time>
      </trkpt>
      <trkpt lat="47.65431" lon="6.19857">
        <ele>271</ele>
        <time>2018-10-15T15:41:40Z</time>
      </trkpt>
      <trkpt lat="47.65428" lon="6.1985">
        <ele>271</ele>
        <time>2018-10-15T15:41:42Z</time>
      </trkpt>
      <trkpt lat="47.65424" lon="6.19842">
        <ele>272</ele>
        <time>2018-10-15T15:41:44Z</time>
      </trkpt>
      <trkpt lat="47.6542" lon="6.19835">
        <ele>272</ele>
        <time>2018-10-15T15:41:46Z</time>
      </trkpt>
      <trkpt lat="47.65416" lon="6.19827">
        <ele>271</ele>
        <time>2018-10-15T15:41:48Z</time>
      </trkpt>
      <trkpt lat="47.65411" lon="6.19818">
        <ele>270</ele>
        <time>2018-10-15T15:41:50Z</time>
      </trkpt>
      <trkpt lat="47.65406" lon="6.19809">
        <ele>270</ele>
        <time>2018-10-15T15:41:52Z</time>
      </trkpt>
      <trkpt lat="47.654" lon="6.19799">
        <ele>270</ele>
        <time>2018-10-15T15:41:54Z</time>
      </trkpt>
      <trkpt lat="47.65394" lon="6.1979">
        <ele>269</ele>
        <time>2018-10-15T15:41:56Z</time>
      </trkpt>
      <trkpt lat="47.65388" lon="6.1978">
        <ele>269</ele>
        <time>2018-10-15T15:41:58Z</time>
      </trkpt>
      <trkpt lat="47.65383" lon="6.1977">
        <ele>269</ele>
        <time>2018-10-15T15:42:00Z</time>
      </trkpt>
      <trkpt lat="47.65378" lon="6.19761">
        <ele>269</ele>
        <time>2018-10-15T15:42:02Z</time>
      </trkpt>
      <trkpt lat="47.65374" lon="6.19753">
        <ele>269</ele>
        <time>2018-10-15T15:42:04Z</time>
      </trkpt>
      <trkpt lat="47.6537" lon="6.19744">
        <ele>271</ele>
        <time>2018-10-15T15:42:06Z</time>
      </trkpt>
      <trkpt lat="47.65365" lon="6.19734">
        <ele>271</ele>
        <time>2018-10-15T15:42:08Z</time>
      </trkpt>
      <trkpt lat="47.65361" lon="6.19723">
        <ele>271</ele>
        <time>2018-10-15T15:42:10Z</time>
      </trkpt>
      <trkpt lat="47.65357" lon="6.19711">
        <ele>271</ele>
        <time>2018-10-15T15:42:12Z</time>
      </trkpt>
      <trkpt lat="47.65354" lon="6.19703">
        <ele>272</ele>
        <time>2018-10-15T15:42:14Z</time>
      </trkpt>
      <trkpt lat="47.6535" lon="6.19694">
        <ele>272</ele>
        <time>2018-10-15T15:42:16Z</time>
      </trkpt>
      <trkpt lat="47.65346" lon="6.19686">
        <ele>271</ele>
        <time>2018-10-15T15:42:18Z</time>
      </trkpt>
      <trkpt lat="47.65343" lon="6.19677">
        <ele>271</ele>
        <time>2018-10-15T15:42:20Z</time>
      </trkpt>
      <trkpt lat="47.6534" lon="6.19668">
        <ele>271</ele>
        <time>2018-10-15T15:42:22Z</time>
      </trkpt>
      <trkpt lat="47.65336" lon="6.19659">
        <ele>272</ele>
        <time>2018-10-15T15:42:24Z</time>
      </trkpt>
      <trkpt lat="47.65332" lon="6.19649">
        <ele>270</ele>
        <time>2018-10-15T15:42:26Z</time>
      </trkpt>
      <trkpt lat="47.65328" lon="6.19639">
        <ele>270</ele>
        <time>2018-10-15T15:42:28Z</time>
      </trkpt>
      <trkpt lat="47.65323" lon="6.19627">
        <ele>270</ele>
        <time>2018-10-15T15:42:30Z</time>
      </trkpt>
      <trkpt lat="47.65321" lon="6.19621">
        <ele>270</ele>
        <time>2018-10-15T15:42:31Z</time>
      </trkpt>
      <trkpt lat="47.65317" lon="6.19611">
        <ele>270</ele>
        <time>2018-10-15T15:42:33Z</time>
      </trkpt>
      <trkpt lat="47.65313" lon="6.19601">
        <ele>271</ele>
        <time>2018-10-15T15:42:35Z</time>
      </trkpt>
      <trkpt lat="47.65311" lon="6.19592">
        <ele>271</ele>
        <time>2018-10-15T15:42:37Z</time>
      </trkpt>
      <trkpt lat="47.65308" lon="6.19584">
        <ele>271</ele>
        <time>2018-10-15T15:42:39Z</time>
      </trkpt>
      <trkpt lat="47.65305" lon="6.19575">
        <ele>271</ele>
        <time>2018-10-15T15:42:41Z</time>
      </trkpt>
      <trkpt lat="47.65301" lon="6.19567">
        <ele>271</ele>
        <time>2018-10-15T15:42:43Z</time>
      </trkpt>
      <trkpt lat="47.65298" lon="6.1956">
        <ele>271</ele>
        <time>2018-10-15T15:42:45Z</time>
      </trkpt>
      <trkpt lat="47.65294" lon="6.19555">
        <ele>271</ele>
        <time>2018-10-15T15:42:47Z</time>
      </trkpt>
      <trkpt lat="47.65291" lon="6.1955">
        <ele>271</ele>
        <time>2018-10-15T15:42:49Z</time>
      </trkpt>
      <trkpt lat="47.65288" lon="6.19542">
        <ele>271</ele>
        <time>2018-10-15T15:42:52Z</time>
      </trkpt>
      <trkpt lat="47.65286" lon="6.19534">
        <ele>271</ele>
        <time>2018-10-15T15:42:55Z</time>
      </trkpt>
      <trkpt lat="47.65286" lon="6.19525">
        <ele>271</ele>
        <time>2018-10-15T15:42:58Z</time>
      </trkpt>
      <trkpt lat="47.65285" lon="6.19516">
        <ele>271</ele>
        <time>2018-10-15T15:43:00Z</time>
      </trkpt>
      <trkpt lat="47.65283" lon="6.19508">
        <ele>271</ele>
        <time>2018-10-15T15:43:02Z</time>
      </trkpt>
      <trkpt lat="47.65281" lon="6.195">
        <ele>270</ele>
        <time>2018-10-15T15:43:04Z</time>
      </trkpt>
      <trkpt lat="47.65278" lon="6.19491">
        <ele>270</ele>
        <time>2018-10-15T15:43:06Z</time>
      </trkpt>
      <trkpt lat="47.65274" lon="6.19485">
        <ele>270</ele>
        <time>2018-10-15T15:43:08Z</time>
      </trkpt>
      <trkpt lat="47.65271" lon="6.19479">
        <ele>270</ele>
        <time>2018-10-15T15:43:10Z</time>
      </trkpt>
      <trkpt lat="47.65268" lon="6.19473">
        <ele>270</ele>
        <time>2018-10-15T15:43:12Z</time>
      </trkpt>
      <trkpt lat="47.65264" lon="6.19467">
        <ele>270</ele>
        <time>2018-10-15T15:43:14Z</time>
      </trkpt>
      <trkpt lat="47.6526" lon="6.19461">
        <ele>270</ele>
        <time>2018-10-15T15:43:16Z</time>
      </trkpt>
      <trkpt lat="47.65256" lon="6.19455">
        <ele>270</ele>
        <time>2018-10-15T15:43:18Z</time>
      </trkpt>
      <trkpt lat="47.65252" lon="6.19449">
        <ele>270</ele>
        <time>2018-10-15T15:43:20Z</time>
      </trkpt>
      <trkpt lat="47.65247" lon="6.19444">
        <ele>267</ele>
        <time>2018-10-15T15:43:22Z</time>
      </trkpt>
      <trkpt lat="47.65242" lon="6.19439">
        <ele>267</ele>
        <time>2018-10-15T15:43:24Z</time>
      </trkpt>
      <trkpt lat="47.65238" lon="6.19432">
        <ele>267</ele>
        <time>2018-10-15T15:43:26Z</time>
      </trkpt>
      <trkpt lat="47.65233" lon="6.19426">
        <ele>267</ele>
        <time>2018-10-15T15:43:28Z</time>
      </trkpt>
      <trkpt lat="47.65228" lon="6.19417">
        <ele>267</ele>
        <time>2018-10-15T15:43:30Z</time>
      </trkpt>
      <trkpt lat="47.65223" lon="6.19408">
        <ele>268</ele>
        <time>2018-10-15T15:43:32Z</time>
      </trkpt>
      <trkpt lat="47.65219" lon="6.194">
        <ele>268</ele>
        <time>2018-10-15T15:43:34Z</time>
      </trkpt>
      <trkpt lat="47.65215" lon="6.19393">
        <ele>268</ele>
        <time>2018-10-15T15:43:36Z</time>
      </trkpt>
      <trkpt lat="47.65211" lon="6.19386">
        <ele>268</ele>
        <time>2018-10-15T15:43:38Z</time>
      </trkpt>
      <trkpt lat="47.65207" lon="6.19378">
        <ele>268</ele>
        <time>2018-10-15T15:43:40Z</time>
      </trkpt>
      <trkpt lat="47.65203" lon="6.19372">
        <ele>268</ele>
        <time>2018-10-15T15:43:42Z</time>
      </trkpt>
      <trkpt lat="47.652" lon="6.19365">
        <ele>268</ele>
        <time>2018-10-15T15:43:44Z</time>
      </trkpt>
      <trkpt lat="47.65196" lon="6.19357">
        <ele>268</ele>
        <time>2018-10-15T15:43:46Z</time>
      </trkpt>
      <trkpt lat="47.65192" lon="6.1935">
        <ele>268</ele>
        <time>2018-10-15T15:43:48Z</time>
      </trkpt>
      <trkpt lat="47.65188" lon="6.19343">
        <ele>268</ele>
        <time>2018-10-15T15:43:50Z</time>
      </trkpt>
      <trkpt lat="47.65183" lon="6.19336">
        <ele>268</ele>
        <time>2018-10-15T15:43:52Z</time>
      </trkpt>
      <trkpt lat="47.65179" lon="6.19329">
        <ele>269</ele>
        <time>2018-10-15T15:43:54Z</time>
      </trkpt>
      <trkpt lat="47.65174" lon="6.19323">
        <ele>269</ele>
        <time>2018-10-15T15:43:56Z</time>
      </trkpt>
      <trkpt lat="47.6517" lon="6.19317">
        <ele>269</ele>
        <time>2018-10-15T15:43:58Z</time>
      </trkpt>
      <trkpt lat="47.65166" lon="6.19312">
        <ele>268</ele>
        <time>2018-10-15T15:44:00Z</time>
      </trkpt>
      <trkpt lat="47.6516" lon="6.19306">
        <ele>268</ele>
        <time>2018-10-15T15:44:02Z</time>
      </trkpt>
      <trkpt lat="47.65156" lon="6.19301">
        <ele>268</ele>
        <time>2018-10-15T15:44:04Z</time>
      </trkpt>
      <trkpt lat="47.65151" lon="6.19296">
        <ele>268</ele>
        <time>2018-10-15T15:44:06Z</time>
      </trkpt>
      <trkpt lat="47.65146" lon="6.19291">
        <ele>268</ele>
        <time>2018-10-15T15:44:08Z</time>
      </trkpt>
      <trkpt lat="47.65141" lon="6.19285">
        <ele>268</ele>
        <time>2018-10-15T15:44:10Z</time>
      </trkpt>
      <trkpt lat="47.65135" lon="6.19279">
        <ele>268</ele>
        <time>2018-10-15T15:44:12Z</time>
      </trkpt>
      <trkpt lat="47.65131" lon="6.19273">
        <ele>268</ele>
        <time>2018-10-15T15:44:14Z</time>
      </trkpt>
      <trkpt lat="47.65125" lon="6.19267">
        <ele>268</ele>
        <time>2018-10-15T15:44:16Z</time>
      </trkpt>
      <trkpt lat="47.6512" lon="6.1926">
        <ele>268</ele>
        <time>2018-10-15T15:44:18Z</time>
      </trkpt>
      <trkpt lat="47.65116" lon="6.19255">
        <ele>268</ele>
        <time>2018-10-15T15:44:19Z</time>
      </trkpt>
      <trkpt lat="47.65109" lon="6.19245">
        <ele>268</ele>
        <time>2018-10-15T15:44:20Z</time>
      </trkpt>
      <trkpt lat="47.65106" lon="6.1924">
        <ele>268</ele>
        <time>2018-10-15T15:44:21Z</time>
      </trkpt>
      <trkpt lat="47.65102" lon="6.19234">
        <ele>268</ele>
        <time>2018-10-15T15:44:22Z</time>
      </trkpt>
      <trkpt lat="47.65099" lon="6.19228">
        <ele>268</ele>
        <time>2018-10-15T15:44:23Z</time>
      </trkpt>
      <trkpt lat="47.65095" lon="6.19223">
        <ele>268</ele>
        <time>2018-10-15T15:44:24Z</time>
      </trkpt>
      <trkpt lat="47.65092" lon="6.19218">
        <ele>268</ele>
        <time>2018-10-15T15:44:25Z</time>
      </trkpt>
      <trkpt lat="47.65086" lon="6.19209">
        <ele>268</ele>
        <time>2018-10-15T15:44:27Z</time>
      </trkpt>
      <trkpt lat="47.65082" lon="6.19204">
        <ele>266</ele>
        <time>2018-10-15T15:44:28Z</time>
      </trkpt>
      <trkpt lat="47.65079" lon="6.19199">
        <ele>266</ele>
        <time>2018-10-15T15:44:29Z</time>
      </trkpt>
      <trkpt lat="47.65076" lon="6.19195">
        <ele>266</ele>
        <time>2018-10-15T15:44:30Z</time>
      </trkpt>
      <trkpt lat="47.6507" lon="6.19186">
        <ele>266</ele>
        <time>2018-10-15T15:44:32Z</time>
      </trkpt>
      <trkpt lat="47.65064" lon="6.19177">
        <ele>266</ele>
        <time>2018-10-15T15:44:34Z</time>
      </trkpt>
      <trkpt lat="47.65058" lon="6.19168">
        <ele>265</ele>
        <time>2018-10-15T15:44:36Z</time>
      </trkpt>
      <trkpt lat="47.65053" lon="6.19159">
        <ele>266</ele>
        <time>2018-10-15T15:44:38Z</time>
      </trkpt>
      <trkpt lat="47.65046" lon="6.1915">
        <ele>266</ele>
        <time>2018-10-15T15:44:40Z</time>
      </trkpt>
      <trkpt lat="47.6504" lon="6.1914">
        <ele>265</ele>
        <time>2018-10-15T15:44:42Z</time>
      </trkpt>
      <trkpt lat="47.65037" lon="6.19135">
        <ele>265</ele>
        <time>2018-10-15T15:44:43Z</time>
      </trkpt>
      <trkpt lat="47.65031" lon="6.19125">
        <ele>265</ele>
        <time>2018-10-15T15:44:45Z</time>
      </trkpt>
      <trkpt lat="47.65028" lon="6.1912">
        <ele>265</ele>
        <time>2018-10-15T15:44:46Z</time>
      </trkpt>
      <trkpt lat="47.65025" lon="6.19114">
        <ele>265</ele>
        <time>2018-10-15T15:44:47Z</time>
      </trkpt>
      <trkpt lat="47.65022" lon="6.19109">
        <ele>265</ele>
        <time>2018-10-15T15:44:48Z</time>
      </trkpt>
      <trkpt lat="47.65016" lon="6.191">
        <ele>265</ele>
        <time>2018-10-15T15:44:50Z</time>
      </trkpt>
      <trkpt lat="47.6501" lon="6.1909">
        <ele>265</ele>
        <time>2018-10-15T15:44:52Z</time>
      </trkpt>
      <trkpt lat="47.65004" lon="6.19081">
        <ele>264</ele>
        <time>2018-10-15T15:44:54Z</time>
      </trkpt>
      <trkpt lat="47.64999" lon="6.19072">
        <ele>263</ele>
        <time>2018-10-15T15:44:56Z</time>
      </trkpt>
      <trkpt lat="47.64995" lon="6.19062">
        <ele>263</ele>
        <time>2018-10-15T15:44:58Z</time>
      </trkpt>
      <trkpt lat="47.6499" lon="6.19053">
        <ele>263</ele>
        <time>2018-10-15T15:45:00Z</time>
      </trkpt>
      <trkpt lat="47.64985" lon="6.19045">
        <ele>263</ele>
        <time>2018-10-15T15:45:02Z</time>
      </trkpt>
      <trkpt lat="47.64981" lon="6.19036">
        <ele>263</ele>
        <time>2018-10-15T15:45:04Z</time>
      </trkpt>
      <trkpt lat="47.64977" lon="6.19027">
        <ele>263</ele>
        <time>2018-10-15T15:45:06Z</time>
      </trkpt>
      <trkpt lat="47.64973" lon="6.19018">
        <ele>263</ele>
        <time>2018-10-15T15:45:08Z</time>
      </trkpt>
      <trkpt lat="47.64968" lon="6.19009">
        <ele>263</ele>
        <time>2018-10-15T15:45:10Z</time>
      </trkpt>
      <trkpt lat="47.64963" lon="6.18999">
        <ele>263</ele>
        <time>2018-10-15T15:45:12Z</time>
      </trkpt>
      <trkpt lat="47.64958" lon="6.18989">
        <ele>263</ele>
        <time>2018-10-15T15:45:14Z</time>
      </trkpt>
      <trkpt lat="47.64952" lon="6.1898">
        <ele>263</ele>
        <time>2018-10-15T15:45:16Z</time>
      </trkpt>
      <trkpt lat="47.64947" lon="6.18971">
        <ele>263</ele>
        <time>2018-10-15T15:45:18Z</time>
      </trkpt>
      <trkpt lat="47.64943" lon="6.18962">
        <ele>263</ele>
        <time>2018-10-15T15:45:20Z</time>
      </trkpt>
      <trkpt lat="47.64936" lon="6.18953">
        <ele>263</ele>
        <time>2018-10-15T15:45:22Z</time>
      </trkpt>
      <trkpt lat="47.6493" lon="6.18945">
        <ele>263</ele>
        <time>2018-10-15T15:45:24Z</time>
      </trkpt>
      <trkpt lat="47.64924" lon="6.18935">
        <ele>263</ele>
        <time>2018-10-15T15:45:26Z</time>
      </trkpt>
      <trkpt lat="47.64919" lon="6.18926">
        <ele>262</ele>
        <time>2018-10-15T15:45:28Z</time>
      </trkpt>
      <trkpt lat="47.64913" lon="6.18917">
        <ele>262</ele>
        <time>2018-10-15T15:45:30Z</time>
      </trkpt>
      <trkpt lat="47.64907" lon="6.18908">
        <ele>261</ele>
        <time>2018-10-15T15:45:32Z</time>
      </trkpt>
      <trkpt lat="47.649" lon="6.18901">
        <ele>261</ele>
        <time>2018-10-15T15:45:34Z</time>
      </trkpt>
      <trkpt lat="47.64893" lon="6.18894">
        <ele>261</ele>
        <time>2018-10-15T15:45:36Z</time>
      </trkpt>
      <trkpt lat="47.64888" lon="6.18885">
        <ele>261</ele>
        <time>2018-10-15T15:45:38Z</time>
      </trkpt>
      <trkpt lat="47.64884" lon="6.18874">
        <ele>261</ele>
        <time>2018-10-15T15:45:40Z</time>
      </trkpt>
      <trkpt lat="47.64881" lon="6.18866">
        <ele>261</ele>
        <time>2018-10-15T15:45:42Z</time>
      </trkpt>
      <trkpt lat="47.64877" lon="6.18861">
        <ele>261</ele>
        <time>2018-10-15T15:45:44Z</time>
      </trkpt>
      <trkpt lat="47.6487" lon="6.18862">
        <ele>260</ele>
        <time>2018-10-15T15:45:46Z</time>
      </trkpt>
      <trkpt lat="47.64862" lon="6.18867">
        <ele>260</ele>
        <time>2018-10-15T15:45:48Z</time>
      </trkpt>
      <trkpt lat="47.64854" lon="6.18871">
        <ele>260</ele>
        <time>2018-10-15T15:45:50Z</time>
      </trkpt>
      <trkpt lat="47.64847" lon="6.18874">
        <ele>260</ele>
        <time>2018-10-15T15:45:52Z</time>
      </trkpt>
      <trkpt lat="47.64841" lon="6.18877">
        <ele>260</ele>
        <time>2018-10-15T15:45:54Z</time>
      </trkpt>
      <trkpt lat="47.64836" lon="6.18879">
        <ele>260</ele>
        <time>2018-10-15T15:45:56Z</time>
      </trkpt>
      <trkpt lat="47.64831" lon="6.18879">
        <ele>256</ele>
        <time>2018-10-15T15:45:58Z</time>
      </trkpt>
      <trkpt lat="47.64824" lon="6.18876">
        <ele>256</ele>
        <time>2018-10-15T15:45:59Z</time>
      </trkpt>
      <trkpt lat="47.64817" lon="6.18869">
        <ele>256</ele>
        <time>2018-10-15T15:46:01Z</time>
      </trkpt>
      <trkpt lat="47.6481" lon="6.18858">
        <ele>256</ele>
        <time>2018-10-15T15:46:03Z</time>
      </trkpt>
      <trkpt lat="47.64808" lon="6.18853">
        <ele>256</ele>
        <time>2018-10-15T15:46:04Z</time>
      </trkpt>
      <trkpt lat="47.64805" lon="6.18847">
        <ele>256</ele>
        <time>2018-10-15T15:46:05Z</time>
      </trkpt>
      <trkpt lat="47.64803" lon="6.18841">
        <ele>256</ele>
        <time>2018-10-15T15:46:06Z</time>
      </trkpt>
      <trkpt lat="47.64799" lon="6.18831">
        <ele>256</ele>
        <time>2018-10-15T15:46:08Z</time>
      </trkpt>
      <trkpt lat="47.64797" lon="6.18821">
        <ele>256</ele>
        <time>2018-10-15T15:46:10Z</time>
      </trkpt>
      <trkpt lat="47.64794" lon="6.18812">
        <ele>255</ele>
        <time>2018-10-15T15:46:12Z</time>
      </trkpt>
      <trkpt lat="47.64791" lon="6.18803">
        <ele>255</ele>
        <time>2018-10-15T15:46:15Z</time>
      </trkpt>
      <trkpt lat="47.64788" lon="6.18796">
        <ele>255</ele>
        <time>2018-10-15T15:46:17Z</time>
      </trkpt>
      <trkpt lat="47.64786" lon="6.18787">
        <ele>255</ele>
        <time>2018-10-15T15:46:19Z</time>
      </trkpt>
      <trkpt lat="47.64783" lon="6.18779">
        <ele>255</ele>
        <time>2018-10-15T15:46:21Z</time>
      </trkpt>
      <trkpt lat="47.6478" lon="6.18771">
        <ele>255</ele>
        <time>2018-10-15T15:46:23Z</time>
      </trkpt>
      <trkpt lat="47.64778" lon="6.18764">
        <ele>254</ele>
        <time>2018-10-15T15:46:25Z</time>
      </trkpt>
      <trkpt lat="47.64774" lon="6.18756">
        <ele>254</ele>
        <time>2018-10-15T15:46:27Z</time>
      </trkpt>
      <trkpt lat="47.6477" lon="6.18748">
        <ele>254</ele>
        <time>2018-10-15T15:46:29Z</time>
      </trkpt>
      <trkpt lat="47.64766" lon="6.1874">
        <ele>254</ele>
        <time>2018-10-15T15:46:31Z</time>
      </trkpt>
      <trkpt lat="47.64762" lon="6.18731">
        <ele>254</ele>
        <time>2018-10-15T15:46:33Z</time>
      </trkpt>
      <trkpt lat="47.64757" lon="6.18722">
        <ele>254</ele>
        <time>2018-10-15T15:46:35Z</time>
      </trkpt>
      <trkpt lat="47.64751" lon="6.18712">
        <ele>254</ele>
        <time>2018-10-15T15:46:37Z</time>
      </trkpt>
      <trkpt lat="47.64748" lon="6.18707">
        <ele>248</ele>
        <time>2018-10-15T15:46:38Z</time>
      </trkpt>
      <trkpt lat="47.64745" lon="6.18701">
        <ele>248</ele>
        <time>2018-10-15T15:46:39Z</time>
      </trkpt>
      <trkpt lat="47.6474" lon="6.18695">
        <ele>248</ele>
        <time>2018-10-15T15:46:41Z</time>
      </trkpt>
      <trkpt lat="47.64735" lon="6.18689">
        <ele>248</ele>
        <time>2018-10-15T15:46:43Z</time>
      </trkpt>
      <trkpt lat="47.6473" lon="6.18682">
        <ele>248</ele>
        <time>2018-10-15T15:46:45Z</time>
      </trkpt>
      <trkpt lat="47.64725" lon="6.18676">
        <ele>248</ele>
        <time>2018-10-15T15:46:47Z</time>
      </trkpt>
      <trkpt lat="47.64721" lon="6.1867">
        <ele>248</ele>
        <time>2018-10-15T15:46:49Z</time>
      </trkpt>
      <trkpt lat="47.64716" lon="6.18664">
        <ele>249</ele>
        <time>2018-10-15T15:46:51Z</time>
      </trkpt>
      <trkpt lat="47.64711" lon="6.18659">
        <ele>249</ele>
        <time>2018-10-15T15:46:53Z</time>
      </trkpt>
      <trkpt lat="47.64706" lon="6.18653">
        <ele>249</ele>
        <time>2018-10-15T15:46:55Z</time>
      </trkpt>
      <trkpt lat="47.64698" lon="6.18648">
        <ele>248</ele>
        <time>2018-10-15T15:46:57Z</time>
      </trkpt>
      <trkpt lat="47.64689" lon="6.18645">
        <ele>248</ele>
        <time>2018-10-15T15:46:59Z</time>
      </trkpt>
      <trkpt lat="47.64681" lon="6.18642">
        <ele>247</ele>
        <time>2018-10-15T15:47:01Z</time>
      </trkpt>
      <trkpt lat="47.64676" lon="6.18641">
        <ele>247</ele>
        <time>2018-10-15T15:47:02Z</time>
      </trkpt>
      <trkpt lat="47.64671" lon="6.18641">
        <ele>247</ele>
        <time>2018-10-15T15:47:03Z</time>
      </trkpt>
      <trkpt lat="47.64666" lon="6.18639">
        <ele>242</ele>
        <time>2018-10-15T15:47:04Z</time>
      </trkpt>
      <trkpt lat="47.64654" lon="6.18634">
        <ele>242</ele>
        <time>2018-10-15T15:47:05Z</time>
      </trkpt>
      <trkpt lat="47.6465" lon="6.1863">
        <ele>242</ele>
        <time>2018-10-15T15:47:06Z</time>
      </trkpt>
      <trkpt lat="47.64645" lon="6.18626">
        <ele>242</ele>
        <time>2018-10-15T15:47:07Z</time>
      </trkpt>
      <trkpt lat="47.6464" lon="6.18623">
        <ele>242</ele>
        <time>2018-10-15T15:47:08Z</time>
      </trkpt>
      <trkpt lat="47.64636" lon="6.18619">
        <ele>242</ele>
        <time>2018-10-15T15:47:09Z</time>
      </trkpt>
      <trkpt lat="47.64632" lon="6.18616">
        <ele>242</ele>
        <time>2018-10-15T15:47:10Z</time>
      </trkpt>
      <trkpt lat="47.64625" lon="6.1861">
        <ele>242</ele>
        <time>2018-10-15T15:47:12Z</time>
      </trkpt>
      <trkpt lat="47.64619" lon="6.18606">
        <ele>242</ele>
        <time>2018-10-15T15:47:14Z</time>
      </trkpt>
      <trkpt lat="47.64613" lon="6.18604">
        <ele>242</ele>
        <time>2018-10-15T15:47:16Z</time>
      </trkpt>
      <trkpt lat="47.64608" lon="6.18601">
        <ele>242</ele>
        <time>2018-10-15T15:47:18Z</time>
      </trkpt>
      <trkpt lat="47.64603" lon="6.18598">
        <ele>242</ele>
        <time>2018-10-15T15:47:21Z</time>
      </trkpt>
      <trkpt lat="47.64598" lon="6.18594">
        <ele>242</ele>
        <time>2018-10-15T15:47:24Z</time>
      </trkpt>
      <trkpt lat="47.64593" lon="6.1859">
        <ele>242</ele>
        <time>2018-10-15T15:47:27Z</time>
      </trkpt>
      <trkpt lat="47.64589" lon="6.18586">
        <ele>243</ele>
        <time>2018-10-15T15:47:30Z</time>
      </trkpt>
      <trkpt lat="47.64585" lon="6.18581">
        <ele>244</ele>
        <time>2018-10-15T15:47:34Z</time>
      </trkpt>
      <trkpt lat="47.64582" lon="6.18576">
        <ele>243</ele>
        <time>2018-10-15T15:47:37Z</time>
      </trkpt>
      <trkpt lat="47.64577" lon="6.18571">
        <ele>243</ele>
        <time>2018-10-15T15:47:40Z</time>
      </trkpt>
      <trkpt lat="47.64571" lon="6.18569">
        <ele>243</ele>
        <time>2018-10-15T15:47:43Z</time>
      </trkpt>
      <trkpt lat="47.64564" lon="6.18567">
        <ele>243</ele>
        <time>2018-10-15T15:47:46Z</time>
      </trkpt>
      <trkpt lat="47.6456" lon="6.18564">
        <ele>243</ele>
        <time>2018-10-15T15:47:48Z</time>
      </trkpt>
      <trkpt lat="47.64554" lon="6.18561">
        <ele>243</ele>
        <time>2018-10-15T15:47:50Z</time>
      </trkpt>
      <trkpt lat="47.64548" lon="6.18557">
        <ele>243</ele>
        <time>2018-10-15T15:47:52Z</time>
      </trkpt>
      <trkpt lat="47.64543" lon="6.18552">
        <ele>243</ele>
        <time>2018-10-15T15:47:53Z</time>
      </trkpt>
      <trkpt lat="47.64537" lon="6.18549">
        <ele>243</ele>
        <time>2018-10-15T15:47:54Z</time>
      </trkpt>
      <trkpt lat="47.64529" lon="6.18544">
        <ele>243</ele>
        <time>2018-10-15T15:47:56Z</time>
      </trkpt>
      <trkpt lat="47.64524" lon="6.18542">
        <ele>243</ele>
        <time>2018-10-15T15:47:57Z</time>
      </trkpt>
      <trkpt lat="47.64519" lon="6.18541">
        <ele>243</ele>
        <time>2018-10-15T15:47:58Z</time>
      </trkpt>
      <trkpt lat="47.64515" lon="6.18539">
        <ele>243</ele>
        <time>2018-10-15T15:47:59Z</time>
      </trkpt>
      <trkpt lat="47.64508" lon="6.18538">
        <ele>243</ele>
        <time>2018-10-15T15:48:01Z</time>
      </trkpt>
      <trkpt lat="47.64502" lon="6.18538">
        <ele>243</ele>
        <time>2018-10-15T15:48:03Z</time>
      </trkpt>
      <trkpt lat="47.64497" lon="6.18539">
        <ele>239</ele>
        <time>2018-10-15T15:48:04Z</time>
      </trkpt>
      <trkpt lat="47.64491" lon="6.18538">
        <ele>238</ele>
        <time>2018-10-15T15:48:06Z</time>
      </trkpt>
      <trkpt lat="47.64485" lon="6.18534">
        <ele>239</ele>
        <time>2018-10-15T15:48:08Z</time>
      </trkpt>
      <trkpt lat="47.64476" lon="6.18524">
        <ele>239</ele>
        <time>2018-10-15T15:48:10Z</time>
      </trkpt>
      <trkpt lat="47.64471" lon="6.18521">
        <ele>239</ele>
        <time>2018-10-15T15:48:11Z</time>
      </trkpt>
      <trkpt lat="47.64467" lon="6.18518">
        <ele>239</ele>
        <time>2018-10-15T15:48:12Z</time>
      </trkpt>
      <trkpt lat="47.64462" lon="6.18514">
        <ele>239</ele>
        <time>2018-10-15T15:48:13Z</time>
      </trkpt>
      <trkpt lat="47.64459" lon="6.1851">
        <ele>238</ele>
        <time>2018-10-15T15:48:14Z</time>
      </trkpt>
      <trkpt lat="47.64452" lon="6.18503">
        <ele>238</ele>
        <time>2018-10-15T15:48:16Z</time>
      </trkpt>
      <trkpt lat="47.64446" lon="6.18497">
        <ele>242</ele>
        <time>2018-10-15T15:48:18Z</time>
      </trkpt>
      <trkpt lat="47.64441" lon="6.18491">
        <ele>241</ele>
        <time>2018-10-15T15:48:20Z</time>
      </trkpt>
      <trkpt lat="47.64437" lon="6.18486">
        <ele>241</ele>
        <time>2018-10-15T15:48:22Z</time>
      </trkpt>
      <trkpt lat="47.64432" lon="6.18483">
        <ele>241</ele>
        <time>2018-10-15T15:48:24Z</time>
      </trkpt>
      <trkpt lat="47.64427" lon="6.18479">
        <ele>240</ele>
        <time>2018-10-15T15:48:27Z</time>
      </trkpt>
      <trkpt lat="47.64422" lon="6.18477">
        <ele>240</ele>
        <time>2018-10-15T15:48:29Z</time>
      </trkpt>
      <trkpt lat="47.64417" lon="6.18476">
        <ele>233</ele>
        <time>2018-10-15T15:48:31Z</time>
      </trkpt>
      <trkpt lat="47.64409" lon="6.18474">
        <ele>233</ele>
        <time>2018-10-15T15:48:33Z</time>
      </trkpt>
      <trkpt lat="47.64401" lon="6.18472">
        <ele>232</ele>
        <time>2018-10-15T15:48:35Z</time>
      </trkpt>
      <trkpt lat="47.64394" lon="6.1847">
        <ele>232</ele>
        <time>2018-10-15T15:48:37Z</time>
      </trkpt>
      <trkpt lat="47.64387" lon="6.18469">
        <ele>231</ele>
        <time>2018-10-15T15:48:39Z</time>
      </trkpt>
      <trkpt lat="47.64379" lon="6.18469">
        <ele>230</ele>
        <time>2018-10-15T15:48:41Z</time>
      </trkpt>
      <trkpt lat="47.64371" lon="6.18466">
        <ele>230</ele>
        <time>2018-10-15T15:48:43Z</time>
      </trkpt>
      <trkpt lat="47.64364" lon="6.18461">
        <ele>229</ele>
        <time>2018-10-15T15:48:45Z</time>
      </trkpt>
      <trkpt lat="47.64357" lon="6.18456">
        <ele>228</ele>
        <time>2018-10-15T15:48:47Z</time>
      </trkpt>
      <trkpt lat="47.64349" lon="6.18449">
        <ele>228</ele>
        <time>2018-10-15T15:48:49Z</time>
      </trkpt>
      <trkpt lat="47.64343" lon="6.18442">
        <ele>227</ele>
        <time>2018-10-15T15:48:51Z</time>
      </trkpt>
      <trkpt lat="47.64338" lon="6.18433">
        <ele>226</ele>
        <time>2018-10-15T15:48:53Z</time>
      </trkpt>
      <trkpt lat="47.64337" lon="6.18424">
        <ele>224</ele>
        <time>2018-10-15T15:48:55Z</time>
      </trkpt>
      <trkpt lat="47.6434" lon="6.18415">
        <ele>223</ele>
        <time>2018-10-15T15:48:57Z</time>
      </trkpt>
      <trkpt lat="47.64344" lon="6.18407">
        <ele>224</ele>
        <time>2018-10-15T15:48:59Z</time>
      </trkpt>
      <trkpt lat="47.64348" lon="6.18398">
        <ele>225</ele>
        <time>2018-10-15T15:49:01Z</time>
      </trkpt>
      <trkpt lat="47.64353" lon="6.18389">
        <ele>226</ele>
        <time>2018-10-15T15:49:03Z</time>
      </trkpt>
      <trkpt lat="47.64359" lon="6.18379">
        <ele>226</ele>
        <time>2018-10-15T15:49:04Z</time>
      </trkpt>
      <trkpt lat="47.64365" lon="6.18373">
        <ele>227</ele>
        <time>2018-10-15T15:49:06Z</time>
      </trkpt>
      <trkpt lat="47.64371" lon="6.18367">
        <ele>227</ele>
        <time>2018-10-15T15:49:08Z</time>
      </trkpt>
      <trkpt lat="47.64379" lon="6.18362">
        <ele>227</ele>
        <time>2018-10-15T15:49:10Z</time>
      </trkpt>
      <trkpt lat="47.64386" lon="6.18356">
        <ele>227</ele>
        <time>2018-10-15T15:49:12Z</time>
      </trkpt>
      <trkpt lat="47.64391" lon="6.1835">
        <ele>227</ele>
        <time>2018-10-15T15:49:14Z</time>
      </trkpt>
      <trkpt lat="47.64397" lon="6.18344">
        <ele>228</ele>
        <time>2018-10-15T15:49:16Z</time>
      </trkpt>
      <trkpt lat="47.64402" lon="6.1834">
        <ele>228</ele>
        <time>2018-10-15T15:49:18Z</time>
      </trkpt>
      <trkpt lat="47.64406" lon="6.18336">
        <ele>228</ele>
        <time>2018-10-15T15:49:20Z</time>
      </trkpt>
      <trkpt lat="47.64411" lon="6.18331">
        <ele>227</ele>
        <time>2018-10-15T15:49:22Z</time>
      </trkpt>
      <trkpt lat="47.64415" lon="6.18326">
        <ele>227</ele>
        <time>2018-10-15T15:49:24Z</time>
      </trkpt>
      <trkpt lat="47.6442" lon="6.18321">
        <ele>229</ele>
        <time>2018-10-15T15:49:26Z</time>
      </trkpt>
      <trkpt lat="47.64424" lon="6.18316">
        <ele>230</ele>
        <time>2018-10-15T15:49:28Z</time>
      </trkpt>
      <trkpt lat="47.64429" lon="6.18312">
        <ele>230</ele>
        <time>2018-10-15T15:49:30Z</time>
      </trkpt>
      <trkpt lat="47.64433" lon="6.18306">
        <ele>230</ele>
        <time>2018-10-15T15:49:32Z</time>
      </trkpt>
      <trkpt lat="47.64431" lon="6.18296">
        <ele>230</ele>
        <time>2018-10-15T15:49:34Z</time>
      </trkpt>
      <trkpt lat="47.64426" lon="6.18287">
        <ele>229</ele>
        <time>2018-10-15T15:49:36Z</time>
      </trkpt>
      <trkpt lat="47.6442" lon="6.18278">
        <ele>228</ele>
        <time>2018-10-15T15:49:38Z</time>
      </trkpt>
      <trkpt lat="47.64415" lon="6.18271">
        <ele>223</ele>
        <time>2018-10-15T15:49:40Z</time>
      </trkpt>
      <trkpt lat="47.64409" lon="6.18265">
        <ele>223</ele>
        <time>2018-10-15T15:49:42Z</time>
      </trkpt>
      <trkpt lat="47.64403" lon="6.18259">
        <ele>223</ele>
        <time>2018-10-15T15:49:44Z</time>
      </trkpt>
      <trkpt lat="47.64397" lon="6.18253">
        <ele>223</ele>
        <time>2018-10-15T15:49:46Z</time>
      </trkpt>
      <trkpt lat="47.64391" lon="6.18246">
        <ele>222</ele>
        <time>2018-10-15T15:49:48Z</time>
      </trkpt>
      <trkpt lat="47.64384" lon="6.18238">
        <ele>222</ele>
        <time>2018-10-15T15:49:49Z</time>
      </trkpt>
      <trkpt lat="47.64378" lon="6.1823">
        <ele>222</ele>
        <time>2018-10-15T15:49:51Z</time>
      </trkpt>
      <trkpt lat="47.64371" lon="6.18223">
        <ele>222</ele>
        <time>2018-10-15T15:49:53Z</time>
      </trkpt>
      <trkpt lat="47.64366" lon="6.18216">
        <ele>222</ele>
        <time>2018-10-15T15:49:55Z</time>
      </trkpt>
      <trkpt lat="47.64361" lon="6.1821">
        <ele>222</ele>
        <time>2018-10-15T15:49:58Z</time>
      </trkpt>
      <trkpt lat="47.64357" lon="6.18205">
        <ele>222</ele>
        <time>2018-10-15T15:50:00Z</time>
      </trkpt>
      <trkpt lat="47.64353" lon="6.18201">
        <ele>222</ele>
        <time>2018-10-15T15:50:02Z</time>
      </trkpt>
      <trkpt lat="47.64347" lon="6.18195">
        <ele>222</ele>
        <time>2018-10-15T15:50:05Z</time>
      </trkpt>
      <trkpt lat="47.64342" lon="6.1819">
        <ele>222</ele>
        <time>2018-10-15T15:50:07Z</time>
      </trkpt>
      <trkpt lat="47.64335" lon="6.18187">
        <ele>223</ele>
        <time>2018-10-15T15:50:09Z</time>
      </trkpt>
      <trkpt lat="47.64328" lon="6.18185">
        <ele>222</ele>
        <time>2018-10-15T15:50:11Z</time>
      </trkpt>
      <trkpt lat="47.64321" lon="6.18184">
        <ele>222</ele>
        <time>2018-10-15T15:50:13Z</time>
      </trkpt>
      <trkpt lat="47.64313" lon="6.18186">
        <ele>222</ele>
        <time>2018-10-15T15:50:15Z</time>
      </trkpt>
      <trkpt lat="47.64305" lon="6.18189">
        <ele>222</ele>
        <time>2018-10-15T15:50:17Z</time>
      </trkpt>
      <trkpt lat="47.643" lon="6.18192">
        <ele>222</ele>
        <time>2018-10-15T15:50:19Z</time>
      </trkpt>
      <trkpt lat="47.64294" lon="6.18194">
        <ele>222</ele>
        <time>2018-10-15T15:50:21Z</time>
      </trkpt>
      <trkpt lat="47.64289" lon="6.18197">
        <ele>222</ele>
        <time>2018-10-15T15:50:23Z</time>
      </trkpt>
      <trkpt lat="47.64285" lon="6.182">
        <ele>222</ele>
        <time>2018-10-15T15:50:25Z</time>
      </trkpt>
      <trkpt lat="47.64278" lon="6.18203">
        <ele>222</ele>
        <time>2018-10-15T15:50:28Z</time>
      </trkpt>
      <trkpt lat="47.64274" lon="6.18206">
        <ele>222</ele>
        <time>2018-10-15T15:50:30Z</time>
      </trkpt>
      <trkpt lat="47.64268" lon="6.1821">
        <ele>222</ele>
        <time>2018-10-15T15:50:33Z</time>
      </trkpt>
      <trkpt lat="47.64262" lon="6.18215">
        <ele>222</ele>
        <time>2018-10-15T15:50:35Z</time>
      </trkpt>
      <trkpt lat="47.64257" lon="6.18219">
        <ele>222</ele>
        <time>2018-10-15T15:50:37Z</time>
      </trkpt>
      <trkpt lat="47.64253" lon="6.18222">
        <ele>222</ele>
        <time>2018-10-15T15:50:39Z</time>
      </trkpt>
      <trkpt lat="47.64249" lon="6.18226">
        <ele>222</ele>
        <time>2018-10-15T15:50:41Z</time>
      </trkpt>
      <trkpt lat="47.64243" lon="6.18233">
        <ele>222</ele>
        <time>2018-10-15T15:50:43Z</time>
      </trkpt>
      <trkpt lat="47.64239" lon="6.18237">
        <ele>222</ele>
        <time>2018-10-15T15:50:45Z</time>
      </trkpt>
      <trkpt lat="47.64235" lon="6.18242">
        <ele>222</ele>
        <time>2018-10-15T15:50:47Z</time>
      </trkpt>
      <trkpt lat="47.6423" lon="6.18246">
        <ele>222</ele>
        <time>2018-10-15T15:50:49Z</time>
      </trkpt>
      <trkpt lat="47.64227" lon="6.18251">
        <ele>223</ele>
        <time>2018-10-15T15:50:51Z</time>
      </trkpt>
      <trkpt lat="47.64222" lon="6.18258">
        <ele>223</ele>
        <time>2018-10-15T15:50:54Z</time>
      </trkpt>
      <trkpt lat="47.64219" lon="6.18264">
        <ele>224</ele>
        <time>2018-10-15T15:50:56Z</time>
      </trkpt>
      <trkpt lat="47.64219" lon="6.18272">
        <ele>224</ele>
        <time>2018-10-15T15:50:58Z</time>
      </trkpt>
      <trkpt lat="47.64222" lon="6.1828">
        <ele>224</ele>
        <time>2018-10-15T15:51:00Z</time>
      </trkpt>
      <trkpt lat="47.64227" lon="6.18282">
        <ele>224</ele>
        <time>2018-10-15T15:51:02Z</time>
      </trkpt>
      <trkpt lat="47.64233" lon="6.18281">
        <ele>224</ele>
        <time>2018-10-15T15:51:04Z</time>
      </trkpt>
      <trkpt lat="47.6424" lon="6.18281">
        <ele>224</ele>
        <time>2018-10-15T15:51:06Z</time>
      </trkpt>
      <trkpt lat="47.64247" lon="6.18282">
        <ele>223</ele>
        <time>2018-10-15T15:51:08Z</time>
      </trkpt>
      <trkpt lat="47.64253" lon="6.18285">
        <ele>222</ele>
        <time>2018-10-15T15:51:10Z</time>
      </trkpt>
      <trkpt lat="47.64258" lon="6.18288">
        <ele>222</ele>
        <time>2018-10-15T15:51:12Z</time>
      </trkpt>
      <trkpt lat="47.64264" lon="6.18291">
        <ele>222</ele>
        <time>2018-10-15T15:51:15Z</time>
      </trkpt>
      <trkpt lat="47.6427" lon="6.18294">
        <ele>222</ele>
        <time>2018-10-15T15:51:18Z</time>
      </trkpt>
      <trkpt lat="47.64276" lon="6.18298">
        <ele>222</ele>
        <time>2018-10-15T15:51:20Z</time>
      </trkpt>
      <trkpt lat="47.64283" lon="6.18304">
        <ele>222</ele>
        <time>2018-10-15T15:51:22Z</time>
      </trkpt>
      <trkpt lat="47.64288" lon="6.1831">
        <ele>222</ele>
        <time>2018-10-15T15:51:24Z</time>
      </trkpt>
      <trkpt lat="47.64293" lon="6.18314">
        <ele>221</ele>
        <time>2018-10-15T15:51:26Z</time>
      </trkpt>
      <trkpt lat="47.64297" lon="6.18319">
        <ele>221</ele>
        <time>2018-10-15T15:51:28Z</time>
      </trkpt>
      <trkpt lat="47.64301" lon="6.18324">
        <ele>221</ele>
        <time>2018-10-15T15:51:30Z</time>
      </trkpt>
      <trkpt lat="47.64305" lon="6.18329">
        <ele>221</ele>
        <time>2018-10-15T15:51:32Z</time>
      </trkpt>
      <trkpt lat="47.6431" lon="6.18334">
        <ele>222</ele>
        <time>2018-10-15T15:51:34Z</time>
      </trkpt>
      <trkpt lat="47.64315" lon="6.1834">
        <ele>222</ele>
        <time>2018-10-15T15:51:36Z</time>
      </trkpt>
      <trkpt lat="47.6432" lon="6.18346">
        <ele>222</ele>
        <time>2018-10-15T15:51:38Z</time>
      </trkpt>
      <trkpt lat="47.64325" lon="6.18353">
        <ele>222</ele>
        <time>2018-10-15T15:51:40Z</time>
      </trkpt>
      <trkpt lat="47.64331" lon="6.1836">
        <ele>222</ele>
        <time>2018-10-15T15:51:42Z</time>
      </trkpt>
      <trkpt lat="47.64336" lon="6.18365">
        <ele>225</ele>
        <time>2018-10-15T15:51:43Z</time>
      </trkpt>
      <trkpt lat="47.64341" lon="6.1837">
        <ele>225</ele>
        <time>2018-10-15T15:51:45Z</time>
      </trkpt>
      <trkpt lat="47.64345" lon="6.18376">
        <ele>225</ele>
        <time>2018-10-15T15:51:47Z</time>
      </trkpt>
      <trkpt lat="47.6435" lon="6.18381">
        <ele>226</ele>
        <time>2018-10-15T15:51:50Z</time>
      </trkpt>
      <trkpt lat="47.64356" lon="6.18382">
        <ele>226</ele>
        <time>2018-10-15T15:51:53Z</time>
      </trkpt>
      <trkpt lat="47.64361" lon="6.18379">
        <ele>226</ele>
        <time>2018-10-15T15:51:55Z</time>
      </trkpt>
      <trkpt lat="47.64366" lon="6.18376">
        <ele>227</ele>
        <time>2018-10-15T15:51:57Z</time>
      </trkpt>
      <trkpt lat="47.6437" lon="6.18372">
        <ele>227</ele>
        <time>2018-10-15T15:51:59Z</time>
      </trkpt>
      <trkpt lat="47.64375" lon="6.18368">
        <ele>227</ele>
        <time>2018-10-15T15:52:01Z</time>
      </trkpt>
      <trkpt lat="47.6438" lon="6.18363">
        <ele>227</ele>
        <time>2018-10-15T15:52:03Z</time>
      </trkpt>
      <trkpt lat="47.64384" lon="6.18359">
        <ele>227</ele>
        <time>2018-10-15T15:52:05Z</time>
      </trkpt>
      <trkpt lat="47.64389" lon="6.18354">
        <ele>227</ele>
        <time>2018-10-15T15:52:07Z</time>
      </trkpt>
      <trkpt lat="47.64395" lon="6.18349">
        <ele>228</ele>
        <time>2018-10-15T15:52:10Z</time>
      </trkpt>
      <trkpt lat="47.64399" lon="6.18344">
        <ele>228</ele>
        <time>2018-10-15T15:52:12Z</time>
      </trkpt>
      <trkpt lat="47.64403" lon="6.18339">
        <ele>228</ele>
        <time>2018-10-15T15:52:14Z</time>
      </trkpt>
      <trkpt lat="47.64408" lon="6.18336">
        <ele>228</ele>
        <time>2018-10-15T15:52:16Z</time>
      </trkpt>
      <trkpt lat="47.64411" lon="6.18332">
        <ele>227</ele>
        <time>2018-10-15T15:52:18Z</time>
      </trkpt>
      <trkpt lat="47.64417" lon="6.18328">
        <ele>229</ele>
        <time>2018-10-15T15:52:21Z</time>
      </trkpt>
      <trkpt lat="47.64421" lon="6.18322">
        <ele>229</ele>
        <time>2018-10-15T15:52:24Z</time>
      </trkpt>
      <trkpt lat="47.64425" lon="6.18316">
        <ele>230</ele>
        <time>2018-10-15T15:52:27Z</time>
      </trkpt>
      <trkpt lat="47.64429" lon="6.18308">
        <ele>230</ele>
        <time>2018-10-15T15:52:30Z</time>
      </trkpt>
      <trkpt lat="47.64431" lon="6.18301">
        <ele>230</ele>
        <time>2018-10-15T15:52:32Z</time>
      </trkpt>
      <trkpt lat="47.64436" lon="6.18304">
        <ele>230</ele>
        <time>2018-10-15T15:52:58Z</time>
      </trkpt>
      <trkpt lat="47.64438" lon="6.18311">
        <ele>231</ele>
        <time>2018-10-15T15:53:01Z</time>
      </trkpt>
      <trkpt lat="47.64436" lon="6.18318">
        <ele>230</ele>
        <time>2018-10-15T15:53:05Z</time>
      </trkpt>
    </trkseg>
  </trk>
</gpx>